<?xml version="1.0" encoding="UTF-8"?>
<gpx version="1.1" creator="https://www.youtrack.es" xsi:schemaLocation="http://www.topografix.com/GPX/1/1 http://www.topografix.com/GPX/1/1/gpx.xsd http://www.garmin.com/xmlschemas/GpxExtensions/v3 http://www.garmin.com/xmlschemas/GpxExtensionsv3.xsd http://www.garmin.com/xmlschemas/TrackPointExtension/v1 http://www.garmin.com/xmlschemas/TrackPointExtensionv1.xsd" xmlns:gpxtpx="http://www.garmin.com/xmlschemas/TrackPointExtension/v1" xmlns:gpxx="http://www.garmin.com/xmlschemas/GpxExtensions/v3" xmlns:xsi="http://www.w3.org/2001/XMLSchema-instance">
  <metadata>
    <author>
      <name>Diego Tirado Sánchez</name>
      <email id="diots" domain="hotmail.com"/>
    </author>
    <link href="https://www.youtrack.es">
      <text>YouTrack.es</text>
    </link>
    <time>2026-05-08T21:06:24Z</time>
  </metadata>
  <trk>
    <src>https://www.youtrack.es</src>
    <link href="https://www.youtrack.es/ruta/779-la-molina-puigmal">
      <text>YouTrack.es</text>
    </link>
    <trkseg>
      <trkpt lat="42.345048012211919" lon="1.956107039004564">
        <ele>1472</ele>
        <time>2016-06-13T14:33:51Z</time>
      </trkpt>
      <trkpt lat="42.345025967806578" lon="1.956208040937781">
        <ele>1463</ele>
        <time>2016-06-13T14:34:50Z</time>
      </trkpt>
      <trkpt lat="42.345024961978197" lon="1.956241987645626">
        <ele>1464</ele>
        <time>2016-06-13T14:34:51Z</time>
      </trkpt>
      <trkpt lat="42.345108026638627" lon="1.956275012344122">
        <ele>1462</ele>
        <time>2016-06-13T14:34:55Z</time>
      </trkpt>
      <trkpt lat="42.345127975568175" lon="1.956245005130768">
        <ele>1463</ele>
        <time>2016-06-13T14:34:56Z</time>
      </trkpt>
      <trkpt lat="42.345186984166503" lon="1.956165041774511">
        <ele>1462</ele>
        <time>2016-06-13T14:34:59Z</time>
      </trkpt>
      <trkpt lat="42.345203999429941" lon="1.956139979884028">
        <ele>1462</ele>
        <time>2016-06-13T14:35:00Z</time>
      </trkpt>
      <trkpt lat="42.345252027735114" lon="1.956059010699391">
        <ele>1463</ele>
        <time>2016-06-13T14:35:03Z</time>
      </trkpt>
      <trkpt lat="42.345268037170172" lon="1.956032020971179">
        <ele>1464</ele>
        <time>2016-06-13T14:35:04Z</time>
      </trkpt>
      <trkpt lat="42.345325034111738" lon="1.95595096796751">
        <ele>1466</ele>
        <time>2016-06-13T14:35:07Z</time>
      </trkpt>
      <trkpt lat="42.345344983041286" lon="1.955923978239298">
        <ele>1467</ele>
        <time>2016-06-13T14:35:08Z</time>
      </trkpt>
      <trkpt lat="42.345399968326092" lon="1.955834962427616">
        <ele>1471</ele>
        <time>2016-06-13T14:35:11Z</time>
      </trkpt>
      <trkpt lat="42.345417989417911" lon="1.955804033204913">
        <ele>1471</ele>
        <time>2016-06-13T14:35:12Z</time>
      </trkpt>
      <trkpt lat="42.345481021329761" lon="1.955723986029625">
        <ele>1471</ele>
        <time>2016-06-13T14:35:15Z</time>
      </trkpt>
      <trkpt lat="42.345503987744451" lon="1.955695990473032">
        <ele>1469</ele>
        <time>2016-06-13T14:35:16Z</time>
      </trkpt>
      <trkpt lat="42.345555033534765" lon="1.955619966611266">
        <ele>1468</ele>
        <time>2016-06-13T14:35:18Z</time>
      </trkpt>
      <trkpt lat="42.345576994121075" lon="1.955575039610267">
        <ele>1469</ele>
        <time>2016-06-13T14:35:19Z</time>
      </trkpt>
      <trkpt lat="42.345619993284345" lon="1.95547697134316">
        <ele>1467</ele>
        <time>2016-06-13T14:35:21Z</time>
      </trkpt>
      <trkpt lat="42.345643965527415" lon="1.95543103851378">
        <ele>1466</ele>
        <time>2016-06-13T14:35:22Z</time>
      </trkpt>
      <trkpt lat="42.345696017146111" lon="1.955346968024969">
        <ele>1467</ele>
        <time>2016-06-13T14:35:24Z</time>
      </trkpt>
      <trkpt lat="42.345724012702703" lon="1.955307992175221">
        <ele>1467</ele>
        <time>2016-06-13T14:35:25Z</time>
      </trkpt>
      <trkpt lat="42.345782015472651" lon="1.955230040475726">
        <ele>1467</ele>
        <time>2016-06-13T14:35:27Z</time>
      </trkpt>
      <trkpt lat="42.345810011029243" lon="1.955191986635327">
        <ele>1466</ele>
        <time>2016-06-13T14:35:28Z</time>
      </trkpt>
      <trkpt lat="42.345870025455952" lon="1.955115962773562">
        <ele>1467</ele>
        <time>2016-06-13T14:35:30Z</time>
      </trkpt>
      <trkpt lat="42.345903972163796" lon="1.955078998580575">
        <ele>1469</ele>
        <time>2016-06-13T14:35:31Z</time>
      </trkpt>
      <trkpt lat="42.345965998247266" lon="1.954997023567557">
        <ele>1469</ele>
        <time>2016-06-13T14:35:33Z</time>
      </trkpt>
      <trkpt lat="42.345994999632239" lon="1.954953018575907">
        <ele>1468</ele>
        <time>2016-06-13T14:35:34Z</time>
      </trkpt>
      <trkpt lat="42.346056019887328" lon="1.954872971400619">
        <ele>1468</ele>
        <time>2016-06-13T14:35:36Z</time>
      </trkpt>
      <trkpt lat="42.346085021272302" lon="1.954837013036013">
        <ele>1469</ele>
        <time>2016-06-13T14:35:37Z</time>
      </trkpt>
      <trkpt lat="42.346151992678642" lon="1.954795019701123">
        <ele>1470</ele>
        <time>2016-06-13T14:35:39Z</time>
      </trkpt>
      <trkpt lat="42.346174037083983" lon="1.95478999055922">
        <ele>1467</ele>
        <time>2016-06-13T14:35:40Z</time>
      </trkpt>
      <trkpt lat="42.346243020147085" lon="1.954768029972911">
        <ele>1468</ele>
        <time>2016-06-13T14:35:43Z</time>
      </trkpt>
      <trkpt lat="42.346265986561775" lon="1.954760989174247">
        <ele>1469</ele>
        <time>2016-06-13T14:35:44Z</time>
      </trkpt>
      <trkpt lat="42.346335975453258" lon="1.954737016931176">
        <ele>1467</ele>
        <time>2016-06-13T14:35:47Z</time>
      </trkpt>
      <trkpt lat="42.34636003151536" lon="1.954739028587937">
        <ele>1467</ele>
        <time>2016-06-13T14:35:48Z</time>
      </trkpt>
      <trkpt lat="42.346434965729713" lon="1.954768029972911">
        <ele>1465</ele>
        <time>2016-06-13T14:35:51Z</time>
      </trkpt>
      <trkpt lat="42.346460027620196" lon="1.954779010266066">
        <ele>1465</ele>
        <time>2016-06-13T14:35:52Z</time>
      </trkpt>
      <trkpt lat="42.346523981541395" lon="1.95483198389411">
        <ele>1464</ele>
        <time>2016-06-13T14:35:55Z</time>
      </trkpt>
      <trkpt lat="42.346543008461595" lon="1.954843970015645">
        <ele>1464</ele>
        <time>2016-06-13T14:35:56Z</time>
      </trkpt>
      <trkpt lat="42.34655499458313" lon="1.954735005274415">
        <ele>1465</ele>
        <time>2016-06-13T14:36:04Z</time>
      </trkpt>
      <trkpt lat="42.346529010683298" lon="1.954722013324499">
        <ele>1465</ele>
        <time>2016-06-13T14:36:05Z</time>
      </trkpt>
      <trkpt lat="42.346478970721364" lon="1.95463802665472">
        <ele>1464</ele>
        <time>2016-06-13T14:36:08Z</time>
      </trkpt>
      <trkpt lat="42.346488023176789" lon="1.954605001956224">
        <ele>1464</ele>
        <time>2016-06-13T14:36:09Z</time>
      </trkpt>
      <trkpt lat="42.346552982926369" lon="1.954536018893123">
        <ele>1464</ele>
        <time>2016-06-13T14:36:12Z</time>
      </trkpt>
      <trkpt lat="42.346573015674949" lon="1.954502994194627">
        <ele>1464</ele>
        <time>2016-06-13T14:36:13Z</time>
      </trkpt>
      <trkpt lat="42.3465979937464" lon="1.95444499142468">
        <ele>1464</ele>
        <time>2016-06-13T14:36:14Z</time>
      </trkpt>
      <trkpt lat="42.346620038151741" lon="1.954392017796636">
        <ele>1464</ele>
        <time>2016-06-13T14:36:15Z</time>
      </trkpt>
      <trkpt lat="42.346681980416179" lon="1.954325968399644">
        <ele>1464</ele>
        <time>2016-06-13T14:36:18Z</time>
      </trkpt>
      <trkpt lat="42.346693966537714" lon="1.954319011420012">
        <ele>1464</ele>
        <time>2016-06-13T14:36:19Z</time>
      </trkpt>
      <trkpt lat="42.346616014838219" lon="1.954367961734533">
        <ele>1464</ele>
        <time>2016-06-13T14:36:24Z</time>
      </trkpt>
      <trkpt lat="42.346608974039555" lon="1.95440199226141">
        <ele>1461</ele>
        <time>2016-06-13T14:36:25Z</time>
      </trkpt>
      <trkpt lat="42.346574021503329" lon="1.95450902916491">
        <ele>1461</ele>
        <time>2016-06-13T14:36:29Z</time>
      </trkpt>
      <trkpt lat="42.346563041210175" lon="1.9545319955796">
        <ele>1461</ele>
        <time>2016-06-13T14:36:30Z</time>
      </trkpt>
      <trkpt lat="42.346506966277957" lon="1.954609025269747">
        <ele>1463</ele>
        <time>2016-06-13T14:36:35Z</time>
      </trkpt>
      <trkpt lat="42.346497997641563" lon="1.954624028876424">
        <ele>1462</ele>
        <time>2016-06-13T14:36:36Z</time>
      </trkpt>
      <trkpt lat="42.34644996933639" lon="1.954716984182596">
        <ele>1464</ele>
        <time>2016-06-13T14:36:42Z</time>
      </trkpt>
      <trkpt lat="42.346457010135055" lon="1.954733999446034">
        <ele>1465</ele>
        <time>2016-06-13T14:36:43Z</time>
      </trkpt>
      <trkpt lat="42.346518030390143" lon="1.954798959195614">
        <ele>1465</ele>
        <time>2016-06-13T14:36:48Z</time>
      </trkpt>
      <trkpt lat="42.346534039825201" lon="1.954818991944194">
        <ele>1465</ele>
        <time>2016-06-13T14:36:49Z</time>
      </trkpt>
      <trkpt lat="42.346616014838219" lon="1.954859979450703">
        <ele>1464</ele>
        <time>2016-06-13T14:36:53Z</time>
      </trkpt>
      <trkpt lat="42.346637975424528" lon="1.954851010814309">
        <ele>1463</ele>
        <time>2016-06-13T14:36:54Z</time>
      </trkpt>
      <trkpt lat="42.346702013164759" lon="1.954817986115813">
        <ele>1464</ele>
        <time>2016-06-13T14:36:57Z</time>
      </trkpt>
      <trkpt lat="42.346721962094307" lon="1.954802982509136">
        <ele>1464</ele>
        <time>2016-06-13T14:36:58Z</time>
      </trkpt>
      <trkpt lat="42.346784994006157" lon="1.95474699139595">
        <ele>1464</ele>
        <time>2016-06-13T14:37:01Z</time>
      </trkpt>
      <trkpt lat="42.346805026754737" lon="1.954726036638022">
        <ele>1465</ele>
        <time>2016-06-13T14:37:02Z</time>
      </trkpt>
      <trkpt lat="42.346868980675936" lon="1.954669961705804">
        <ele>1464</ele>
        <time>2016-06-13T14:37:05Z</time>
      </trkpt>
      <trkpt lat="42.346888007596135" lon="1.954646995291114">
        <ele>1464</ele>
        <time>2016-06-13T14:37:06Z</time>
      </trkpt>
      <trkpt lat="42.346937963739038" lon="1.954564014449716">
        <ele>1464</ele>
        <time>2016-06-13T14:37:09Z</time>
      </trkpt>
      <trkpt lat="42.346952967345715" lon="1.954533001407981">
        <ele>1464</ele>
        <time>2016-06-13T14:37:10Z</time>
      </trkpt>
      <trkpt lat="42.347000995650887" lon="1.954440968111157">
        <ele>1464</ele>
        <time>2016-06-13T14:37:13Z</time>
      </trkpt>
      <trkpt lat="42.347018010914326" lon="1.954410038888454">
        <ele>1463</ele>
        <time>2016-06-13T14:37:14Z</time>
      </trkpt>
      <trkpt lat="42.347056986764073" lon="1.954343989491463">
        <ele>1464</ele>
        <time>2016-06-13T14:37:16Z</time>
      </trkpt>
      <trkpt lat="42.347078025341034" lon="1.954309958964586">
        <ele>1464</ele>
        <time>2016-06-13T14:37:17Z</time>
      </trkpt>
      <trkpt lat="42.347129993140697" lon="1.954225972294807">
        <ele>1465</ele>
        <time>2016-06-13T14:37:19Z</time>
      </trkpt>
      <trkpt lat="42.347154971212149" lon="1.954182973131537">
        <ele>1465</ele>
        <time>2016-06-13T14:37:20Z</time>
      </trkpt>
      <trkpt lat="42.347197970375419" lon="1.954092029482126">
        <ele>1463</ele>
        <time>2016-06-13T14:37:22Z</time>
      </trkpt>
      <trkpt lat="42.347219008952379" lon="1.954046012833715">
        <ele>1462</ele>
        <time>2016-06-13T14:37:23Z</time>
      </trkpt>
      <trkpt lat="42.34726301394403" lon="1.953956997022033">
        <ele>1461</ele>
        <time>2016-06-13T14:37:25Z</time>
      </trkpt>
      <trkpt lat="42.347287992015481" lon="1.953915003687143">
        <ele>1461</ele>
        <time>2016-06-13T14:37:26Z</time>
      </trkpt>
      <trkpt lat="42.347342977300286" lon="1.953837973996997">
        <ele>1461</ele>
        <time>2016-06-13T14:37:28Z</time>
      </trkpt>
      <trkpt lat="42.347365021705627" lon="1.953793969005346">
        <ele>1461</ele>
        <time>2016-06-13T14:37:29Z</time>
      </trkpt>
      <trkpt lat="42.347408020868897" lon="1.953704031184316">
        <ele>1461</ele>
        <time>2016-06-13T14:37:31Z</time>
      </trkpt>
      <trkpt lat="42.347427969798446" lon="1.953657008707523">
        <ele>1460</ele>
        <time>2016-06-13T14:37:32Z</time>
      </trkpt>
      <trkpt lat="42.347467029467225" lon="1.953563969582319">
        <ele>1459</ele>
        <time>2016-06-13T14:37:34Z</time>
      </trkpt>
      <trkpt lat="42.347487984225154" lon="1.95352197624743">
        <ele>1458</ele>
        <time>2016-06-13T14:37:35Z</time>
      </trkpt>
      <trkpt lat="42.347534000873566" lon="1.953440001234412">
        <ele>1459</ele>
        <time>2016-06-13T14:37:37Z</time>
      </trkpt>
      <trkpt lat="42.347558978945017" lon="1.953403959050775">
        <ele>1460</ele>
        <time>2016-06-13T14:37:38Z</time>
      </trkpt>
      <trkpt lat="42.347628967836499" lon="1.953393984586">
        <ele>1462</ele>
        <time>2016-06-13T14:37:40Z</time>
      </trkpt>
      <trkpt lat="42.34765101224184" lon="1.953418962657452">
        <ele>1462</ele>
        <time>2016-06-13T14:37:41Z</time>
      </trkpt>
      <trkpt lat="42.347688982263207" lon="1.953519964590669">
        <ele>1464</ele>
        <time>2016-06-13T14:37:45Z</time>
      </trkpt>
      <trkpt lat="42.347699962556362" lon="1.953541003167629">
        <ele>1464</ele>
        <time>2016-06-13T14:37:46Z</time>
      </trkpt>
      <trkpt lat="42.34773701056838" lon="1.953630018979311">
        <ele>1463</ele>
        <time>2016-06-13T14:37:50Z</time>
      </trkpt>
      <trkpt lat="42.347746985033154" lon="1.953653991222382">
        <ele>1464</ele>
        <time>2016-06-13T14:37:51Z</time>
      </trkpt>
      <trkpt lat="42.347785038873553" lon="1.953752981498838">
        <ele>1461</ele>
        <time>2016-06-13T14:37:55Z</time>
      </trkpt>
      <trkpt lat="42.347796019166708" lon="1.95377703756094">
        <ele>1461</ele>
        <time>2016-06-13T14:37:56Z</time>
      </trkpt>
      <trkpt lat="42.347843963652849" lon="1.953870998695493">
        <ele>1459</ele>
        <time>2016-06-13T14:38:00Z</time>
      </trkpt>
      <trkpt lat="42.347853016108274" lon="1.953892959281802">
        <ele>1459</ele>
        <time>2016-06-13T14:38:01Z</time>
      </trkpt>
      <trkpt lat="42.347894003614783" lon="1.95397300645709">
        <ele>1461</ele>
        <time>2016-06-13T14:38:05Z</time>
      </trkpt>
      <trkpt lat="42.347904983907938" lon="1.95399203337729">
        <ele>1461</ele>
        <time>2016-06-13T14:38:06Z</time>
      </trkpt>
      <trkpt lat="42.347953012213111" lon="1.954073002561927">
        <ele>1460</ele>
        <time>2016-06-13T14:38:10Z</time>
      </trkpt>
      <trkpt lat="42.347961980849504" lon="1.954094041138887">
        <ele>1460</ele>
        <time>2016-06-13T14:38:11Z</time>
      </trkpt>
      <trkpt lat="42.348007997497916" lon="1.954184984788299">
        <ele>1463</ele>
        <time>2016-06-13T14:38:16Z</time>
      </trkpt>
      <trkpt lat="42.34801797196269" lon="1.954203005880117">
        <ele>1464</ele>
        <time>2016-06-13T14:38:17Z</time>
      </trkpt>
      <trkpt lat="42.348062982782722" lon="1.954281041398644">
        <ele>1459</ele>
        <time>2016-06-13T14:38:21Z</time>
      </trkpt>
      <trkpt lat="42.348075974732637" lon="1.954301996156573">
        <ele>1459</ele>
        <time>2016-06-13T14:38:22Z</time>
      </trkpt>
      <trkpt lat="42.348126014694571" lon="1.954378020018339">
        <ele>1457</ele>
        <time>2016-06-13T14:38:26Z</time>
      </trkpt>
      <trkpt lat="42.348139006644487" lon="1.954395035281777">
        <ele>1458</ele>
        <time>2016-06-13T14:38:27Z</time>
      </trkpt>
      <trkpt lat="42.348193991929293" lon="1.954477010294795">
        <ele>1457</ele>
        <time>2016-06-13T14:38:32Z</time>
      </trkpt>
      <trkpt lat="42.348203966394067" lon="1.954494025558233">
        <ele>1458</ele>
        <time>2016-06-13T14:38:33Z</time>
      </trkpt>
      <trkpt lat="42.348264986649156" lon="1.954582035541534">
        <ele>1461</ele>
        <time>2016-06-13T14:38:38Z</time>
      </trkpt>
      <trkpt lat="42.348277978599072" lon="1.954598966985941">
        <ele>1462</ele>
        <time>2016-06-13T14:38:39Z</time>
      </trkpt>
      <trkpt lat="42.348331036046147" lon="1.954669039696455">
        <ele>1463</ele>
        <time>2016-06-13T14:38:43Z</time>
      </trkpt>
      <trkpt lat="42.348345033824444" lon="1.9546839594841">
        <ele>1463</ele>
        <time>2016-06-13T14:38:44Z</time>
      </trkpt>
      <trkpt lat="42.348408987745643" lon="1.954752020537853">
        <ele>1464</ele>
        <time>2016-06-13T14:38:49Z</time>
      </trkpt>
      <trkpt lat="42.34842399135232" lon="1.954763000831008">
        <ele>1464</ele>
        <time>2016-06-13T14:38:50Z</time>
      </trkpt>
      <trkpt lat="42.348498003557324" lon="1.954825026914477">
        <ele>1462</ele>
        <time>2016-06-13T14:38:55Z</time>
      </trkpt>
      <trkpt lat="42.348512001335621" lon="1.954838018864393">
        <ele>1462</ele>
        <time>2016-06-13T14:38:56Z</time>
      </trkpt>
      <trkpt lat="42.348584001883864" lon="1.954879006370902">
        <ele>1464</ele>
        <time>2016-06-13T14:39:01Z</time>
      </trkpt>
      <trkpt lat="42.348599005490541" lon="1.954885041341186">
        <ele>1465</ele>
        <time>2016-06-13T14:39:02Z</time>
      </trkpt>
      <trkpt lat="42.34866295941174" lon="1.954943966120482">
        <ele>1466</ele>
        <time>2016-06-13T14:39:08Z</time>
      </trkpt>
      <trkpt lat="42.348674023523927" lon="1.954951006919146">
        <ele>1466</ele>
        <time>2016-06-13T14:39:09Z</time>
      </trkpt>
      <trkpt lat="42.348755998536944" lon="1.954971961677074">
        <ele>1467</ele>
        <time>2016-06-13T14:39:15Z</time>
      </trkpt>
      <trkpt lat="42.348769996315241" lon="1.954979002475739">
        <ele>1467</ele>
        <time>2016-06-13T14:39:16Z</time>
      </trkpt>
      <trkpt lat="42.348847026005387" lon="1.954973973333836">
        <ele>1469</ele>
        <time>2016-06-13T14:39:21Z</time>
      </trkpt>
      <trkpt lat="42.348861023783684" lon="1.954975984990597">
        <ele>1469</ele>
        <time>2016-06-13T14:39:22Z</time>
      </trkpt>
      <trkpt lat="42.348930006846786" lon="1.955031976103783">
        <ele>1469</ele>
        <time>2016-06-13T14:39:28Z</time>
      </trkpt>
      <trkpt lat="42.348938975483179" lon="1.955042034387589">
        <ele>1467</ele>
        <time>2016-06-13T14:39:29Z</time>
      </trkpt>
      <trkpt lat="42.34900401905179" lon="1.955125015228987">
        <ele>1468</ele>
        <time>2016-06-13T14:39:35Z</time>
      </trkpt>
      <trkpt lat="42.349010976031423" lon="1.955141024664044">
        <ele>1471</ele>
        <time>2016-06-13T14:39:36Z</time>
      </trkpt>
      <trkpt lat="42.349051963537931" lon="1.955238003283739">
        <ele>1467</ele>
        <time>2016-06-13T14:39:42Z</time>
      </trkpt>
      <trkpt lat="42.349060010164976" lon="1.955252001062036">
        <ele>1469</ele>
        <time>2016-06-13T14:39:43Z</time>
      </trkpt>
      <trkpt lat="42.349116001278162" lon="1.955335987731814">
        <ele>1474</ele>
        <time>2016-06-13T14:39:48Z</time>
      </trkpt>
      <trkpt lat="42.349125975742936" lon="1.955354008823633">
        <ele>1474</ele>
        <time>2016-06-13T14:39:49Z</time>
      </trkpt>
      <trkpt lat="42.349166963249445" lon="1.955449981614947">
        <ele>1474</ele>
        <time>2016-06-13T14:39:54Z</time>
      </trkpt>
      <trkpt lat="42.34917500987649" lon="1.955465991050005">
        <ele>1475</ele>
        <time>2016-06-13T14:39:55Z</time>
      </trkpt>
      <trkpt lat="42.349249022081494" lon="1.95552097633481">
        <ele>1474</ele>
        <time>2016-06-13T14:40:01Z</time>
      </trkpt>
      <trkpt lat="42.349265031516552" lon="1.955529022961855">
        <ele>1473</ele>
        <time>2016-06-13T14:40:02Z</time>
      </trkpt>
      <trkpt lat="42.349343989044428" lon="1.955544026568532">
        <ele>1477</ele>
        <time>2016-06-13T14:40:07Z</time>
      </trkpt>
      <trkpt lat="42.349358992651105" lon="1.955545032396913">
        <ele>1478</ele>
        <time>2016-06-13T14:40:08Z</time>
      </trkpt>
      <trkpt lat="42.349437028169632" lon="1.95554000325501">
        <ele>1478</ele>
        <time>2016-06-13T14:40:13Z</time>
      </trkpt>
      <trkpt lat="42.349453959614038" lon="1.95554100908339">
        <ele>1478</ele>
        <time>2016-06-13T14:40:14Z</time>
      </trkpt>
      <trkpt lat="42.349534006789327" lon="1.955531034618616">
        <ele>1478</ele>
        <time>2016-06-13T14:40:19Z</time>
      </trkpt>
      <trkpt lat="42.349550016224384" lon="1.955530028790236">
        <ele>1478</ele>
        <time>2016-06-13T14:40:20Z</time>
      </trkpt>
      <trkpt lat="42.34962604008615" lon="1.955508990213275">
        <ele>1482</ele>
        <time>2016-06-13T14:40:25Z</time>
      </trkpt>
      <trkpt lat="42.349640959873796" lon="1.955504966899753">
        <ele>1482</ele>
        <time>2016-06-13T14:40:26Z</time>
      </trkpt>
      <trkpt lat="42.349728969857097" lon="1.955512007698417">
        <ele>1481</ele>
        <time>2016-06-13T14:40:32Z</time>
      </trkpt>
      <trkpt lat="42.349743973463774" lon="1.955513013526797">
        <ele>1482</ele>
        <time>2016-06-13T14:40:33Z</time>
      </trkpt>
      <trkpt lat="42.349823014810681" lon="1.955538997426629">
        <ele>1482</ele>
        <time>2016-06-13T14:40:38Z</time>
      </trkpt>
      <trkpt lat="42.349838018417358" lon="1.955542014911771">
        <ele>1482</ele>
        <time>2016-06-13T14:40:39Z</time>
      </trkpt>
      <trkpt lat="42.349913036450744" lon="1.955565987154841">
        <ele>1482</ele>
        <time>2016-06-13T14:40:44Z</time>
      </trkpt>
      <trkpt lat="42.349928040057421" lon="1.95556003600359">
        <ele>1483</ele>
        <time>2016-06-13T14:40:45Z</time>
      </trkpt>
      <trkpt lat="42.350005991756916" lon="1.955512007698417">
        <ele>1486</ele>
        <time>2016-06-13T14:40:51Z</time>
      </trkpt>
      <trkpt lat="42.35001496039331" lon="1.955493986606598">
        <ele>1488</ele>
        <time>2016-06-13T14:40:52Z</time>
      </trkpt>
      <trkpt lat="42.350053014233708" lon="1.955388961359859">
        <ele>1489</ele>
        <time>2016-06-13T14:40:58Z</time>
      </trkpt>
      <trkpt lat="42.35005502589047" lon="1.955370018258691">
        <ele>1489</ele>
        <time>2016-06-13T14:40:59Z</time>
      </trkpt>
      <trkpt lat="42.350072041153908" lon="1.955260969698429">
        <ele>1490</ele>
        <time>2016-06-13T14:41:06Z</time>
      </trkpt>
      <trkpt lat="42.350072041153908" lon="1.955245966091752">
        <ele>1490</ele>
        <time>2016-06-13T14:41:07Z</time>
      </trkpt>
      <trkpt lat="42.350110011175275" lon="1.955138007178903">
        <ele>1493</ele>
        <time>2016-06-13T14:41:14Z</time>
      </trkpt>
      <trkpt lat="42.35012099146843" lon="1.955127026885748">
        <ele>1493</ele>
        <time>2016-06-13T14:41:15Z</time>
      </trkpt>
      <trkpt lat="42.350168013945222" lon="1.955040022730827">
        <ele>1490</ele>
        <time>2016-06-13T14:41:21Z</time>
      </trkpt>
      <trkpt lat="42.350176982581615" lon="1.95502401329577">
        <ele>1490</ele>
        <time>2016-06-13T14:41:22Z</time>
      </trkpt>
      <trkpt lat="42.350239008665085" lon="1.954942038282752">
        <ele>1490</ele>
        <time>2016-06-13T14:41:28Z</time>
      </trkpt>
      <trkpt lat="42.350244959816337" lon="1.954924017190933">
        <ele>1490</ele>
        <time>2016-06-13T14:41:29Z</time>
      </trkpt>
      <trkpt lat="42.350299023091793" lon="1.954835001379252">
        <ele>1495</ele>
        <time>2016-06-13T14:41:36Z</time>
      </trkpt>
      <trkpt lat="42.350307991728187" lon="1.954821003600955">
        <ele>1495</ele>
        <time>2016-06-13T14:41:37Z</time>
      </trkpt>
      <trkpt lat="42.35037898644805" lon="1.954759983345866">
        <ele>1496</ele>
        <time>2016-06-13T14:41:43Z</time>
      </trkpt>
      <trkpt lat="42.350388038903475" lon="1.954743973910809">
        <ele>1497</ele>
        <time>2016-06-13T14:41:44Z</time>
      </trkpt>
      <trkpt lat="42.350435983389616" lon="1.954646995291114">
        <ele>1496</ele>
        <time>2016-06-13T14:41:51Z</time>
      </trkpt>
      <trkpt lat="42.350449981167912" lon="1.954646995291114">
        <ele>1495</ele>
        <time>2016-06-13T14:41:52Z</time>
      </trkpt>
      <trkpt lat="42.350532962009311" lon="1.954634003341198">
        <ele>1496</ele>
        <time>2016-06-13T14:41:58Z</time>
      </trkpt>
      <trkpt lat="42.350546037778258" lon="1.954643977805972">
        <ele>1496</ele>
        <time>2016-06-13T14:41:59Z</time>
      </trkpt>
      <trkpt lat="42.350589036941528" lon="1.954717990010977">
        <ele>1496</ele>
        <time>2016-06-13T14:42:03Z</time>
      </trkpt>
      <trkpt lat="42.350599011406302" lon="1.954743973910809">
        <ele>1497</ele>
        <time>2016-06-13T14:42:04Z</time>
      </trkpt>
      <trkpt lat="42.350618960335851" lon="1.954850004985929">
        <ele>1496</ele>
        <time>2016-06-13T14:42:08Z</time>
      </trkpt>
      <trkpt lat="42.350619966164231" lon="1.954878000542522">
        <ele>1495</ele>
        <time>2016-06-13T14:42:09Z</time>
      </trkpt>
      <trkpt lat="42.35061502084136" lon="1.954983025789261">
        <ele>1494</ele>
        <time>2016-06-13T14:42:13Z</time>
      </trkpt>
      <trkpt lat="42.350612003356218" lon="1.955006998032332">
        <ele>1494</ele>
        <time>2016-06-13T14:42:14Z</time>
      </trkpt>
      <trkpt lat="42.350589036941528" lon="1.955118980258703">
        <ele>1493</ele>
        <time>2016-06-13T14:42:19Z</time>
      </trkpt>
      <trkpt lat="42.350585013628006" lon="1.955141024664044">
        <ele>1492</ele>
        <time>2016-06-13T14:42:20Z</time>
      </trkpt>
      <trkpt lat="42.35057101584971" lon="1.955249989405274">
        <ele>1496</ele>
        <time>2016-06-13T14:42:25Z</time>
      </trkpt>
      <trkpt lat="42.350563975051045" lon="1.955271027982235">
        <ele>1496</ele>
        <time>2016-06-13T14:42:26Z</time>
      </trkpt>
      <trkpt lat="42.350558023899794" lon="1.955382004380226">
        <ele>1497</ele>
        <time>2016-06-13T14:42:31Z</time>
      </trkpt>
      <trkpt lat="42.350560035556555" lon="1.955402037128806">
        <ele>1500</ele>
        <time>2016-06-13T14:42:32Z</time>
      </trkpt>
      <trkpt lat="42.350590964779258" lon="1.955507984384894">
        <ele>1498</ele>
        <time>2016-06-13T14:42:37Z</time>
      </trkpt>
      <trkpt lat="42.350599011406302" lon="1.955531034618616">
        <ele>1496</ele>
        <time>2016-06-13T14:42:38Z</time>
      </trkpt>
      <trkpt lat="42.350635975599289" lon="1.955638993531466">
        <ele>1494</ele>
        <time>2016-06-13T14:42:43Z</time>
      </trkpt>
      <trkpt lat="42.35063798725605" lon="1.955660032108426">
        <ele>1494</ele>
        <time>2016-06-13T14:42:44Z</time>
      </trkpt>
      <trkpt lat="42.350664976984262" lon="1.955768996849656">
        <ele>1493</ele>
        <time>2016-06-13T14:42:49Z</time>
      </trkpt>
      <trkpt lat="42.350672017782927" lon="1.955792969092727">
        <ele>1493</ele>
        <time>2016-06-13T14:42:50Z</time>
      </trkpt>
      <trkpt lat="42.350704958662391" lon="1.955901011824608">
        <ele>1494</ele>
        <time>2016-06-13T14:42:55Z</time>
      </trkpt>
      <trkpt lat="42.350716022774577" lon="1.955917021259666">
        <ele>1494</ele>
        <time>2016-06-13T14:42:56Z</time>
      </trkpt>
      <trkpt lat="42.350774025544524" lon="1.955981981009245">
        <ele>1497</ele>
        <time>2016-06-13T14:43:01Z</time>
      </trkpt>
      <trkpt lat="42.35078701749444" lon="1.9559929613024">
        <ele>1497</ele>
        <time>2016-06-13T14:43:02Z</time>
      </trkpt>
      <trkpt lat="42.350859018042684" lon="1.956026991829276">
        <ele>1496</ele>
        <time>2016-06-13T14:43:07Z</time>
      </trkpt>
      <trkpt lat="42.350871004164219" lon="1.95603403262794">
        <ele>1496</ele>
        <time>2016-06-13T14:43:08Z</time>
      </trkpt>
      <trkpt lat="42.350953985005617" lon="1.956070996820927">
        <ele>1499</ele>
        <time>2016-06-13T14:43:15Z</time>
      </trkpt>
      <trkpt lat="42.350968988612294" lon="1.95607602596283">
        <ele>1499</ele>
        <time>2016-06-13T14:43:16Z</time>
      </trkpt>
      <trkpt lat="42.351049035787582" lon="1.956092035397887">
        <ele>1501</ele>
        <time>2016-06-13T14:43:22Z</time>
      </trkpt>
      <trkpt lat="42.351064039394259" lon="1.956093041226268">
        <ele>1501</ele>
        <time>2016-06-13T14:43:23Z</time>
      </trkpt>
      <trkpt lat="42.351136961951852" lon="1.95605699904263">
        <ele>1499</ele>
        <time>2016-06-13T14:43:28Z</time>
      </trkpt>
      <trkpt lat="42.351150037720799" lon="1.956049958243966">
        <ele>1499</ele>
        <time>2016-06-13T14:43:29Z</time>
      </trkpt>
      <trkpt lat="42.351212985813618" lon="1.955979969352484">
        <ele>1505</ele>
        <time>2016-06-13T14:43:35Z</time>
      </trkpt>
      <trkpt lat="42.351212985813618" lon="1.955959014594555">
        <ele>1505</ele>
        <time>2016-06-13T14:43:36Z</time>
      </trkpt>
      <trkpt lat="42.351167974993587" lon="1.955860024318099">
        <ele>1502</ele>
        <time>2016-06-13T14:43:42Z</time>
      </trkpt>
      <trkpt lat="42.351155988872051" lon="1.955849966034293">
        <ele>1503</ele>
        <time>2016-06-13T14:43:43Z</time>
      </trkpt>
      <trkpt lat="42.351073008030653" lon="1.955806966871023">
        <ele>1506</ele>
        <time>2016-06-13T14:43:49Z</time>
      </trkpt>
      <trkpt lat="42.351058004423976" lon="1.955802021548152">
        <ele>1502</ele>
        <time>2016-06-13T14:43:50Z</time>
      </trkpt>
      <trkpt lat="42.350972006097436" lon="1.955768996849656">
        <ele>1508</ele>
        <time>2016-06-13T14:43:56Z</time>
      </trkpt>
      <trkpt lat="42.35095901414752" lon="1.955760028213263">
        <ele>1510</ele>
        <time>2016-06-13T14:43:57Z</time>
      </trkpt>
      <trkpt lat="42.350896988064051" lon="1.955680986866355">
        <ele>1511</ele>
        <time>2016-06-13T14:44:03Z</time>
      </trkpt>
      <trkpt lat="42.350890031084418" lon="1.955664977431297">
        <ele>1509</ele>
        <time>2016-06-13T14:44:04Z</time>
      </trkpt>
      <trkpt lat="42.350854994729161" lon="1.955552995204926">
        <ele>1511</ele>
        <time>2016-06-13T14:44:11Z</time>
      </trkpt>
      <trkpt lat="42.35085197724402" lon="1.955537991598249">
        <ele>1512</ele>
        <time>2016-06-13T14:44:12Z</time>
      </trkpt>
      <trkpt lat="42.350874021649361" lon="1.955439001321793">
        <ele>1513</ele>
        <time>2016-06-13T14:44:18Z</time>
      </trkpt>
      <trkpt lat="42.350877039134502" lon="1.955420980229974">
        <ele>1513</ele>
        <time>2016-06-13T14:44:19Z</time>
      </trkpt>
      <trkpt lat="42.350923977792263" lon="1.955330036580563">
        <ele>1514</ele>
        <time>2016-06-13T14:44:25Z</time>
      </trkpt>
      <trkpt lat="42.350924983620644" lon="1.955310003831983">
        <ele>1514</ele>
        <time>2016-06-13T14:44:26Z</time>
      </trkpt>
      <trkpt lat="42.350964965298772" lon="1.955204978585243">
        <ele>1513</ele>
        <time>2016-06-13T14:44:32Z</time>
      </trkpt>
      <trkpt lat="42.350967982783914" lon="1.955187041312456">
        <ele>1512</ele>
        <time>2016-06-13T14:44:33Z</time>
      </trkpt>
      <trkpt lat="42.351009976118803" lon="1.955081010237336">
        <ele>1513</ele>
        <time>2016-06-13T14:44:39Z</time>
      </trkpt>
      <trkpt lat="42.351015005260706" lon="1.955062989145517">
        <ele>1513</ele>
        <time>2016-06-13T14:44:40Z</time>
      </trkpt>
      <trkpt lat="42.351021962240338" lon="1.954955030232668">
        <ele>1515</ele>
        <time>2016-06-13T14:44:46Z</time>
      </trkpt>
      <trkpt lat="42.351027997210622" lon="1.954940026625991">
        <ele>1515</ele>
        <time>2016-06-13T14:44:47Z</time>
      </trkpt>
      <trkpt lat="42.351083988323808" lon="1.954851010814309">
        <ele>1516</ele>
        <time>2016-06-13T14:44:53Z</time>
      </trkpt>
      <trkpt lat="42.35108801163733" lon="1.954830978065729">
        <ele>1516</ele>
        <time>2016-06-13T14:44:54Z</time>
      </trkpt>
      <trkpt lat="42.351122964173555" lon="1.954740034416318">
        <ele>1517</ele>
        <time>2016-06-13T14:44:59Z</time>
      </trkpt>
      <trkpt lat="42.3511310108006" lon="1.954722013324499">
        <ele>1517</ele>
        <time>2016-06-13T14:45:00Z</time>
      </trkpt>
      <trkpt lat="42.351147020235658" lon="1.954614976420999">
        <ele>1519</ele>
        <time>2016-06-13T14:45:05Z</time>
      </trkpt>
      <trkpt lat="42.351159006357193" lon="1.954598966985941">
        <ele>1519</ele>
        <time>2016-06-13T14:45:06Z</time>
      </trkpt>
      <trkpt lat="42.351171998307109" lon="1.954482961446047">
        <ele>1519</ele>
        <time>2016-06-13T14:45:12Z</time>
      </trkpt>
      <trkpt lat="42.351181972771883" lon="1.954467035830021">
        <ele>1520</ele>
        <time>2016-06-13T14:45:13Z</time>
      </trkpt>
      <trkpt lat="42.351194964721799" lon="1.954353963956237">
        <ele>1522</ele>
        <time>2016-06-13T14:45:19Z</time>
      </trkpt>
      <trkpt lat="42.351199993863702" lon="1.954334015026689">
        <ele>1523</ele>
        <time>2016-06-13T14:45:20Z</time>
      </trkpt>
      <trkpt lat="42.351184990257025" lon="1.954219015315175">
        <ele>1522</ele>
        <time>2016-06-13T14:45:26Z</time>
      </trkpt>
      <trkpt lat="42.351185996085405" lon="1.954197976738215">
        <ele>1522</ele>
        <time>2016-06-13T14:45:27Z</time>
      </trkpt>
      <trkpt lat="42.351192031055689" lon="1.954091023653746">
        <ele>1524</ele>
        <time>2016-06-13T14:45:33Z</time>
      </trkpt>
      <trkpt lat="42.351183984428644" lon="1.954074008390307">
        <ele>1525</ele>
        <time>2016-06-13T14:45:34Z</time>
      </trkpt>
      <trkpt lat="42.351124975830317" lon="1.953997984528542">
        <ele>1525</ele>
        <time>2016-06-13T14:45:39Z</time>
      </trkpt>
      <trkpt lat="42.351121958345175" lon="1.953978035598993">
        <ele>1526</ele>
        <time>2016-06-13T14:45:40Z</time>
      </trkpt>
      <trkpt lat="42.351069990545511" lon="1.95388700813055">
        <ele>1526</ele>
        <time>2016-06-13T14:45:46Z</time>
      </trkpt>
      <trkpt lat="42.351059010252357" lon="1.953874016180635">
        <ele>1526</ele>
        <time>2016-06-13T14:45:47Z</time>
      </trkpt>
      <trkpt lat="42.351012993603945" lon="1.953771002590656">
        <ele>1527</ele>
        <time>2016-06-13T14:45:53Z</time>
      </trkpt>
      <trkpt lat="42.351005030795932" lon="1.953752981498838">
        <ele>1527</ele>
        <time>2016-06-13T14:45:54Z</time>
      </trkpt>
      <trkpt lat="42.350955996662378" lon="1.953666983172298">
        <ele>1528</ele>
        <time>2016-06-13T14:45:59Z</time>
      </trkpt>
      <trkpt lat="42.350947028025985" lon="1.953649967908859">
        <ele>1528</ele>
        <time>2016-06-13T14:46:00Z</time>
      </trkpt>
      <trkpt lat="42.350901011377573" lon="1.953566987067461">
        <ele>1528</ele>
        <time>2016-06-13T14:46:05Z</time>
      </trkpt>
      <trkpt lat="42.350893970578909" lon="1.953547960147262">
        <ele>1527</ele>
        <time>2016-06-13T14:46:06Z</time>
      </trkpt>
      <trkpt lat="42.350860023871064" lon="1.95345601066947">
        <ele>1528</ele>
        <time>2016-06-13T14:46:11Z</time>
      </trkpt>
      <trkpt lat="42.350853988900781" lon="1.953433966264129">
        <ele>1528</ele>
        <time>2016-06-13T14:46:12Z</time>
      </trkpt>
      <trkpt lat="42.350826999172568" lon="1.953333970159292">
        <ele>1529</ele>
        <time>2016-06-13T14:46:17Z</time>
      </trkpt>
      <trkpt lat="42.350821970030665" lon="1.953313015401363">
        <ele>1529</ele>
        <time>2016-06-13T14:46:18Z</time>
      </trkpt>
      <trkpt lat="42.350799003615975" lon="1.953215030953288">
        <ele>1528</ele>
        <time>2016-06-13T14:46:23Z</time>
      </trkpt>
      <trkpt lat="42.350795986130834" lon="1.953194998204708">
        <ele>1528</ele>
        <time>2016-06-13T14:46:24Z</time>
      </trkpt>
      <trkpt lat="42.350767990574241" lon="1.953096007928252">
        <ele>1529</ele>
        <time>2016-06-13T14:46:29Z</time>
      </trkpt>
      <trkpt lat="42.350757010281086" lon="1.953077986836433">
        <ele>1529</ele>
        <time>2016-06-13T14:46:30Z</time>
      </trkpt>
      <trkpt lat="42.350711999461055" lon="1.952978996559978">
        <ele>1530</ele>
        <time>2016-06-13T14:46:35Z</time>
      </trkpt>
      <trkpt lat="42.350706970319152" lon="1.952958041802049">
        <ele>1530</ele>
        <time>2016-06-13T14:46:36Z</time>
      </trkpt>
      <trkpt lat="42.350665982812643" lon="1.952857961878181">
        <ele>1529</ele>
        <time>2016-06-13T14:46:41Z</time>
      </trkpt>
      <trkpt lat="42.350656008347869" lon="1.952840024605393">
        <ele>1529</ele>
        <time>2016-06-13T14:46:42Z</time>
      </trkpt>
      <trkpt lat="42.350619966164231" lon="1.952744973823428">
        <ele>1529</ele>
        <time>2016-06-13T14:46:47Z</time>
      </trkpt>
      <trkpt lat="42.35061401501298" lon="1.952726030722261">
        <ele>1530</ele>
        <time>2016-06-13T14:46:48Z</time>
      </trkpt>
      <trkpt lat="42.350577972829342" lon="1.952632991597056">
        <ele>1531</ele>
        <time>2016-06-13T14:46:53Z</time>
      </trkpt>
      <trkpt lat="42.350567998364568" lon="1.952612958848476">
        <ele>1531</ele>
        <time>2016-06-13T14:46:54Z</time>
      </trkpt>
      <trkpt lat="42.350548971444368" lon="1.952504999935627">
        <ele>1532</ele>
        <time>2016-06-13T14:47:00Z</time>
      </trkpt>
      <trkpt lat="42.350554000586271" lon="1.952485973015428">
        <ele>1532</ele>
        <time>2016-06-13T14:47:00Z</time>
      </trkpt>
      <trkpt lat="42.350633963942528" lon="1.952471975237131">
        <ele>1521</ele>
        <time>2016-06-13T14:47:06Z</time>
      </trkpt>
      <trkpt lat="42.350645028054714" lon="1.952487984672189">
        <ele>1524</ele>
        <time>2016-06-13T14:47:07Z</time>
      </trkpt>
      <trkpt lat="42.350681992247701" lon="1.952588986605406">
        <ele>1528</ele>
        <time>2016-06-13T14:47:12Z</time>
      </trkpt>
      <trkpt lat="42.350689033046365" lon="1.952610025182366">
        <ele>1481</ele>
        <time>2016-06-13T14:47:13Z</time>
      </trkpt>
      <trkpt lat="42.350715016946197" lon="1.952714966610074">
        <ele>1519</ele>
        <time>2016-06-13T14:47:18Z</time>
      </trkpt>
      <trkpt lat="42.350719040259719" lon="1.952736005187035">
        <ele>1522</ele>
        <time>2016-06-13T14:47:19Z</time>
      </trkpt>
      <trkpt lat="42.350760027766228" lon="1.952834995463491">
        <ele>1494</ele>
        <time>2016-06-13T14:47:24Z</time>
      </trkpt>
      <trkpt lat="42.350768996402621" lon="1.95285402238369">
        <ele>1496</ele>
        <time>2016-06-13T14:47:25Z</time>
      </trkpt>
      <trkpt lat="42.350819036364555" lon="1.95294002071023">
        <ele>1525</ele>
        <time>2016-06-13T14:47:30Z</time>
      </trkpt>
      <trkpt lat="42.350831022486091" lon="1.952956030145288">
        <ele>1527</ele>
        <time>2016-06-13T14:47:31Z</time>
      </trkpt>
      <trkpt lat="42.350872009992599" lon="1.953044040128589">
        <ele>1505</ele>
        <time>2016-06-13T14:47:36Z</time>
      </trkpt>
      <trkpt lat="42.350878966972232" lon="1.953060971572995">
        <ele>1513</ele>
        <time>2016-06-13T14:47:37Z</time>
      </trkpt>
      <trkpt lat="42.350940993055701" lon="1.953142024576664">
        <ele>1532</ele>
        <time>2016-06-13T14:47:42Z</time>
      </trkpt>
      <trkpt lat="42.350951973348856" lon="1.953162979334593">
        <ele>1532</ele>
        <time>2016-06-13T14:47:43Z</time>
      </trkpt>
      <trkpt lat="42.351004024967551" lon="1.953253000974655">
        <ele>1533</ele>
        <time>2016-06-13T14:47:48Z</time>
      </trkpt>
      <trkpt lat="42.351015005260706" lon="1.953270016238093">
        <ele>1534</ele>
        <time>2016-06-13T14:47:49Z</time>
      </trkpt>
      <trkpt lat="42.351074013859034" lon="1.953348973765969">
        <ele>1530</ele>
        <time>2016-06-13T14:47:54Z</time>
      </trkpt>
      <trkpt lat="42.351085999980569" lon="1.953361965715885">
        <ele>1531</ele>
        <time>2016-06-13T14:47:55Z</time>
      </trkpt>
      <trkpt lat="42.351141991093755" lon="1.95343597792089">
        <ele>1535</ele>
        <time>2016-06-13T14:48:00Z</time>
      </trkpt>
      <trkpt lat="42.351152971386909" lon="1.953446036204696">
        <ele>1535</ele>
        <time>2016-06-13T14:48:01Z</time>
      </trkpt>
      <trkpt lat="42.35121700912714" lon="1.953507978469133">
        <ele>1534</ele>
        <time>2016-06-13T14:48:07Z</time>
      </trkpt>
      <trkpt lat="42.351231006905437" lon="1.953518958762288">
        <ele>1533</ele>
        <time>2016-06-13T14:48:08Z</time>
      </trkpt>
      <trkpt lat="42.351299989968538" lon="1.953589031472802">
        <ele>1538</ele>
        <time>2016-06-13T14:48:13Z</time>
      </trkpt>
      <trkpt lat="42.351312981918454" lon="1.953602023422718">
        <ele>1539</ele>
        <time>2016-06-13T14:48:14Z</time>
      </trkpt>
      <trkpt lat="42.351374002173543" lon="1.953668994829059">
        <ele>1537</ele>
        <time>2016-06-13T14:48:19Z</time>
      </trkpt>
      <trkpt lat="42.351386994123459" lon="1.953680980950594">
        <ele>1539</ele>
        <time>2016-06-13T14:48:20Z</time>
      </trkpt>
      <trkpt lat="42.351448014378548" lon="1.953739989548922">
        <ele>1533</ele>
        <time>2016-06-13T14:48:25Z</time>
      </trkpt>
      <trkpt lat="42.351457988843322" lon="1.953755998983979">
        <ele>1535</ele>
        <time>2016-06-13T14:48:26Z</time>
      </trkpt>
      <trkpt lat="42.351511968299747" lon="1.953830011188984">
        <ele>1539</ele>
        <time>2016-06-13T14:48:31Z</time>
      </trkpt>
      <trkpt lat="42.351521020755172" lon="1.953846020624042">
        <ele>1540</ele>
        <time>2016-06-13T14:48:32Z</time>
      </trkpt>
      <trkpt lat="42.351570976898074" lon="1.953933024778962">
        <ele>1538</ele>
        <time>2016-06-13T14:48:37Z</time>
      </trkpt>
      <trkpt lat="42.351576006039977" lon="1.953953979536891">
        <ele>1540</ele>
        <time>2016-06-13T14:48:38Z</time>
      </trkpt>
      <trkpt lat="42.351612970232964" lon="1.954052969813347">
        <ele>1542</ele>
        <time>2016-06-13T14:48:43Z</time>
      </trkpt>
      <trkpt lat="42.351625040173531" lon="1.954068979248405">
        <ele>1543</ele>
        <time>2016-06-13T14:48:44Z</time>
      </trkpt>
      <trkpt lat="42.351679019629955" lon="1.954151038080454">
        <ele>1542</ele>
        <time>2016-06-13T14:48:49Z</time>
      </trkpt>
      <trkpt lat="42.35168999992311" lon="1.95416696369648">
        <ele>1542</ele>
        <time>2016-06-13T14:48:50Z</time>
      </trkpt>
      <trkpt lat="42.351759988814592" lon="1.95421096868813">
        <ele>1538</ele>
        <time>2016-06-13T14:48:55Z</time>
      </trkpt>
      <trkpt lat="42.35177599824965" lon="1.954217003658414">
        <ele>1540</ele>
        <time>2016-06-13T14:48:56Z</time>
      </trkpt>
      <trkpt lat="42.351854033768177" lon="1.9542539678514">
        <ele>1531</ele>
        <time>2016-06-13T14:49:01Z</time>
      </trkpt>
      <trkpt lat="42.351868031546474" lon="1.954258996993303">
        <ele>1533</ele>
        <time>2016-06-13T14:49:02Z</time>
      </trkpt>
      <trkpt lat="42.35194799490273" lon="1.95425103418529">
        <ele>1537</ele>
        <time>2016-06-13T14:49:07Z</time>
      </trkpt>
      <trkpt lat="42.351964004337788" lon="1.954248016700149">
        <ele>1464</ele>
        <time>2016-06-13T14:49:08Z</time>
      </trkpt>
      <trkpt lat="42.352039022371173" lon="1.95421096868813">
        <ele>1525</ele>
        <time>2016-06-13T14:49:13Z</time>
      </trkpt>
      <trkpt lat="42.352053020149469" lon="1.954200994223356">
        <ele>1526</ele>
        <time>2016-06-13T14:49:14Z</time>
      </trkpt>
      <trkpt lat="42.352134995162487" lon="1.954157995060086">
        <ele>1529</ele>
        <time>2016-06-13T14:49:20Z</time>
      </trkpt>
      <trkpt lat="42.352148992940784" lon="1.954151960089803">
        <ele>1535</ele>
        <time>2016-06-13T14:49:21Z</time>
      </trkpt>
      <trkpt lat="42.352221999317408" lon="1.954112984240055">
        <ele>1497</ele>
        <time>2016-06-13T14:49:26Z</time>
      </trkpt>
      <trkpt lat="42.352237002924085" lon="1.954105021432042">
        <ele>1511</ele>
        <time>2016-06-13T14:49:27Z</time>
      </trkpt>
      <trkpt lat="42.352321995422244" lon="1.954065961763263">
        <ele>1540</ele>
        <time>2016-06-13T14:49:33Z</time>
      </trkpt>
      <trkpt lat="42.352336999028921" lon="1.954064033925533">
        <ele>1542</ele>
        <time>2016-06-13T14:49:34Z</time>
      </trkpt>
      <trkpt lat="42.352426014840603" lon="1.954056993126869">
        <ele>1533</ele>
        <time>2016-06-13T14:49:40Z</time>
      </trkpt>
      <trkpt lat="42.352440012618899" lon="1.95405900478363">
        <ele>1535</ele>
        <time>2016-06-13T14:49:41Z</time>
      </trkpt>
      <trkpt lat="42.352504972368479" lon="1.954135028645396">
        <ele>1518</ele>
        <time>2016-06-13T14:49:47Z</time>
      </trkpt>
      <trkpt lat="42.352512013167143" lon="1.954151960089803">
        <ele>1529</ele>
        <time>2016-06-13T14:49:48Z</time>
      </trkpt>
      <trkpt lat="42.352528022602201" lon="1.954266959801316">
        <ele>1509</ele>
        <time>2016-06-13T14:49:54Z</time>
      </trkpt>
      <trkpt lat="42.352523999288678" lon="1.954286992549896">
        <ele>1504</ele>
        <time>2016-06-13T14:49:55Z</time>
      </trkpt>
      <trkpt lat="42.352517964318395" lon="1.95440199226141">
        <ele>1546</ele>
        <time>2016-06-13T14:50:01Z</time>
      </trkpt>
      <trkpt lat="42.352520981803536" lon="1.954421019181609">
        <ele>1548</ele>
        <time>2016-06-13T14:50:02Z</time>
      </trkpt>
      <trkpt lat="42.352532967925072" lon="1.954521015286446">
        <ele>1538</ele>
        <time>2016-06-13T14:50:07Z</time>
      </trkpt>
      <trkpt lat="42.352539002895355" lon="1.954540964215994">
        <ele>1542</ele>
        <time>2016-06-13T14:50:08Z</time>
      </trkpt>
      <trkpt lat="42.352571021765471" lon="1.954639032483101">
        <ele>1551</ele>
        <time>2016-06-13T14:50:13Z</time>
      </trkpt>
      <trkpt lat="42.352580996230245" lon="1.954655963927507">
        <ele>1552</ele>
        <time>2016-06-13T14:50:14Z</time>
      </trkpt>
      <trkpt lat="42.352643022313714" lon="1.954715978354216">
        <ele>1541</ele>
        <time>2016-06-13T14:50:19Z</time>
      </trkpt>
      <trkpt lat="42.352658025920391" lon="1.954725030809641">
        <ele>1544</ele>
        <time>2016-06-13T14:50:20Z</time>
      </trkpt>
      <trkpt lat="42.352735977619886" lon="1.954713966697455">
        <ele>1514</ele>
        <time>2016-06-13T14:50:25Z</time>
      </trkpt>
      <trkpt lat="42.352749975398183" lon="1.954700974747539">
        <ele>1521</ele>
        <time>2016-06-13T14:50:26Z</time>
      </trkpt>
      <trkpt lat="42.352809989824891" lon="1.954620005562902">
        <ele>1548</ele>
        <time>2016-06-13T14:50:31Z</time>
      </trkpt>
      <trkpt lat="42.352814013138413" lon="1.954597039148212">
        <ele>1550</ele>
        <time>2016-06-13T14:50:32Z</time>
      </trkpt>
      <trkpt lat="42.352805966511369" lon="1.954477010294795">
        <ele>1539</ele>
        <time>2016-06-13T14:50:37Z</time>
      </trkpt>
      <trkpt lat="42.352801021188498" lon="1.954454965889454">
        <ele>1543</ele>
        <time>2016-06-13T14:50:38Z</time>
      </trkpt>
      <trkpt lat="42.352777970954776" lon="1.954340972006321">
        <ele>1556</ele>
        <time>2016-06-13T14:50:43Z</time>
      </trkpt>
      <trkpt lat="42.352778976783156" lon="1.95431699976325">
        <ele>1498</ele>
        <time>2016-06-13T14:50:44Z</time>
      </trkpt>
      <trkpt lat="42.352790962904692" lon="1.954218009486795">
        <ele>1547</ele>
        <time>2016-06-13T14:50:48Z</time>
      </trkpt>
      <trkpt lat="42.352798003703356" lon="1.954195965081453">
        <ele>1550</ele>
        <time>2016-06-13T14:50:49Z</time>
      </trkpt>
      <trkpt lat="42.352833962067962" lon="1.954095968976617">
        <ele>1501</ele>
        <time>2016-06-13T14:50:54Z</time>
      </trkpt>
      <trkpt lat="42.352841002866626" lon="1.95407803170383">
        <ele>1524</ele>
        <time>2016-06-13T14:50:55Z</time>
      </trkpt>
      <trkpt lat="42.352876039221883" lon="1.953984992578626">
        <ele>1552</ele>
        <time>2016-06-13T14:51:00Z</time>
      </trkpt>
      <trkpt lat="42.352879978716373" lon="1.953964037820697">
        <ele>1553</ele>
        <time>2016-06-13T14:51:01Z</time>
      </trkpt>
      <trkpt lat="42.352888025343418" lon="1.953849038109183">
        <ele>1534</ele>
        <time>2016-06-13T14:51:06Z</time>
      </trkpt>
      <trkpt lat="42.352884002029896" lon="1.953825987875462">
        <ele>1544</ele>
        <time>2016-06-13T14:51:07Z</time>
      </trkpt>
      <trkpt lat="42.3528509773314" lon="1.953729009255767">
        <ele>1559</ele>
        <time>2016-06-13T14:51:11Z</time>
      </trkpt>
      <trkpt lat="42.352841002866626" lon="1.953706964850426">
        <ele>1559</ele>
        <time>2016-06-13T14:51:12Z</time>
      </trkpt>
      <trkpt lat="42.352779982611537" lon="1.953624989837408">
        <ele>1551</ele>
        <time>2016-06-13T14:51:17Z</time>
      </trkpt>
      <trkpt lat="42.352762967348099" lon="1.953617027029395">
        <ele>1555</ele>
        <time>2016-06-13T14:51:18Z</time>
      </trkpt>
      <trkpt lat="42.352680992335081" lon="1.953588025644422">
        <ele>1561</ele>
        <time>2016-06-13T14:51:23Z</time>
      </trkpt>
      <trkpt lat="42.352665988728404" lon="1.95358500815928">
        <ele>1513</ele>
        <time>2016-06-13T14:51:24Z</time>
      </trkpt>
      <trkpt lat="42.352588959038258" lon="1.953570004552603">
        <ele>1554</ele>
        <time>2016-06-13T14:51:29Z</time>
      </trkpt>
      <trkpt lat="42.352574961259961" lon="1.953566987067461">
        <ele>1556</ele>
        <time>2016-06-13T14:51:30Z</time>
      </trkpt>
      <trkpt lat="42.352486029267311" lon="1.953560030087829">
        <ele>1547</ele>
        <time>2016-06-13T14:51:36Z</time>
      </trkpt>
      <trkpt lat="42.352472031489015" lon="1.953561035916209">
        <ele>1553</ele>
        <time>2016-06-13T14:51:37Z</time>
      </trkpt>
      <trkpt lat="42.352385027334094" lon="1.953530022874475">
        <ele>1563</ele>
        <time>2016-06-13T14:51:43Z</time>
      </trkpt>
      <trkpt lat="42.352370023727417" lon="1.953523987904191">
        <ele>1564</ele>
        <time>2016-06-13T14:51:44Z</time>
      </trkpt>
      <trkpt lat="42.352292994037271" lon="1.953493980690837">
        <ele>1553</ele>
        <time>2016-06-13T14:51:49Z</time>
      </trkpt>
      <trkpt lat="42.352280002087355" lon="1.953483000397682">
        <ele>1554</ele>
        <time>2016-06-13T14:51:50Z</time>
      </trkpt>
      <trkpt lat="42.352214958518744" lon="1.953423991799355">
        <ele>1514</ele>
        <time>2016-06-13T14:51:55Z</time>
      </trkpt>
      <trkpt lat="42.352202972397208" lon="1.953412005677819">
        <ele>1526</ele>
        <time>2016-06-13T14:51:56Z</time>
      </trkpt>
      <trkpt lat="42.352143041789532" lon="1.953330030664802">
        <ele>1560</ele>
        <time>2016-06-13T14:52:02Z</time>
      </trkpt>
      <trkpt lat="42.352131977677345" lon="1.953317960724235">
        <ele>1562</ele>
        <time>2016-06-13T14:52:03Z</time>
      </trkpt>
      <trkpt lat="42.352067017927766" lon="1.953266998752952">
        <ele>1556</ele>
        <time>2016-06-13T14:52:08Z</time>
      </trkpt>
      <trkpt lat="42.352052014321089" lon="1.953258030116558">
        <ele>1560</ele>
        <time>2016-06-13T14:52:09Z</time>
      </trkpt>
      <trkpt lat="42.351993005722761" lon="1.953187035396695">
        <ele>1568</ele>
        <time>2016-06-13T14:52:14Z</time>
      </trkpt>
      <trkpt lat="42.351984037086368" lon="1.953173037618399">
        <ele>1520</ele>
        <time>2016-06-13T14:52:15Z</time>
      </trkpt>
      <trkpt lat="42.351926034316421" lon="1.953089972957969">
        <ele>1565</ele>
        <time>2016-06-13T14:52:21Z</time>
      </trkpt>
      <trkpt lat="42.351916981860995" lon="1.953076981008053">
        <ele>1567</ele>
        <time>2016-06-13T14:52:22Z</time>
      </trkpt>
      <trkpt lat="42.351870965212584" lon="1.952990982681513">
        <ele>1559</ele>
        <time>2016-06-13T14:52:28Z</time>
      </trkpt>
      <trkpt lat="42.35186199657619" lon="1.952977990731597">
        <ele>1563</ele>
        <time>2016-06-13T14:52:29Z</time>
      </trkpt>
      <trkpt lat="42.351809022948146" lon="1.952891992405057">
        <ele>1530</ele>
        <time>2016-06-13T14:52:35Z</time>
      </trkpt>
      <trkpt lat="42.351799970492721" lon="1.952873971313238">
        <ele>1538</ele>
        <time>2016-06-13T14:52:36Z</time>
      </trkpt>
      <trkpt lat="42.351752026006579" lon="1.952793002128601">
        <ele>1561</ele>
        <time>2016-06-13T14:52:41Z</time>
      </trkpt>
      <trkpt lat="42.351744985207915" lon="1.952773975208402">
        <ele>1563</ele>
        <time>2016-06-13T14:52:42Z</time>
      </trkpt>
      <trkpt lat="42.351699974387884" lon="1.952685965225101">
        <ele>1544</ele>
        <time>2016-06-13T14:52:47Z</time>
      </trkpt>
      <trkpt lat="42.351692011579871" lon="1.952668027952313">
        <ele>1552</ele>
        <time>2016-06-13T14:52:48Z</time>
      </trkpt>
      <trkpt lat="42.351666027680039" lon="1.952568031847477">
        <ele>1571</ele>
        <time>2016-06-13T14:52:53Z</time>
      </trkpt>
      <trkpt lat="42.351663010194898" lon="1.952549004927278">
        <ele>1515</ele>
        <time>2016-06-13T14:52:54Z</time>
      </trkpt>
      <trkpt lat="42.351645994931459" lon="1.952431993559003">
        <ele>1564</ele>
        <time>2016-06-13T14:53:00Z</time>
      </trkpt>
      <trkpt lat="42.351640965789557" lon="1.952410032972693">
        <ele>1564</ele>
        <time>2016-06-13T14:53:01Z</time>
      </trkpt>
      <trkpt lat="42.351625040173531" lon="1.952300984412432">
        <ele>1518</ele>
        <time>2016-06-13T14:53:06Z</time>
      </trkpt>
      <trkpt lat="42.35162403434515" lon="1.952279023826122">
        <ele>1532</ele>
        <time>2016-06-13T14:53:07Z</time>
      </trkpt>
      <trkpt lat="42.351615987718105" lon="1.952162012457848">
        <ele>1561</ele>
        <time>2016-06-13T14:53:12Z</time>
      </trkpt>
      <trkpt lat="42.351612970232964" lon="1.952136028558016">
        <ele>1567</ele>
        <time>2016-06-13T14:53:13Z</time>
      </trkpt>
      <trkpt lat="42.351601989939809" lon="1.952034020796418">
        <ele>1533</ele>
        <time>2016-06-13T14:53:17Z</time>
      </trkpt>
      <trkpt lat="42.351598972454667" lon="1.952009964734316">
        <ele>1533</ele>
        <time>2016-06-13T14:53:18Z</time>
      </trkpt>
      <trkpt lat="42.351582963019609" lon="1.951909968629479">
        <ele>1564</ele>
        <time>2016-06-13T14:53:22Z</time>
      </trkpt>
      <trkpt lat="42.351584974676371" lon="1.95188800804317">
        <ele>1569</ele>
        <time>2016-06-13T14:53:23Z</time>
      </trkpt>
      <trkpt lat="42.351596960797906" lon="1.951778959482908">
        <ele>1553</ele>
        <time>2016-06-13T14:53:28Z</time>
      </trkpt>
      <trkpt lat="42.351599978283048" lon="1.95175901055336">
        <ele>1558</ele>
        <time>2016-06-13T14:53:29Z</time>
      </trkpt>
      <trkpt lat="42.351628979668021" lon="1.951662031933665">
        <ele>1468</ele>
        <time>2016-06-13T14:53:34Z</time>
      </trkpt>
      <trkpt lat="42.351628979668021" lon="1.951640993356705">
        <ele>1494</ele>
        <time>2016-06-13T14:53:35Z</time>
      </trkpt>
      <trkpt lat="42.351639959961176" lon="1.951525993645191">
        <ele>1498</ele>
        <time>2016-06-13T14:53:40Z</time>
      </trkpt>
      <trkpt lat="42.351640965789557" lon="1.951502021402121">
        <ele>1527</ele>
        <time>2016-06-13T14:53:41Z</time>
      </trkpt>
      <trkpt lat="42.351644989103079" lon="1.951398001983762">
        <ele>1571</ele>
        <time>2016-06-13T14:53:46Z</time>
      </trkpt>
      <trkpt lat="42.35164700075984" lon="1.951378975063562">
        <ele>1498</ele>
        <time>2016-06-13T14:53:47Z</time>
      </trkpt>
      <trkpt lat="42.351665021851659" lon="1.951275961473584">
        <ele>1564</ele>
        <time>2016-06-13T14:53:52Z</time>
      </trkpt>
      <trkpt lat="42.351665021851659" lon="1.951251989230514">
        <ele>1567</ele>
        <time>2016-06-13T14:53:53Z</time>
      </trkpt>
      <trkpt lat="42.351664016023278" lon="1.951141012832522">
        <ele>1578</ele>
        <time>2016-06-13T14:53:59Z</time>
      </trkpt>
      <trkpt lat="42.351663010194898" lon="1.951119974255562">
        <ele>1580</ele>
        <time>2016-06-13T14:53:59Z</time>
      </trkpt>
      <trkpt lat="42.35166703350842" lon="1.951013021171093">
        <ele>1582</ele>
        <time>2016-06-13T14:54:04Z</time>
      </trkpt>
      <trkpt lat="42.351668961346149" lon="1.950997011736035">
        <ele>1582</ele>
        <time>2016-06-13T14:54:05Z</time>
      </trkpt>
      <trkpt lat="42.351663010194898" lon="1.950875977054238">
        <ele>1586</ele>
        <time>2016-06-13T14:54:11Z</time>
      </trkpt>
      <trkpt lat="42.351659992709756" lon="1.95085502229631">
        <ele>1586</ele>
        <time>2016-06-13T14:54:12Z</time>
      </trkpt>
      <trkpt lat="42.351642977446318" lon="1.950753014534712">
        <ele>1585</ele>
        <time>2016-06-13T14:54:18Z</time>
      </trkpt>
      <trkpt lat="42.351640965789557" lon="1.950733987614512">
        <ele>1584</ele>
        <time>2016-06-13T14:54:18Z</time>
      </trkpt>
      <trkpt lat="42.351636020466685" lon="1.950624017044902">
        <ele>1588</ele>
        <time>2016-06-13T14:54:24Z</time>
      </trkpt>
      <trkpt lat="42.351631997153163" lon="1.950604990124703">
        <ele>1589</ele>
        <time>2016-06-13T14:54:25Z</time>
      </trkpt>
      <trkpt lat="42.351610036566854" lon="1.950508011505008">
        <ele>1591</ele>
        <time>2016-06-13T14:54:30Z</time>
      </trkpt>
      <trkpt lat="42.35160400159657" lon="1.950485967099667">
        <ele>1590</ele>
        <time>2016-06-13T14:54:31Z</time>
      </trkpt>
      <trkpt lat="42.351576006039977" lon="1.950369961559773">
        <ele>1590</ele>
        <time>2016-06-13T14:54:36Z</time>
      </trkpt>
      <trkpt lat="42.351569971069694" lon="1.950348000973463">
        <ele>1590</ele>
        <time>2016-06-13T14:54:37Z</time>
      </trkpt>
      <trkpt lat="42.351641971617937" lon="1.950394017621875">
        <ele>1591</ele>
        <time>2016-06-13T14:54:52Z</time>
      </trkpt>
      <trkpt lat="42.351652029901743" lon="1.950429975986481">
        <ele>1592</ele>
        <time>2016-06-13T14:54:53Z</time>
      </trkpt>
      <trkpt lat="42.351676002144814" lon="1.950526032596827">
        <ele>1593</ele>
        <time>2016-06-13T14:54:56Z</time>
      </trkpt>
      <trkpt lat="42.351682037115097" lon="1.95055796764791">
        <ele>1593</ele>
        <time>2016-06-13T14:54:57Z</time>
      </trkpt>
      <trkpt lat="42.351711960509419" lon="1.95066399872303">
        <ele>1594</ele>
        <time>2016-06-13T14:55:00Z</time>
      </trkpt>
      <trkpt lat="42.351724030449986" lon="1.950708003714681">
        <ele>1594</ele>
        <time>2016-06-13T14:55:01Z</time>
      </trkpt>
      <trkpt lat="42.351752026006579" lon="1.950790984556079">
        <ele>1592</ele>
        <time>2016-06-13T14:55:03Z</time>
      </trkpt>
      <trkpt lat="42.351765017956495" lon="1.950829038396478">
        <ele>1592</ele>
        <time>2016-06-13T14:55:04Z</time>
      </trkpt>
      <trkpt lat="42.351782033219934" lon="1.950905984267592">
        <ele>1593</ele>
        <time>2016-06-13T14:55:06Z</time>
      </trkpt>
      <trkpt lat="42.351789996027946" lon="1.950946971774101">
        <ele>1593</ele>
        <time>2016-06-13T14:55:07Z</time>
      </trkpt>
      <trkpt lat="42.351804999634624" lon="1.95102701894939">
        <ele>1593</ele>
        <time>2016-06-13T14:55:09Z</time>
      </trkpt>
      <trkpt lat="42.351811034604907" lon="1.951067000627518">
        <ele>1594</ele>
        <time>2016-06-13T14:55:10Z</time>
      </trkpt>
      <trkpt lat="42.35181899741292" lon="1.951150987297297">
        <ele>1594</ele>
        <time>2016-06-13T14:55:12Z</time>
      </trkpt>
      <trkpt lat="42.351824026554823" lon="1.951191974803805">
        <ele>1595</ele>
        <time>2016-06-13T14:55:13Z</time>
      </trkpt>
      <trkpt lat="42.351832995191216" lon="1.951275039464235">
        <ele>1595</ele>
        <time>2016-06-13T14:55:15Z</time>
      </trkpt>
      <trkpt lat="42.351835006847978" lon="1.951316026970744">
        <ele>1596</ele>
        <time>2016-06-13T14:55:16Z</time>
      </trkpt>
      <trkpt lat="42.351840035989881" lon="1.951435972005129">
        <ele>1597</ele>
        <time>2016-06-13T14:55:19Z</time>
      </trkpt>
      <trkpt lat="42.351842969655991" lon="1.951476959511638">
        <ele>1597</ele>
        <time>2016-06-13T14:55:20Z</time>
      </trkpt>
      <trkpt lat="42.351850010454655" lon="1.951595982536674">
        <ele>1599</ele>
        <time>2016-06-13T14:55:23Z</time>
      </trkpt>
      <trkpt lat="42.351852022111416" lon="1.951633030548692">
        <ele>1599</ele>
        <time>2016-06-13T14:55:24Z</time>
      </trkpt>
      <trkpt lat="42.351860990747809" lon="1.951722968369722">
        <ele>1600</ele>
        <time>2016-06-13T14:55:27Z</time>
      </trkpt>
      <trkpt lat="42.351864008232951" lon="1.951753981411457">
        <ele>1600</ele>
        <time>2016-06-13T14:55:28Z</time>
      </trkpt>
      <trkpt lat="42.351873982697725" lon="1.951849032193422">
        <ele>1600</ele>
        <time>2016-06-13T14:55:31Z</time>
      </trkpt>
      <trkpt lat="42.351880017668009" lon="1.951881973072887">
        <ele>1600</ele>
        <time>2016-06-13T14:55:32Z</time>
      </trkpt>
      <trkpt lat="42.351898038759828" lon="1.951980963349342">
        <ele>1600</ele>
        <time>2016-06-13T14:55:35Z</time>
      </trkpt>
      <trkpt lat="42.351906001567841" lon="1.952014993876219">
        <ele>1600</ele>
        <time>2016-06-13T14:55:36Z</time>
      </trkpt>
      <trkpt lat="42.351929973810911" lon="1.952117001637816">
        <ele>1600</ele>
        <time>2016-06-13T14:55:39Z</time>
      </trkpt>
      <trkpt lat="42.351941037923098" lon="1.952152037993074">
        <ele>1601</ele>
        <time>2016-06-13T14:55:40Z</time>
      </trkpt>
      <trkpt lat="42.351976996287704" lon="1.952247004956007">
        <ele>1601</ele>
        <time>2016-06-13T14:55:43Z</time>
      </trkpt>
      <trkpt lat="42.351988982409239" lon="1.9522750005126">
        <ele>1600</ele>
        <time>2016-06-13T14:55:44Z</time>
      </trkpt>
      <trkpt lat="42.352028964087367" lon="1.95236099883914">
        <ele>1600</ele>
        <time>2016-06-13T14:55:47Z</time>
      </trkpt>
      <trkpt lat="42.352044973522425" lon="1.952387988567352">
        <ele>1599</ele>
        <time>2016-06-13T14:55:48Z</time>
      </trkpt>
      <trkpt lat="42.352108005434275" lon="1.952454037964344">
        <ele>1600</ele>
        <time>2016-06-13T14:55:51Z</time>
      </trkpt>
      <trkpt lat="42.352130971848965" lon="1.952474992722273">
        <ele>1599</ele>
        <time>2016-06-13T14:55:52Z</time>
      </trkpt>
      <trkpt lat="42.352200960740447" lon="1.952524026855826">
        <ele>1597</ele>
        <time>2016-06-13T14:55:55Z</time>
      </trkpt>
      <trkpt lat="42.352224010974169" lon="1.952540958300233">
        <ele>1597</ele>
        <time>2016-06-13T14:55:56Z</time>
      </trkpt>
      <trkpt lat="42.352295005694032" lon="1.952577000483871">
        <ele>1598</ele>
        <time>2016-06-13T14:55:59Z</time>
      </trkpt>
      <trkpt lat="42.352315038442612" lon="1.952584963291884">
        <ele>1598</ele>
        <time>2016-06-13T14:56:00Z</time>
      </trkpt>
      <trkpt lat="42.352397013455629" lon="1.952601978555322">
        <ele>1597</ele>
        <time>2016-06-13T14:56:04Z</time>
      </trkpt>
      <trkpt lat="42.352417968213558" lon="1.952604996040463">
        <ele>1598</ele>
        <time>2016-06-13T14:56:05Z</time>
      </trkpt>
      <trkpt lat="42.352490974590182" lon="1.952625028789043">
        <ele>1597</ele>
        <time>2016-06-13T14:56:08Z</time>
      </trkpt>
      <trkpt lat="42.352519975975156" lon="1.952631985768676">
        <ele>1597</ele>
        <time>2016-06-13T14:56:09Z</time>
      </trkpt>
      <trkpt lat="42.352583007887006" lon="1.952641038224101">
        <ele>1596</ele>
        <time>2016-06-13T14:56:11Z</time>
      </trkpt>
      <trkpt lat="42.352614020928741" lon="1.952644977718592">
        <ele>1597</ele>
        <time>2016-06-13T14:56:12Z</time>
      </trkpt>
      <trkpt lat="42.352676969021559" lon="1.952647995203733">
        <ele>1597</ele>
        <time>2016-06-13T14:56:14Z</time>
      </trkpt>
      <trkpt lat="42.352706976234913" lon="1.952650006860495">
        <ele>1597</ele>
        <time>2016-06-13T14:56:15Z</time>
      </trkpt>
      <trkpt lat="42.352765984833241" lon="1.952655036002398">
        <ele>1582</ele>
        <time>2016-06-13T14:56:17Z</time>
      </trkpt>
      <trkpt lat="42.352796997874975" lon="1.952657969668508">
        <ele>1585</ele>
        <time>2016-06-13T14:56:18Z</time>
      </trkpt>
      <trkpt lat="42.352882996201515" lon="1.952665010467172">
        <ele>1592</ele>
        <time>2016-06-13T14:56:21Z</time>
      </trkpt>
      <trkpt lat="42.352911997586489" lon="1.952666016295552">
        <ele>1593</ele>
        <time>2016-06-13T14:56:22Z</time>
      </trkpt>
      <trkpt lat="42.352989027276635" lon="1.952675990760326">
        <ele>1585</ele>
        <time>2016-06-13T14:56:25Z</time>
      </trkpt>
      <trkpt lat="42.353014005348086" lon="1.952679008245468">
        <ele>1578</ele>
        <time>2016-06-13T14:56:26Z</time>
      </trkpt>
      <trkpt lat="42.353096986189485" lon="1.952685965225101">
        <ele>1588</ele>
        <time>2016-06-13T14:56:29Z</time>
      </trkpt>
      <trkpt lat="42.3531290050596" lon="1.952688982710242">
        <ele>1589</ele>
        <time>2016-06-13T14:56:30Z</time>
      </trkpt>
      <trkpt lat="42.353202011436224" lon="1.952696023508906">
        <ele>1592</ele>
        <time>2016-06-13T14:56:32Z</time>
      </trkpt>
      <trkpt lat="42.353235958144069" lon="1.952698035165668">
        <ele>1593</ele>
        <time>2016-06-13T14:56:33Z</time>
      </trkpt>
      <trkpt lat="42.35330200754106" lon="1.9527049921453">
        <ele>1585</ele>
        <time>2016-06-13T14:56:35Z</time>
      </trkpt>
      <trkpt lat="42.353334026411176" lon="1.952711027115583">
        <ele>1588</ele>
        <time>2016-06-13T14:56:36Z</time>
      </trkpt>
      <trkpt lat="42.353395968675613" lon="1.952728964388371">
        <ele>1591</ele>
        <time>2016-06-13T14:56:38Z</time>
      </trkpt>
      <trkpt lat="42.353427987545729" lon="1.952738016843796">
        <ele>1592</ele>
        <time>2016-06-13T14:56:39Z</time>
      </trkpt>
      <trkpt lat="42.353497976437211" lon="1.952761989086866">
        <ele>1594</ele>
        <time>2016-06-13T14:56:41Z</time>
      </trkpt>
      <trkpt lat="42.353531001135707" lon="1.952776992693543">
        <ele>1594</ele>
        <time>2016-06-13T14:56:42Z</time>
      </trkpt>
      <trkpt lat="42.353596966713667" lon="1.952812029048801">
        <ele>1594</ele>
        <time>2016-06-13T14:56:44Z</time>
      </trkpt>
      <trkpt lat="42.353627979755402" lon="1.952830972149968">
        <ele>1585</ele>
        <time>2016-06-13T14:56:45Z</time>
      </trkpt>
      <trkpt lat="42.353682965040207" lon="1.952872965484858">
        <ele>1588</ele>
        <time>2016-06-13T14:56:47Z</time>
      </trkpt>
      <trkpt lat="42.35370903275907" lon="1.952894004061818">
        <ele>1588</ele>
        <time>2016-06-13T14:56:48Z</time>
      </trkpt>
      <trkpt lat="42.353763012215495" lon="1.952932979911566">
        <ele>1591</ele>
        <time>2016-06-13T14:56:50Z</time>
      </trkpt>
      <trkpt lat="42.353790001943707" lon="1.952949995175004">
        <ele>1590</ele>
        <time>2016-06-13T14:56:51Z</time>
      </trkpt>
      <trkpt lat="42.353852028027177" lon="1.952981008216739">
        <ele>1592</ele>
        <time>2016-06-13T14:56:53Z</time>
      </trkpt>
      <trkpt lat="42.353889998048544" lon="1.952997017651796">
        <ele>1585</ele>
        <time>2016-06-13T14:56:54Z</time>
      </trkpt>
      <trkpt lat="42.3539699614048" lon="1.953018978238106">
        <ele>1589</ele>
        <time>2016-06-13T14:56:56Z</time>
      </trkpt>
      <trkpt lat="42.35401002690196" lon="1.953020989894867">
        <ele>1590</ele>
        <time>2016-06-13T14:56:57Z</time>
      </trkpt>
      <trkpt lat="42.354090996086597" lon="1.953013027086854">
        <ele>1591</ele>
        <time>2016-06-13T14:56:59Z</time>
      </trkpt>
      <trkpt lat="42.354129971936345" lon="1.953002968803048">
        <ele>1590</ele>
        <time>2016-06-13T14:57:00Z</time>
      </trkpt>
      <trkpt lat="42.35420498996973" lon="1.952971033751965">
        <ele>1591</ele>
        <time>2016-06-13T14:57:02Z</time>
      </trkpt>
      <trkpt lat="42.354240026324987" lon="1.952948989346623">
        <ele>1591</ele>
        <time>2016-06-13T14:57:03Z</time>
      </trkpt>
      <trkpt lat="42.354305991902947" lon="1.952887969091535">
        <ele>1586</ele>
        <time>2016-06-13T14:57:05Z</time>
      </trkpt>
      <trkpt lat="42.354335999116302" lon="1.952853016555309">
        <ele>1587</ele>
        <time>2016-06-13T14:57:06Z</time>
      </trkpt>
      <trkpt lat="42.354387966915965" lon="1.952771963551641">
        <ele>1590</ele>
        <time>2016-06-13T14:57:08Z</time>
      </trkpt>
      <trkpt lat="42.354407999664545" lon="1.95272502489388">
        <ele>1591</ele>
        <time>2016-06-13T14:57:09Z</time>
      </trkpt>
      <trkpt lat="42.354448987171054" lon="1.95261899381876">
        <ele>1592</ele>
        <time>2016-06-13T14:57:11Z</time>
      </trkpt>
      <trkpt lat="42.354469019919634" lon="1.952563002705574">
        <ele>1592</ele>
        <time>2016-06-13T14:57:12Z</time>
      </trkpt>
      <trkpt lat="42.354503972455859" lon="1.952453032135963">
        <ele>1585</ele>
        <time>2016-06-13T14:57:14Z</time>
      </trkpt>
      <trkpt lat="42.354519981890917" lon="1.952397963032126">
        <ele>1587</ele>
        <time>2016-06-13T14:57:15Z</time>
      </trkpt>
      <trkpt lat="42.354550994932652" lon="1.952296039089561">
        <ele>1587</ele>
        <time>2016-06-13T14:57:17Z</time>
      </trkpt>
      <trkpt lat="42.35456901602447" lon="1.952244993299246">
        <ele>1588</ele>
        <time>2016-06-13T14:57:18Z</time>
      </trkpt>
      <trkpt lat="42.354607991874218" lon="1.952147008851171">
        <ele>1593</ele>
        <time>2016-06-13T14:57:20Z</time>
      </trkpt>
      <trkpt lat="42.354628024622798" lon="1.952096968889237">
        <ele>1592</ele>
        <time>2016-06-13T14:57:21Z</time>
      </trkpt>
      <trkpt lat="42.354664988815784" lon="1.951991021633148">
        <ele>1590</ele>
        <time>2016-06-13T14:57:23Z</time>
      </trkpt>
      <trkpt lat="42.354687033221126" lon="1.951941987499595">
        <ele>1574</ele>
        <time>2016-06-13T14:57:24Z</time>
      </trkpt>
      <trkpt lat="42.354727014899254" lon="1.951848026365042">
        <ele>1571</ele>
        <time>2016-06-13T14:57:26Z</time>
      </trkpt>
      <trkpt lat="42.354746963828802" lon="1.95180200971663">
        <ele>1572</ele>
        <time>2016-06-13T14:57:27Z</time>
      </trkpt>
      <trkpt lat="42.354790968820453" lon="1.951708970591426">
        <ele>1573</ele>
        <time>2016-06-13T14:57:29Z</time>
      </trkpt>
      <trkpt lat="42.354814019054174" lon="1.951663037762046">
        <ele>1577</ele>
        <time>2016-06-13T14:57:30Z</time>
      </trkpt>
      <trkpt lat="42.354860035702586" lon="1.951567986980081">
        <ele>1584</ele>
        <time>2016-06-13T14:57:32Z</time>
      </trkpt>
      <trkpt lat="42.354883002117276" lon="1.951519958674908">
        <ele>1588</ele>
        <time>2016-06-13T14:57:33Z</time>
      </trkpt>
      <trkpt lat="42.35493203625083" lon="1.951424991711974">
        <ele>1594</ele>
        <time>2016-06-13T14:57:35Z</time>
      </trkpt>
      <trkpt lat="42.3549560084939" lon="1.951377969235182">
        <ele>1596</ele>
        <time>2016-06-13T14:57:36Z</time>
      </trkpt>
      <trkpt lat="42.354980986565351" lon="1.951330024749041">
        <ele>1594</ele>
        <time>2016-06-13T14:57:37Z</time>
      </trkpt>
      <trkpt lat="42.35501803457737" lon="1.951261041685939">
        <ele>1578</ele>
        <time>2016-06-13T14:57:38Z</time>
      </trkpt>
      <trkpt lat="42.355048041790724" lon="1.951204966753721">
        <ele>1580</ele>
        <time>2016-06-13T14:57:39Z</time>
      </trkpt>
      <trkpt lat="42.355079976841807" lon="1.951147969812155">
        <ele>1584</ele>
        <time>2016-06-13T14:57:40Z</time>
      </trkpt>
      <trkpt lat="42.35512800514698" lon="1.951047973707318">
        <ele>1587</ele>
        <time>2016-06-13T14:57:42Z</time>
      </trkpt>
      <trkpt lat="42.355160024017096" lon="1.950993994250894">
        <ele>1587</ele>
        <time>2016-06-13T14:57:43Z</time>
      </trkpt>
      <trkpt lat="42.355186007916927" lon="1.95094202645123">
        <ele>1586</ele>
        <time>2016-06-13T14:57:44Z</time>
      </trkpt>
      <trkpt lat="42.355220038443804" lon="1.950895003974438">
        <ele>1584</ele>
        <time>2016-06-13T14:57:45Z</time>
      </trkpt>
      <trkpt lat="42.35525599680841" lon="1.950853010639548">
        <ele>1585</ele>
        <time>2016-06-13T14:57:46Z</time>
      </trkpt>
      <trkpt lat="42.355291033163667" lon="1.950819985941052">
        <ele>1587</ele>
        <time>2016-06-13T14:57:47Z</time>
      </trkpt>
      <trkpt lat="42.355335960164666" lon="1.950781010091305">
        <ele>1569</ele>
        <time>2016-06-13T14:57:48Z</time>
      </trkpt>
      <trkpt lat="42.355372002348304" lon="1.95074899122119">
        <ele>1575</ele>
        <time>2016-06-13T14:57:49Z</time>
      </trkpt>
      <trkpt lat="42.355413995683193" lon="1.9507069978863">
        <ele>1577</ele>
        <time>2016-06-13T14:57:50Z</time>
      </trkpt>
      <trkpt lat="42.355459006503224" lon="1.950670033693314">
        <ele>1579</ele>
        <time>2016-06-13T14:57:51Z</time>
      </trkpt>
      <trkpt lat="42.355496976524591" lon="1.950626028701663">
        <ele>1583</ele>
        <time>2016-06-13T14:57:52Z</time>
      </trkpt>
      <trkpt lat="42.355526983737946" lon="1.950573977082968">
        <ele>1586</ele>
        <time>2016-06-13T14:57:53Z</time>
      </trkpt>
      <trkpt lat="42.355603007599711" lon="1.95051496848464">
        <ele>1576</ele>
        <time>2016-06-13T14:57:55Z</time>
      </trkpt>
      <trkpt lat="42.35564298927784" lon="1.950474986806512">
        <ele>1578</ele>
        <time>2016-06-13T14:57:56Z</time>
      </trkpt>
      <trkpt lat="42.355704009532928" lon="1.950391000136733">
        <ele>1584</ele>
        <time>2016-06-13T14:57:58Z</time>
      </trkpt>
      <trkpt lat="42.355723958462477" lon="1.950332997366786">
        <ele>1585</ele>
        <time>2016-06-13T14:57:59Z</time>
      </trkpt>
      <trkpt lat="42.355768969282508" lon="1.950231995433569">
        <ele>1590</ele>
        <time>2016-06-13T14:58:01Z</time>
      </trkpt>
      <trkpt lat="42.355787996202707" lon="1.950174998492003">
        <ele>1589</ele>
        <time>2016-06-13T14:58:02Z</time>
      </trkpt>
      <trkpt lat="42.355834012851119" lon="1.950070979073644">
        <ele>1575</ele>
        <time>2016-06-13T14:58:04Z</time>
      </trkpt>
      <trkpt lat="42.355844993144274" lon="1.950010964646936">
        <ele>1578</ele>
        <time>2016-06-13T14:58:05Z</time>
      </trkpt>
      <trkpt lat="42.355855973437428" lon="1.949951034039259">
        <ele>1580</ele>
        <time>2016-06-13T14:58:06Z</time>
      </trkpt>
      <trkpt lat="42.355887992307544" lon="1.949904011562467">
        <ele>1579</ele>
        <time>2016-06-13T14:58:07Z</time>
      </trkpt>
      <trkpt lat="42.355931997299194" lon="1.949809966608882">
        <ele>1586</ele>
        <time>2016-06-13T14:58:09Z</time>
      </trkpt>
      <trkpt lat="42.355954963713884" lon="1.94976101629436">
        <ele>1588</ele>
        <time>2016-06-13T14:58:10Z</time>
      </trkpt>
      <trkpt lat="42.356011960655451" lon="1.94967401213944">
        <ele>1593</ele>
        <time>2016-06-13T14:58:12Z</time>
      </trkpt>
      <trkpt lat="42.35605001449585" lon="1.94963101297617">
        <ele>1592</ele>
        <time>2016-06-13T14:58:13Z</time>
      </trkpt>
      <trkpt lat="42.356084967032075" lon="1.949539985507727">
        <ele>1573</ele>
        <time>2016-06-13T14:58:15Z</time>
      </trkpt>
      <trkpt lat="42.356109023094177" lon="1.949505032971501">
        <ele>1576</ele>
        <time>2016-06-13T14:58:16Z</time>
      </trkpt>
      <trkpt lat="42.356174988672137" lon="1.949445018544793">
        <ele>1583</ele>
        <time>2016-06-13T14:58:18Z</time>
      </trkpt>
      <trkpt lat="42.356210025027394" lon="1.949418028816581">
        <ele>1583</ele>
        <time>2016-06-13T14:58:19Z</time>
      </trkpt>
      <trkpt lat="42.35628898255527" lon="1.949379974976182">
        <ele>1585</ele>
        <time>2016-06-13T14:58:21Z</time>
      </trkpt>
      <trkpt lat="42.356332987546921" lon="1.949368994683027">
        <ele>1589</ele>
        <time>2016-06-13T14:58:22Z</time>
      </trkpt>
      <trkpt lat="42.356377998366952" lon="1.949361031875014">
        <ele>1592</ele>
        <time>2016-06-13T14:58:23Z</time>
      </trkpt>
      <trkpt lat="42.356422003358603" lon="1.949358014389873">
        <ele>1595</ele>
        <time>2016-06-13T14:58:24Z</time>
      </trkpt>
      <trkpt lat="42.356498027220368" lon="1.949377963319421">
        <ele>1578</ele>
        <time>2016-06-13T14:58:26Z</time>
      </trkpt>
      <trkpt lat="42.356528034433722" lon="1.949411993846297">
        <ele>1583</ele>
        <time>2016-06-13T14:58:27Z</time>
      </trkpt>
      <trkpt lat="42.356572039425373" lon="1.949514001607895">
        <ele>1589</ele>
        <time>2016-06-13T14:58:29Z</time>
      </trkpt>
      <trkpt lat="42.356586959213018" lon="1.949572004377842">
        <ele>1590</ele>
        <time>2016-06-13T14:58:30Z</time>
      </trkpt>
      <trkpt lat="42.356568016111851" lon="1.949662026017904">
        <ele>1592</ele>
        <time>2016-06-13T14:58:31Z</time>
      </trkpt>
      <trkpt lat="42.35656600445509" lon="1.949719022959471">
        <ele>1593</ele>
        <time>2016-06-13T14:58:32Z</time>
      </trkpt>
      <trkpt lat="42.356555024161935" lon="1.949833016842604">
        <ele>1596</ele>
        <time>2016-06-13T14:58:34Z</time>
      </trkpt>
      <trkpt lat="42.356554018333554" lon="1.949888002127409">
        <ele>1590</ele>
        <time>2016-06-13T14:58:35Z</time>
      </trkpt>
      <trkpt lat="42.356539014726877" lon="1.949989004060626">
        <ele>1593</ele>
        <time>2016-06-13T14:58:37Z</time>
      </trkpt>
      <trkpt lat="42.356538008898497" lon="1.95004097186029">
        <ele>1594</ele>
        <time>2016-06-13T14:58:38Z</time>
      </trkpt>
      <trkpt lat="42.356538008898497" lon="1.950149014592171">
        <ele>1595</ele>
        <time>2016-06-13T14:58:40Z</time>
      </trkpt>
      <trkpt lat="42.356534991413355" lon="1.950197964906693">
        <ele>1595</ele>
        <time>2016-06-13T14:58:41Z</time>
      </trkpt>
      <trkpt lat="42.356539014726877" lon="1.950301984325051">
        <ele>1595</ele>
        <time>2016-06-13T14:58:43Z</time>
      </trkpt>
      <trkpt lat="42.356537003070116" lon="1.950355963781476">
        <ele>1596</ele>
        <time>2016-06-13T14:58:44Z</time>
      </trkpt>
      <trkpt lat="42.356528034433722" lon="1.950460989028215">
        <ele>1593</ele>
        <time>2016-06-13T14:58:46Z</time>
      </trkpt>
      <trkpt lat="42.35652300529182" lon="1.95051203481853">
        <ele>1594</ele>
        <time>2016-06-13T14:58:47Z</time>
      </trkpt>
      <trkpt lat="42.356514036655426" lon="1.950614964589477">
        <ele>1595</ele>
        <time>2016-06-13T14:58:49Z</time>
      </trkpt>
      <trkpt lat="42.356510013341904" lon="1.950665004551411">
        <ele>1596</ele>
        <time>2016-06-13T14:58:50Z</time>
      </trkpt>
      <trkpt lat="42.356498027220368" lon="1.950767012313008">
        <ele>1597</ele>
        <time>2016-06-13T14:58:52Z</time>
      </trkpt>
      <trkpt lat="42.356489980593324" lon="1.950816968455911">
        <ele>1596</ele>
        <time>2016-06-13T14:58:53Z</time>
      </trkpt>
      <trkpt lat="42.356466008350253" lon="1.950917970389128">
        <ele>1590</ele>
        <time>2016-06-13T14:58:55Z</time>
      </trkpt>
      <trkpt lat="42.356449998915195" lon="1.950969016179442">
        <ele>1593</ele>
        <time>2016-06-13T14:58:56Z</time>
      </trkpt>
      <trkpt lat="42.356433989480138" lon="1.951020983979106">
        <ele>1593</ele>
        <time>2016-06-13T14:58:57Z</time>
      </trkpt>
      <trkpt lat="42.356424015015364" lon="1.951091978698969">
        <ele>1596</ele>
        <time>2016-06-13T14:58:58Z</time>
      </trkpt>
      <trkpt lat="42.356413034722209" lon="1.951166996732354">
        <ele>1597</ele>
        <time>2016-06-13T14:58:59Z</time>
      </trkpt>
      <trkpt lat="42.356399036943913" lon="1.951218964532018">
        <ele>1597</ele>
        <time>2016-06-13T14:59:00Z</time>
      </trkpt>
      <trkpt lat="42.356370035558939" lon="1.95132901892066">
        <ele>1599</ele>
        <time>2016-06-13T14:59:02Z</time>
      </trkpt>
      <trkpt lat="42.356355031952262" lon="1.951374029740691">
        <ele>1600</ele>
        <time>2016-06-13T14:59:03Z</time>
      </trkpt>
      <trkpt lat="42.356342040002346" lon="1.951475031673908">
        <ele>1596</ele>
        <time>2016-06-13T14:59:05Z</time>
      </trkpt>
      <trkpt lat="42.356339022517204" lon="1.951532028615475">
        <ele>1597</ele>
        <time>2016-06-13T14:59:06Z</time>
      </trkpt>
      <trkpt lat="42.356336005032063" lon="1.951638981699944">
        <ele>1598</ele>
        <time>2016-06-13T14:59:08Z</time>
      </trkpt>
      <trkpt lat="42.356336005032063" lon="1.951694972813129">
        <ele>1598</ele>
        <time>2016-06-13T14:59:09Z</time>
      </trkpt>
      <trkpt lat="42.356333993375301" lon="1.951803015545011">
        <ele>1600</ele>
        <time>2016-06-13T14:59:11Z</time>
      </trkpt>
      <trkpt lat="42.356338016688824" lon="1.951855989173055">
        <ele>1600</ele>
        <time>2016-06-13T14:59:12Z</time>
      </trkpt>
      <trkpt lat="42.35635201446712" lon="1.951963026076555">
        <ele>1597</ele>
        <time>2016-06-13T14:59:14Z</time>
      </trkpt>
      <trkpt lat="42.356359977275133" lon="1.952014993876219">
        <ele>1598</ele>
        <time>2016-06-13T14:59:15Z</time>
      </trkpt>
      <trkpt lat="42.356381015852094" lon="1.952117001637816">
        <ele>1599</ele>
        <time>2016-06-13T14:59:17Z</time>
      </trkpt>
      <trkpt lat="42.356389984488487" lon="1.952167963609099">
        <ele>1599</ele>
        <time>2016-06-13T14:59:18Z</time>
      </trkpt>
      <trkpt lat="42.356402976438403" lon="1.952269971370697">
        <ele>1601</ele>
        <time>2016-06-13T14:59:20Z</time>
      </trkpt>
      <trkpt lat="42.356410017237067" lon="1.952322022989392">
        <ele>1601</ele>
        <time>2016-06-13T14:59:21Z</time>
      </trkpt>
      <trkpt lat="42.356426026672125" lon="1.952429981902242">
        <ele>1601</ele>
        <time>2016-06-13T14:59:23Z</time>
      </trkpt>
      <trkpt lat="42.356434995308518" lon="1.952488990500569">
        <ele>1598</ele>
        <time>2016-06-13T14:59:24Z</time>
      </trkpt>
      <trkpt lat="42.356449998915195" lon="1.952601978555322">
        <ele>1600</ele>
        <time>2016-06-13T14:59:26Z</time>
      </trkpt>
      <trkpt lat="42.356457961723208" lon="1.952657969668508">
        <ele>1600</ele>
        <time>2016-06-13T14:59:27Z</time>
      </trkpt>
      <trkpt lat="42.356471959501505" lon="1.952762994915247">
        <ele>1599</ele>
        <time>2016-06-13T14:59:29Z</time>
      </trkpt>
      <trkpt lat="42.356474976986647" lon="1.952813034877181">
        <ele>1600</ele>
        <time>2016-06-13T14:59:30Z</time>
      </trkpt>
      <trkpt lat="42.35648101195693" lon="1.952915964648128">
        <ele>1601</ele>
        <time>2016-06-13T14:59:32Z</time>
      </trkpt>
      <trkpt lat="42.356486041098833" lon="1.952966004610062">
        <ele>1601</ele>
        <time>2016-06-13T14:59:33Z</time>
      </trkpt>
      <trkpt lat="42.356499033048749" lon="1.953071029856801">
        <ele>1592</ele>
        <time>2016-06-13T14:59:35Z</time>
      </trkpt>
      <trkpt lat="42.356506995856762" lon="1.953121991828084">
        <ele>1593</ele>
        <time>2016-06-13T14:59:36Z</time>
      </trkpt>
      <trkpt lat="42.356520993635058" lon="1.953227017074823">
        <ele>1597</ele>
        <time>2016-06-13T14:59:38Z</time>
      </trkpt>
      <trkpt lat="42.356527028605342" lon="1.953280996531248">
        <ele>1597</ele>
        <time>2016-06-13T14:59:39Z</time>
      </trkpt>
      <trkpt lat="42.356540020555258" lon="1.953388033434749">
        <ele>1599</ele>
        <time>2016-06-13T14:59:41Z</time>
      </trkpt>
      <trkpt lat="42.35654697753489" lon="1.953441007062793">
        <ele>1600</ele>
        <time>2016-06-13T14:59:42Z</time>
      </trkpt>
      <trkpt lat="42.35656600445509" lon="1.953548965975642">
        <ele>1600</ele>
        <time>2016-06-13T14:59:44Z</time>
      </trkpt>
      <trkpt lat="42.356576984748244" lon="1.953603029251099">
        <ele>1590</ele>
        <time>2016-06-13T14:59:45Z</time>
      </trkpt>
      <trkpt lat="42.356595005840063" lon="1.953710988163948">
        <ele>1597</ele>
        <time>2016-06-13T14:59:47Z</time>
      </trkpt>
      <trkpt lat="42.356603974476457" lon="1.953764967620373">
        <ele>1598</ele>
        <time>2016-06-13T14:59:48Z</time>
      </trkpt>
      <trkpt lat="42.356624007225037" lon="1.953874016180635">
        <ele>1600</ele>
        <time>2016-06-13T14:59:50Z</time>
      </trkpt>
      <trkpt lat="42.35663197003305" lon="1.95393000729382">
        <ele>1600</ele>
        <time>2016-06-13T14:59:51Z</time>
      </trkpt>
      <trkpt lat="42.356654014438391" lon="1.95403503254056">
        <ele>1599</ele>
        <time>2016-06-13T14:59:53Z</time>
      </trkpt>
      <trkpt lat="42.356667006388307" lon="1.954083982855082">
        <ele>1589</ele>
        <time>2016-06-13T14:59:54Z</time>
      </trkpt>
      <trkpt lat="42.356701958924532" lon="1.954176016151905">
        <ele>1593</ele>
        <time>2016-06-13T14:59:56Z</time>
      </trkpt>
      <trkpt lat="42.356724003329873" lon="1.954215997830033">
        <ele>1594</ele>
        <time>2016-06-13T14:59:57Z</time>
      </trkpt>
      <trkpt lat="42.356773959472775" lon="1.954291015863419">
        <ele>1597</ele>
        <time>2016-06-13T14:59:59Z</time>
      </trkpt>
      <trkpt lat="42.3568020388484" lon="1.954322028905153">
        <ele>1597</ele>
        <time>2016-06-13T15:00:00Z</time>
      </trkpt>
      <trkpt lat="42.356858029961586" lon="1.954366033896804">
        <ele>1599</ele>
        <time>2016-06-13T15:00:02Z</time>
      </trkpt>
      <trkpt lat="42.35688803717494" lon="1.95438195951283">
        <ele>1598</ele>
        <time>2016-06-13T15:00:03Z</time>
      </trkpt>
      <trkpt lat="42.356956014409661" lon="1.95440199226141">
        <ele>1591</ele>
        <time>2016-06-13T15:00:05Z</time>
      </trkpt>
      <trkpt lat="42.356994990259409" lon="1.954405009746552">
        <ele>1593</ele>
        <time>2016-06-13T15:00:06Z</time>
      </trkpt>
      <trkpt lat="42.357037989422679" lon="1.954404003918171">
        <ele>1593</ele>
        <time>2016-06-13T15:00:07Z</time>
      </trkpt>
      <trkpt lat="42.357090041041374" lon="1.954407021403313">
        <ele>1596</ele>
        <time>2016-06-13T15:00:08Z</time>
      </trkpt>
      <trkpt lat="42.357141003012657" lon="1.954391011968255">
        <ele>1596</ele>
        <time>2016-06-13T15:00:09Z</time>
      </trkpt>
      <trkpt lat="42.357178973034024" lon="1.954392017796636">
        <ele>1585</ele>
        <time>2016-06-13T15:00:10Z</time>
      </trkpt>
      <trkpt lat="42.357257008552551" lon="1.954386988654733">
        <ele>1591</ele>
        <time>2016-06-13T15:00:12Z</time>
      </trkpt>
      <trkpt lat="42.357283998280764" lon="1.954389000311494">
        <ele>1594</ele>
        <time>2016-06-13T15:00:13Z</time>
      </trkpt>
      <trkpt lat="42.357359016314149" lon="1.954375002533197">
        <ele>1594</ele>
        <time>2016-06-13T15:00:15Z</time>
      </trkpt>
      <trkpt lat="42.357392041012645" lon="1.954375002533197">
        <ele>1596</ele>
        <time>2016-06-13T15:00:16Z</time>
      </trkpt>
      <trkpt lat="42.35746999271214" lon="1.954377014189959">
        <ele>1596</ele>
        <time>2016-06-13T15:00:18Z</time>
      </trkpt>
      <trkpt lat="42.357507962733507" lon="1.954367961734533">
        <ele>1595</ele>
        <time>2016-06-13T15:00:19Z</time>
      </trkpt>
      <trkpt lat="42.357589015737176" lon="1.954355975612998">
        <ele>1585</ele>
        <time>2016-06-13T15:00:21Z</time>
      </trkpt>
      <trkpt lat="42.357628997415304" lon="1.954348012804985">
        <ele>1584</ele>
        <time>2016-06-13T15:00:22Z</time>
      </trkpt>
      <trkpt lat="42.357710972428322" lon="1.954335020855069">
        <ele>1589</ele>
        <time>2016-06-13T15:00:24Z</time>
      </trkpt>
      <trkpt lat="42.357753971591592" lon="1.954329991713166">
        <ele>1590</ele>
        <time>2016-06-13T15:00:25Z</time>
      </trkpt>
      <trkpt lat="42.357837036252022" lon="1.954313982278109">
        <ele>1590</ele>
        <time>2016-06-13T15:00:27Z</time>
      </trkpt>
      <trkpt lat="42.357878023758531" lon="1.954305013641715">
        <ele>1591</ele>
        <time>2016-06-13T15:00:28Z</time>
      </trkpt>
      <trkpt lat="42.357959998771548" lon="1.954297972843051">
        <ele>1582</ele>
        <time>2016-06-13T15:00:30Z</time>
      </trkpt>
      <trkpt lat="42.358011966571212" lon="1.954309958964586">
        <ele>1585</ele>
        <time>2016-06-13T15:00:31Z</time>
      </trkpt>
      <trkpt lat="42.358061000704765" lon="1.954310964792967">
        <ele>1589</ele>
        <time>2016-06-13T15:00:32Z</time>
      </trkpt>
      <trkpt lat="42.358108023181558" lon="1.954305013641715">
        <ele>1590</ele>
        <time>2016-06-13T15:00:33Z</time>
      </trkpt>
      <trkpt lat="42.358184969052672" lon="1.954281041398644">
        <ele>1593</ele>
        <time>2016-06-13T15:00:35Z</time>
      </trkpt>
      <trkpt lat="42.358216987922788" lon="1.954266037791967">
        <ele>1595</ele>
        <time>2016-06-13T15:00:36Z</time>
      </trkpt>
      <trkpt lat="42.358283037319779" lon="1.954222032800317">
        <ele>1596</ele>
        <time>2016-06-13T15:00:38Z</time>
      </trkpt>
      <trkpt lat="42.358323018997908" lon="1.954205017536879">
        <ele>1598</ele>
        <time>2016-06-13T15:00:39Z</time>
      </trkpt>
      <trkpt lat="42.358389990404248" lon="1.954180961474776">
        <ele>1584</ele>
        <time>2016-06-13T15:00:41Z</time>
      </trkpt>
      <trkpt lat="42.358435001224279" lon="1.954178027808666">
        <ele>1590</ele>
        <time>2016-06-13T15:00:42Z</time>
      </trkpt>
      <trkpt lat="42.358516976237297" lon="1.954150032252073">
        <ele>1592</ele>
        <time>2016-06-13T15:00:44Z</time>
      </trkpt>
      <trkpt lat="42.358561987057328" lon="1.954147014766932">
        <ele>1594</ele>
        <time>2016-06-13T15:00:45Z</time>
      </trkpt>
      <trkpt lat="42.358647985383868" lon="1.954127987846732">
        <ele>1593</ele>
        <time>2016-06-13T15:00:47Z</time>
      </trkpt>
      <trkpt lat="42.358689978718758" lon="1.954112984240055">
        <ele>1593</ele>
        <time>2016-06-13T15:00:48Z</time>
      </trkpt>
      <trkpt lat="42.358769020065665" lon="1.954079959541559">
        <ele>1571</ele>
        <time>2016-06-13T15:00:50Z</time>
      </trkpt>
      <trkpt lat="42.358809001743793" lon="1.954067973420024">
        <ele>1574</ele>
        <time>2016-06-13T15:00:51Z</time>
      </trkpt>
      <trkpt lat="42.358887037262321" lon="1.954045007005334">
        <ele>1579</ele>
        <time>2016-06-13T15:00:53Z</time>
      </trkpt>
      <trkpt lat="42.358925007283688" lon="1.954034026712179">
        <ele>1569</ele>
        <time>2016-06-13T15:00:54Z</time>
      </trkpt>
      <trkpt lat="42.359002958983183" lon="1.954027991741896">
        <ele>1577</ele>
        <time>2016-06-13T15:00:56Z</time>
      </trkpt>
      <trkpt lat="42.359041012823582" lon="1.954031009227037">
        <ele>1582</ele>
        <time>2016-06-13T15:00:57Z</time>
      </trkpt>
      <trkpt lat="42.359109995886683" lon="1.954050958156586">
        <ele>1585</ele>
        <time>2016-06-13T15:00:59Z</time>
      </trkpt>
      <trkpt lat="42.359141008928418" lon="1.954069985076785">
        <ele>1586</ele>
        <time>2016-06-13T15:01:00Z</time>
      </trkpt>
      <trkpt lat="42.359184008091688" lon="1.954156989231706">
        <ele>1595</ele>
        <time>2016-06-13T15:01:03Z</time>
      </trkpt>
      <trkpt lat="42.359199011698365" lon="1.954185990616679">
        <ele>1580</ele>
        <time>2016-06-13T15:01:04Z</time>
      </trkpt>
      <trkpt lat="42.359269000589848" lon="1.954256985336542">
        <ele>1592</ele>
        <time>2016-06-13T15:01:07Z</time>
      </trkpt>
      <trkpt lat="42.35929599031806" lon="1.954271988943219">
        <ele>1593</ele>
        <time>2016-06-13T15:01:08Z</time>
      </trkpt>
      <trkpt lat="42.359358016401529" lon="1.954299984499812">
        <ele>1596</ele>
        <time>2016-06-13T15:01:10Z</time>
      </trkpt>
      <trkpt lat="42.359389029443264" lon="1.954311970621347">
        <ele>1597</ele>
        <time>2016-06-13T15:01:11Z</time>
      </trkpt>
      <trkpt lat="42.359454995021224" lon="1.954333009198308">
        <ele>1597</ele>
        <time>2016-06-13T15:01:13Z</time>
      </trkpt>
      <trkpt lat="42.35948801971972" lon="1.95433996617794">
        <ele>1582</ele>
        <time>2016-06-13T15:01:14Z</time>
      </trkpt>
      <trkpt lat="42.359557002782822" lon="1.954353963956237">
        <ele>1588</ele>
        <time>2016-06-13T15:01:16Z</time>
      </trkpt>
      <trkpt lat="42.359594972804189" lon="1.954361004754901">
        <ele>1589</ele>
        <time>2016-06-13T15:01:17Z</time>
      </trkpt>
      <trkpt lat="42.359663033857942" lon="1.954366033896804">
        <ele>1591</ele>
        <time>2016-06-13T15:01:18Z</time>
      </trkpt>
      <trkpt lat="42.359698992222548" lon="1.954369973391295">
        <ele>1594</ele>
        <time>2016-06-13T15:01:19Z</time>
      </trkpt>
      <trkpt lat="42.359749032184482" lon="1.954362010583282">
        <ele>1596</ele>
        <time>2016-06-13T15:01:21Z</time>
      </trkpt>
      <trkpt lat="42.359799994155765" lon="1.954371985048056">
        <ele>1597</ele>
        <time>2016-06-13T15:01:22Z</time>
      </trkpt>
      <trkpt lat="42.359870988875628" lon="1.9543800316751">
        <ele>1587</ele>
        <time>2016-06-13T15:01:24Z</time>
      </trkpt>
      <trkpt lat="42.359912982210517" lon="1.954386988654733">
        <ele>1585</ele>
        <time>2016-06-13T15:01:25Z</time>
      </trkpt>
      <trkpt lat="42.359986994415522" lon="1.954383971169591">
        <ele>1589</ele>
        <time>2016-06-13T15:01:27Z</time>
      </trkpt>
      <trkpt lat="42.360019013285637" lon="1.954385982826352">
        <ele>1588</ele>
        <time>2016-06-13T15:01:28Z</time>
      </trkpt>
      <trkpt lat="42.360087996348739" lon="1.954381037503481">
        <ele>1591</ele>
        <time>2016-06-13T15:01:30Z</time>
      </trkpt>
      <trkpt lat="42.360124960541725" lon="1.9543800316751">
        <ele>1592</ele>
        <time>2016-06-13T15:01:31Z</time>
      </trkpt>
      <trkpt lat="42.360196961089969" lon="1.954375002533197">
        <ele>1594</ele>
        <time>2016-06-13T15:01:33Z</time>
      </trkpt>
      <trkpt lat="42.360233003273606" lon="1.954370979219675">
        <ele>1582</ele>
        <time>2016-06-13T15:01:34Z</time>
      </trkpt>
      <trkpt lat="42.360302992165089" lon="1.954365028068423">
        <ele>1590</ele>
        <time>2016-06-13T15:01:36Z</time>
      </trkpt>
      <trkpt lat="42.360336016863585" lon="1.954363016411662">
        <ele>1593</ele>
        <time>2016-06-13T15:01:37Z</time>
      </trkpt>
      <trkpt lat="42.360400976613164" lon="1.954354969784617">
        <ele>1596</ele>
        <time>2016-06-13T15:01:39Z</time>
      </trkpt>
      <trkpt lat="42.360432995483279" lon="1.954351030290127">
        <ele>1597</ele>
        <time>2016-06-13T15:01:40Z</time>
      </trkpt>
      <trkpt lat="42.36049803905189" lon="1.954341977834702">
        <ele>1598</ele>
        <time>2016-06-13T15:01:42Z</time>
      </trkpt>
      <trkpt lat="42.360529974102974" lon="1.954338038340211">
        <ele>1599</ele>
        <time>2016-06-13T15:01:43Z</time>
      </trkpt>
      <trkpt lat="42.360597029328346" lon="1.95433703251183">
        <ele>1591</ele>
        <time>2016-06-13T15:01:45Z</time>
      </trkpt>
      <trkpt lat="42.360630976036191" lon="1.954340972006321">
        <ele>1593</ele>
        <time>2016-06-13T15:01:46Z</time>
      </trkpt>
      <trkpt lat="42.360696019604802" lon="1.954354969784617">
        <ele>1594</ele>
        <time>2016-06-13T15:01:48Z</time>
      </trkpt>
      <trkpt lat="42.360728038474917" lon="1.954364022240043">
        <ele>1595</ele>
        <time>2016-06-13T15:01:49Z</time>
      </trkpt>
      <trkpt lat="42.360789980739355" lon="1.954391011968255">
        <ele>1597</ele>
        <time>2016-06-13T15:01:51Z</time>
      </trkpt>
      <trkpt lat="42.360819987952709" lon="1.954408027231693">
        <ele>1598</ele>
        <time>2016-06-13T15:01:52Z</time>
      </trkpt>
      <trkpt lat="42.360878996551037" lon="1.954448008909822">
        <ele>1591</ele>
        <time>2016-06-13T15:01:54Z</time>
      </trkpt>
      <trkpt lat="42.36090699210763" lon="1.954470975324512">
        <ele>1591</ele>
        <time>2016-06-13T15:01:55Z</time>
      </trkpt>
      <trkpt lat="42.360958959907293" lon="1.954525038599968">
        <ele>1597</ele>
        <time>2016-06-13T15:01:57Z</time>
      </trkpt>
      <trkpt lat="42.360977986827493" lon="1.954559991136193">
        <ele>1598</ele>
        <time>2016-06-13T15:01:58Z</time>
      </trkpt>
      <trkpt lat="42.361001959070563" lon="1.954645989462733">
        <ele>1600</ele>
        <time>2016-06-13T15:02:00Z</time>
      </trkpt>
      <trkpt lat="42.361006988212466" lon="1.954691000282764">
        <ele>1600</ele>
        <time>2016-06-13T15:02:01Z</time>
      </trkpt>
      <trkpt lat="42.360995002090931" lon="1.954781021922827">
        <ele>1602</ele>
        <time>2016-06-13T15:02:03Z</time>
      </trkpt>
      <trkpt lat="42.360978992655873" lon="1.954823015257716">
        <ele>1603</ele>
        <time>2016-06-13T15:02:04Z</time>
      </trkpt>
      <trkpt lat="42.360934987664223" lon="1.954898033291102">
        <ele>1598</ele>
        <time>2016-06-13T15:02:06Z</time>
      </trkpt>
      <trkpt lat="42.360912021249533" lon="1.954932985827327">
        <ele>1600</ele>
        <time>2016-06-13T15:02:07Z</time>
      </trkpt>
      <trkpt lat="42.360861981287599" lon="1.954998029395938">
        <ele>1602</ele>
        <time>2016-06-13T15:02:09Z</time>
      </trkpt>
      <trkpt lat="42.360838009044528" lon="1.955029964447022">
        <ele>1603</ele>
        <time>2016-06-13T15:02:10Z</time>
      </trkpt>
      <trkpt lat="42.360789980739355" lon="1.95508997887373">
        <ele>1603</ele>
        <time>2016-06-13T15:02:12Z</time>
      </trkpt>
      <trkpt lat="42.360766008496284" lon="1.955119986087084">
        <ele>1606</ele>
        <time>2016-06-13T15:02:13Z</time>
      </trkpt>
      <trkpt lat="42.360718986019492" lon="1.955180000513792">
        <ele>1599</ele>
        <time>2016-06-13T15:02:15Z</time>
      </trkpt>
      <trkpt lat="42.360694007948041" lon="1.955207996070385">
        <ele>1597</ele>
        <time>2016-06-13T15:02:16Z</time>
      </trkpt>
      <trkpt lat="42.36062896437943" lon="1.955291982740164">
        <ele>1601</ele>
        <time>2016-06-13T15:02:19Z</time>
      </trkpt>
      <trkpt lat="42.360608009621501" lon="1.955321989953518">
        <ele>1602</ele>
        <time>2016-06-13T15:02:20Z</time>
      </trkpt>
      <trkpt lat="42.360561992973089" lon="1.955375969409943">
        <ele>1604</ele>
        <time>2016-06-13T15:02:22Z</time>
      </trkpt>
      <trkpt lat="42.36054003238678" lon="1.955404970794916">
        <ele>1605</ele>
        <time>2016-06-13T15:02:23Z</time>
      </trkpt>
      <trkpt lat="42.36049996688962" lon="1.955471020191908">
        <ele>1601</ele>
        <time>2016-06-13T15:02:25Z</time>
      </trkpt>
      <trkpt lat="42.360480017960072" lon="1.955503961071372">
        <ele>1604</ele>
        <time>2016-06-13T15:02:26Z</time>
      </trkpt>
      <trkpt lat="42.360438024625182" lon="1.955570010468364">
        <ele>1606</ele>
        <time>2016-06-13T15:02:28Z</time>
      </trkpt>
      <trkpt lat="42.360417991876602" lon="1.95560303516686">
        <ele>1607</ele>
        <time>2016-06-13T15:02:29Z</time>
      </trkpt>
      <trkpt lat="42.360377004370093" lon="1.95566900074482">
        <ele>1608</ele>
        <time>2016-06-13T15:02:31Z</time>
      </trkpt>
      <trkpt lat="42.360356971621513" lon="1.955702025443316">
        <ele>1607</ele>
        <time>2016-06-13T15:02:32Z</time>
      </trkpt>
      <trkpt lat="42.360314978286624" lon="1.955764973536134">
        <ele>1600</ele>
        <time>2016-06-13T15:02:34Z</time>
      </trkpt>
      <trkpt lat="42.360294023528695" lon="1.95579799823463">
        <ele>1602</ele>
        <time>2016-06-13T15:02:35Z</time>
      </trkpt>
      <trkpt lat="42.360259993001819" lon="1.955871004611254">
        <ele>1605</ele>
        <time>2016-06-13T15:02:37Z</time>
      </trkpt>
      <trkpt lat="42.360244989395142" lon="1.955909980461001">
        <ele>1606</ele>
        <time>2016-06-13T15:02:38Z</time>
      </trkpt>
      <trkpt lat="42.360214982181787" lon="1.955988015979528">
        <ele>1609</ele>
        <time>2016-06-13T15:02:40Z</time>
      </trkpt>
      <trkpt lat="42.360202996060252" lon="1.956029003486037">
        <ele>1610</ele>
        <time>2016-06-13T15:02:41Z</time>
      </trkpt>
      <trkpt lat="42.36019603908062" lon="1.9561190251261">
        <ele>1611</ele>
        <time>2016-06-13T15:02:43Z</time>
      </trkpt>
      <trkpt lat="42.360196961089969" lon="1.956165041774511">
        <ele>1605</ele>
        <time>2016-06-13T15:02:44Z</time>
      </trkpt>
      <trkpt lat="42.360205007717013" lon="1.956254979595542">
        <ele>1607</ele>
        <time>2016-06-13T15:02:46Z</time>
      </trkpt>
      <trkpt lat="42.360213976353407" lon="1.956298984587193">
        <ele>1608</ele>
        <time>2016-06-13T15:02:47Z</time>
      </trkpt>
      <trkpt lat="42.36024197191" lon="1.956383977085352">
        <ele>1608</ele>
        <time>2016-06-13T15:02:49Z</time>
      </trkpt>
      <trkpt lat="42.360257981345057" lon="1.956426976248622">
        <ele>1610</ele>
        <time>2016-06-13T15:02:50Z</time>
      </trkpt>
      <trkpt lat="42.360293017700315" lon="1.956510962918401">
        <ele>1611</ele>
        <time>2016-06-13T15:02:52Z</time>
      </trkpt>
      <trkpt lat="42.360313972458243" lon="1.956551028415561">
        <ele>1611</ele>
        <time>2016-06-13T15:02:53Z</time>
      </trkpt>
      <trkpt lat="42.360356971621513" lon="1.956627974286676">
        <ele>1604</ele>
        <time>2016-06-13T15:02:55Z</time>
      </trkpt>
      <trkpt lat="42.360378010198474" lon="1.956666028127074">
        <ele>1605</ele>
        <time>2016-06-13T15:02:56Z</time>
      </trkpt>
      <trkpt lat="42.360416986048222" lon="1.956737022846937">
        <ele>1608</ele>
        <time>2016-06-13T15:02:58Z</time>
      </trkpt>
      <trkpt lat="42.36043400131166" lon="1.956772981211543">
        <ele>1609</ele>
        <time>2016-06-13T15:02:59Z</time>
      </trkpt>
      <trkpt lat="42.360469959676266" lon="1.956843975931406">
        <ele>1610</ele>
        <time>2016-06-13T15:03:01Z</time>
      </trkpt>
      <trkpt lat="42.360490998253226" lon="1.956879012286663">
        <ele>1610</ele>
        <time>2016-06-13T15:03:02Z</time>
      </trkpt>
      <trkpt lat="42.360538020730019" lon="1.956949001178145">
        <ele>1604</ele>
        <time>2016-06-13T15:03:04Z</time>
      </trkpt>
      <trkpt lat="42.360565010458231" lon="1.956981020048261">
        <ele>1606</ele>
        <time>2016-06-13T15:03:05Z</time>
      </trkpt>
      <trkpt lat="42.360616978257895" lon="1.957038016989827">
        <ele>1608</ele>
        <time>2016-06-13T15:03:07Z</time>
      </trkpt>
      <trkpt lat="42.360642962157726" lon="1.957064000889659">
        <ele>1608</ele>
        <time>2016-06-13T15:03:08Z</time>
      </trkpt>
      <trkpt lat="42.360699959099293" lon="1.95710800588131">
        <ele>1610</ele>
        <time>2016-06-13T15:03:10Z</time>
      </trkpt>
      <trkpt lat="42.360731977969408" lon="1.957127032801509">
        <ele>1609</ele>
        <time>2016-06-13T15:03:11Z</time>
      </trkpt>
      <trkpt lat="42.3607980273664" lon="1.957158967852593">
        <ele>1611</ele>
        <time>2016-06-13T15:03:13Z</time>
      </trkpt>
      <trkpt lat="42.360830968245864" lon="1.95717103779316">
        <ele>1602</ele>
        <time>2016-06-13T15:03:14Z</time>
      </trkpt>
      <trkpt lat="42.360896011814475" lon="1.957189980894327">
        <ele>1605</ele>
        <time>2016-06-13T15:03:16Z</time>
      </trkpt>
      <trkpt lat="42.36092803068459" lon="1.957200039178133">
        <ele>1606</ele>
        <time>2016-06-13T15:03:17Z</time>
      </trkpt>
      <trkpt lat="42.36099299043417" lon="1.957213031128049">
        <ele>1609</ele>
        <time>2016-06-13T15:03:19Z</time>
      </trkpt>
      <trkpt lat="42.361028026789427" lon="1.957214958965778">
        <ele>1609</ele>
        <time>2016-06-13T15:03:20Z</time>
      </trkpt>
      <trkpt lat="42.361096004024148" lon="1.957215964794159">
        <ele>1611</ele>
        <time>2016-06-13T15:03:22Z</time>
      </trkpt>
      <trkpt lat="42.361129028722644" lon="1.95721403695643">
        <ele>1611</ele>
        <time>2016-06-13T15:03:23Z</time>
      </trkpt>
      <trkpt lat="42.361192982643843" lon="1.95719501003623">
        <ele>1600</ele>
        <time>2016-06-13T15:03:25Z</time>
      </trkpt>
      <trkpt lat="42.361227013170719" lon="1.957183023914695">
        <ele>1602</ele>
        <time>2016-06-13T15:03:26Z</time>
      </trkpt>
      <trkpt lat="42.361295996233821" lon="1.957163996994495">
        <ele>1605</ele>
        <time>2016-06-13T15:03:28Z</time>
      </trkpt>
      <trkpt lat="42.361331032589078" lon="1.957153016701341">
        <ele>1607</ele>
        <time>2016-06-13T15:03:29Z</time>
      </trkpt>
      <trkpt lat="42.361404038965702" lon="1.957124015316367">
        <ele>1604</ele>
        <time>2016-06-13T15:03:31Z</time>
      </trkpt>
      <trkpt lat="42.361441003158689" lon="1.95710800588131">
        <ele>1605</ele>
        <time>2016-06-13T15:03:32Z</time>
      </trkpt>
      <trkpt lat="42.361507974565029" lon="1.957071041688323">
        <ele>1604</ele>
        <time>2016-06-13T15:03:34Z</time>
      </trkpt>
      <trkpt lat="42.361540999263525" lon="1.957057965919375">
        <ele>1581</ele>
        <time>2016-06-13T15:03:35Z</time>
      </trkpt>
      <trkpt lat="42.361605037003756" lon="1.957034999504685">
        <ele>1592</ele>
        <time>2016-06-13T15:03:37Z</time>
      </trkpt>
      <trkpt lat="42.3616389837116" lon="1.957025025039911">
        <ele>1595</ele>
        <time>2016-06-13T15:03:38Z</time>
      </trkpt>
      <trkpt lat="42.361706960946321" lon="1.957016978412867">
        <ele>1602</ele>
        <time>2016-06-13T15:03:40Z</time>
      </trkpt>
      <trkpt lat="42.361740991473198" lon="1.957011027261615">
        <ele>1606</ele>
        <time>2016-06-13T15:03:41Z</time>
      </trkpt>
      <trkpt lat="42.361807962879539" lon="1.957005998119712">
        <ele>1605</ele>
        <time>2016-06-13T15:03:43Z</time>
      </trkpt>
      <trkpt lat="42.361841993406415" lon="1.957012033089995">
        <ele>1608</ele>
        <time>2016-06-13T15:03:44Z</time>
      </trkpt>
      <trkpt lat="42.361910976469517" lon="1.957028964534402">
        <ele>1600</ele>
        <time>2016-06-13T15:03:46Z</time>
      </trkpt>
      <trkpt lat="42.361947018653154" lon="1.95704597979784">
        <ele>1603</ele>
        <time>2016-06-13T15:03:47Z</time>
      </trkpt>
      <trkpt lat="42.362012984231114" lon="1.957100965082645">
        <ele>1608</ele>
        <time>2016-06-13T15:03:49Z</time>
      </trkpt>
      <trkpt lat="42.362041985616088" lon="1.957139018923044">
        <ele>1608</ele>
        <time>2016-06-13T15:03:50Z</time>
      </trkpt>
      <trkpt lat="42.3620880022645" lon="1.957224011421204">
        <ele>1607</ele>
        <time>2016-06-13T15:03:52Z</time>
      </trkpt>
      <trkpt lat="42.362106023356318" lon="1.957268016412854">
        <ele>1607</ele>
        <time>2016-06-13T15:03:53Z</time>
      </trkpt>
      <trkpt lat="42.362137958407402" lon="1.957362983375788">
        <ele>1603</ele>
        <time>2016-06-13T15:03:55Z</time>
      </trkpt>
      <trkpt lat="42.36215396784246" lon="1.9574090000242">
        <ele>1604</ele>
        <time>2016-06-13T15:03:56Z</time>
      </trkpt>
      <trkpt lat="42.362193027511239" lon="1.957491980865598">
        <ele>1607</ele>
        <time>2016-06-13T15:03:58Z</time>
      </trkpt>
      <trkpt lat="42.362214988097548" lon="1.957531040534377">
        <ele>1608</ele>
        <time>2016-06-13T15:03:59Z</time>
      </trkpt>
      <trkpt lat="42.362266033887863" lon="1.957597006112337">
        <ele>1610</ele>
        <time>2016-06-13T15:04:01Z</time>
      </trkpt>
      <trkpt lat="42.362295035272837" lon="1.957626007497311">
        <ele>1610</ele>
        <time>2016-06-13T15:04:02Z</time>
      </trkpt>
      <trkpt lat="42.362353038042784" lon="1.957676969468594">
        <ele>1610</ele>
        <time>2016-06-13T15:04:04Z</time>
      </trkpt>
      <trkpt lat="42.362382961437106" lon="1.957700019702315">
        <ele>1599</ele>
        <time>2016-06-13T15:04:05Z</time>
      </trkpt>
      <trkpt lat="42.362442975863814" lon="1.957743018865585">
        <ele>1603</ele>
        <time>2016-06-13T15:04:07Z</time>
      </trkpt>
      <trkpt lat="42.362473988905549" lon="1.957760034129024">
        <ele>1605</ele>
        <time>2016-06-13T15:04:08Z</time>
      </trkpt>
      <trkpt lat="42.36253802664578" lon="1.957790963351727">
        <ele>1604</ele>
        <time>2016-06-13T15:04:10Z</time>
      </trkpt>
      <trkpt lat="42.362571973353624" lon="1.957804039120674">
        <ele>1605</ele>
        <time>2016-06-13T15:04:11Z</time>
      </trkpt>
      <trkpt lat="42.362642968073487" lon="1.957829017192125">
        <ele>1608</ele>
        <time>2016-06-13T15:04:13Z</time>
      </trkpt>
      <trkpt lat="42.362680016085505" lon="1.95783999748528">
        <ele>1608</ele>
        <time>2016-06-13T15:04:14Z</time>
      </trkpt>
      <trkpt lat="42.362761991098523" lon="1.957864975556731">
        <ele>1600</ele>
        <time>2016-06-13T15:04:16Z</time>
      </trkpt>
      <trkpt lat="42.362802978605032" lon="1.957876961678267">
        <ele>1603</ele>
        <time>2016-06-13T15:04:17Z</time>
      </trkpt>
      <trkpt lat="42.36288201995194" lon="1.957896994426847">
        <ele>1604</ele>
        <time>2016-06-13T15:04:19Z</time>
      </trkpt>
      <trkpt lat="42.362922001630068" lon="1.957906968891621">
        <ele>1606</ele>
        <time>2016-06-13T15:04:20Z</time>
      </trkpt>
      <trkpt lat="42.363001964986324" lon="1.957930019125342">
        <ele>1605</ele>
        <time>2016-06-13T15:04:22Z</time>
      </trkpt>
      <trkpt lat="42.363046975806355" lon="1.957933958619833">
        <ele>1603</ele>
        <time>2016-06-13T15:04:23Z</time>
      </trkpt>
      <trkpt lat="42.363089974969625" lon="1.957942005246878">
        <ele>1592</ele>
        <time>2016-06-13T15:04:24Z</time>
      </trkpt>
      <trkpt lat="42.363134985789657" lon="1.957959020510316">
        <ele>1588</ele>
        <time>2016-06-13T15:04:25Z</time>
      </trkpt>
      <trkpt lat="42.363178990781307" lon="1.957970000803471">
        <ele>1592</ele>
        <time>2016-06-13T15:04:26Z</time>
      </trkpt>
      <trkpt lat="42.36322701908648" lon="1.957983998581767">
        <ele>1594</ele>
        <time>2016-06-13T15:04:27Z</time>
      </trkpt>
      <trkpt lat="42.363280998542905" lon="1.957993973046541">
        <ele>1596</ele>
        <time>2016-06-13T15:04:28Z</time>
      </trkpt>
      <trkpt lat="42.363330032676458" lon="1.958007970824838">
        <ele>1597</ele>
        <time>2016-06-13T15:04:29Z</time>
      </trkpt>
      <trkpt lat="42.363382000476122" lon="1.958021968603134">
        <ele>1599</ele>
        <time>2016-06-13T15:04:30Z</time>
      </trkpt>
      <trkpt lat="42.363429022952914" lon="1.958042001351714">
        <ele>1601</ele>
        <time>2016-06-13T15:04:31Z</time>
      </trkpt>
      <trkpt lat="42.363478979095817" lon="1.958053987473249">
        <ele>1602</ele>
        <time>2016-06-13T15:04:32Z</time>
      </trkpt>
      <trkpt lat="42.363526001572609" lon="1.958053987473249">
        <ele>1602</ele>
        <time>2016-06-13T15:04:33Z</time>
      </trkpt>
      <trkpt lat="42.363578975200653" lon="1.958065973594785">
        <ele>1602</ele>
        <time>2016-06-13T15:04:34Z</time>
      </trkpt>
      <trkpt lat="42.363625997677445" lon="1.95807502605021">
        <ele>1586</ele>
        <time>2016-06-13T15:04:35Z</time>
      </trkpt>
      <trkpt lat="42.363671008497477" lon="1.958080977201462">
        <ele>1592</ele>
        <time>2016-06-13T15:04:36Z</time>
      </trkpt>
      <trkpt lat="42.36372197046876" lon="1.958089023828507">
        <ele>1596</ele>
        <time>2016-06-13T15:04:37Z</time>
      </trkpt>
      <trkpt lat="42.363774022087455" lon="1.958094974979758">
        <ele>1600</ele>
        <time>2016-06-13T15:04:38Z</time>
      </trkpt>
      <trkpt lat="42.363814003765583" lon="1.958088018000126">
        <ele>1602</ele>
        <time>2016-06-13T15:04:39Z</time>
      </trkpt>
      <trkpt lat="42.363892961293459" lon="1.958078965544701">
        <ele>1605</ele>
        <time>2016-06-13T15:04:41Z</time>
      </trkpt>
      <trkpt lat="42.36393696628511" lon="1.958071002736688">
        <ele>1605</ele>
        <time>2016-06-13T15:04:42Z</time>
      </trkpt>
      <trkpt lat="42.364025982096791" lon="1.958061028271914">
        <ele>1591</ele>
        <time>2016-06-13T15:04:45Z</time>
      </trkpt>
      <trkpt lat="42.364054983481765" lon="1.958059016615152">
        <ele>1593</ele>
        <time>2016-06-13T15:04:46Z</time>
      </trkpt>
      <trkpt lat="42.364140981808305" lon="1.95805499330163">
        <ele>1603</ele>
        <time>2016-06-13T15:04:49Z</time>
      </trkpt>
      <trkpt lat="42.364167971536517" lon="1.958057004958391">
        <ele>1603</ele>
        <time>2016-06-13T15:04:50Z</time>
      </trkpt>
      <trkpt lat="42.364242989569902" lon="1.958052981644869">
        <ele>1609</ele>
        <time>2016-06-13T15:04:53Z</time>
      </trkpt>
      <trkpt lat="42.364267967641354" lon="1.95805499330163">
        <ele>1599</ele>
        <time>2016-06-13T15:04:54Z</time>
      </trkpt>
      <trkpt lat="42.364348014816642" lon="1.958069996908307">
        <ele>1603</ele>
        <time>2016-06-13T15:04:57Z</time>
      </trkpt>
      <trkpt lat="42.364376010373235" lon="1.958078965544701">
        <ele>1605</ele>
        <time>2016-06-13T15:04:58Z</time>
      </trkpt>
      <trkpt lat="42.364462008699775" lon="1.958111990243197">
        <ele>1608</ele>
        <time>2016-06-13T15:05:01Z</time>
      </trkpt>
      <trkpt lat="42.364491010084748" lon="1.958123976364732">
        <ele>1610</ele>
        <time>2016-06-13T15:05:02Z</time>
      </trkpt>
      <trkpt lat="42.364548007026315" lon="1.958150966092944">
        <ele>1611</ele>
        <time>2016-06-13T15:05:04Z</time>
      </trkpt>
      <trkpt lat="42.364577008411288" lon="1.958165969699621">
        <ele>1592</ele>
        <time>2016-06-13T15:05:05Z</time>
      </trkpt>
      <trkpt lat="42.364635011181235" lon="1.958192037418485">
        <ele>1601</ele>
        <time>2016-06-13T15:05:07Z</time>
      </trkpt>
      <trkpt lat="42.364663006737828" lon="1.958207041025162">
        <ele>1603</ele>
        <time>2016-06-13T15:05:08Z</time>
      </trkpt>
      <trkpt lat="42.364721009507775" lon="1.958234030753374">
        <ele>1607</ele>
        <time>2016-06-13T15:05:10Z</time>
      </trkpt>
      <trkpt lat="42.364749005064368" lon="1.958241993561387">
        <ele>1609</ele>
        <time>2016-06-13T15:05:11Z</time>
      </trkpt>
      <trkpt lat="42.364832991734147" lon="1.958266971632838">
        <ele>1606</ele>
        <time>2016-06-13T15:05:14Z</time>
      </trkpt>
      <trkpt lat="42.364859981462359" lon="1.958276024088264">
        <ele>1587</ele>
        <time>2016-06-13T15:05:15Z</time>
      </trkpt>
      <trkpt lat="42.364945979788899" lon="1.958299996331334">
        <ele>1602</ele>
        <time>2016-06-13T15:05:18Z</time>
      </trkpt>
      <trkpt lat="42.364974981173873" lon="1.958309970796108">
        <ele>1603</ele>
        <time>2016-06-13T15:05:19Z</time>
      </trkpt>
      <trkpt lat="42.365031978115439" lon="1.95833302102983">
        <ele>1605</ele>
        <time>2016-06-13T15:05:21Z</time>
      </trkpt>
      <trkpt lat="42.365060979500413" lon="1.958344001322985">
        <ele>1607</ele>
        <time>2016-06-13T15:05:22Z</time>
      </trkpt>
      <trkpt lat="42.36511898227036" lon="1.958365961909294">
        <ele>1609</ele>
        <time>2016-06-13T15:05:24Z</time>
      </trkpt>
      <trkpt lat="42.365148989483714" lon="1.958374008536339">
        <ele>1595</ele>
        <time>2016-06-13T15:05:25Z</time>
      </trkpt>
      <trkpt lat="42.365209003910422" lon="1.958394963294268">
        <ele>1602</ele>
        <time>2016-06-13T15:05:27Z</time>
      </trkpt>
      <trkpt lat="42.365238005295396" lon="1.958407033234835">
        <ele>1605</ele>
        <time>2016-06-13T15:05:28Z</time>
      </trkpt>
      <trkpt lat="42.365299025550485" lon="1.958434022963047">
        <ele>1609</ele>
        <time>2016-06-13T15:05:30Z</time>
      </trkpt>
      <trkpt lat="42.365328026935458" lon="1.958445003256202">
        <ele>1610</ele>
        <time>2016-06-13T15:05:31Z</time>
      </trkpt>
      <trkpt lat="42.365388041362166" lon="1.958467969670892">
        <ele>1612</ele>
        <time>2016-06-13T15:05:33Z</time>
      </trkpt>
      <trkpt lat="42.36541997641325" lon="1.958478027954698">
        <ele>1612</ele>
        <time>2016-06-13T15:05:34Z</time>
      </trkpt>
      <trkpt lat="42.3654830083251" lon="1.958502000197768">
        <ele>1603</ele>
        <time>2016-06-13T15:05:36Z</time>
      </trkpt>
      <trkpt lat="42.365514021366835" lon="1.958514992147684">
        <ele>1604</ele>
        <time>2016-06-13T15:05:37Z</time>
      </trkpt>
      <trkpt lat="42.365574035793543" lon="1.958540976047516">
        <ele>1605</ele>
        <time>2016-06-13T15:05:39Z</time>
      </trkpt>
      <trkpt lat="42.365603959187865" lon="1.958552962169051">
        <ele>1606</ele>
        <time>2016-06-13T15:05:40Z</time>
      </trkpt>
      <trkpt lat="42.365670008584857" lon="1.958579029887915">
        <ele>1607</ele>
        <time>2016-06-13T15:05:42Z</time>
      </trkpt>
      <trkpt lat="42.365703033283353" lon="1.95859101600945">
        <ele>1609</ele>
        <time>2016-06-13T15:05:43Z</time>
      </trkpt>
      <trkpt lat="42.365772016346455" lon="1.958612976595759">
        <ele>1590</ele>
        <time>2016-06-13T15:05:45Z</time>
      </trkpt>
      <trkpt lat="42.365805963054299" lon="1.958624040707946">
        <ele>1598</ele>
        <time>2016-06-13T15:05:46Z</time>
      </trkpt>
      <trkpt lat="42.365882992744446" lon="1.958648012951016">
        <ele>1606</ele>
        <time>2016-06-13T15:05:48Z</time>
      </trkpt>
      <trkpt lat="42.365920040756464" lon="1.958659999072552">
        <ele>1609</ele>
        <time>2016-06-13T15:05:49Z</time>
      </trkpt>
      <trkpt lat="42.365996986627579" lon="1.958686988800764">
        <ele>1612</ele>
        <time>2016-06-13T15:05:51Z</time>
      </trkpt>
      <trkpt lat="42.366035962477326" lon="1.958698974922299">
        <ele>1613</ele>
        <time>2016-06-13T15:05:52Z</time>
      </trkpt>
      <trkpt lat="42.366109974682331" lon="1.958721019327641">
        <ele>1615</ele>
        <time>2016-06-13T15:05:54Z</time>
      </trkpt>
      <trkpt lat="42.366145011037588" lon="1.958733005449176">
        <ele>1601</ele>
        <time>2016-06-13T15:05:55Z</time>
      </trkpt>
      <trkpt lat="42.366217011585832" lon="1.958754966035485">
        <ele>1608</ele>
        <time>2016-06-13T15:05:57Z</time>
      </trkpt>
      <trkpt lat="42.366252969950438" lon="1.958767035976052">
        <ele>1610</ele>
        <time>2016-06-13T15:05:58Z</time>
      </trkpt>
      <trkpt lat="42.366327987983823" lon="1.958794025704265">
        <ele>1611</ele>
        <time>2016-06-13T15:06:00Z</time>
      </trkpt>
      <trkpt lat="42.366366041824222" lon="1.958807017654181">
        <ele>1612</ele>
        <time>2016-06-13T15:06:01Z</time>
      </trkpt>
      <trkpt lat="42.366441981866956" lon="1.95882897824049">
        <ele>1615</ele>
        <time>2016-06-13T15:06:03Z</time>
      </trkpt>
      <trkpt lat="42.366478024050593" lon="1.958839958533645">
        <ele>1615</ele>
        <time>2016-06-13T15:06:04Z</time>
      </trkpt>
      <trkpt lat="42.366543989628553" lon="1.958859991282225">
        <ele>1599</ele>
        <time>2016-06-13T15:06:06Z</time>
      </trkpt>
      <trkpt lat="42.366575002670288" lon="1.958868959918618">
        <ele>1603</ele>
        <time>2016-06-13T15:06:07Z</time>
      </trkpt>
      <trkpt lat="42.366651026532054" lon="1.958887986838818">
        <ele>1606</ele>
        <time>2016-06-13T15:06:10Z</time>
      </trkpt>
      <trkpt lat="42.366677010431886" lon="1.958893015980721">
        <ele>1607</ele>
        <time>2016-06-13T15:06:11Z</time>
      </trkpt>
      <trkpt lat="42.366755967959762" lon="1.958908019587398">
        <ele>1610</ele>
        <time>2016-06-13T15:06:14Z</time>
      </trkpt>
      <trkpt lat="42.366783963516355" lon="1.958916988223791">
        <ele>1590</ele>
        <time>2016-06-13T15:06:15Z</time>
      </trkpt>
      <trkpt lat="42.366867028176785" lon="1.958936015143991">
        <ele>1601</ele>
        <time>2016-06-13T15:06:18Z</time>
      </trkpt>
      <trkpt lat="42.366896029561758" lon="1.958942972123623">
        <ele>1607</ele>
        <time>2016-06-13T15:06:19Z</time>
      </trkpt>
      <trkpt lat="42.366955960169435" lon="1.958955964073539">
        <ele>1612</ele>
        <time>2016-06-13T15:06:21Z</time>
      </trkpt>
      <trkpt lat="42.366985967382789" lon="1.958967028185725">
        <ele>1612</ele>
        <time>2016-06-13T15:06:22Z</time>
      </trkpt>
      <trkpt lat="42.367044975981116" lon="1.958988988772035">
        <ele>1591</ele>
        <time>2016-06-13T15:06:24Z</time>
      </trkpt>
      <trkpt lat="42.36707397736609" lon="1.95899804122746">
        <ele>1593</ele>
        <time>2016-06-13T15:06:25Z</time>
      </trkpt>
      <trkpt lat="42.367131980136037" lon="1.959016984328628">
        <ele>1597</ele>
        <time>2016-06-13T15:06:27Z</time>
      </trkpt>
      <trkpt lat="42.367161987349391" lon="1.959026036784053">
        <ele>1602</ele>
        <time>2016-06-13T15:06:28Z</time>
      </trkpt>
      <trkpt lat="42.36722401343286" lon="1.959050009027124">
        <ele>1606</ele>
        <time>2016-06-13T15:06:30Z</time>
      </trkpt>
      <trkpt lat="42.367256032302976" lon="1.959066018462181">
        <ele>1611</ele>
        <time>2016-06-13T15:06:31Z</time>
      </trkpt>
      <trkpt lat="42.367323003709316" lon="1.959118992090225">
        <ele>1615</ele>
        <time>2016-06-13T15:06:33Z</time>
      </trkpt>
      <trkpt lat="42.367347981780767" lon="1.959165008738637">
        <ele>1590</ele>
        <time>2016-06-13T15:06:34Z</time>
      </trkpt>
      <trkpt lat="42.367364997044206" lon="1.959267016500235">
        <ele>1596</ele>
        <time>2016-06-13T15:06:36Z</time>
      </trkpt>
      <trkpt lat="42.367364997044206" lon="1.959320995956659">
        <ele>1601</ele>
        <time>2016-06-13T15:06:37Z</time>
      </trkpt>
      <trkpt lat="42.367342030629516" lon="1.959427027031779">
        <ele>1606</ele>
        <time>2016-06-13T15:06:39Z</time>
      </trkpt>
      <trkpt lat="42.367318980395794" lon="1.959474971517921">
        <ele>1604</ele>
        <time>2016-06-13T15:06:40Z</time>
      </trkpt>
      <trkpt lat="42.367260977625847" lon="1.959554012864828">
        <ele>1607</ele>
        <time>2016-06-13T15:06:42Z</time>
      </trkpt>
      <trkpt lat="42.367228958755732" lon="1.959585025906563">
        <ele>1608</ele>
        <time>2016-06-13T15:06:43Z</time>
      </trkpt>
      <trkpt lat="42.367169028148055" lon="1.959617966786027">
        <ele>1585</ele>
        <time>2016-06-13T15:06:45Z</time>
      </trkpt>
      <trkpt lat="42.367133991792798" lon="1.959618972614408">
        <ele>1587</ele>
        <time>2016-06-13T15:06:46Z</time>
      </trkpt>
      <trkpt lat="42.367059979587793" lon="1.959614027291536">
        <ele>1596</ele>
        <time>2016-06-13T15:06:48Z</time>
      </trkpt>
      <trkpt lat="42.367024021223187" lon="1.959612015634775">
        <ele>1595</ele>
        <time>2016-06-13T15:06:49Z</time>
      </trkpt>
      <trkpt lat="42.366952020674944" lon="1.95960296317935">
        <ele>1598</ele>
        <time>2016-06-13T15:06:51Z</time>
      </trkpt>
      <trkpt lat="42.366914972662926" lon="1.959597012028098">
        <ele>1598</ele>
        <time>2016-06-13T15:06:52Z</time>
      </trkpt>
      <trkpt lat="42.366841966286302" lon="1.959578990936279">
        <ele>1598</ele>
        <time>2016-06-13T15:06:54Z</time>
      </trkpt>
      <trkpt lat="42.366805002093315" lon="1.959574967622757">
        <ele>1560</ele>
        <time>2016-06-13T15:06:55Z</time>
      </trkpt>
      <trkpt lat="42.366734007373452" lon="1.959581002593041">
        <ele>1569</ele>
        <time>2016-06-13T15:06:57Z</time>
      </trkpt>
      <trkpt lat="42.366701988503337" lon="1.959589971229434">
        <ele>1574</ele>
        <time>2016-06-13T15:06:58Z</time>
      </trkpt>
      <trkpt lat="42.36664398573339" lon="1.959615033119917">
        <ele>1585</ele>
        <time>2016-06-13T15:07:00Z</time>
      </trkpt>
      <trkpt lat="42.366613978520036" lon="1.959629030898213">
        <ele>1593</ele>
        <time>2016-06-13T15:07:01Z</time>
      </trkpt>
      <trkpt lat="42.366532003507018" lon="1.959671024233103">
        <ele>1571</ele>
        <time>2016-06-13T15:07:04Z</time>
      </trkpt>
      <trkpt lat="42.366506019607186" lon="1.959685022011399">
        <ele>1578</ele>
        <time>2016-06-13T15:07:05Z</time>
      </trkpt>
      <trkpt lat="42.36642999574542" lon="1.959720980376005">
        <ele>1587</ele>
        <time>2016-06-13T15:07:08Z</time>
      </trkpt>
      <trkpt lat="42.36640602350235" lon="1.959733972325921">
        <ele>1592</ele>
        <time>2016-06-13T15:07:09Z</time>
      </trkpt>
      <trkpt lat="42.366331005468965" lon="1.959777977317572">
        <ele>1603</ele>
        <time>2016-06-13T15:07:12Z</time>
      </trkpt>
      <trkpt lat="42.366306027397513" lon="1.959793986752629">
        <ele>1607</ele>
        <time>2016-06-13T15:07:13Z</time>
      </trkpt>
      <trkpt lat="42.36623503267765" lon="1.959832962602377">
        <ele>1595</ele>
        <time>2016-06-13T15:07:16Z</time>
      </trkpt>
      <trkpt lat="42.366211982443929" lon="1.959846038371325">
        <ele>1599</ele>
        <time>2016-06-13T15:07:17Z</time>
      </trkpt>
      <trkpt lat="42.366144005209208" lon="1.959886020049453">
        <ele>1613</ele>
        <time>2016-06-13T15:07:20Z</time>
      </trkpt>
      <trkpt lat="42.366121038794518" lon="1.95990202948451">
        <ele>1617</ele>
        <time>2016-06-13T15:07:21Z</time>
      </trkpt>
      <trkpt lat="42.366047026589513" lon="1.959943016991019">
        <ele>1590</ele>
        <time>2016-06-13T15:07:24Z</time>
      </trkpt>
      <trkpt lat="42.366022970527411" lon="1.959955003112555">
        <ele>1599</ele>
        <time>2016-06-13T15:07:25Z</time>
      </trkpt>
      <trkpt lat="42.365959016606212" lon="1.959996996447444">
        <ele>1611</ele>
        <time>2016-06-13T15:07:28Z</time>
      </trkpt>
      <trkpt lat="42.365937978029251" lon="1.960004959255457">
        <ele>1612</ele>
        <time>2016-06-13T15:07:29Z</time>
      </trkpt>
      <trkpt lat="42.365873018279672" lon="1.960035972297192">
        <ele>1618</ele>
        <time>2016-06-13T15:07:32Z</time>
      </trkpt>
      <trkpt lat="42.365850973874331" lon="1.960047036409378">
        <ele>1620</ele>
        <time>2016-06-13T15:07:33Z</time>
      </trkpt>
      <trkpt lat="42.36578400246799" lon="1.960085006430745">
        <ele>1597</ele>
        <time>2016-06-13T15:07:36Z</time>
      </trkpt>
      <trkpt lat="42.3657610360533" lon="1.960094980895519">
        <ele>1599</ele>
        <time>2016-06-13T15:07:37Z</time>
      </trkpt>
      <trkpt lat="42.365675959736109" lon="1.960108978673816">
        <ele>1600</ele>
        <time>2016-06-13T15:07:41Z</time>
      </trkpt>
      <trkpt lat="42.365657016634941" lon="1.96011601947248">
        <ele>1604</ele>
        <time>2016-06-13T15:07:42Z</time>
      </trkpt>
      <trkpt lat="42.365568000823259" lon="1.960115013644099">
        <ele>1591</ele>
        <time>2016-06-13T15:07:46Z</time>
      </trkpt>
      <trkpt lat="42.365544028580189" lon="1.960113001987338">
        <ele>1589</ele>
        <time>2016-06-13T15:07:47Z</time>
      </trkpt>
      <trkpt lat="42.365463981404901" lon="1.960101015865803">
        <ele>1604</ele>
        <time>2016-06-13T15:07:50Z</time>
      </trkpt>
      <trkpt lat="42.365436991676688" lon="1.960102021694183">
        <ele>1610</ele>
        <time>2016-06-13T15:07:51Z</time>
      </trkpt>
      <trkpt lat="42.36535401083529" lon="1.960105961188674">
        <ele>1595</ele>
        <time>2016-06-13T15:07:54Z</time>
      </trkpt>
      <trkpt lat="42.365328026935458" lon="1.960108978673816">
        <ele>1594</ele>
        <time>2016-06-13T15:07:55Z</time>
      </trkpt>
      <trkpt lat="42.365254014730453" lon="1.96011702530086">
        <ele>1604</ele>
        <time>2016-06-13T15:07:58Z</time>
      </trkpt>
      <trkpt lat="42.365230964496732" lon="1.960118031129241">
        <ele>1610</ele>
        <time>2016-06-13T15:07:59Z</time>
      </trkpt>
      <trkpt lat="42.365147983655334" lon="1.96011995896697">
        <ele>1614</ele>
        <time>2016-06-13T15:08:03Z</time>
      </trkpt>
      <trkpt lat="42.365132980048656" lon="1.960122976452112">
        <ele>1615</ele>
        <time>2016-06-13T15:08:04Z</time>
      </trkpt>
      <trkpt lat="42.365051005035639" lon="1.960146026685834">
        <ele>1600</ele>
        <time>2016-06-13T15:08:08Z</time>
      </trkpt>
      <trkpt lat="42.365027032792568" lon="1.960153989493847">
        <ele>1605</ele>
        <time>2016-06-13T15:08:09Z</time>
      </trkpt>
      <trkpt lat="42.364953020587564" lon="1.960177039727569">
        <ele>1611</ele>
        <time>2016-06-13T15:08:12Z</time>
      </trkpt>
      <trkpt lat="42.364927958697081" lon="1.960183996707201">
        <ele>1612</ele>
        <time>2016-06-13T15:08:13Z</time>
      </trkpt>
      <trkpt lat="42.364853024482727" lon="1.9602030236274">
        <ele>1589</ele>
        <time>2016-06-13T15:08:16Z</time>
      </trkpt>
      <trkpt lat="42.364829974249005" lon="1.960209980607033">
        <ele>1597</ele>
        <time>2016-06-13T15:08:17Z</time>
      </trkpt>
      <trkpt lat="42.364758979529142" lon="1.960234958678484">
        <ele>1612</ele>
        <time>2016-06-13T15:08:20Z</time>
      </trkpt>
      <trkpt lat="42.364735007286072" lon="1.960243005305529">
        <ele>1616</ele>
        <time>2016-06-13T15:08:21Z</time>
      </trkpt>
      <trkpt lat="42.364659989252687" lon="1.960263960063458">
        <ele>1599</ele>
        <time>2016-06-13T15:08:24Z</time>
      </trkpt>
      <trkpt lat="42.364632999524474" lon="1.960272006690502">
        <ele>1602</ele>
        <time>2016-06-13T15:08:25Z</time>
      </trkpt>
      <trkpt lat="42.364578014239669" lon="1.960293967276812">
        <ele>1610</ele>
        <time>2016-06-13T15:08:27Z</time>
      </trkpt>
      <trkpt lat="42.364547001197934" lon="1.96031198836863">
        <ele>1614</ele>
        <time>2016-06-13T15:08:28Z</time>
      </trkpt>
      <trkpt lat="42.364488998427987" lon="1.960351970046759">
        <ele>1618</ele>
        <time>2016-06-13T15:08:30Z</time>
      </trkpt>
      <trkpt lat="42.364458991214633" lon="1.960369991138578">
        <ele>1620</ele>
        <time>2016-06-13T15:08:31Z</time>
      </trkpt>
      <trkpt lat="42.364401994273067" lon="1.960402010008693">
        <ele>1621</ele>
        <time>2016-06-13T15:08:33Z</time>
      </trkpt>
      <trkpt lat="42.364373998716474" lon="1.96041801944375">
        <ele>1597</ele>
        <time>2016-06-13T15:08:34Z</time>
      </trkpt>
      <trkpt lat="42.364297974854708" lon="1.960473004728556">
        <ele>1619</ele>
        <time>2016-06-13T15:08:37Z</time>
      </trkpt>
      <trkpt lat="42.364272996783257" lon="1.960491025820375">
        <ele>1622</ele>
        <time>2016-06-13T15:08:38Z</time>
      </trkpt>
      <trkpt lat="42.364199990406632" lon="1.960552968084812">
        <ele>1627</ele>
        <time>2016-06-13T15:08:41Z</time>
      </trkpt>
      <trkpt lat="42.364175012335181" lon="1.96056998334825">
        <ele>1629</ele>
        <time>2016-06-13T15:08:42Z</time>
      </trkpt>
      <trkpt lat="42.364103011786938" lon="1.960623040795326">
        <ele>1619</ele>
        <time>2016-06-13T15:08:45Z</time>
      </trkpt>
      <trkpt lat="42.364080967381597" lon="1.960639972239733">
        <ele>1622</ele>
        <time>2016-06-13T15:08:46Z</time>
      </trkpt>
      <trkpt lat="42.364013995975256" lon="1.96069797500968">
        <ele>1627</ele>
        <time>2016-06-13T15:08:49Z</time>
      </trkpt>
      <trkpt lat="42.363993041217327" lon="1.96071800775826">
        <ele>1627</ele>
        <time>2016-06-13T15:08:50Z</time>
      </trkpt>
      <trkpt lat="42.36393503844738" lon="1.960786990821362">
        <ele>1629</ele>
        <time>2016-06-13T15:08:53Z</time>
      </trkpt>
      <trkpt lat="42.363919029012322" lon="1.960811968892813">
        <ele>1612</ele>
        <time>2016-06-13T15:08:54Z</time>
      </trkpt>
      <trkpt lat="42.363887010142207" lon="1.960908025503159">
        <ele>1621</ele>
        <time>2016-06-13T15:08:57Z</time>
      </trkpt>
      <trkpt lat="42.363881981000304" lon="1.960942978039384">
        <ele>1624</ele>
        <time>2016-06-13T15:08:58Z</time>
      </trkpt>
      <trkpt lat="42.363874018192291" lon="1.961056971922517">
        <ele>1632</ele>
        <time>2016-06-13T15:09:01Z</time>
      </trkpt>
      <trkpt lat="42.363874018192291" lon="1.961096031591296">
        <ele>1632</ele>
        <time>2016-06-13T15:09:02Z</time>
      </trkpt>
      <trkpt lat="42.363873012363911" lon="1.961178006604314">
        <ele>1634</ele>
        <time>2016-06-13T15:09:04Z</time>
      </trkpt>
      <trkpt lat="42.363874018192291" lon="1.961218994110823">
        <ele>1625</ele>
        <time>2016-06-13T15:09:05Z</time>
      </trkpt>
      <trkpt lat="42.363866977393627" lon="1.961337011307478">
        <ele>1628</ele>
        <time>2016-06-13T15:09:08Z</time>
      </trkpt>
      <trkpt lat="42.363864965736866" lon="1.961374981328845">
        <ele>1631</ele>
        <time>2016-06-13T15:09:09Z</time>
      </trkpt>
      <trkpt lat="42.363847028464079" lon="1.961488975211978">
        <ele>1635</ele>
        <time>2016-06-13T15:09:12Z</time>
      </trkpt>
      <trkpt lat="42.363835964351892" lon="1.961527029052377">
        <ele>1636</ele>
        <time>2016-06-13T15:09:13Z</time>
      </trkpt>
      <trkpt lat="42.36380604095757" lon="1.96159902960062">
        <ele>1627</ele>
        <time>2016-06-13T15:09:15Z</time>
      </trkpt>
      <trkpt lat="42.363789025694132" lon="1.961631970480084">
        <ele>1632</ele>
        <time>2016-06-13T15:09:16Z</time>
      </trkpt>
      <trkpt lat="42.363734962418675" lon="1.961726015433669">
        <ele>1636</ele>
        <time>2016-06-13T15:09:19Z</time>
      </trkpt>
      <trkpt lat="42.363717025145888" lon="1.961756022647023">
        <ele>1637</ele>
        <time>2016-06-13T15:09:20Z</time>
      </trkpt>
      <trkpt lat="42.363660028204322" lon="1.961834980174899">
        <ele>1638</ele>
        <time>2016-06-13T15:09:23Z</time>
      </trkpt>
      <trkpt lat="42.363641001284122" lon="1.96185995824635">
        <ele>1628</ele>
        <time>2016-06-13T15:09:24Z</time>
      </trkpt>
      <trkpt lat="42.363584004342556" lon="1.961928019300103">
        <ele>1626</ele>
        <time>2016-06-13T15:09:27Z</time>
      </trkpt>
      <trkpt lat="42.363564977422357" lon="1.961951991543174">
        <ele>1628</ele>
        <time>2016-06-13T15:09:28Z</time>
      </trkpt>
      <trkpt lat="42.363510997965932" lon="1.962032960727811">
        <ele>1634</ele>
        <time>2016-06-13T15:09:31Z</time>
      </trkpt>
      <trkpt lat="42.363492976874113" lon="1.962061040103436">
        <ele>1628</ele>
        <time>2016-06-13T15:09:32Z</time>
      </trkpt>
      <trkpt lat="42.363432040438056" lon="1.962131028994918">
        <ele>1601</ele>
        <time>2016-06-13T15:09:35Z</time>
      </trkpt>
      <trkpt lat="42.363414019346237" lon="1.96215701289475">
        <ele>1609</ele>
        <time>2016-06-13T15:09:36Z</time>
      </trkpt>
      <trkpt lat="42.363360961899161" lon="1.962230019271374">
        <ele>1619</ele>
        <time>2016-06-13T15:09:39Z</time>
      </trkpt>
      <trkpt lat="42.363343024626374" lon="1.962252985686064">
        <ele>1624</ele>
        <time>2016-06-13T15:09:40Z</time>
      </trkpt>
      <trkpt lat="42.363277981057763" lon="1.96230998262763">
        <ele>1626</ele>
        <time>2016-06-13T15:09:43Z</time>
      </trkpt>
      <trkpt lat="42.363253002986312" lon="1.962326997891069">
        <ele>1628</ele>
        <time>2016-06-13T15:09:44Z</time>
      </trkpt>
      <trkpt lat="42.363196006044745" lon="1.962357005104423">
        <ele>1608</ele>
        <time>2016-06-13T15:09:46Z</time>
      </trkpt>
      <trkpt lat="42.363165998831391" lon="1.962366979569197">
        <ele>1615</ele>
        <time>2016-06-13T15:09:47Z</time>
      </trkpt>
      <trkpt lat="42.363106990233064" lon="1.962379971519113">
        <ele>1624</ele>
        <time>2016-06-13T15:09:49Z</time>
      </trkpt>
      <trkpt lat="42.363075977191329" lon="1.962385000661016">
        <ele>1628</ele>
        <time>2016-06-13T15:09:50Z</time>
      </trkpt>
      <trkpt lat="42.362998025491834" lon="1.962361028417945">
        <ele>1626</ele>
        <time>2016-06-13T15:09:52Z</time>
      </trkpt>
      <trkpt lat="42.362961983308196" lon="1.96233001537621">
        <ele>1627</ele>
        <time>2016-06-13T15:09:53Z</time>
      </trkpt>
      <trkpt lat="42.362909009680152" lon="1.962254997342825">
        <ele>1610</ele>
        <time>2016-06-13T15:09:55Z</time>
      </trkpt>
      <trkpt lat="42.362891994416714" lon="1.962214009836316">
        <ele>1581</ele>
        <time>2016-06-13T15:09:56Z</time>
      </trkpt>
      <trkpt lat="42.362863998860121" lon="1.962132034823299">
        <ele>1603</ele>
        <time>2016-06-13T15:09:58Z</time>
      </trkpt>
      <trkpt lat="42.362851006910205" lon="1.962092975154519">
        <ele>1608</ele>
        <time>2016-06-13T15:09:59Z</time>
      </trkpt>
      <trkpt lat="42.362823011353612" lon="1.962018040940166">
        <ele>1613</ele>
        <time>2016-06-13T15:10:01Z</time>
      </trkpt>
      <trkpt lat="42.362809013575315" lon="1.961983004584909">
        <ele>1615</ele>
        <time>2016-06-13T15:10:02Z</time>
      </trkpt>
      <trkpt lat="42.362768026068807" lon="1.961893988773227">
        <ele>1618</ele>
        <time>2016-06-13T15:10:05Z</time>
      </trkpt>
      <trkpt lat="42.362747993320227" lon="1.961865993216634">
        <ele>1569</ele>
        <time>2016-06-13T15:10:06Z</time>
      </trkpt>
      <trkpt lat="42.362684961408377" lon="1.961789969354868">
        <ele>1600</ele>
        <time>2016-06-13T15:10:09Z</time>
      </trkpt>
      <trkpt lat="42.362659983336926" lon="1.961768008768559">
        <ele>1601</ele>
        <time>2016-06-13T15:10:10Z</time>
      </trkpt>
      <trkpt lat="42.36258496530354" lon="1.961716962978244">
        <ele>1618</ele>
        <time>2016-06-13T15:10:13Z</time>
      </trkpt>
      <trkpt lat="42.362557975575328" lon="1.961699025705457">
        <ele>1621</ele>
        <time>2016-06-13T15:10:14Z</time>
      </trkpt>
      <trkpt lat="42.362503996118903" lon="1.961658960208297">
        <ele>1625</ele>
        <time>2016-06-13T15:10:16Z</time>
      </trkpt>
      <trkpt lat="42.36247600056231" lon="1.961640017107129">
        <ele>1622</ele>
        <time>2016-06-13T15:10:17Z</time>
      </trkpt>
      <trkpt lat="42.362416991963983" lon="1.961611015722156">
        <ele>1619</ele>
        <time>2016-06-13T15:10:19Z</time>
      </trkpt>
      <trkpt lat="42.362385978922248" lon="1.96159902960062">
        <ele>1592</ele>
        <time>2016-06-13T15:10:20Z</time>
      </trkpt>
      <trkpt lat="42.362322025001049" lon="1.961583020165563">
        <ele>1603</ele>
        <time>2016-06-13T15:10:22Z</time>
      </trkpt>
      <trkpt lat="42.362292017787695" lon="1.96157799102366">
        <ele>1609</ele>
        <time>2016-06-13T15:10:23Z</time>
      </trkpt>
      <trkpt lat="42.362207025289536" lon="1.961571034044027">
        <ele>1612</ele>
        <time>2016-06-13T15:10:26Z</time>
      </trkpt>
      <trkpt lat="42.362178023904562" lon="1.961569022387266">
        <ele>1612</ele>
        <time>2016-06-13T15:10:27Z</time>
      </trkpt>
      <trkpt lat="42.362118009477854" lon="1.96155896410346">
        <ele>1617</ele>
        <time>2016-06-13T15:10:29Z</time>
      </trkpt>
      <trkpt lat="42.3620880022645" lon="1.96155603043735">
        <ele>1620</ele>
        <time>2016-06-13T15:10:30Z</time>
      </trkpt>
      <trkpt lat="42.361998986452818" lon="1.961552007123828">
        <ele>1625</ele>
        <time>2016-06-13T15:10:33Z</time>
      </trkpt>
      <trkpt lat="42.361970990896225" lon="1.961547983810306">
        <ele>1598</ele>
        <time>2016-06-13T15:10:34Z</time>
      </trkpt>
      <trkpt lat="42.361889015883207" lon="1.961538009345532">
        <ele>1615</ele>
        <time>2016-06-13T15:10:37Z</time>
      </trkpt>
      <trkpt lat="42.361861020326614" lon="1.96153599768877">
        <ele>1620</ele>
        <time>2016-06-13T15:10:38Z</time>
      </trkpt>
      <trkpt lat="42.361775022000074" lon="1.96153599768877">
        <ele>1631</ele>
        <time>2016-06-13T15:10:41Z</time>
      </trkpt>
      <trkpt lat="42.361747026443481" lon="1.961537003517151">
        <ele>1633</ele>
        <time>2016-06-13T15:10:42Z</time>
      </trkpt>
      <trkpt lat="42.361669996753335" lon="1.961557036265731">
        <ele>1626</ele>
        <time>2016-06-13T15:10:45Z</time>
      </trkpt>
      <trkpt lat="42.361645018681884" lon="1.961561981588602">
        <ele>1629</ele>
        <time>2016-06-13T15:10:46Z</time>
      </trkpt>
      <trkpt lat="42.361556002870202" lon="1.961570028215647">
        <ele>1641</ele>
        <time>2016-06-13T15:10:50Z</time>
      </trkpt>
      <trkpt lat="42.361532030627131" lon="1.961571034044027">
        <ele>1642</ele>
        <time>2016-06-13T15:10:51Z</time>
      </trkpt>
      <trkpt lat="42.361460030078888" lon="1.961582014337182">
        <ele>1631</ele>
        <time>2016-06-13T15:10:54Z</time>
      </trkpt>
      <trkpt lat="42.361434968188405" lon="1.961588971316814">
        <ele>1633</ele>
        <time>2016-06-13T15:10:55Z</time>
      </trkpt>
      <trkpt lat="42.361363973468542" lon="1.961636999621987">
        <ele>1639</ele>
        <time>2016-06-13T15:10:58Z</time>
      </trkpt>
      <trkpt lat="42.361341007053852" lon="1.961656026542187">
        <ele>1639</ele>
        <time>2016-06-13T15:10:59Z</time>
      </trkpt>
      <trkpt lat="42.361277975142002" lon="1.96173096075654">
        <ele>1641</ele>
        <time>2016-06-13T15:11:02Z</time>
      </trkpt>
      <trkpt lat="42.361261965706944" lon="1.961758034303784">
        <ele>1641</ele>
        <time>2016-06-13T15:11:03Z</time>
      </trkpt>
      <trkpt lat="42.361217038705945" lon="1.96185601875186">
        <ele>1635</ele>
        <time>2016-06-13T15:11:06Z</time>
      </trkpt>
      <trkpt lat="42.361203962936997" lon="1.961893988773227">
        <ele>1638</ele>
        <time>2016-06-13T15:11:07Z</time>
      </trkpt>
      <trkpt lat="42.361178984865546" lon="1.961972024291754">
        <ele>1642</ele>
        <time>2016-06-13T15:11:09Z</time>
      </trkpt>
      <trkpt lat="42.361168004572392" lon="1.962012005969882">
        <ele>1644</ele>
        <time>2016-06-13T15:11:10Z</time>
      </trkpt>
      <trkpt lat="42.361149983480573" lon="1.962090963497758">
        <ele>1646</ele>
        <time>2016-06-13T15:11:12Z</time>
      </trkpt>
      <trkpt lat="42.361141014844179" lon="1.962130023166537">
        <ele>1647</ele>
        <time>2016-06-13T15:11:13Z</time>
      </trkpt>
      <trkpt lat="42.361123999580741" lon="1.962209986522794">
        <ele>1641</ele>
        <time>2016-06-13T15:11:15Z</time>
      </trkpt>
      <trkpt lat="42.361116036772728" lon="1.962250974029303">
        <ele>1642</ele>
        <time>2016-06-13T15:11:16Z</time>
      </trkpt>
      <trkpt lat="42.361092986539006" lon="1.962366979569197">
        <ele>1647</ele>
        <time>2016-06-13T15:11:19Z</time>
      </trkpt>
      <trkpt lat="42.361085023730993" lon="1.962405033409596">
        <ele>1648</ele>
        <time>2016-06-13T15:11:20Z</time>
      </trkpt>
      <trkpt lat="42.361062979325652" lon="1.962513998150826">
        <ele>1650</ele>
        <time>2016-06-13T15:11:23Z</time>
      </trkpt>
      <trkpt lat="42.36105602234602" lon="1.962550962343812">
        <ele>1641</ele>
        <time>2016-06-13T15:11:24Z</time>
      </trkpt>
      <trkpt lat="42.361034983769059" lon="1.962659005075693">
        <ele>1647</ele>
        <time>2016-06-13T15:11:27Z</time>
      </trkpt>
      <trkpt lat="42.361029032617807" lon="1.96269596926868">
        <ele>1648</ele>
        <time>2016-06-13T15:11:28Z</time>
      </trkpt>
      <trkpt lat="42.361002964898944" lon="1.962809963151813">
        <ele>1653</ele>
        <time>2016-06-13T15:11:31Z</time>
      </trkpt>
      <trkpt lat="42.36099299043417" lon="1.962849022820592">
        <ele>1654</ele>
        <time>2016-06-13T15:11:32Z</time>
      </trkpt>
      <trkpt lat="42.360975975170732" lon="1.962964022532105">
        <ele>1652</ele>
        <time>2016-06-13T15:11:35Z</time>
      </trkpt>
      <trkpt lat="42.36097396351397" lon="1.963001992553473">
        <ele>1653</ele>
        <time>2016-06-13T15:11:36Z</time>
      </trkpt>
      <trkpt lat="42.360974969342351" lon="1.963113974779844">
        <ele>1654</ele>
        <time>2016-06-13T15:11:39Z</time>
      </trkpt>
      <trkpt lat="42.360977986827493" lon="1.963154040277004">
        <ele>1654</ele>
        <time>2016-06-13T15:11:40Z</time>
      </trkpt>
      <trkpt lat="42.360978992655873" lon="1.963270967826247">
        <ele>1655</ele>
        <time>2016-06-13T15:11:43Z</time>
      </trkpt>
      <trkpt lat="42.360978992655873" lon="1.963309021666646">
        <ele>1655</ele>
        <time>2016-06-13T15:11:44Z</time>
      </trkpt>
      <trkpt lat="42.360978992655873" lon="1.963427038863301">
        <ele>1652</ele>
        <time>2016-06-13T15:11:47Z</time>
      </trkpt>
      <trkpt lat="42.360981004312634" lon="1.96346802636981">
        <ele>1652</ele>
        <time>2016-06-13T15:11:48Z</time>
      </trkpt>
      <trkpt lat="42.360983015969396" lon="1.96355301886797">
        <ele>1655</ele>
        <time>2016-06-13T15:11:50Z</time>
      </trkpt>
      <trkpt lat="42.360981004312634" lon="1.963595012202859">
        <ele>1656</ele>
        <time>2016-06-13T15:11:51Z</time>
      </trkpt>
      <trkpt lat="42.360966000705957" lon="1.963714035227895">
        <ele>1649</ele>
        <time>2016-06-13T15:11:54Z</time>
      </trkpt>
      <trkpt lat="42.360962983220816" lon="1.963753011077642">
        <ele>1650</ele>
        <time>2016-06-13T15:11:55Z</time>
      </trkpt>
      <trkpt lat="42.360955020412803" lon="1.963862981647253">
        <ele>1656</ele>
        <time>2016-06-13T15:11:58Z</time>
      </trkpt>
      <trkpt lat="42.36095099709928" lon="1.963887037709355">
        <ele>1655</ele>
        <time>2016-06-13T15:11:59Z</time>
      </trkpt>
      <trkpt lat="42.360925013199449" lon="1.964002037420869">
        <ele>1654</ele>
        <time>2016-06-13T15:12:04Z</time>
      </trkpt>
      <trkpt lat="42.360917972400784" lon="1.96402701549232">
        <ele>1642</ele>
        <time>2016-06-13T15:12:05Z</time>
      </trkpt>
      <trkpt lat="42.360890982672572" lon="1.964114019647241">
        <ele>1647</ele>
        <time>2016-06-13T15:12:08Z</time>
      </trkpt>
      <trkpt lat="42.360880002379417" lon="1.964143021032214">
        <ele>1651</ele>
        <time>2016-06-13T15:12:09Z</time>
      </trkpt>
      <trkpt lat="42.36084203235805" lon="1.964239999651909">
        <ele>1652</ele>
        <time>2016-06-13T15:12:12Z</time>
      </trkpt>
      <trkpt lat="42.360828034579754" lon="1.964270006865263">
        <ele>1653</ele>
        <time>2016-06-13T15:12:13Z</time>
      </trkpt>
      <trkpt lat="42.3607790004462" lon="1.964361034333706">
        <ele>1645</ele>
        <time>2016-06-13T15:12:16Z</time>
      </trkpt>
      <trkpt lat="42.360759973526001" lon="1.964390035718679">
        <ele>1647</ele>
        <time>2016-06-13T15:12:17Z</time>
      </trkpt>
      <trkpt lat="42.360694007948041" lon="1.964452983811498">
        <ele>1652</ele>
        <time>2016-06-13T15:12:20Z</time>
      </trkpt>
      <trkpt lat="42.360671041533351" lon="1.964469999074936">
        <ele>1655</ele>
        <time>2016-06-13T15:12:21Z</time>
      </trkpt>
      <trkpt lat="42.360599962994456" lon="1.964515009894967">
        <ele>1652</ele>
        <time>2016-06-13T15:12:24Z</time>
      </trkpt>
      <trkpt lat="42.360575990751386" lon="1.96452297270298">
        <ele>1654</ele>
        <time>2016-06-13T15:12:25Z</time>
      </trkpt>
      <trkpt lat="42.360502984374762" lon="1.964549040421844">
        <ele>1659</ele>
        <time>2016-06-13T15:12:28Z</time>
      </trkpt>
      <trkpt lat="42.360479012131691" lon="1.964559014886618">
        <ele>1659</ele>
        <time>2016-06-13T15:12:29Z</time>
      </trkpt>
      <trkpt lat="42.360404999926686" lon="1.964589022099972">
        <ele>1663</ele>
        <time>2016-06-13T15:12:32Z</time>
      </trkpt>
      <trkpt lat="42.360381027683616" lon="1.964598996564746">
        <ele>1663</ele>
        <time>2016-06-13T15:12:33Z</time>
      </trkpt>
      <trkpt lat="42.360308021306992" lon="1.9646290037781">
        <ele>1656</ele>
        <time>2016-06-13T15:12:36Z</time>
      </trkpt>
      <trkpt lat="42.360282959416509" lon="1.964638978242874">
        <ele>1658</ele>
        <time>2016-06-13T15:12:37Z</time>
      </trkpt>
      <trkpt lat="42.360212970525026" lon="1.964677032083273">
        <ele>1661</ele>
        <time>2016-06-13T15:12:40Z</time>
      </trkpt>
      <trkpt lat="42.360190004110336" lon="1.96469203568995">
        <ele>1662</ele>
        <time>2016-06-13T15:12:41Z</time>
      </trkpt>
      <trkpt lat="42.360123032703996" lon="1.964746015146375">
        <ele>1665</ele>
        <time>2016-06-13T15:12:44Z</time>
      </trkpt>
      <trkpt lat="42.360102999955416" lon="1.964761018753052">
        <ele>1659</ele>
        <time>2016-06-13T15:12:45Z</time>
      </trkpt>
      <trkpt lat="42.360030999407172" lon="1.964825978502631">
        <ele>1664</ele>
        <time>2016-06-13T15:12:49Z</time>
      </trkpt>
      <trkpt lat="42.360013984143734" lon="1.964841987937689">
        <ele>1664</ele>
        <time>2016-06-13T15:12:50Z</time>
      </trkpt>
      <trkpt lat="42.359958998858929" lon="1.964902002364397">
        <ele>1658</ele>
        <time>2016-06-13T15:12:54Z</time>
      </trkpt>
      <trkpt lat="42.359942989423871" lon="1.964921029284596">
        <ele>1660</ele>
        <time>2016-06-13T15:12:55Z</time>
      </trkpt>
      <trkpt lat="42.359884986653924" lon="1.965005015954375">
        <ele>1665</ele>
        <time>2016-06-13T15:12:59Z</time>
      </trkpt>
      <trkpt lat="42.359870988875628" lon="1.965026976540685">
        <ele>1665</ele>
        <time>2016-06-13T15:13:00Z</time>
      </trkpt>
      <trkpt lat="42.359826983883977" lon="1.965095037594438">
        <ele>1667</ele>
        <time>2016-06-13T15:13:03Z</time>
      </trkpt>
      <trkpt lat="42.3598119802773" lon="1.965120015665889">
        <ele>1667</ele>
        <time>2016-06-13T15:13:04Z</time>
      </trkpt>
      <trkpt lat="42.359766969457269" lon="1.965198973193765">
        <ele>1664</ele>
        <time>2016-06-13T15:13:07Z</time>
      </trkpt>
      <trkpt lat="42.359752971678972" lon="1.965225962921977">
        <ele>1665</ele>
        <time>2016-06-13T15:13:08Z</time>
      </trkpt>
      <trkpt lat="42.359707038849592" lon="1.965302992612124">
        <ele>1666</ele>
        <time>2016-06-13T15:13:11Z</time>
      </trkpt>
      <trkpt lat="42.359693041071296" lon="1.965325959026814">
        <ele>1666</ele>
        <time>2016-06-13T15:13:12Z</time>
      </trkpt>
      <trkpt lat="42.359635960310698" lon="1.965418998152018">
        <ele>1665</ele>
        <time>2016-06-13T15:13:16Z</time>
      </trkpt>
      <trkpt lat="42.359621962532401" lon="1.965442970395088">
        <ele>1665</ele>
        <time>2016-06-13T15:13:17Z</time>
      </trkpt>
      <trkpt lat="42.35957401804626" lon="1.965544978156686">
        <ele>1668</ele>
        <time>2016-06-13T15:13:21Z</time>
      </trkpt>
      <trkpt lat="42.359562031924725" lon="1.965568028390408">
        <ele>1668</ele>
        <time>2016-06-13T15:13:22Z</time>
      </trkpt>
      <trkpt lat="42.359523978084326" lon="1.965656960383058">
        <ele>1663</ele>
        <time>2016-06-13T15:13:26Z</time>
      </trkpt>
      <trkpt lat="42.359518026933074" lon="1.965684033930302">
        <ele>1663</ele>
        <time>2016-06-13T15:13:27Z</time>
      </trkpt>
      <trkpt lat="42.359493970870972" lon="1.965769026428461">
        <ele>1665</ele>
        <time>2016-06-13T15:13:30Z</time>
      </trkpt>
      <trkpt lat="42.359486008062959" lon="1.965799033641815">
        <ele>1666</ele>
        <time>2016-06-13T15:13:31Z</time>
      </trkpt>
      <trkpt lat="42.359512997791171" lon="1.965771038085222">
        <ele>1672</ele>
        <time>2016-06-13T15:18:39Z</time>
      </trkpt>
      <trkpt lat="42.359586004167795" lon="1.965700965374708">
        <ele>1674</ele>
        <time>2016-06-13T15:18:43Z</time>
      </trkpt>
      <trkpt lat="42.359598996117711" lon="1.965707000344992">
        <ele>1668</ele>
        <time>2016-06-13T15:18:44Z</time>
      </trkpt>
      <trkpt lat="42.35968298278749" lon="1.965675987303257">
        <ele>1671</ele>
        <time>2016-06-13T15:18:50Z</time>
      </trkpt>
      <trkpt lat="42.359701003879309" lon="1.965675987303257">
        <ele>1670</ele>
        <time>2016-06-13T15:18:51Z</time>
      </trkpt>
      <trkpt lat="42.359784990549088" lon="1.965639023110271">
        <ele>1667</ele>
        <time>2016-06-13T15:18:56Z</time>
      </trkpt>
      <trkpt lat="42.359803011640906" lon="1.965632988139987">
        <ele>1669</ele>
        <time>2016-06-13T15:18:57Z</time>
      </trkpt>
      <trkpt lat="42.359878029674292" lon="1.965597029775381">
        <ele>1672</ele>
        <time>2016-06-13T15:19:02Z</time>
      </trkpt>
      <trkpt lat="42.359892027452588" lon="1.965588983148336">
        <ele>1672</ele>
        <time>2016-06-13T15:19:03Z</time>
      </trkpt>
      <trkpt lat="42.359967967495322" lon="1.965556964278221">
        <ele>1671</ele>
        <time>2016-06-13T15:19:08Z</time>
      </trkpt>
      <trkpt lat="42.35998397693038" lon="1.96555201895535">
        <ele>1672</ele>
        <time>2016-06-13T15:19:09Z</time>
      </trkpt>
      <trkpt lat="42.360064024105668" lon="1.965518994256854">
        <ele>1668</ele>
        <time>2016-06-13T15:19:14Z</time>
      </trkpt>
      <trkpt lat="42.360081039369106" lon="1.965514970943332">
        <ele>1670</ele>
        <time>2016-06-13T15:19:15Z</time>
      </trkpt>
      <trkpt lat="42.360163014382124" lon="1.965490998700261">
        <ele>1672</ele>
        <time>2016-06-13T15:19:20Z</time>
      </trkpt>
      <trkpt lat="42.360178017988801" lon="1.965485969558358">
        <ele>1673</ele>
        <time>2016-06-13T15:19:21Z</time>
      </trkpt>
      <trkpt lat="42.360257981345057" lon="1.965437019243836">
        <ele>1672</ele>
        <time>2016-06-13T15:19:27Z</time>
      </trkpt>
      <trkpt lat="42.360273990780115" lon="1.965439030900598">
        <ele>1672</ele>
        <time>2016-06-13T15:19:28Z</time>
      </trkpt>
      <trkpt lat="42.360360994935036" lon="1.965430984273553">
        <ele>1672</ele>
        <time>2016-06-13T15:19:34Z</time>
      </trkpt>
      <trkpt lat="42.360372981056571" lon="1.965426038950682">
        <ele>1673</ele>
        <time>2016-06-13T15:19:35Z</time>
      </trkpt>
      <trkpt lat="42.360449004918337" lon="1.965386979281902">
        <ele>1677</ele>
        <time>2016-06-13T15:19:41Z</time>
      </trkpt>
      <trkpt lat="42.360460991039872" lon="1.965379016473889">
        <ele>1677</ele>
        <time>2016-06-13T15:19:42Z</time>
      </trkpt>
      <trkpt lat="42.360533997416496" lon="1.965335011482239">
        <ele>1677</ele>
        <time>2016-06-13T15:19:48Z</time>
      </trkpt>
      <trkpt lat="42.360547995194793" lon="1.965330988168716">
        <ele>1677</ele>
        <time>2016-06-13T15:19:49Z</time>
      </trkpt>
      <trkpt lat="42.36062896437943" lon="1.965313972905278">
        <ele>1671</ele>
        <time>2016-06-13T15:19:55Z</time>
      </trkpt>
      <trkpt lat="42.360641034319997" lon="1.965308021754026">
        <ele>1673</ele>
        <time>2016-06-13T15:19:56Z</time>
      </trkpt>
      <trkpt lat="42.360725020989776" lon="1.965276002883911">
        <ele>1679</ele>
        <time>2016-06-13T15:20:03Z</time>
      </trkpt>
      <trkpt lat="42.360738012939692" lon="1.965272985398769">
        <ele>1679</ele>
        <time>2016-06-13T15:20:04Z</time>
      </trkpt>
      <trkpt lat="42.36082099378109" lon="1.965252030640841">
        <ele>1680</ele>
        <time>2016-06-13T15:20:10Z</time>
      </trkpt>
      <trkpt lat="42.360833985731006" lon="1.965248007327318">
        <ele>1680</ele>
        <time>2016-06-13T15:20:11Z</time>
      </trkpt>
      <trkpt lat="42.360910009592772" lon="1.965225040912628">
        <ele>1676</ele>
        <time>2016-06-13T15:20:16Z</time>
      </trkpt>
      <trkpt lat="42.360925013199449" lon="1.965220011770725">
        <ele>1677</ele>
        <time>2016-06-13T15:20:17Z</time>
      </trkpt>
      <trkpt lat="42.361004976555705" lon="1.96520802564919">
        <ele>1680</ele>
        <time>2016-06-13T15:20:22Z</time>
      </trkpt>
      <trkpt lat="42.361021991819143" lon="1.965206013992429">
        <ele>1681</ele>
        <time>2016-06-13T15:20:23Z</time>
      </trkpt>
      <trkpt lat="42.361104972660542" lon="1.965182963758707">
        <ele>1680</ele>
        <time>2016-06-13T15:20:28Z</time>
      </trkpt>
      <trkpt lat="42.361119976267219" lon="1.965173995122314">
        <ele>1681</ele>
        <time>2016-06-13T15:20:29Z</time>
      </trkpt>
      <trkpt lat="42.36118501983583" lon="1.965121021494269">
        <ele>1676</ele>
        <time>2016-06-13T15:20:34Z</time>
      </trkpt>
      <trkpt lat="42.361199017614126" lon="1.965110963210464">
        <ele>1679</ele>
        <time>2016-06-13T15:20:35Z</time>
      </trkpt>
      <trkpt lat="42.361279986798763" lon="1.965061007067561">
        <ele>1682</ele>
        <time>2016-06-13T15:20:41Z</time>
      </trkpt>
      <trkpt lat="42.361297002062201" lon="1.965052960440517">
        <ele>1685</ele>
        <time>2016-06-13T15:20:42Z</time>
      </trkpt>
      <trkpt lat="42.361365985125303" lon="1.965012978762388">
        <ele>1678</ele>
        <time>2016-06-13T15:20:46Z</time>
      </trkpt>
      <trkpt lat="42.361383000388741" lon="1.965001998469234">
        <ele>1680</ele>
        <time>2016-06-13T15:20:47Z</time>
      </trkpt>
      <trkpt lat="42.361457012593746" lon="1.964937960729003">
        <ele>1683</ele>
        <time>2016-06-13T15:20:52Z</time>
      </trkpt>
      <trkpt lat="42.361470004543662" lon="1.964924968779087">
        <ele>1684</ele>
        <time>2016-06-13T15:20:53Z</time>
      </trkpt>
      <trkpt lat="42.361534964293242" lon="1.964847017079592">
        <ele>1685</ele>
        <time>2016-06-13T15:20:58Z</time>
      </trkpt>
      <trkpt lat="42.361548040062189" lon="1.964832013472915">
        <ele>1685</ele>
        <time>2016-06-13T15:20:59Z</time>
      </trkpt>
      <trkpt lat="42.361608976498246" lon="1.964750960469246">
        <ele>1689</ele>
        <time>2016-06-13T15:21:04Z</time>
      </trkpt>
      <trkpt lat="42.361619034782052" lon="1.964732017368078">
        <ele>1680</ele>
        <time>2016-06-13T15:21:05Z</time>
      </trkpt>
      <trkpt lat="42.361669996753335" lon="1.964663034304977">
        <ele>1687</ele>
        <time>2016-06-13T15:21:09Z</time>
      </trkpt>
      <trkpt lat="42.361683994531631" lon="1.964648030698299">
        <ele>1688</ele>
        <time>2016-06-13T15:21:10Z</time>
      </trkpt>
      <trkpt lat="42.36174501478672" lon="1.964587010443211">
        <ele>1691</ele>
        <time>2016-06-13T15:21:14Z</time>
      </trkpt>
      <trkpt lat="42.361762030050159" lon="1.964574018493295">
        <ele>1685</ele>
        <time>2016-06-13T15:21:15Z</time>
      </trkpt>
      <trkpt lat="42.36183000728488" lon="1.964536970481277">
        <ele>1687</ele>
        <time>2016-06-13T15:21:19Z</time>
      </trkpt>
      <trkpt lat="42.361848028376698" lon="1.964531019330025">
        <ele>1687</ele>
        <time>2016-06-13T15:21:20Z</time>
      </trkpt>
      <trkpt lat="42.361919023096561" lon="1.964518027380109">
        <ele>1683</ele>
        <time>2016-06-13T15:21:24Z</time>
      </trkpt>
      <trkpt lat="42.361936960369349" lon="1.964518027380109">
        <ele>1683</ele>
        <time>2016-06-13T15:21:25Z</time>
      </trkpt>
      <trkpt lat="42.362023964524269" lon="1.964530013501644">
        <ele>1687</ele>
        <time>2016-06-13T15:21:30Z</time>
      </trkpt>
      <trkpt lat="42.362039973959327" lon="1.964535964652896">
        <ele>1687</ele>
        <time>2016-06-13T15:21:31Z</time>
      </trkpt>
      <trkpt lat="42.362112980335951" lon="1.964583992958069">
        <ele>1679</ele>
        <time>2016-06-13T15:21:36Z</time>
      </trkpt>
      <trkpt lat="42.362128989771008" lon="1.964592039585114">
        <ele>1682</ele>
        <time>2016-06-13T15:21:37Z</time>
      </trkpt>
      <trkpt lat="42.362207025289536" lon="1.964649958536029">
        <ele>1687</ele>
        <time>2016-06-13T15:21:42Z</time>
      </trkpt>
      <trkpt lat="42.362224040552974" lon="1.964655993506312">
        <ele>1688</ele>
        <time>2016-06-13T15:21:43Z</time>
      </trkpt>
      <trkpt lat="42.362294029444456" lon="1.964693963527679">
        <ele>1684</ele>
        <time>2016-06-13T15:21:48Z</time>
      </trkpt>
      <trkpt lat="42.362307021394372" lon="1.964704021811485">
        <ele>1686</ele>
        <time>2016-06-13T15:21:49Z</time>
      </trkpt>
      <trkpt lat="42.362380027770996" lon="1.964747020974755">
        <ele>1684</ele>
        <time>2016-06-13T15:21:54Z</time>
      </trkpt>
      <trkpt lat="42.362396959215403" lon="1.964752972126007">
        <ele>1686</ele>
        <time>2016-06-13T15:21:55Z</time>
      </trkpt>
      <trkpt lat="42.362472983077168" lon="1.964767975732684">
        <ele>1686</ele>
        <time>2016-06-13T15:21:59Z</time>
      </trkpt>
      <trkpt lat="42.362492009997368" lon="1.964773004874587">
        <ele>1686</ele>
        <time>2016-06-13T15:22:00Z</time>
      </trkpt>
      <trkpt lat="42.362575996667147" lon="1.964768981561065">
        <ele>1683</ele>
        <time>2016-06-13T15:22:05Z</time>
      </trkpt>
      <trkpt lat="42.362592006102204" lon="1.964761018753052">
        <ele>1684</ele>
        <time>2016-06-13T15:22:06Z</time>
      </trkpt>
      <trkpt lat="42.362660989165306" lon="1.964690024033189">
        <ele>1687</ele>
        <time>2016-06-13T15:22:10Z</time>
      </trkpt>
      <trkpt lat="42.362674986943603" lon="1.964666973799467">
        <ele>1687</ele>
        <time>2016-06-13T15:22:11Z</time>
      </trkpt>
      <trkpt lat="42.362718991935253" lon="1.964583992958069">
        <ele>1678</ele>
        <time>2016-06-13T15:22:15Z</time>
      </trkpt>
      <trkpt lat="42.36273298971355" lon="1.964567983523011">
        <ele>1683</ele>
        <time>2016-06-13T15:22:16Z</time>
      </trkpt>
      <trkpt lat="42.3627960216254" lon="1.964506963267922">
        <ele>1687</ele>
        <time>2016-06-13T15:22:20Z</time>
      </trkpt>
      <trkpt lat="42.362809013575315" lon="1.964487014338374">
        <ele>1687</ele>
        <time>2016-06-13T15:22:21Z</time>
      </trkpt>
      <trkpt lat="42.36286198720336" lon="1.964408978819847">
        <ele>1680</ele>
        <time>2016-06-13T15:22:25Z</time>
      </trkpt>
      <trkpt lat="42.362877996638417" lon="1.964390035718679">
        <ele>1685</ele>
        <time>2016-06-13T15:22:26Z</time>
      </trkpt>
      <trkpt lat="42.362943040207028" lon="1.964333960786462">
        <ele>1692</ele>
        <time>2016-06-13T15:22:30Z</time>
      </trkpt>
      <trkpt lat="42.362958965823054" lon="1.964321974664927">
        <ele>1691</ele>
        <time>2016-06-13T15:22:31Z</time>
      </trkpt>
      <trkpt lat="42.363023003563285" lon="1.964270006865263">
        <ele>1681</ele>
        <time>2016-06-13T15:22:35Z</time>
      </trkpt>
      <trkpt lat="42.363043036311865" lon="1.964260032400489">
        <ele>1682</ele>
        <time>2016-06-13T15:22:36Z</time>
      </trkpt>
      <trkpt lat="42.363117970526218" lon="1.96419800631702">
        <ele>1689</ele>
        <time>2016-06-13T15:22:41Z</time>
      </trkpt>
      <trkpt lat="42.363132974132895" lon="1.964189037680626">
        <ele>1692</ele>
        <time>2016-06-13T15:22:42Z</time>
      </trkpt>
      <trkpt lat="42.363192988559604" lon="1.964108990505338">
        <ele>1690</ele>
        <time>2016-06-13T15:22:48Z</time>
      </trkpt>
      <trkpt lat="42.363204974681139" lon="1.964095998555422">
        <ele>1692</ele>
        <time>2016-06-13T15:22:49Z</time>
      </trkpt>
      <trkpt lat="42.363275969401002" lon="1.964039001613855">
        <ele>1687</ele>
        <time>2016-06-13T15:22:55Z</time>
      </trkpt>
      <trkpt lat="42.363288039341569" lon="1.96402600966394">
        <ele>1689</ele>
        <time>2016-06-13T15:22:56Z</time>
      </trkpt>
      <trkpt lat="42.363350987434387" lon="1.963982004672289">
        <ele>1694</ele>
        <time>2016-06-13T15:23:00Z</time>
      </trkpt>
      <trkpt lat="42.363370014354587" lon="1.963971024379134">
        <ele>1693</ele>
        <time>2016-06-13T15:23:01Z</time>
      </trkpt>
      <trkpt lat="42.363446960225701" lon="1.963930958881974">
        <ele>1681</ele>
        <time>2016-06-13T15:23:05Z</time>
      </trkpt>
      <trkpt lat="42.363466992974281" lon="1.963918972760439">
        <ele>1685</ele>
        <time>2016-06-13T15:23:06Z</time>
      </trkpt>
      <trkpt lat="42.36354704014957" lon="1.963871028274298">
        <ele>1694</ele>
        <time>2016-06-13T15:23:10Z</time>
      </trkpt>
      <trkpt lat="42.363566989079118" lon="1.963858958333731">
        <ele>1696</ele>
        <time>2016-06-13T15:23:11Z</time>
      </trkpt>
      <trkpt lat="42.363644018769264" lon="1.963807996362448">
        <ele>1690</ele>
        <time>2016-06-13T15:23:15Z</time>
      </trkpt>
      <trkpt lat="42.363662039861083" lon="1.963793998584151">
        <ele>1692</ele>
        <time>2016-06-13T15:23:16Z</time>
      </trkpt>
      <trkpt lat="42.363725993782282" lon="1.963739013299346">
        <ele>1698</ele>
        <time>2016-06-13T15:23:20Z</time>
      </trkpt>
      <trkpt lat="42.36374200321734" lon="1.96372602134943">
        <ele>1699</ele>
        <time>2016-06-13T15:23:21Z</time>
      </trkpt>
      <trkpt lat="42.363815009593964" lon="1.963676987215877">
        <ele>1689</ele>
        <time>2016-06-13T15:23:25Z</time>
      </trkpt>
      <trkpt lat="42.363834036514163" lon="1.9636619836092">
        <ele>1692</ele>
        <time>2016-06-13T15:23:26Z</time>
      </trkpt>
      <trkpt lat="42.363892961293459" lon="1.963610015809536">
        <ele>1697</ele>
        <time>2016-06-13T15:23:29Z</time>
      </trkpt>
      <trkpt lat="42.363912994042039" lon="1.963591994717717">
        <ele>1696</ele>
        <time>2016-06-13T15:23:30Z</time>
      </trkpt>
      <trkpt lat="42.36398097127676" lon="1.963550001382828">
        <ele>1696</ele>
        <time>2016-06-13T15:23:33Z</time>
      </trkpt>
      <trkpt lat="42.364007961004972" lon="1.963536003604531">
        <ele>1675</ele>
        <time>2016-06-13T15:23:34Z</time>
      </trkpt>
      <trkpt lat="42.364080967381597" lon="1.963496021926403">
        <ele>1688</ele>
        <time>2016-06-13T15:23:37Z</time>
      </trkpt>
      <trkpt lat="42.364103011786938" lon="1.963484035804868">
        <ele>1692</ele>
        <time>2016-06-13T15:23:38Z</time>
      </trkpt>
      <trkpt lat="42.364184986799955" lon="1.963441036641598">
        <ele>1698</ele>
        <time>2016-06-13T15:23:42Z</time>
      </trkpt>
      <trkpt lat="42.364204013720155" lon="1.963437013328075">
        <ele>1697</ele>
        <time>2016-06-13T15:23:43Z</time>
      </trkpt>
      <trkpt lat="42.364289006218314" lon="1.963409017771483">
        <ele>1689</ele>
        <time>2016-06-13T15:23:47Z</time>
      </trkpt>
      <trkpt lat="42.364312978461385" lon="1.963398959487677">
        <ele>1694</ele>
        <time>2016-06-13T15:23:48Z</time>
      </trkpt>
      <trkpt lat="42.364382967352867" lon="1.96336199529469">
        <ele>1698</ele>
        <time>2016-06-13T15:23:51Z</time>
      </trkpt>
      <trkpt lat="42.364406017586589" lon="1.963347997516394">
        <ele>1700</ele>
        <time>2016-06-13T15:23:52Z</time>
      </trkpt>
      <trkpt lat="42.364485980942845" lon="1.96331899613142">
        <ele>1683</ele>
        <time>2016-06-13T15:23:55Z</time>
      </trkpt>
      <trkpt lat="42.364514982327819" lon="1.963322013616562">
        <ele>1684</ele>
        <time>2016-06-13T15:23:56Z</time>
      </trkpt>
      <trkpt lat="42.364592012017965" lon="1.963321007788181">
        <ele>1692</ele>
        <time>2016-06-13T15:23:59Z</time>
      </trkpt>
      <trkpt lat="42.364621013402939" lon="1.96331799030304">
        <ele>1695</ele>
        <time>2016-06-13T15:24:00Z</time>
      </trkpt>
      <trkpt lat="42.364677004516125" lon="1.963307010009885">
        <ele>1700</ele>
        <time>2016-06-13T15:24:02Z</time>
      </trkpt>
      <trkpt lat="42.364711035043001" lon="1.96329896338284">
        <ele>1700</ele>
        <time>2016-06-13T15:24:03Z</time>
      </trkpt>
      <trkpt lat="42.3647749889642" lon="1.963293012231588">
        <ele>1679</ele>
        <time>2016-06-13T15:24:05Z</time>
      </trkpt>
      <trkpt lat="42.364807007834315" lon="1.963284965604544">
        <ele>1686</ele>
        <time>2016-06-13T15:24:06Z</time>
      </trkpt>
      <trkpt lat="42.364880014210939" lon="1.963256970047951">
        <ele>1690</ele>
        <time>2016-06-13T15:24:09Z</time>
      </trkpt>
      <trkpt lat="42.36490398645401" lon="1.963249007239938">
        <ele>1689</ele>
        <time>2016-06-13T15:24:10Z</time>
      </trkpt>
      <trkpt lat="42.364974981173873" lon="1.963216988369823">
        <ele>1696</ele>
        <time>2016-06-13T15:24:13Z</time>
      </trkpt>
      <trkpt lat="42.364999959245324" lon="1.963208019733429">
        <ele>1696</ele>
        <time>2016-06-13T15:24:14Z</time>
      </trkpt>
      <trkpt lat="42.365071037784219" lon="1.963168038055301">
        <ele>1672</ele>
        <time>2016-06-13T15:24:17Z</time>
      </trkpt>
      <trkpt lat="42.365097021684051" lon="1.963152028620243">
        <ele>1678</ele>
        <time>2016-06-13T15:24:18Z</time>
      </trkpt>
      <trkpt lat="42.36518201418221" lon="1.963113974779844">
        <ele>1690</ele>
        <time>2016-06-13T15:24:21Z</time>
      </trkpt>
      <trkpt lat="42.365216966718435" lon="1.96310299448669">
        <ele>1690</ele>
        <time>2016-06-13T15:24:22Z</time>
      </trkpt>
      <trkpt lat="42.365285027772188" lon="1.963068963959813">
        <ele>1668</ele>
        <time>2016-06-13T15:24:24Z</time>
      </trkpt>
      <trkpt lat="42.365318974480033" lon="1.963050020858645">
        <ele>1673</ele>
        <time>2016-06-13T15:24:25Z</time>
      </trkpt>
      <trkpt lat="42.365384018048644" lon="1.963013978675008">
        <ele>1684</ele>
        <time>2016-06-13T15:24:27Z</time>
      </trkpt>
      <trkpt lat="42.365413019433618" lon="1.962993023917079">
        <ele>1688</ele>
        <time>2016-06-13T15:24:28Z</time>
      </trkpt>
      <trkpt lat="42.365479990839958" lon="1.962920017540455">
        <ele>1689</ele>
        <time>2016-06-13T15:24:31Z</time>
      </trkpt>
      <trkpt lat="42.365496000275016" lon="1.962895039469004">
        <ele>1692</ele>
        <time>2016-06-13T15:24:32Z</time>
      </trkpt>
      <trkpt lat="42.365540005266666" lon="1.962820021435618">
        <ele>1684</ele>
        <time>2016-06-13T15:24:35Z</time>
      </trkpt>
      <trkpt lat="42.365550985559821" lon="1.962784985080361">
        <ele>1689</ele>
        <time>2016-06-13T15:24:36Z</time>
      </trkpt>
      <trkpt lat="42.365575963631272" lon="1.962680965662003">
        <ele>1693</ele>
        <time>2016-06-13T15:24:39Z</time>
      </trkpt>
      <trkpt lat="42.365588033571839" lon="1.962646013125777">
        <ele>1694</ele>
        <time>2016-06-13T15:24:40Z</time>
      </trkpt>
      <trkpt lat="42.3656349722296" lon="1.962550040334463">
        <ele>1694</ele>
        <time>2016-06-13T15:24:43Z</time>
      </trkpt>
      <trkpt lat="42.365651987493038" lon="1.962509974837303">
        <ele>1697</ele>
        <time>2016-06-13T15:24:44Z</time>
      </trkpt>
      <trkpt lat="42.365703033283353" lon="1.962424982339144">
        <ele>1687</ele>
        <time>2016-06-13T15:24:47Z</time>
      </trkpt>
      <trkpt lat="42.365722982212901" lon="1.962401010096073">
        <ele>1687</ele>
        <time>2016-06-13T15:24:48Z</time>
      </trkpt>
      <trkpt lat="42.365785008296371" lon="1.962313000112772">
        <ele>1692</ele>
        <time>2016-06-13T15:24:51Z</time>
      </trkpt>
      <trkpt lat="42.365808980539441" lon="1.962282992899418">
        <ele>1693</ele>
        <time>2016-06-13T15:24:52Z</time>
      </trkpt>
      <trkpt lat="42.365866983309388" lon="1.962217027321458">
        <ele>1682</ele>
        <time>2016-06-13T15:24:54Z</time>
      </trkpt>
      <trkpt lat="42.36589296720922" lon="1.962186014279723">
        <ele>1689</ele>
        <time>2016-06-13T15:24:55Z</time>
      </trkpt>
      <trkpt lat="42.365943007171154" lon="1.962132034823299">
        <ele>1693</ele>
        <time>2016-06-13T15:24:57Z</time>
      </trkpt>
      <trkpt lat="42.365965973585844" lon="1.962107978761196">
        <ele>1694</ele>
        <time>2016-06-13T15:24:58Z</time>
      </trkpt>
      <trkpt lat="42.366035962477326" lon="1.962033966556191">
        <ele>1697</ele>
        <time>2016-06-13T15:25:01Z</time>
      </trkpt>
      <trkpt lat="42.36606203019619" lon="1.962014017626643">
        <ele>1698</ele>
        <time>2016-06-13T15:25:02Z</time>
      </trkpt>
      <trkpt lat="42.366132019087672" lon="1.961948974058032">
        <ele>1684</ele>
        <time>2016-06-13T15:25:05Z</time>
      </trkpt>
      <trkpt lat="42.366153979673982" lon="1.961925001814961">
        <ele>1688</ele>
        <time>2016-06-13T15:25:06Z</time>
      </trkpt>
      <trkpt lat="42.366225980222225" lon="1.96185995824635">
        <ele>1692</ele>
        <time>2016-06-13T15:25:09Z</time>
      </trkpt>
      <trkpt lat="42.366253975778818" lon="1.961840009316802">
        <ele>1693</ele>
        <time>2016-06-13T15:25:10Z</time>
      </trkpt>
      <trkpt lat="42.366309966892004" lon="1.961806984618306">
        <ele>1693</ele>
        <time>2016-06-13T15:25:12Z</time>
      </trkpt>
      <trkpt lat="42.366338968276978" lon="1.961790975183249">
        <ele>1694</ele>
        <time>2016-06-13T15:25:13Z</time>
      </trkpt>
      <trkpt lat="42.366394959390163" lon="1.961753005161881">
        <ele>1679</ele>
        <time>2016-06-13T15:25:15Z</time>
      </trkpt>
      <trkpt lat="42.366423960775137" lon="1.961731966584921">
        <ele>1681</ele>
        <time>2016-06-13T15:25:16Z</time>
      </trkpt>
      <trkpt lat="42.366485986858606" lon="1.961710005998612">
        <ele>1681</ele>
        <time>2016-06-13T15:25:18Z</time>
      </trkpt>
      <trkpt lat="42.366518005728722" lon="1.961701959371567">
        <ele>1683</ele>
        <time>2016-06-13T15:25:19Z</time>
      </trkpt>
      <trkpt lat="42.366585982963443" lon="1.961681004613638">
        <ele>1685</ele>
        <time>2016-06-13T15:25:21Z</time>
      </trkpt>
      <trkpt lat="42.366623030975461" lon="1.961667006835342">
        <ele>1686</ele>
        <time>2016-06-13T15:25:22Z</time>
      </trkpt>
      <trkpt lat="42.366667035967112" lon="1.961650997400284">
        <ele>1688</ele>
        <time>2016-06-13T15:25:23Z</time>
      </trkpt>
      <trkpt lat="42.366710035130382" lon="1.961633982136846">
        <ele>1656</ele>
        <time>2016-06-13T15:25:24Z</time>
      </trkpt>
      <trkpt lat="42.366785975173116" lon="1.96159802377224">
        <ele>1666</ele>
        <time>2016-06-13T15:25:26Z</time>
      </trkpt>
      <trkpt lat="42.366822017356753" lon="1.96157899685204">
        <ele>1671</ele>
        <time>2016-06-13T15:25:27Z</time>
      </trkpt>
      <trkpt lat="42.366893012076616" lon="1.961543960496783">
        <ele>1679</ele>
        <time>2016-06-13T15:25:29Z</time>
      </trkpt>
      <trkpt lat="42.366926958784461" lon="1.961527029052377">
        <ele>1683</ele>
        <time>2016-06-13T15:25:30Z</time>
      </trkpt>
      <trkpt lat="42.36698898486793" lon="1.961479000747204">
        <ele>1687</ele>
        <time>2016-06-13T15:25:32Z</time>
      </trkpt>
      <trkpt lat="42.367017986252904" lon="1.961457962170243">
        <ele>1689</ele>
        <time>2016-06-13T15:25:33Z</time>
      </trkpt>
      <trkpt lat="42.367081018164754" lon="1.961439019069076">
        <ele>1661</ele>
        <time>2016-06-13T15:25:35Z</time>
      </trkpt>
      <trkpt lat="42.367112031206489" lon="1.961431978270412">
        <ele>1671</ele>
        <time>2016-06-13T15:25:36Z</time>
      </trkpt>
      <trkpt lat="42.367177996784449" lon="1.961414963006973">
        <ele>1681</ele>
        <time>2016-06-13T15:25:38Z</time>
      </trkpt>
      <trkpt lat="42.367212027311325" lon="1.961404988542199">
        <ele>1686</ele>
        <time>2016-06-13T15:25:39Z</time>
      </trkpt>
      <trkpt lat="42.367282016202807" lon="1.961381016299129">
        <ele>1691</ele>
        <time>2016-06-13T15:25:41Z</time>
      </trkpt>
      <trkpt lat="42.367313029244542" lon="1.961368024349213">
        <ele>1691</ele>
        <time>2016-06-13T15:25:42Z</time>
      </trkpt>
      <trkpt lat="42.367377988994122" lon="1.961350003257394">
        <ele>1670</ele>
        <time>2016-06-13T15:25:44Z</time>
      </trkpt>
      <trkpt lat="42.367410007864237" lon="1.96134396828711">
        <ele>1672</ele>
        <time>2016-06-13T15:25:45Z</time>
      </trkpt>
      <trkpt lat="42.367497012019157" lon="1.961326031014323">
        <ele>1680</ele>
        <time>2016-06-13T15:25:48Z</time>
      </trkpt>
      <trkpt lat="42.367529030889273" lon="1.96131999604404">
        <ele>1683</ele>
        <time>2016-06-13T15:25:49Z</time>
      </trkpt>
      <trkpt lat="42.367613017559052" lon="1.961323013529182">
        <ele>1688</ele>
        <time>2016-06-13T15:25:51Z</time>
      </trkpt>
      <trkpt lat="42.36767403781414" lon="1.96136400103569">
        <ele>1662</ele>
        <time>2016-06-13T15:25:52Z</time>
      </trkpt>
      <trkpt lat="42.367734974250197" lon="1.961390990763903">
        <ele>1665</ele>
        <time>2016-06-13T15:25:54Z</time>
      </trkpt>
      <trkpt lat="42.367778979241848" lon="1.961387973278761">
        <ele>1667</ele>
        <time>2016-06-13T15:25:55Z</time>
      </trkpt>
      <trkpt lat="42.367832036688924" lon="1.961399037390947">
        <ele>1672</ele>
        <time>2016-06-13T15:25:57Z</time>
      </trkpt>
      <trkpt lat="42.367870006710291" lon="1.961414040997624">
        <ele>1676</ele>
        <time>2016-06-13T15:25:58Z</time>
      </trkpt>
      <trkpt lat="42.367906970903277" lon="1.961441030725837">
        <ele>1678</ele>
        <time>2016-06-13T15:25:59Z</time>
      </trkpt>
      <trkpt lat="42.367946030572057" lon="1.961479000747204">
        <ele>1678</ele>
        <time>2016-06-13T15:26:00Z</time>
      </trkpt>
      <trkpt lat="42.368001015856862" lon="1.961499033495784">
        <ele>1685</ele>
        <time>2016-06-13T15:26:01Z</time>
      </trkpt>
      <trkpt lat="42.368031023070216" lon="1.961531974375248">
        <ele>1686</ele>
        <time>2016-06-13T15:26:02Z</time>
      </trkpt>
      <trkpt lat="42.368096988648176" lon="1.961580002680421">
        <ele>1668</ele>
        <time>2016-06-13T15:26:04Z</time>
      </trkpt>
      <trkpt lat="42.368129007518291" lon="1.96160196326673">
        <ele>1677</ele>
        <time>2016-06-13T15:26:05Z</time>
      </trkpt>
      <trkpt lat="42.368192039430141" lon="1.961645968258381">
        <ele>1682</ele>
        <time>2016-06-13T15:26:07Z</time>
      </trkpt>
      <trkpt lat="42.368221040815115" lon="1.961673041805625">
        <ele>1684</ele>
        <time>2016-06-13T15:26:08Z</time>
      </trkpt>
      <trkpt lat="42.368282983079553" lon="1.961753005161881">
        <ele>1687</ele>
        <time>2016-06-13T15:26:11Z</time>
      </trkpt>
      <trkpt lat="42.36829899251461" lon="1.961774965748191">
        <ele>1687</ele>
        <time>2016-06-13T15:26:12Z</time>
      </trkpt>
      <trkpt lat="42.368347020819783" lon="1.961840009316802">
        <ele>1674</ele>
        <time>2016-06-13T15:26:15Z</time>
      </trkpt>
      <trkpt lat="42.36836202442646" lon="1.961864987388253">
        <ele>1677</ele>
        <time>2016-06-13T15:26:16Z</time>
      </trkpt>
      <trkpt lat="42.368406029418111" lon="1.961941011250019">
        <ele>1684</ele>
        <time>2016-06-13T15:26:19Z</time>
      </trkpt>
      <trkpt lat="42.368422038853168" lon="1.961970012634993">
        <ele>1687</ele>
        <time>2016-06-13T15:26:20Z</time>
      </trkpt>
      <trkpt lat="42.368453973904252" lon="1.962063973769546">
        <ele>1671</ele>
        <time>2016-06-13T15:26:23Z</time>
      </trkpt>
      <trkpt lat="42.368466965854168" lon="1.962090963497758">
        <ele>1673</ele>
        <time>2016-06-13T15:26:24Z</time>
      </trkpt>
      <trkpt lat="42.368502002209425" lon="1.962195988744497">
        <ele>1677</ele>
        <time>2016-06-13T15:26:28Z</time>
      </trkpt>
      <trkpt lat="42.368510970845819" lon="1.962221972644329">
        <ele>1678</ele>
        <time>2016-06-13T15:26:29Z</time>
      </trkpt>
      <trkpt lat="42.368525974452496" lon="1.96230998262763">
        <ele>1684</ele>
        <time>2016-06-13T15:26:32Z</time>
      </trkpt>
      <trkpt lat="42.36853301525116" lon="1.962343007326126">
        <ele>1654</ele>
        <time>2016-06-13T15:26:33Z</time>
      </trkpt>
      <trkpt lat="42.36855598166585" lon="1.962441997602582">
        <ele>1669</ele>
        <time>2016-06-13T15:26:36Z</time>
      </trkpt>
      <trkpt lat="42.368564028292894" lon="1.962470998987556">
        <ele>1676</ele>
        <time>2016-06-13T15:26:37Z</time>
      </trkpt>
      <trkpt lat="42.368585988879204" lon="1.962579041719437">
        <ele>1688</ele>
        <time>2016-06-13T15:26:42Z</time>
      </trkpt>
      <trkpt lat="42.368591018021107" lon="1.96260703727603">
        <ele>1650</ele>
        <time>2016-06-13T15:26:43Z</time>
      </trkpt>
      <trkpt lat="42.368615996092558" lon="1.96269404143095">
        <ele>1669</ele>
        <time>2016-06-13T15:26:46Z</time>
      </trkpt>
      <trkpt lat="42.3686190135777" lon="1.962722036987543">
        <ele>1677</ele>
        <time>2016-06-13T15:26:47Z</time>
      </trkpt>
      <trkpt lat="42.368635023012757" lon="1.962812980636954">
        <ele>1682</ele>
        <time>2016-06-13T15:26:50Z</time>
      </trkpt>
      <trkpt lat="42.368647009134293" lon="1.962848016992211">
        <ele>1687</ele>
        <time>2016-06-13T15:26:51Z</time>
      </trkpt>
      <trkpt lat="42.368675004690886" lon="1.962923035025597">
        <ele>1654</ele>
        <time>2016-06-13T15:26:53Z</time>
      </trkpt>
      <trkpt lat="42.368691014125943" lon="1.962963016703725">
        <ele>1664</ele>
        <time>2016-06-13T15:26:54Z</time>
      </trkpt>
      <trkpt lat="42.368732001632452" lon="1.9630610011518">
        <ele>1682</ele>
        <time>2016-06-13T15:26:57Z</time>
      </trkpt>
      <trkpt lat="42.368738958612084" lon="1.963092014193535">
        <ele>1686</ele>
        <time>2016-06-13T15:26:58Z</time>
      </trkpt>
      <trkpt lat="42.368763014674187" lon="1.963182035833597">
        <ele>1693</ele>
        <time>2016-06-13T15:27:01Z</time>
      </trkpt>
      <trkpt lat="42.368768965825438" lon="1.963213970884681">
        <ele>1696</ele>
        <time>2016-06-13T15:27:02Z</time>
      </trkpt>
      <trkpt lat="42.368785981088877" lon="1.963304998353124">
        <ele>1685</ele>
        <time>2016-06-13T15:27:05Z</time>
      </trkpt>
      <trkpt lat="42.368796039372683" lon="1.963330982252955">
        <ele>1687</ele>
        <time>2016-06-13T15:27:06Z</time>
      </trkpt>
      <trkpt lat="42.368829986080527" lon="1.963441958650947">
        <ele>1694</ele>
        <time>2016-06-13T15:27:10Z</time>
      </trkpt>
      <trkpt lat="42.368841972202063" lon="1.963462997227907">
        <ele>1696</ele>
        <time>2016-06-13T15:27:11Z</time>
      </trkpt>
      <trkpt lat="42.368926964700222" lon="1.963473977521062">
        <ele>1691</ele>
        <time>2016-06-13T15:27:16Z</time>
      </trkpt>
      <trkpt lat="42.368940962478518" lon="1.963469032198191">
        <ele>1689</ele>
        <time>2016-06-13T15:27:17Z</time>
      </trkpt>
      <trkpt lat="42.369011035189033" lon="1.963412035256624">
        <ele>1694</ele>
        <time>2016-06-13T15:28:14Z</time>
      </trkpt>
      <trkpt lat="42.369015980511904" lon="1.963394014164805">
        <ele>1696</ele>
        <time>2016-06-13T15:28:15Z</time>
      </trkpt>
      <trkpt lat="42.369014974683523" lon="1.963298041373491">
        <ele>1693</ele>
        <time>2016-06-13T15:28:51Z</time>
      </trkpt>
      <trkpt lat="42.369016986340284" lon="1.963269039988518">
        <ele>1694</ele>
        <time>2016-06-13T15:28:52Z</time>
      </trkpt>
      <trkpt lat="42.369056968018413" lon="1.963172983378172">
        <ele>1680</ele>
        <time>2016-06-13T15:28:56Z</time>
      </trkpt>
      <trkpt lat="42.36907197162509" lon="1.963155968114734">
        <ele>1677</ele>
        <time>2016-06-13T15:28:57Z</time>
      </trkpt>
      <trkpt lat="42.369111031293869" lon="1.96308296173811">
        <ele>1687</ele>
        <time>2016-06-13T15:29:00Z</time>
      </trkpt>
      <trkpt lat="42.369128968566656" lon="1.963054966181517">
        <ele>1690</ele>
        <time>2016-06-13T15:29:01Z</time>
      </trkpt>
      <trkpt lat="42.369190994650126" lon="1.962990006431937">
        <ele>1681</ele>
        <time>2016-06-13T15:29:04Z</time>
      </trkpt>
      <trkpt lat="42.369212033227086" lon="1.962966034188867">
        <ele>1686</ele>
        <time>2016-06-13T15:29:05Z</time>
      </trkpt>
      <trkpt lat="42.369270035997033" lon="1.962905013933778">
        <ele>1697</ele>
        <time>2016-06-13T15:29:08Z</time>
      </trkpt>
      <trkpt lat="42.36928797326982" lon="1.962883975356817">
        <ele>1699</ele>
        <time>2016-06-13T15:29:09Z</time>
      </trkpt>
      <trkpt lat="42.369361985474825" lon="1.962828990072012">
        <ele>1693</ele>
        <time>2016-06-13T15:29:13Z</time>
      </trkpt>
      <trkpt lat="42.369376989081502" lon="1.962815998122096">
        <ele>1696</ele>
        <time>2016-06-13T15:29:14Z</time>
      </trkpt>
      <trkpt lat="42.369453012943268" lon="1.962752966210246">
        <ele>1692</ele>
        <time>2016-06-13T15:29:19Z</time>
      </trkpt>
      <trkpt lat="42.369467010721564" lon="1.962741985917091">
        <ele>1695</ele>
        <time>2016-06-13T15:29:20Z</time>
      </trkpt>
      <trkpt lat="42.369536999613047" lon="1.96269697509706">
        <ele>1689</ele>
        <time>2016-06-13T15:29:25Z</time>
      </trkpt>
      <trkpt lat="42.369549991562963" lon="1.962684988975525">
        <ele>1692</ele>
        <time>2016-06-13T15:29:26Z</time>
      </trkpt>
      <trkpt lat="42.369625009596348" lon="1.962627992033958">
        <ele>1692</ele>
        <time>2016-06-13T15:29:31Z</time>
      </trkpt>
      <trkpt lat="42.369642024859786" lon="1.962616005912423">
        <ele>1696</ele>
        <time>2016-06-13T15:29:32Z</time>
      </trkpt>
      <trkpt lat="42.369705978780985" lon="1.962562026455998">
        <ele>1705</ele>
        <time>2016-06-13T15:29:36Z</time>
      </trkpt>
      <trkpt lat="42.369719976559281" lon="1.962546017020941">
        <ele>1706</ele>
        <time>2016-06-13T15:29:37Z</time>
      </trkpt>
      <trkpt lat="42.369793988764286" lon="1.962487008422613">
        <ele>1698</ele>
        <time>2016-06-13T15:29:42Z</time>
      </trkpt>
      <trkpt lat="42.369809998199344" lon="1.962479967623949">
        <ele>1697</ele>
        <time>2016-06-13T15:29:43Z</time>
      </trkpt>
      <trkpt lat="42.369874035939574" lon="1.96243504062295">
        <ele>1704</ele>
        <time>2016-06-13T15:29:47Z</time>
      </trkpt>
      <trkpt lat="42.369891973212361" lon="1.962421964854002">
        <ele>1705</ele>
        <time>2016-06-13T15:29:48Z</time>
      </trkpt>
      <trkpt lat="42.369956010952592" lon="1.962380977347493">
        <ele>1692</ele>
        <time>2016-06-13T15:29:51Z</time>
      </trkpt>
      <trkpt lat="42.369976965710521" lon="1.962365973740816">
        <ele>1697</ele>
        <time>2016-06-13T15:29:52Z</time>
      </trkpt>
      <trkpt lat="42.370053995400667" lon="1.962337978184223">
        <ele>1698</ele>
        <time>2016-06-13T15:29:55Z</time>
      </trkpt>
      <trkpt lat="42.37008098512888" lon="1.962331021204591">
        <ele>1700</ele>
        <time>2016-06-13T15:29:56Z</time>
      </trkpt>
      <trkpt lat="42.370154997333884" lon="1.962310988456011">
        <ele>1706</ele>
        <time>2016-06-13T15:29:59Z</time>
      </trkpt>
      <trkpt lat="42.370178969576955" lon="1.962307970970869">
        <ele>1707</ele>
        <time>2016-06-13T15:30:00Z</time>
      </trkpt>
      <trkpt lat="42.370248958468437" lon="1.962297996506095">
        <ele>1695</ele>
        <time>2016-06-13T15:30:03Z</time>
      </trkpt>
      <trkpt lat="42.370272008702159" lon="1.962294979020953">
        <ele>1698</ele>
        <time>2016-06-13T15:30:04Z</time>
      </trkpt>
      <trkpt lat="42.370340991765261" lon="1.962290033698082">
        <ele>1706</ele>
        <time>2016-06-13T15:30:07Z</time>
      </trkpt>
      <trkpt lat="42.370362030342221" lon="1.962290033698082">
        <ele>1686</ele>
        <time>2016-06-13T15:30:08Z</time>
      </trkpt>
      <trkpt lat="42.370423972606659" lon="1.962252985686064">
        <ele>1701</ele>
        <time>2016-06-13T15:30:11Z</time>
      </trkpt>
      <trkpt lat="42.370444005355239" lon="1.962233958765864">
        <ele>1704</ele>
        <time>2016-06-13T15:30:12Z</time>
      </trkpt>
      <trkpt lat="42.370490022003651" lon="1.962161958217621">
        <ele>1712</ele>
        <time>2016-06-13T15:30:15Z</time>
      </trkpt>
      <trkpt lat="42.370498990640044" lon="1.962134968489409">
        <ele>1713</ele>
        <time>2016-06-13T15:30:16Z</time>
      </trkpt>
      <trkpt lat="42.37051198258996" lon="1.962045030668378">
        <ele>1708</ele>
        <time>2016-06-13T15:30:19Z</time>
      </trkpt>
      <trkpt lat="42.37051097676158" lon="1.962013011798263">
        <ele>1710</ele>
        <time>2016-06-13T15:30:20Z</time>
      </trkpt>
      <trkpt lat="42.370504019781947" lon="1.961917039006949">
        <ele>1715</ele>
        <time>2016-06-13T15:30:23Z</time>
      </trkpt>
      <trkpt lat="42.370503013953567" lon="1.961886025965214">
        <ele>1708</ele>
        <time>2016-06-13T15:30:24Z</time>
      </trkpt>
      <trkpt lat="42.370483987033367" lon="1.961773037910461">
        <ele>1715</ele>
        <time>2016-06-13T15:30:28Z</time>
      </trkpt>
      <trkpt lat="42.370475018396974" lon="1.961746970191598">
        <ele>1715</ele>
        <time>2016-06-13T15:30:29Z</time>
      </trkpt>
      <trkpt lat="42.370430007576942" lon="1.96164102293551">
        <ele>1718</ele>
        <time>2016-06-13T15:30:33Z</time>
      </trkpt>
      <trkpt lat="42.370420033112168" lon="1.961614033207297">
        <ele>1711</ele>
        <time>2016-06-13T15:30:34Z</time>
      </trkpt>
      <trkpt lat="42.370392037555575" lon="1.961530968546867">
        <ele>1714</ele>
        <time>2016-06-13T15:30:37Z</time>
      </trkpt>
      <trkpt lat="42.37038197927177" lon="1.961501967161894">
        <ele>1716</ele>
        <time>2016-06-13T15:30:38Z</time>
      </trkpt>
      <trkpt lat="42.370349038392305" lon="1.961387973278761">
        <ele>1718</ele>
        <time>2016-06-13T15:30:42Z</time>
      </trkpt>
      <trkpt lat="42.370347026735544" lon="1.961359977722168">
        <ele>1719</ele>
        <time>2016-06-13T15:30:43Z</time>
      </trkpt>
      <trkpt lat="42.3703389801085" lon="1.961245983839035">
        <ele>1716</ele>
        <time>2016-06-13T15:30:47Z</time>
      </trkpt>
      <trkpt lat="42.37033998593688" lon="1.96121396496892">
        <ele>1717</ele>
        <time>2016-06-13T15:30:48Z</time>
      </trkpt>
      <trkpt lat="42.370349038392305" lon="1.961118998005986">
        <ele>1718</ele>
        <time>2016-06-13T15:30:51Z</time>
      </trkpt>
      <trkpt lat="42.370354989543557" lon="1.961088990792632">
        <ele>1718</ele>
        <time>2016-06-13T15:30:52Z</time>
      </trkpt>
      <trkpt lat="42.37038197927177" lon="1.961003998294473">
        <ele>1711</ele>
        <time>2016-06-13T15:30:55Z</time>
      </trkpt>
      <trkpt lat="42.370392959564924" lon="1.96097700856626">
        <ele>1712</ele>
        <time>2016-06-13T15:30:56Z</time>
      </trkpt>
      <trkpt lat="42.370437970384955" lon="1.960899978876114">
        <ele>1716</ele>
        <time>2016-06-13T15:30:59Z</time>
      </trkpt>
      <trkpt lat="42.370456997305155" lon="1.960876006633043">
        <ele>1717</ele>
        <time>2016-06-13T15:31:00Z</time>
      </trkpt>
      <trkpt lat="42.370516005903482" lon="1.9608040060848">
        <ele>1719</ele>
        <time>2016-06-13T15:31:03Z</time>
      </trkpt>
      <trkpt lat="42.370535032823682" lon="1.960778022184968">
        <ele>1713</ele>
        <time>2016-06-13T15:31:04Z</time>
      </trkpt>
      <trkpt lat="42.370593035593629" lon="1.960706021636725">
        <ele>1718</ele>
        <time>2016-06-13T15:31:07Z</time>
      </trkpt>
      <trkpt lat="42.370613990351558" lon="1.960682971403003">
        <ele>1719</ele>
        <time>2016-06-13T15:31:08Z</time>
      </trkpt>
      <trkpt lat="42.370672998949885" lon="1.960620023310185">
        <ele>1720</ele>
        <time>2016-06-13T15:31:11Z</time>
      </trkpt>
      <trkpt lat="42.370691020041704" lon="1.960599990561605">
        <ele>1720</ele>
        <time>2016-06-13T15:31:12Z</time>
      </trkpt>
      <trkpt lat="42.370735025033355" lon="1.960530001670122">
        <ele>1710</ele>
        <time>2016-06-13T15:31:15Z</time>
      </trkpt>
      <trkpt lat="42.370751034468412" lon="1.960505023598671">
        <ele>1715</ele>
        <time>2016-06-13T15:31:16Z</time>
      </trkpt>
      <trkpt lat="42.370805013924837" lon="1.960433023050427">
        <ele>1717</ele>
        <time>2016-06-13T15:31:19Z</time>
      </trkpt>
      <trkpt lat="42.370820017531514" lon="1.960405027493835">
        <ele>1718</ele>
        <time>2016-06-13T15:31:20Z</time>
      </trkpt>
      <trkpt lat="42.370863016694784" lon="1.960316011682153">
        <ele>1720</ele>
        <time>2016-06-13T15:31:23Z</time>
      </trkpt>
      <trkpt lat="42.370880031958222" lon="1.96028801612556">
        <ele>1703</ele>
        <time>2016-06-13T15:31:24Z</time>
      </trkpt>
      <trkpt lat="42.370936023071408" lon="1.960219033062458">
        <ele>1710</ele>
        <time>2016-06-13T15:31:27Z</time>
      </trkpt>
      <trkpt lat="42.370953960344195" lon="1.960196988657117">
        <ele>1711</ele>
        <time>2016-06-13T15:31:28Z</time>
      </trkpt>
      <trkpt lat="42.370998971164227" lon="1.960109984502196">
        <ele>1717</ele>
        <time>2016-06-13T15:31:31Z</time>
      </trkpt>
      <trkpt lat="42.371013974770904" lon="1.960078971460462">
        <ele>1718</ele>
        <time>2016-06-13T15:31:32Z</time>
      </trkpt>
      <trkpt lat="42.371065020561218" lon="1.959990039467812">
        <ele>1690</ele>
        <time>2016-06-13T15:31:35Z</time>
      </trkpt>
      <trkpt lat="42.371083963662386" lon="1.959953997284174">
        <ele>1697</ele>
        <time>2016-06-13T15:31:36Z</time>
      </trkpt>
      <trkpt lat="42.371125034987926" lon="1.95988099090755">
        <ele>1703</ele>
        <time>2016-06-13T15:31:38Z</time>
      </trkpt>
      <trkpt lat="42.371145989745855" lon="1.959842015057802">
        <ele>1706</ele>
        <time>2016-06-13T15:31:39Z</time>
      </trkpt>
      <trkpt lat="42.371185971423984" lon="1.959760962054133">
        <ele>1715</ele>
        <time>2016-06-13T15:31:41Z</time>
      </trkpt>
      <trkpt lat="42.371206004172564" lon="1.959722992032766">
        <ele>1718</ele>
        <time>2016-06-13T15:31:42Z</time>
      </trkpt>
      <trkpt lat="42.371252020820975" lon="1.959660965949297">
        <ele>1719</ele>
        <time>2016-06-13T15:31:44Z</time>
      </trkpt>
      <trkpt lat="42.371274987235665" lon="1.959630958735943">
        <ele>1705</ele>
        <time>2016-06-13T15:31:45Z</time>
      </trkpt>
      <trkpt lat="42.371319998055696" lon="1.959565998986363">
        <ele>1709</ele>
        <time>2016-06-13T15:31:47Z</time>
      </trkpt>
      <trkpt lat="42.371344976127148" lon="1.959530962631106">
        <ele>1713</ele>
        <time>2016-06-13T15:31:48Z</time>
      </trkpt>
      <trkpt lat="42.371403984725475" lon="1.959460973739624">
        <ele>1716</ele>
        <time>2016-06-13T15:31:50Z</time>
      </trkpt>
      <trkpt lat="42.371431980282068" lon="1.959429038688541">
        <ele>1717</ele>
        <time>2016-06-13T15:31:51Z</time>
      </trkpt>
      <trkpt lat="42.371485037729144" lon="1.959363995119929">
        <ele>1723</ele>
        <time>2016-06-13T15:31:53Z</time>
      </trkpt>
      <trkpt lat="42.371512027457356" lon="1.959333987906575">
        <ele>1708</ele>
        <time>2016-06-13T15:31:54Z</time>
      </trkpt>
      <trkpt lat="42.371571036055684" lon="1.959277996793389">
        <ele>1717</ele>
        <time>2016-06-13T15:31:56Z</time>
      </trkpt>
      <trkpt lat="42.371600037440658" lon="1.959253018721938">
        <ele>1719</ele>
        <time>2016-06-13T15:31:57Z</time>
      </trkpt>
      <trkpt lat="42.371658040210605" lon="1.959203984588385">
        <ele>1722</ele>
        <time>2016-06-13T15:31:59Z</time>
      </trkpt>
      <trkpt lat="42.371688969433308" lon="1.959182024002075">
        <ele>1724</ele>
        <time>2016-06-13T15:32:00Z</time>
      </trkpt>
      <trkpt lat="42.371748983860016" lon="1.959140030667186">
        <ele>1726</ele>
        <time>2016-06-13T15:32:02Z</time>
      </trkpt>
      <trkpt lat="42.37177899107337" lon="1.959118992090225">
        <ele>1726</ele>
        <time>2016-06-13T15:32:03Z</time>
      </trkpt>
      <trkpt lat="42.371841017156839" lon="1.959078004583716">
        <ele>1721</ele>
        <time>2016-06-13T15:32:05Z</time>
      </trkpt>
      <trkpt lat="42.371873036026955" lon="1.959058977663517">
        <ele>1723</ele>
        <time>2016-06-13T15:32:06Z</time>
      </trkpt>
      <trkpt lat="42.371934978291392" lon="1.959020001813769">
        <ele>1723</ele>
        <time>2016-06-13T15:32:08Z</time>
      </trkpt>
      <trkpt lat="42.371963979676366" lon="1.95900097489357">
        <ele>1722</ele>
        <time>2016-06-13T15:32:09Z</time>
      </trkpt>
      <trkpt lat="42.372044026851654" lon="1.958949007093906">
        <ele>1724</ele>
        <time>2016-06-13T15:32:12Z</time>
      </trkpt>
      <trkpt lat="42.372073028236628" lon="1.958931991830468">
        <ele>1724</ele>
        <time>2016-06-13T15:32:13Z</time>
      </trkpt>
      <trkpt lat="42.372129019349813" lon="1.958891004323959">
        <ele>1714</ele>
        <time>2016-06-13T15:32:15Z</time>
      </trkpt>
      <trkpt lat="42.372153997421265" lon="1.958868959918618">
        <ele>1717</ele>
        <time>2016-06-13T15:32:16Z</time>
      </trkpt>
      <trkpt lat="42.372209988534451" lon="1.958839036524296">
        <ele>1718</ele>
        <time>2016-06-13T15:32:18Z</time>
      </trkpt>
      <trkpt lat="42.372238989919424" lon="1.95882897824049">
        <ele>1719</ele>
        <time>2016-06-13T15:32:19Z</time>
      </trkpt>
      <trkpt lat="42.372325994074345" lon="1.958802994340658">
        <ele>1722</ele>
        <time>2016-06-13T15:32:22Z</time>
      </trkpt>
      <trkpt lat="42.372354995459318" lon="1.958795031532645">
        <ele>1722</ele>
        <time>2016-06-13T15:32:23Z</time>
      </trkpt>
      <trkpt lat="42.372430013492703" lon="1.958767035976052">
        <ele>1716</ele>
        <time>2016-06-13T15:32:26Z</time>
      </trkpt>
      <trkpt lat="42.372449040412903" lon="1.958756977692246">
        <ele>1720</ele>
        <time>2016-06-13T15:32:27Z</time>
      </trkpt>
      <trkpt lat="42.372511988505721" lon="1.958715990185738">
        <ele>1726</ele>
        <time>2016-06-13T15:32:30Z</time>
      </trkpt>
      <trkpt lat="42.37253101542592" lon="1.958701992407441">
        <ele>1729</ele>
        <time>2016-06-13T15:32:31Z</time>
      </trkpt>
      <trkpt lat="42.372601004317403" lon="1.958654969930649">
        <ele>1713</ele>
        <time>2016-06-13T15:32:34Z</time>
      </trkpt>
      <trkpt lat="42.372625982388854" lon="1.958644995465875">
        <ele>1715</ele>
        <time>2016-06-13T15:32:35Z</time>
      </trkpt>
      <trkpt lat="42.372701000422239" lon="1.958618005737662">
        <ele>1719</ele>
        <time>2016-06-13T15:32:38Z</time>
      </trkpt>
      <trkpt lat="42.37272597849369" lon="1.958603002130985">
        <ele>1721</ele>
        <time>2016-06-13T15:32:39Z</time>
      </trkpt>
      <trkpt lat="42.372807031497359" lon="1.95857098326087">
        <ele>1731</ele>
        <time>2016-06-13T15:32:43Z</time>
      </trkpt>
      <trkpt lat="42.372822035104036" lon="1.958560002967715">
        <ele>1713</ele>
        <time>2016-06-13T15:32:44Z</time>
      </trkpt>
      <trkpt lat="42.372877020388842" lon="1.958521027117968">
        <ele>1725</ele>
        <time>2016-06-13T15:32:47Z</time>
      </trkpt>
      <trkpt lat="42.372904010117054" lon="1.958509963005781">
        <ele>1725</ele>
        <time>2016-06-13T15:32:48Z</time>
      </trkpt>
      <trkpt lat="42.37298296764493" lon="1.958476016297936">
        <ele>1729</ele>
        <time>2016-06-13T15:32:51Z</time>
      </trkpt>
      <trkpt lat="42.373011969029903" lon="1.958466041833162">
        <ele>1730</ele>
        <time>2016-06-13T15:32:52Z</time>
      </trkpt>
      <trkpt lat="42.373076006770134" lon="1.958440979942679">
        <ele>1716</ele>
        <time>2016-06-13T15:32:54Z</time>
      </trkpt>
      <trkpt lat="42.373105008155107" lon="1.958426982164383">
        <ele>1717</ele>
        <time>2016-06-13T15:32:55Z</time>
      </trkpt>
      <trkpt lat="42.373162005096674" lon="1.958395969122648">
        <ele>1720</ele>
        <time>2016-06-13T15:32:57Z</time>
      </trkpt>
      <trkpt lat="42.373192012310028" lon="1.958381971344352">
        <ele>1723</ele>
        <time>2016-06-13T15:32:58Z</time>
      </trkpt>
      <trkpt lat="42.373251020908356" lon="1.958356993272901">
        <ele>1725</ele>
        <time>2016-06-13T15:33:00Z</time>
      </trkpt>
      <trkpt lat="42.373279016464949" lon="1.958346012979746">
        <ele>1727</ele>
        <time>2016-06-13T15:33:01Z</time>
      </trkpt>
      <trkpt lat="42.373351017013192" lon="1.958320029079914">
        <ele>1727</ele>
        <time>2016-06-13T15:33:04Z</time>
      </trkpt>
      <trkpt lat="42.373373983427882" lon="1.958307959139347">
        <ele>1711</ele>
        <time>2016-06-13T15:33:05Z</time>
      </trkpt>
      <trkpt lat="42.373442966490984" lon="1.958266971632838">
        <ele>1722</ele>
        <time>2016-06-13T15:33:08Z</time>
      </trkpt>
      <trkpt lat="42.373464005067945" lon="1.958254985511303">
        <ele>1725</ele>
        <time>2016-06-13T15:33:09Z</time>
      </trkpt>
      <trkpt lat="42.373542040586472" lon="1.958207041025162">
        <ele>1730</ele>
        <time>2016-06-13T15:33:13Z</time>
      </trkpt>
      <trkpt lat="42.373558972030878" lon="1.958193965256214">
        <ele>1731</ele>
        <time>2016-06-13T15:33:14Z</time>
      </trkpt>
      <trkpt lat="42.373628038913012" lon="1.958139985799789">
        <ele>1726</ele>
        <time>2016-06-13T15:33:18Z</time>
      </trkpt>
      <trkpt lat="42.37364798784256" lon="1.958125988021493">
        <ele>1727</ele>
        <time>2016-06-13T15:33:19Z</time>
      </trkpt>
      <trkpt lat="42.373704984784126" lon="1.958079971373081">
        <ele>1730</ele>
        <time>2016-06-13T15:33:22Z</time>
      </trkpt>
      <trkpt lat="42.373724011704326" lon="1.958061028271914">
        <ele>1730</ele>
        <time>2016-06-13T15:33:23Z</time>
      </trkpt>
      <trkpt lat="42.373782014474273" lon="1.958021968603134">
        <ele>1721</ele>
        <time>2016-06-13T15:33:25Z</time>
      </trkpt>
      <trkpt lat="42.373814033344388" lon="1.958003025501967">
        <ele>1725</ele>
        <time>2016-06-13T15:33:26Z</time>
      </trkpt>
      <trkpt lat="42.373873963952065" lon="1.957957008853555">
        <ele>1727</ele>
        <time>2016-06-13T15:33:28Z</time>
      </trkpt>
      <trkpt lat="42.373901037499309" lon="1.957931024953723">
        <ele>1728</ele>
        <time>2016-06-13T15:33:29Z</time>
      </trkpt>
      <trkpt lat="42.373954011127353" lon="1.957875033840537">
        <ele>1730</ele>
        <time>2016-06-13T15:33:31Z</time>
      </trkpt>
      <trkpt lat="42.373982006683946" lon="1.957847960293293">
        <ele>1731</ele>
        <time>2016-06-13T15:33:32Z</time>
      </trkpt>
      <trkpt lat="42.374033974483609" lon="1.957789035513997">
        <ele>1732</ele>
        <time>2016-06-13T15:33:34Z</time>
      </trkpt>
      <trkpt lat="42.374059958383441" lon="1.957760034129024">
        <ele>1721</ele>
        <time>2016-06-13T15:33:35Z</time>
      </trkpt>
      <trkpt lat="42.374115027487278" lon="1.957702031359077">
        <ele>1722</ele>
        <time>2016-06-13T15:33:37Z</time>
      </trkpt>
      <trkpt lat="42.374144028872252" lon="1.957673029974103">
        <ele>1722</ele>
        <time>2016-06-13T15:33:38Z</time>
      </trkpt>
      <trkpt lat="42.374201025813818" lon="1.957612009719014">
        <ele>1725</ele>
        <time>2016-06-13T15:33:40Z</time>
      </trkpt>
      <trkpt lat="42.37422801554203" lon="1.95758099667728">
        <ele>1725</ele>
        <time>2016-06-13T15:33:41Z</time>
      </trkpt>
      <trkpt lat="42.374278977513313" lon="1.957506984472275">
        <ele>1723</ele>
        <time>2016-06-13T15:33:43Z</time>
      </trkpt>
      <trkpt lat="42.374304039403796" lon="1.957469014450908">
        <ele>1724</ele>
        <time>2016-06-13T15:33:44Z</time>
      </trkpt>
      <trkpt lat="42.37435600720346" lon="1.957403970882297">
        <ele>1699</ele>
        <time>2016-06-13T15:33:46Z</time>
      </trkpt>
      <trkpt lat="42.374385008588433" lon="1.957373963668943">
        <ele>1698</ele>
        <time>2016-06-13T15:33:47Z</time>
      </trkpt>
      <trkpt lat="42.374446028843522" lon="1.957319984212518">
        <ele>1710</ele>
        <time>2016-06-13T15:33:49Z</time>
      </trkpt>
      <trkpt lat="42.374476036056876" lon="1.957295006141067">
        <ele>1714</ele>
        <time>2016-06-13T15:33:50Z</time>
      </trkpt>
      <trkpt lat="42.374557005241513" lon="1.957246977835894">
        <ele>1727</ele>
        <time>2016-06-13T15:33:53Z</time>
      </trkpt>
      <trkpt lat="42.374581983312964" lon="1.957232980057597">
        <ele>1709</ele>
        <time>2016-06-13T15:33:54Z</time>
      </trkpt>
      <trkpt lat="42.374651972204447" lon="1.95717103779316">
        <ele>1725</ele>
        <time>2016-06-13T15:33:57Z</time>
      </trkpt>
      <trkpt lat="42.374674016609788" lon="1.957148993387818">
        <ele>1726</ele>
        <time>2016-06-13T15:33:58Z</time>
      </trkpt>
      <trkpt lat="42.374747022986412" lon="1.957083027809858">
        <ele>1728</ele>
        <time>2016-06-13T15:34:01Z</time>
      </trkpt>
      <trkpt lat="42.374768983572721" lon="1.957058971747756">
        <ele>1729</ele>
        <time>2016-06-13T15:34:02Z</time>
      </trkpt>
      <trkpt lat="42.374837966635823" lon="1.956986971199513">
        <ele>1715</ele>
        <time>2016-06-13T15:34:05Z</time>
      </trkpt>
      <trkpt lat="42.374860011041164" lon="1.956961993128061">
        <ele>1720</ele>
        <time>2016-06-13T15:34:06Z</time>
      </trkpt>
      <trkpt lat="42.374932011589408" lon="1.956912958994508">
        <ele>1731</ele>
        <time>2016-06-13T15:34:09Z</time>
      </trkpt>
      <trkpt lat="42.374955983832479" lon="1.95689301006496">
        <ele>1729</ele>
        <time>2016-06-13T15:34:10Z</time>
      </trkpt>
      <trkpt lat="42.37500099465251" lon="1.956836013123393">
        <ele>1733</ele>
        <time>2016-06-13T15:34:12Z</time>
      </trkpt>
      <trkpt lat="42.37502496689558" lon="1.956809023395181">
        <ele>1734</ele>
        <time>2016-06-13T15:34:13Z</time>
      </trkpt>
      <trkpt lat="42.375074001029134" lon="1.956756971776485">
        <ele>1721</ele>
        <time>2016-06-13T15:34:15Z</time>
      </trkpt>
      <trkpt lat="42.375097973272204" lon="1.956732999533415">
        <ele>1725</ele>
        <time>2016-06-13T15:34:16Z</time>
      </trkpt>
      <trkpt lat="42.375148013234138" lon="1.956685977056623">
        <ele>1729</ele>
        <time>2016-06-13T15:34:18Z</time>
      </trkpt>
      <trkpt lat="42.375171985477209" lon="1.956662004813552">
        <ele>1729</ele>
        <time>2016-06-13T15:34:19Z</time>
      </trkpt>
      <trkpt lat="42.37521699629724" lon="1.956607019528747">
        <ele>1731</ele>
        <time>2016-06-13T15:34:21Z</time>
      </trkpt>
      <trkpt lat="42.375241974368691" lon="1.956582041457295">
        <ele>1731</ele>
        <time>2016-06-13T15:34:22Z</time>
      </trkpt>
      <trkpt lat="42.375291008502245" lon="1.956532001495361">
        <ele>1715</ele>
        <time>2016-06-13T15:34:24Z</time>
      </trkpt>
      <trkpt lat="42.375312969088554" lon="1.956505011767149">
        <ele>1713</ele>
        <time>2016-06-13T15:34:25Z</time>
      </trkpt>
      <trkpt lat="42.375374995172024" lon="1.956450026482344">
        <ele>1723</ele>
        <time>2016-06-13T15:34:28Z</time>
      </trkpt>
      <trkpt lat="42.375392010435462" lon="1.956437034532428">
        <ele>1727</ele>
        <time>2016-06-13T15:34:29Z</time>
      </trkpt>
      <trkpt lat="42.375450013205409" lon="1.95637702010572">
        <ele>1736</ele>
        <time>2016-06-13T15:34:33Z</time>
      </trkpt>
      <trkpt lat="42.375463005155325" lon="1.956362016499043">
        <ele>1728</ele>
        <time>2016-06-13T15:34:34Z</time>
      </trkpt>
      <trkpt lat="42.375547997653484" lon="1.956352964043617">
        <ele>1737</ele>
        <time>2016-06-13T15:37:28Z</time>
      </trkpt>
      <trkpt lat="42.375570964068174" lon="1.956360004842281">
        <ele>1739</ele>
        <time>2016-06-13T15:37:29Z</time>
      </trkpt>
      <trkpt lat="42.375643970444798" lon="1.956409038975835">
        <ele>1741</ele>
        <time>2016-06-13T15:37:33Z</time>
      </trkpt>
      <trkpt lat="42.375661991536617" lon="1.956419013440609">
        <ele>1742</ele>
        <time>2016-06-13T15:37:34Z</time>
      </trkpt>
      <trkpt lat="42.375742038711905" lon="1.956468969583511">
        <ele>1739</ele>
        <time>2016-06-13T15:37:39Z</time>
      </trkpt>
      <trkpt lat="42.375755030661821" lon="1.956482967361808">
        <ele>1740</ele>
        <time>2016-06-13T15:37:40Z</time>
      </trkpt>
      <trkpt lat="42.375810015946627" lon="1.956573994830251">
        <ele>1736</ele>
        <time>2016-06-13T15:37:45Z</time>
      </trkpt>
      <trkpt lat="42.375819990411401" lon="1.956596039235592">
        <ele>1734</ele>
        <time>2016-06-13T15:37:46Z</time>
      </trkpt>
      <trkpt lat="42.375883022323251" lon="1.956669967621565">
        <ele>1736</ele>
        <time>2016-06-13T15:37:50Z</time>
      </trkpt>
      <trkpt lat="42.375900037586689" lon="1.956692012026906">
        <ele>1737</ele>
        <time>2016-06-13T15:37:51Z</time>
      </trkpt>
      <trkpt lat="42.375960974022746" lon="1.956777004525065">
        <ele>1730</ele>
        <time>2016-06-13T15:37:55Z</time>
      </trkpt>
      <trkpt lat="42.375973965972662" lon="1.956799970939755">
        <ele>1732</ele>
        <time>2016-06-13T15:37:56Z</time>
      </trkpt>
      <trkpt lat="42.376040015369654" lon="1.956835007295013">
        <ele>1740</ele>
        <time>2016-06-13T15:41:37Z</time>
      </trkpt>
      <trkpt lat="42.37605401314795" lon="1.956854034215212">
        <ele>1741</ele>
        <time>2016-06-13T15:41:38Z</time>
      </trkpt>
      <trkpt lat="42.37611603923142" lon="1.956928968429565">
        <ele>1744</ele>
        <time>2016-06-13T15:41:43Z</time>
      </trkpt>
      <trkpt lat="42.376130037009716" lon="1.956939026713371">
        <ele>1734</ele>
        <time>2016-06-13T15:41:44Z</time>
      </trkpt>
      <trkpt lat="42.376194996759295" lon="1.956981020048261">
        <ele>1742</ele>
        <time>2016-06-13T15:41:48Z</time>
      </trkpt>
      <trkpt lat="42.376210000365973" lon="1.956995017826557">
        <ele>1744</ele>
        <time>2016-06-13T15:41:49Z</time>
      </trkpt>
      <trkpt lat="42.376272026449442" lon="1.957060983404517">
        <ele>1738</ele>
        <time>2016-06-13T15:41:54Z</time>
      </trkpt>
      <trkpt lat="42.376284012570977" lon="1.957074981182814">
        <ele>1740</ele>
        <time>2016-06-13T15:41:55Z</time>
      </trkpt>
      <trkpt lat="42.37635400146246" lon="1.957140024751425">
        <ele>1744</ele>
        <time>2016-06-13T15:42:00Z</time>
      </trkpt>
      <trkpt lat="42.376367999240756" lon="1.95715201087296">
        <ele>1744</ele>
        <time>2016-06-13T15:42:01Z</time>
      </trkpt>
      <trkpt lat="42.376446034759283" lon="1.957210013642907">
        <ele>1741</ele>
        <time>2016-06-13T15:42:06Z</time>
      </trkpt>
      <trkpt lat="42.376459026709199" lon="1.957226023077965">
        <ele>1742</ele>
        <time>2016-06-13T15:42:07Z</time>
      </trkpt>
      <trkpt lat="42.376519041135907" lon="1.957307998090982">
        <ele>1748</ele>
        <time>2016-06-13T15:42:12Z</time>
      </trkpt>
      <trkpt lat="42.376532033085823" lon="1.957327025011182">
        <ele>1748</ele>
        <time>2016-06-13T15:42:13Z</time>
      </trkpt>
      <trkpt lat="42.376579977571964" lon="1.957406988367438">
        <ele>1746</ele>
        <time>2016-06-13T15:42:17Z</time>
      </trkpt>
      <trkpt lat="42.376593975350261" lon="1.957424003630877">
        <ele>1747</ele>
        <time>2016-06-13T15:42:18Z</time>
      </trkpt>
      <trkpt lat="42.376657007262111" lon="1.957484018057585">
        <ele>1748</ele>
        <time>2016-06-13T15:42:22Z</time>
      </trkpt>
      <trkpt lat="42.37667502835393" lon="1.95749499835074">
        <ele>1749</ele>
        <time>2016-06-13T15:42:23Z</time>
      </trkpt>
      <trkpt lat="42.37674199976027" lon="1.957531040534377">
        <ele>1746</ele>
        <time>2016-06-13T15:42:27Z</time>
      </trkpt>
      <trkpt lat="42.376760020852089" lon="1.957536991685629">
        <ele>1745</ele>
        <time>2016-06-13T15:42:28Z</time>
      </trkpt>
      <trkpt lat="42.376837972551584" lon="1.957544032484293">
        <ele>1747</ele>
        <time>2016-06-13T15:42:32Z</time>
      </trkpt>
      <trkpt lat="42.376858005300164" lon="1.957535985857248">
        <ele>1748</ele>
        <time>2016-06-13T15:42:33Z</time>
      </trkpt>
      <trkpt lat="42.37693402916193" lon="1.957520982250571">
        <ele>1741</ele>
        <time>2016-06-13T15:42:37Z</time>
      </trkpt>
      <trkpt lat="42.376953978091478" lon="1.957516958937049">
        <ele>1744</ele>
        <time>2016-06-13T15:42:38Z</time>
      </trkpt>
      <trkpt lat="42.377036036923528" lon="1.957519976422191">
        <ele>1749</ele>
        <time>2016-06-13T15:42:42Z</time>
      </trkpt>
      <trkpt lat="42.377054980024695" lon="1.957529028877616">
        <ele>1750</ele>
        <time>2016-06-13T15:42:43Z</time>
      </trkpt>
      <trkpt lat="42.377126980572939" lon="1.957564987242222">
        <ele>1748</ele>
        <time>2016-06-13T15:42:47Z</time>
      </trkpt>
      <trkpt lat="42.377143995836377" lon="1.957579990848899">
        <ele>1749</ele>
        <time>2016-06-13T15:42:48Z</time>
      </trkpt>
      <trkpt lat="42.377200992777944" lon="1.957662971690297">
        <ele>1753</ele>
        <time>2016-06-13T15:42:52Z</time>
      </trkpt>
      <trkpt lat="42.377210967242718" lon="1.95768803358078">
        <ele>1753</ele>
        <time>2016-06-13T15:42:53Z</time>
      </trkpt>
      <trkpt lat="42.377239968627691" lon="1.957799009978771">
        <ele>1750</ele>
        <time>2016-06-13T15:42:57Z</time>
      </trkpt>
      <trkpt lat="42.377246003597975" lon="1.957827005535364">
        <ele>1752</ele>
        <time>2016-06-13T15:42:58Z</time>
      </trkpt>
      <trkpt lat="42.377247009426355" lon="1.957944016903639">
        <ele>1753</ele>
        <time>2016-06-13T15:43:02Z</time>
      </trkpt>
      <trkpt lat="42.377242986112833" lon="1.957972012460232">
        <ele>1753</ele>
        <time>2016-06-13T15:43:03Z</time>
      </trkpt>
      <trkpt lat="42.37723502330482" lon="1.958089023828507">
        <ele>1752</ele>
        <time>2016-06-13T15:43:07Z</time>
      </trkpt>
      <trkpt lat="42.377228988334537" lon="1.958116013556719">
        <ele>1752</ele>
        <time>2016-06-13T15:43:08Z</time>
      </trkpt>
      <trkpt lat="42.377193029969931" lon="1.958212992176414">
        <ele>1753</ele>
        <time>2016-06-13T15:43:12Z</time>
      </trkpt>
      <trkpt lat="42.377183977514505" lon="1.958235036581755">
        <ele>1753</ele>
        <time>2016-06-13T15:43:13Z</time>
      </trkpt>
      <trkpt lat="42.377129998058081" lon="1.958324974402785">
        <ele>1744</ele>
        <time>2016-06-13T15:43:17Z</time>
      </trkpt>
      <trkpt lat="42.377114994451404" lon="1.958347018808126">
        <ele>1745</ele>
        <time>2016-06-13T15:43:18Z</time>
      </trkpt>
      <trkpt lat="42.377062020823359" lon="1.958427987992764">
        <ele>1749</ele>
        <time>2016-06-13T15:43:22Z</time>
      </trkpt>
      <trkpt lat="42.377048023045063" lon="1.958446009084582">
        <ele>1750</ele>
        <time>2016-06-13T15:43:23Z</time>
      </trkpt>
      <trkpt lat="42.376981973648071" lon="1.958510968834162">
        <ele>1738</ele>
        <time>2016-06-13T15:43:27Z</time>
      </trkpt>
      <trkpt lat="42.376965964213014" lon="1.958523960784078">
        <ele>1742</ele>
        <time>2016-06-13T15:43:28Z</time>
      </trkpt>
      <trkpt lat="42.376909973099828" lon="1.95859101600945">
        <ele>1750</ele>
        <time>2016-06-13T15:43:32Z</time>
      </trkpt>
      <trkpt lat="42.37689396366477" lon="1.958609037101269">
        <ele>1752</ele>
        <time>2016-06-13T15:43:33Z</time>
      </trkpt>
      <trkpt lat="42.376834033057094" lon="1.958675002679229">
        <ele>1747</ele>
        <time>2016-06-13T15:43:37Z</time>
      </trkpt>
      <trkpt lat="42.376818023622036" lon="1.958692017942667">
        <ele>1750</ele>
        <time>2016-06-13T15:43:38Z</time>
      </trkpt>
      <trkpt lat="42.376755997538567" lon="1.958766030147672">
        <ele>1754</ele>
        <time>2016-06-13T15:43:42Z</time>
      </trkpt>
      <trkpt lat="42.376738982275128" lon="1.958781033754349">
        <ele>1755</ele>
        <time>2016-06-13T15:43:43Z</time>
      </trkpt>
      <trkpt lat="42.376665975898504" lon="1.958827972412109">
        <ele>1752</ele>
        <time>2016-06-13T15:43:47Z</time>
      </trkpt>
      <trkpt lat="42.376650972291827" lon="1.958842976018786">
        <ele>1753</ele>
        <time>2016-06-13T15:43:48Z</time>
      </trkpt>
      <trkpt lat="42.376582995057106" lon="1.958896033465862">
        <ele>1754</ele>
        <time>2016-06-13T15:43:52Z</time>
      </trkpt>
      <trkpt lat="42.376571008935571" lon="1.95891497656703">
        <ele>1755</ele>
        <time>2016-06-13T15:43:53Z</time>
      </trkpt>
      <trkpt lat="42.376510994508862" lon="1.958992006257176">
        <ele>1749</ele>
        <time>2016-06-13T15:43:58Z</time>
      </trkpt>
      <trkpt lat="42.376501020044088" lon="1.959012961015105">
        <ele>1750</ele>
        <time>2016-06-13T15:43:59Z</time>
      </trkpt>
      <trkpt lat="42.376436982303858" lon="1.959070963785052">
        <ele>1757</ele>
        <time>2016-06-13T15:44:03Z</time>
      </trkpt>
      <trkpt lat="42.37641996704042" lon="1.959085967391729">
        <ele>1757</ele>
        <time>2016-06-13T15:44:04Z</time>
      </trkpt>
      <trkpt lat="42.376346960663795" lon="1.959148999303579">
        <ele>1750</ele>
        <time>2016-06-13T15:44:08Z</time>
      </trkpt>
      <trkpt lat="42.376325000077486" lon="1.959168026223779">
        <ele>1751</ele>
        <time>2016-06-13T15:44:09Z</time>
      </trkpt>
      <trkpt lat="42.376264985650778" lon="1.959234997630119">
        <ele>1753</ele>
        <time>2016-06-13T15:44:12Z</time>
      </trkpt>
      <trkpt lat="42.37624503672123" lon="1.959255030378699">
        <ele>1753</ele>
        <time>2016-06-13T15:44:13Z</time>
      </trkpt>
      <trkpt lat="42.376169012859464" lon="1.959308004006743">
        <ele>1745</ele>
        <time>2016-06-13T15:44:16Z</time>
      </trkpt>
      <trkpt lat="42.376144034788013" lon="1.959330970421433">
        <ele>1747</ele>
        <time>2016-06-13T15:44:17Z</time>
      </trkpt>
      <trkpt lat="42.376087037846446" lon="1.959386961534619">
        <ele>1756</ele>
        <time>2016-06-13T15:44:19Z</time>
      </trkpt>
      <trkpt lat="42.376058036461473" lon="1.959414035081863">
        <ele>1757</ele>
        <time>2016-06-13T15:44:20Z</time>
      </trkpt>
      <trkpt lat="42.375985030084848" lon="1.959480000659823">
        <ele>1758</ele>
        <time>2016-06-13T15:44:23Z</time>
      </trkpt>
      <trkpt lat="42.375959968194366" lon="1.959501039236784">
        <ele>1747</ele>
        <time>2016-06-13T15:44:24Z</time>
      </trkpt>
      <trkpt lat="42.375885033980012" lon="1.959562981501222">
        <ele>1753</ele>
        <time>2016-06-13T15:44:27Z</time>
      </trkpt>
      <trkpt lat="42.375858966261148" lon="1.95957999676466">
        <ele>1754</ele>
        <time>2016-06-13T15:44:28Z</time>
      </trkpt>
      <trkpt lat="42.375804986804724" lon="1.959611009806395">
        <ele>1756</ele>
        <time>2016-06-13T15:44:30Z</time>
      </trkpt>
      <trkpt lat="42.37577598541975" lon="1.959629030898213">
        <ele>1757</ele>
        <time>2016-06-13T15:44:31Z</time>
      </trkpt>
      <trkpt lat="42.375703984871507" lon="1.959685022011399">
        <ele>1757</ele>
        <time>2016-06-13T15:44:33Z</time>
      </trkpt>
      <trkpt lat="42.375665009021759" lon="1.959718968719244">
        <ele>1745</ele>
        <time>2016-06-13T15:44:34Z</time>
      </trkpt>
      <trkpt lat="42.375589990988374" lon="1.959785018116236">
        <ele>1754</ele>
        <time>2016-06-13T15:44:36Z</time>
      </trkpt>
      <trkpt lat="42.375552020967007" lon="1.9598179589957">
        <ele>1756</ele>
        <time>2016-06-13T15:44:37Z</time>
      </trkpt>
      <trkpt lat="42.375479014590383" lon="1.95988099090755">
        <ele>1755</ele>
        <time>2016-06-13T15:44:39Z</time>
      </trkpt>
      <trkpt lat="42.375440960749984" lon="1.959909992292523">
        <ele>1755</ele>
        <time>2016-06-13T15:44:40Z</time>
      </trkpt>
      <trkpt lat="42.375378012657166" lon="1.959962965920568">
        <ele>1756</ele>
        <time>2016-06-13T15:44:41Z</time>
      </trkpt>
      <trkpt lat="42.375336019322276" lon="1.960006970912218">
        <ele>1756</ele>
        <time>2016-06-13T15:44:42Z</time>
      </trkpt>
      <trkpt lat="42.375291008502245" lon="1.960062962025404">
        <ele>1756</ele>
        <time>2016-06-13T15:44:43Z</time>
      </trkpt>
      <trkpt lat="42.375244991853833" lon="1.960099004209042">
        <ele>1741</ele>
        <time>2016-06-13T15:44:44Z</time>
      </trkpt>
      <trkpt lat="42.37519402988255" lon="1.960134040564299">
        <ele>1746</ele>
        <time>2016-06-13T15:44:45Z</time>
      </trkpt>
      <trkpt lat="42.375155976042151" lon="1.960157006978989">
        <ele>1749</ele>
        <time>2016-06-13T15:44:46Z</time>
      </trkpt>
      <trkpt lat="42.375084981322289" lon="1.960221966728568">
        <ele>1750</ele>
        <time>2016-06-13T15:44:48Z</time>
      </trkpt>
      <trkpt lat="42.375049022957683" lon="1.960250968113542">
        <ele>1750</ele>
        <time>2016-06-13T15:44:49Z</time>
      </trkpt>
      <trkpt lat="42.374967969954014" lon="1.960298996418715">
        <ele>1752</ele>
        <time>2016-06-13T15:44:52Z</time>
      </trkpt>
      <trkpt lat="42.37493896856904" lon="1.960314000025392">
        <ele>1752</ele>
        <time>2016-06-13T15:44:53Z</time>
      </trkpt>
      <trkpt lat="42.374878032132983" lon="1.960373008623719">
        <ele>1742</ele>
        <time>2016-06-13T15:44:55Z</time>
      </trkpt>
      <trkpt lat="42.37485003657639" lon="1.960398992523551">
        <ele>1745</ele>
        <time>2016-06-13T15:44:56Z</time>
      </trkpt>
      <trkpt lat="42.374793039634824" lon="1.96044098585844">
        <ele>1748</ele>
        <time>2016-06-13T15:44:58Z</time>
      </trkpt>
      <trkpt lat="42.374764960259199" lon="1.960466969758272">
        <ele>1750</ele>
        <time>2016-06-13T15:44:59Z</time>
      </trkpt>
      <trkpt lat="42.374704023823142" lon="1.960522960871458">
        <ele>1751</ele>
        <time>2016-06-13T15:45:01Z</time>
      </trkpt>
      <trkpt lat="42.374670999124646" lon="1.960556991398335">
        <ele>1753</ele>
        <time>2016-06-13T15:45:02Z</time>
      </trkpt>
      <trkpt lat="42.374605033546686" lon="1.960622034966946">
        <ele>1732</ele>
        <time>2016-06-13T15:45:04Z</time>
      </trkpt>
      <trkpt lat="42.37457100301981" lon="1.960648018866777">
        <ele>1741</ele>
        <time>2016-06-13T15:45:05Z</time>
      </trkpt>
      <trkpt lat="42.374510988593102" lon="1.960691018030047">
        <ele>1748</ele>
        <time>2016-06-13T15:45:07Z</time>
      </trkpt>
      <trkpt lat="42.374481987208128" lon="1.960710966959596">
        <ele>1749</ele>
        <time>2016-06-13T15:45:08Z</time>
      </trkpt>
      <trkpt lat="42.374425996094942" lon="1.960751032456756">
        <ele>1752</ele>
        <time>2016-06-13T15:45:10Z</time>
      </trkpt>
      <trkpt lat="42.37440001219511" lon="1.960770981386304">
        <ele>1753</ele>
        <time>2016-06-13T15:45:11Z</time>
      </trkpt>
      <trkpt lat="42.374324994161725" lon="1.96082697249949">
        <ele>1730</ele>
        <time>2016-06-13T15:45:14Z</time>
      </trkpt>
      <trkpt lat="42.374301021918654" lon="1.960844993591309">
        <ele>1734</ele>
        <time>2016-06-13T15:45:15Z</time>
      </trkpt>
      <trkpt lat="42.374224998056889" lon="1.960907019674778">
        <ele>1745</ele>
        <time>2016-06-13T15:45:18Z</time>
      </trkpt>
      <trkpt lat="42.374199014157057" lon="1.960925040766597">
        <ele>1746</ele>
        <time>2016-06-13T15:45:19Z</time>
      </trkpt>
      <trkpt lat="42.374145034700632" lon="1.960968961939216">
        <ele>1751</ele>
        <time>2016-06-13T15:45:21Z</time>
      </trkpt>
      <trkpt lat="42.374118966981769" lon="1.960992012172937">
        <ele>1750</ele>
        <time>2016-06-13T15:45:22Z</time>
      </trkpt>
      <trkpt lat="42.374064987525344" lon="1.96104297414422">
        <ele>1733</ele>
        <time>2016-06-13T15:45:24Z</time>
      </trkpt>
      <trkpt lat="42.37403598614037" lon="1.961067030206323">
        <ele>1742</ele>
        <time>2016-06-13T15:45:25Z</time>
      </trkpt>
      <trkpt lat="42.373986029997468" lon="1.961116986349225">
        <ele>1746</ele>
        <time>2016-06-13T15:45:27Z</time>
      </trkpt>
      <trkpt lat="42.373962979763746" lon="1.961141964420676">
        <ele>1749</ele>
        <time>2016-06-13T15:45:28Z</time>
      </trkpt>
      <trkpt lat="42.373899025842547" lon="1.961203990504146">
        <ele>1753</ele>
        <time>2016-06-13T15:45:31Z</time>
      </trkpt>
      <trkpt lat="42.373875975608826" lon="1.961227962747216">
        <ele>1754</ele>
        <time>2016-06-13T15:45:32Z</time>
      </trkpt>
      <trkpt lat="42.373812021687627" lon="1.961296023800969">
        <ele>1739</ele>
        <time>2016-06-13T15:45:35Z</time>
      </trkpt>
      <trkpt lat="42.373789977282286" lon="1.961313961073756">
        <ele>1741</ele>
        <time>2016-06-13T15:45:36Z</time>
      </trkpt>
      <trkpt lat="42.373744966462255" lon="1.961366012692452">
        <ele>1744</ele>
        <time>2016-06-13T15:45:38Z</time>
      </trkpt>
      <trkpt lat="42.373720994219184" lon="1.961395014077425">
        <ele>1745</ele>
        <time>2016-06-13T15:45:39Z</time>
      </trkpt>
      <trkpt lat="42.373660979792476" lon="1.96144899353385">
        <ele>1746</ele>
        <time>2016-06-13T15:45:41Z</time>
      </trkpt>
      <trkpt lat="42.373631978407502" lon="1.961474977433682">
        <ele>1745</ele>
        <time>2016-06-13T15:45:42Z</time>
      </trkpt>
      <trkpt lat="42.373567018657923" lon="1.961540021002293">
        <ele>1721</ele>
        <time>2016-06-13T15:45:44Z</time>
      </trkpt>
      <trkpt lat="42.373530976474285" lon="1.961581008508802">
        <ele>1725</ele>
        <time>2016-06-13T15:45:45Z</time>
      </trkpt>
      <trkpt lat="42.373493006452918" lon="1.96162199601531">
        <ele>1731</ele>
        <time>2016-06-13T15:45:46Z</time>
      </trkpt>
      <trkpt lat="42.37345696426928" lon="1.961661977693439">
        <ele>1738</ele>
        <time>2016-06-13T15:45:47Z</time>
      </trkpt>
      <trkpt lat="42.373421005904675" lon="1.961700031533837">
        <ele>1739</ele>
        <time>2016-06-13T15:45:48Z</time>
      </trkpt>
      <trkpt lat="42.373386975377798" lon="1.961739007383585">
        <ele>1742</ele>
        <time>2016-06-13T15:45:49Z</time>
      </trkpt>
      <trkpt lat="42.373331990092993" lon="1.961802039295435">
        <ele>1745</ele>
        <time>2016-06-13T15:45:51Z</time>
      </trkpt>
      <trkpt lat="42.373307012021542" lon="1.961828023195267">
        <ele>1745</ele>
        <time>2016-06-13T15:45:52Z</time>
      </trkpt>
      <trkpt lat="42.373257977887988" lon="1.961885020136833">
        <ele>1715</ele>
        <time>2016-06-13T15:45:54Z</time>
      </trkpt>
      <trkpt lat="42.373231993988156" lon="1.961916033178568">
        <ele>1720</ele>
        <time>2016-06-13T15:45:55Z</time>
      </trkpt>
      <trkpt lat="42.373178014531732" lon="1.961974035948515">
        <ele>1738</ele>
        <time>2016-06-13T15:45:57Z</time>
      </trkpt>
      <trkpt lat="42.373150018975139" lon="1.961999014019966">
        <ele>1742</ele>
        <time>2016-06-13T15:45:58Z</time>
      </trkpt>
      <trkpt lat="42.373084975406528" lon="1.962075037881732">
        <ele>1751</ele>
        <time>2016-06-13T15:46:01Z</time>
      </trkpt>
      <trkpt lat="42.37306703813374" lon="1.962101021781564">
        <ele>1752</ele>
        <time>2016-06-13T15:46:02Z</time>
      </trkpt>
      <trkpt lat="42.373006017878652" lon="1.962176039814949">
        <ele>1742</ele>
        <time>2016-06-13T15:46:05Z</time>
      </trkpt>
      <trkpt lat="42.3729810398072" lon="1.962211998179555">
        <ele>1749</ele>
        <time>2016-06-13T15:46:06Z</time>
      </trkpt>
      <trkpt lat="42.372929994016886" lon="1.962282992899418">
        <ele>1754</ele>
        <time>2016-06-13T15:46:08Z</time>
      </trkpt>
      <trkpt lat="42.372905015945435" lon="1.962316017597914">
        <ele>1756</ele>
        <time>2016-06-13T15:46:09Z</time>
      </trkpt>
      <trkpt lat="42.372857993468642" lon="1.962382989004254">
        <ele>1758</ele>
        <time>2016-06-13T15:46:11Z</time>
      </trkpt>
      <trkpt lat="42.372837960720062" lon="1.962418025359511">
        <ele>1759</ele>
        <time>2016-06-13T15:46:12Z</time>
      </trkpt>
      <trkpt lat="42.37281197682023" lon="1.962515003979206">
        <ele>1752</ele>
        <time>2016-06-13T15:46:15Z</time>
      </trkpt>
      <trkpt lat="42.37280803732574" lon="1.962539982050657">
        <ele>1752</ele>
        <time>2016-06-13T15:46:16Z</time>
      </trkpt>
      <trkpt lat="42.372779035940766" lon="1.962646013125777">
        <ele>1755</ele>
        <time>2016-06-13T15:46:20Z</time>
      </trkpt>
      <trkpt lat="42.37276797182858" lon="1.962670991197228">
        <ele>1756</ele>
        <time>2016-06-13T15:46:21Z</time>
      </trkpt>
      <trkpt lat="42.372733019292355" lon="1.96278003975749">
        <ele>1751</ele>
        <time>2016-06-13T15:46:25Z</time>
      </trkpt>
      <trkpt lat="42.37272497266531" lon="1.962806023657322">
        <ele>1750</ele>
        <time>2016-06-13T15:46:26Z</time>
      </trkpt>
      <trkpt lat="42.372688008472323" lon="1.962900990620256">
        <ele>1754</ele>
        <time>2016-06-13T15:46:30Z</time>
      </trkpt>
      <trkpt lat="42.372676022350788" lon="1.962933009490371">
        <ele>1755</ele>
        <time>2016-06-13T15:46:31Z</time>
      </trkpt>
      <trkpt lat="42.372640985995531" lon="1.96301699616015">
        <ele>1745</ele>
        <time>2016-06-13T15:46:34Z</time>
      </trkpt>
      <trkpt lat="42.372632017359138" lon="1.963043985888362">
        <ele>1750</ele>
        <time>2016-06-13T15:46:35Z</time>
      </trkpt>
      <trkpt lat="42.372587006539106" lon="1.963143981993198">
        <ele>1758</ele>
        <time>2016-06-13T15:46:40Z</time>
      </trkpt>
      <trkpt lat="42.372578037902713" lon="1.963165020570159">
        <ele>1759</ele>
        <time>2016-06-13T15:46:41Z</time>
      </trkpt>
      <trkpt lat="42.372538978233933" lon="1.96325202472508">
        <ele>1751</ele>
        <time>2016-06-13T15:46:45Z</time>
      </trkpt>
      <trkpt lat="42.372535038739443" lon="1.963278008624911">
        <ele>1753</ele>
        <time>2016-06-13T15:46:46Z</time>
      </trkpt>
      <trkpt lat="42.372495979070663" lon="1.963385967537761">
        <ele>1758</ele>
        <time>2016-06-13T15:46:51Z</time>
      </trkpt>
      <trkpt lat="42.372486004605889" lon="1.96340499445796">
        <ele>1760</ele>
        <time>2016-06-13T15:46:52Z</time>
      </trkpt>
      <trkpt lat="42.372438982129097" lon="1.963495016098023">
        <ele>1747</ele>
        <time>2016-06-13T15:46:57Z</time>
      </trkpt>
      <trkpt lat="42.372429007664323" lon="1.963509013876319">
        <ele>1749</ele>
        <time>2016-06-13T15:46:58Z</time>
      </trkpt>
      <trkpt lat="42.372382991015911" lon="1.963603980839253">
        <ele>1751</ele>
        <time>2016-06-13T15:47:03Z</time>
      </trkpt>
      <trkpt lat="42.372372010722756" lon="1.963623007759452">
        <ele>1753</ele>
        <time>2016-06-13T15:47:04Z</time>
      </trkpt>
      <trkpt lat="42.372333034873009" lon="1.963719986379147">
        <ele>1762</ele>
        <time>2016-06-13T15:47:08Z</time>
      </trkpt>
      <trkpt lat="42.372320964932442" lon="1.963744964450598">
        <ele>1763</ele>
        <time>2016-06-13T15:47:09Z</time>
      </trkpt>
      <trkpt lat="42.372291963547468" lon="1.963839009404182">
        <ele>1757</ele>
        <time>2016-06-13T15:47:13Z</time>
      </trkpt>
      <trkpt lat="42.372288024052978" lon="1.963860969990492">
        <ele>1758</ele>
        <time>2016-06-13T15:47:14Z</time>
      </trkpt>
      <trkpt lat="42.372246030718088" lon="1.96396297775209">
        <ele>1755</ele>
        <time>2016-06-13T15:47:19Z</time>
      </trkpt>
      <trkpt lat="42.372233960777521" lon="1.963982004672289">
        <ele>1757</ele>
        <time>2016-06-13T15:47:20Z</time>
      </trkpt>
      <trkpt lat="42.372177969664335" lon="1.964075965806842">
        <ele>1758</ele>
        <time>2016-06-13T15:47:25Z</time>
      </trkpt>
      <trkpt lat="42.372173024341464" lon="1.964100021868944">
        <ele>1759</ele>
        <time>2016-06-13T15:47:26Z</time>
      </trkpt>
      <trkpt lat="42.372124996036291" lon="1.964194988831878">
        <ele>1762</ele>
        <time>2016-06-13T15:47:31Z</time>
      </trkpt>
      <trkpt lat="42.372113009914756" lon="1.964213009923697">
        <ele>1762</ele>
        <time>2016-06-13T15:47:32Z</time>
      </trkpt>
      <trkpt lat="42.372058024629951" lon="1.964292973279953">
        <ele>1762</ele>
        <time>2016-06-13T15:47:37Z</time>
      </trkpt>
      <trkpt lat="42.372052995488048" lon="1.964316023513675">
        <ele>1763</ele>
        <time>2016-06-13T15:47:38Z</time>
      </trkpt>
      <trkpt lat="42.372016031295061" lon="1.964415013790131">
        <ele>1764</ele>
        <time>2016-06-13T15:47:43Z</time>
      </trkpt>
      <trkpt lat="42.372007984668016" lon="1.964433034881949">
        <ele>1765</ele>
        <time>2016-06-13T15:47:44Z</time>
      </trkpt>
      <trkpt lat="42.371963979676366" lon="1.964520961046219">
        <ele>1762</ele>
        <time>2016-06-13T15:47:49Z</time>
      </trkpt>
      <trkpt lat="42.371954005211592" lon="1.964536970481277">
        <ele>1762</ele>
        <time>2016-06-13T15:47:50Z</time>
      </trkpt>
      <trkpt lat="42.371894996613264" lon="1.964610982686281">
        <ele>1755</ele>
        <time>2016-06-13T15:47:55Z</time>
      </trkpt>
      <trkpt lat="42.371884016320109" lon="1.964627997949719">
        <ele>1759</ele>
        <time>2016-06-13T15:47:56Z</time>
      </trkpt>
      <trkpt lat="42.37184202298522" lon="1.964731011539698">
        <ele>1765</ele>
        <time>2016-06-13T15:48:01Z</time>
      </trkpt>
      <trkpt lat="42.371832970529795" lon="1.964750038459897">
        <ele>1764</ele>
        <time>2016-06-13T15:48:02Z</time>
      </trkpt>
      <trkpt lat="42.371775973588228" lon="1.964839976280928">
        <ele>1759</ele>
        <time>2016-06-13T15:48:07Z</time>
      </trkpt>
      <trkpt lat="42.371761975809932" lon="1.964857997372747">
        <ele>1762</ele>
        <time>2016-06-13T15:48:08Z</time>
      </trkpt>
      <trkpt lat="42.371701039373875" lon="1.964931003749371">
        <ele>1766</ele>
        <time>2016-06-13T15:48:13Z</time>
      </trkpt>
      <trkpt lat="42.371687041595578" lon="1.964946007356048">
        <ele>1766</ele>
        <time>2016-06-13T15:48:14Z</time>
      </trkpt>
      <trkpt lat="42.371619986370206" lon="1.965000992640853">
        <ele>1763</ele>
        <time>2016-06-13T15:48:18Z</time>
      </trkpt>
      <trkpt lat="42.371603976935148" lon="1.965012978762388">
        <ele>1765</ele>
        <time>2016-06-13T15:48:19Z</time>
      </trkpt>
      <trkpt lat="42.371526025235653" lon="1.965066036209464">
        <ele>1762</ele>
        <time>2016-06-13T15:48:24Z</time>
      </trkpt>
      <trkpt lat="42.371511021628976" lon="1.965069975703955">
        <ele>1764</ele>
        <time>2016-06-13T15:48:25Z</time>
      </trkpt>
      <trkpt lat="42.37143499776721" lon="1.965099982917309">
        <ele>1772</ele>
        <time>2016-06-13T15:48:30Z</time>
      </trkpt>
      <trkpt lat="42.371413037180901" lon="1.965109035372734">
        <ele>1773</ele>
        <time>2016-06-13T15:48:31Z</time>
      </trkpt>
      <trkpt lat="42.371332990005612" lon="1.965139964595437">
        <ele>1769</ele>
        <time>2016-06-13T15:48:35Z</time>
      </trkpt>
      <trkpt lat="42.371314968913794" lon="1.965149017050862">
        <ele>1772</ele>
        <time>2016-06-13T15:48:36Z</time>
      </trkpt>
      <trkpt lat="42.371241040527821" lon="1.965180030092597">
        <ele>1778</ele>
        <time>2016-06-13T15:48:40Z</time>
      </trkpt>
      <trkpt lat="42.371224025264382" lon="1.965186987072229">
        <ele>1779</ele>
        <time>2016-06-13T15:48:41Z</time>
      </trkpt>
      <trkpt lat="42.371143978089094" lon="1.965224035084248">
        <ele>1773</ele>
        <time>2016-06-13T15:48:46Z</time>
      </trkpt>
      <trkpt lat="42.371127968654037" lon="1.965229986235499">
        <ele>1774</ele>
        <time>2016-06-13T15:48:47Z</time>
      </trkpt>
      <trkpt lat="42.371060997247696" lon="1.965280026197434">
        <ele>1780</ele>
        <time>2016-06-13T15:48:52Z</time>
      </trkpt>
      <trkpt lat="42.37104800529778" lon="1.965288994833827">
        <ele>1780</ele>
        <time>2016-06-13T15:48:53Z</time>
      </trkpt>
      <trkpt lat="42.370973993092775" lon="1.965313972905278">
        <ele>1777</ele>
        <time>2016-06-13T15:48:58Z</time>
      </trkpt>
      <trkpt lat="42.370958989486098" lon="1.965321013703942">
        <ele>1779</ele>
        <time>2016-06-13T15:48:59Z</time>
      </trkpt>
      <trkpt lat="42.370895035564899" lon="1.965383961796761">
        <ele>1782</ele>
        <time>2016-06-13T15:49:04Z</time>
      </trkpt>
      <trkpt lat="42.370881959795952" lon="1.965397037565708">
        <ele>1774</ele>
        <time>2016-06-13T15:49:05Z</time>
      </trkpt>
      <trkpt lat="42.370830997824669" lon="1.965478006750345">
        <ele>1780</ele>
        <time>2016-06-13T15:49:10Z</time>
      </trkpt>
      <trkpt lat="42.370824962854385" lon="1.965497033670545">
        <ele>1780</ele>
        <time>2016-06-13T15:49:11Z</time>
      </trkpt>
      <trkpt lat="42.370798978954554" lon="1.965611027553678">
        <ele>1778</ele>
        <time>2016-06-13T15:49:17Z</time>
      </trkpt>
      <trkpt lat="42.370791016146541" lon="1.965630976483226">
        <ele>1778</ele>
        <time>2016-06-13T15:49:18Z</time>
      </trkpt>
      <trkpt lat="42.370775006711483" lon="1.965733990073204">
        <ele>1783</ele>
        <time>2016-06-13T15:49:23Z</time>
      </trkpt>
      <trkpt lat="42.370775006711483" lon="1.965754022821784">
        <ele>1771</ele>
        <time>2016-06-13T15:49:24Z</time>
      </trkpt>
      <trkpt lat="42.370776012539864" lon="1.965863993391395">
        <ele>1781</ele>
        <time>2016-06-13T15:49:29Z</time>
      </trkpt>
      <trkpt lat="42.370776012539864" lon="1.965884026139975">
        <ele>1783</ele>
        <time>2016-06-13T15:49:30Z</time>
      </trkpt>
      <trkpt lat="42.370772995054722" lon="1.965988967567682">
        <ele>1776</ele>
        <time>2016-06-13T15:49:35Z</time>
      </trkpt>
      <trkpt lat="42.370770983397961" lon="1.966012017801404">
        <ele>1779</ele>
        <time>2016-06-13T15:49:36Z</time>
      </trkpt>
      <trkpt lat="42.370761008933187" lon="1.966121988371015">
        <ele>1785</ele>
        <time>2016-06-13T15:49:41Z</time>
      </trkpt>
      <trkpt lat="42.370761008933187" lon="1.966142021119595">
        <ele>1787</ele>
        <time>2016-06-13T15:49:42Z</time>
      </trkpt>
      <trkpt lat="42.370737958699465" lon="1.966257020831108">
        <ele>1783</ele>
        <time>2016-06-13T15:49:48Z</time>
      </trkpt>
      <trkpt lat="42.370731001719832" lon="1.966276969760656">
        <ele>1782</ele>
        <time>2016-06-13T15:49:49Z</time>
      </trkpt>
      <trkpt lat="42.370685990899801" lon="1.966379983350635">
        <ele>1779</ele>
        <time>2016-06-13T15:49:55Z</time>
      </trkpt>
      <trkpt lat="42.370677022263408" lon="1.966396998614073">
        <ele>1782</ele>
        <time>2016-06-13T15:49:56Z</time>
      </trkpt>
      <trkpt lat="42.37061801366508" lon="1.966474028304219">
        <ele>1769</ele>
        <time>2016-06-13T15:50:05Z</time>
      </trkpt>
      <trkpt lat="42.370605021715164" lon="1.966486014425755">
        <ele>1770</ele>
        <time>2016-06-13T15:50:06Z</time>
      </trkpt>
      <trkpt lat="42.370548024773598" lon="1.966570001095533">
        <ele>1784</ele>
        <time>2016-06-13T15:50:12Z</time>
      </trkpt>
      <trkpt lat="42.370533021166921" lon="1.966582993045449">
        <ele>1785</ele>
        <time>2016-06-13T15:50:13Z</time>
      </trkpt>
      <trkpt lat="42.370466971769929" lon="1.966634038835764">
        <ele>1771</ele>
        <time>2016-06-13T15:50:18Z</time>
      </trkpt>
      <trkpt lat="42.370453979820013" lon="1.96664803661406">
        <ele>1775</ele>
        <time>2016-06-13T15:50:19Z</time>
      </trkpt>
      <trkpt lat="42.37038298510015" lon="1.96669296361506">
        <ele>1762</ele>
        <time>2016-06-13T15:50:24Z</time>
      </trkpt>
      <trkpt lat="42.370370998978615" lon="1.966704027727246">
        <ele>1768</ele>
        <time>2016-06-13T15:50:25Z</time>
      </trkpt>
      <trkpt lat="42.370294975116849" lon="1.966751972213388">
        <ele>1785</ele>
        <time>2016-06-13T15:50:31Z</time>
      </trkpt>
      <trkpt lat="42.370280977338552" lon="1.96675700135529">
        <ele>1785</ele>
        <time>2016-06-13T15:50:32Z</time>
      </trkpt>
      <trkpt lat="42.370203025639057" lon="1.966793965548277">
        <ele>1754</ele>
        <time>2016-06-13T15:50:38Z</time>
      </trkpt>
      <trkpt lat="42.370191039517522" lon="1.966794971376658">
        <ele>1762</ele>
        <time>2016-06-13T15:50:39Z</time>
      </trkpt>
      <trkpt lat="42.370108980685472" lon="1.966829001903534">
        <ele>1787</ele>
        <time>2016-06-13T15:50:45Z</time>
      </trkpt>
      <trkpt lat="42.370094982907176" lon="1.966836964711547">
        <ele>1752</ele>
        <time>2016-06-13T15:50:46Z</time>
      </trkpt>
      <trkpt lat="42.370018037036061" lon="1.966880969703198">
        <ele>1782</ele>
        <time>2016-06-13T15:50:52Z</time>
      </trkpt>
      <trkpt lat="42.370006972923875" lon="1.966889016330242">
        <ele>1786</ele>
        <time>2016-06-13T15:50:53Z</time>
      </trkpt>
      <trkpt lat="42.369923992082477" lon="1.966936038807035">
        <ele>1774</ele>
        <time>2016-06-13T15:51:00Z</time>
      </trkpt>
      <trkpt lat="42.369911000132561" lon="1.966946013271809">
        <ele>1779</ele>
        <time>2016-06-13T15:51:01Z</time>
      </trkpt>
      <trkpt lat="42.36984302289784" lon="1.966981971636415">
        <ele>1787</ele>
        <time>2016-06-13T15:51:05Z</time>
      </trkpt>
      <trkpt lat="42.369825001806021" lon="1.966989012435079">
        <ele>1744</ele>
        <time>2016-06-13T15:51:06Z</time>
      </trkpt>
      <trkpt lat="42.369744032621384" lon="1.96703402325511">
        <ele>1771</ele>
        <time>2016-06-13T15:51:11Z</time>
      </trkpt>
      <trkpt lat="42.369727017357945" lon="1.967045003548265">
        <ele>1778</ele>
        <time>2016-06-13T15:51:12Z</time>
      </trkpt>
      <trkpt lat="42.369645964354277" lon="1.967091020196676">
        <ele>1754</ele>
        <time>2016-06-13T15:51:18Z</time>
      </trkpt>
      <trkpt lat="42.36963196657598" lon="1.96709998883307">
        <ele>1736</ele>
        <time>2016-06-13T15:51:19Z</time>
      </trkpt>
      <trkpt lat="42.36956600099802" lon="1.967172995209694">
        <ele>1755</ele>
        <time>2016-06-13T15:51:25Z</time>
      </trkpt>
      <trkpt lat="42.369553009048104" lon="1.967182969674468">
        <ele>1766</ele>
        <time>2016-06-13T15:51:26Z</time>
      </trkpt>
      <trkpt lat="42.369470028206706" lon="1.967217000201345">
        <ele>1792</ele>
        <time>2016-06-13T15:51:32Z</time>
      </trkpt>
      <trkpt lat="42.369455024600029" lon="1.967222029343247">
        <ele>1794</ele>
        <time>2016-06-13T15:51:33Z</time>
      </trkpt>
      <trkpt lat="42.369377994909883" lon="1.967269973829389">
        <ele>1768</ele>
        <time>2016-06-13T15:51:38Z</time>
      </trkpt>
      <trkpt lat="42.369363997131586" lon="1.967280032113195">
        <ele>1776</ele>
        <time>2016-06-13T15:51:39Z</time>
      </trkpt>
      <trkpt lat="42.369285961613059" lon="1.967335017398">
        <ele>1796</ele>
        <time>2016-06-13T15:51:45Z</time>
      </trkpt>
      <trkpt lat="42.369273975491524" lon="1.967344991862774">
        <ele>1797</ele>
        <time>2016-06-13T15:51:46Z</time>
      </trkpt>
      <trkpt lat="42.369209015741944" lon="1.967411963269115">
        <ele>1784</ele>
        <time>2016-06-13T15:51:52Z</time>
      </trkpt>
      <trkpt lat="42.36919803544879" lon="1.967423027381301">
        <ele>1764</ele>
        <time>2016-06-13T15:51:53Z</time>
      </trkpt>
      <trkpt lat="42.369123017415404" lon="1.967478012666106">
        <ele>1787</ele>
        <time>2016-06-13T15:51:59Z</time>
      </trkpt>
      <trkpt lat="42.369109019637108" lon="1.967492010444403">
        <ele>1791</ele>
        <time>2016-06-13T15:52:00Z</time>
      </trkpt>
      <trkpt lat="42.369045987725258" lon="1.967556970193982">
        <ele>1773</ele>
        <time>2016-06-13T15:52:04Z</time>
      </trkpt>
      <trkpt lat="42.369031989946961" lon="1.967578008770943">
        <ele>1784</ele>
        <time>2016-06-13T15:52:05Z</time>
      </trkpt>
      <trkpt lat="42.368971975520253" lon="1.967641040682793">
        <ele>1795</ele>
        <time>2016-06-13T15:52:09Z</time>
      </trkpt>
      <trkpt lat="42.368955966085196" lon="1.967653026804328">
        <ele>1779</ele>
        <time>2016-06-13T15:52:10Z</time>
      </trkpt>
      <trkpt lat="42.368888994678855" lon="1.967721004039049">
        <ele>1792</ele>
        <time>2016-06-13T15:52:15Z</time>
      </trkpt>
      <trkpt lat="42.368879020214081" lon="1.967735001817346">
        <ele>1793</ele>
        <time>2016-06-13T15:52:16Z</time>
      </trkpt>
      <trkpt lat="42.368822023272514" lon="1.967802979052067">
        <ele>1783</ele>
        <time>2016-06-13T15:52:21Z</time>
      </trkpt>
      <trkpt lat="42.368810037150979" lon="1.967815971001983">
        <ele>1787</ele>
        <time>2016-06-13T15:52:22Z</time>
      </trkpt>
      <trkpt lat="42.368753962218761" lon="1.967885037884116">
        <ele>1787</ele>
        <time>2016-06-13T15:52:27Z</time>
      </trkpt>
      <trkpt lat="42.368741976097226" lon="1.967898029834032">
        <ele>1788</ele>
        <time>2016-06-13T15:52:28Z</time>
      </trkpt>
      <trkpt lat="42.368678022176027" lon="1.967972964048386">
        <ele>1801</ele>
        <time>2016-06-13T15:52:33Z</time>
      </trkpt>
      <trkpt lat="42.368667041882873" lon="1.967988973483443">
        <ele>1777</ele>
        <time>2016-06-13T15:52:34Z</time>
      </trkpt>
      <trkpt lat="42.368610966950655" lon="1.968069020658732">
        <ele>1801</ele>
        <time>2016-06-13T15:52:39Z</time>
      </trkpt>
      <trkpt lat="42.368601998314261" lon="1.96808704175055">
        <ele>1802</ele>
        <time>2016-06-13T15:52:40Z</time>
      </trkpt>
      <trkpt lat="42.368557993322611" lon="1.968177985399962">
        <ele>1798</ele>
        <time>2016-06-13T15:52:45Z</time>
      </trkpt>
      <trkpt lat="42.368552964180708" lon="1.968202963471413">
        <ele>1804</ele>
        <time>2016-06-13T15:52:46Z</time>
      </trkpt>
      <trkpt lat="42.368542989715934" lon="1.968318969011307">
        <ele>1808</ele>
        <time>2016-06-13T15:52:51Z</time>
      </trkpt>
      <trkpt lat="42.368540978059173" lon="1.968340007588267">
        <ele>1808</ele>
        <time>2016-06-13T15:52:52Z</time>
      </trkpt>
      <trkpt lat="42.368542989715934" lon="1.968446960672736">
        <ele>1804</ele>
        <time>2016-06-13T15:52:57Z</time>
      </trkpt>
      <trkpt lat="42.368545001372695" lon="1.968469005078077">
        <ele>1806</ele>
        <time>2016-06-13T15:52:58Z</time>
      </trkpt>
      <trkpt lat="42.368550030514598" lon="1.968576963990927">
        <ele>1809</ele>
        <time>2016-06-13T15:53:03Z</time>
      </trkpt>
      <trkpt lat="42.368553970009089" lon="1.968601020053029">
        <ele>1810</ele>
        <time>2016-06-13T15:53:04Z</time>
      </trkpt>
      <trkpt lat="42.36857702024281" lon="1.968714008107781">
        <ele>1809</ele>
        <time>2016-06-13T15:53:09Z</time>
      </trkpt>
      <trkpt lat="42.368588000535965" lon="1.968734040856361">
        <ele>1810</ele>
        <time>2016-06-13T15:53:10Z</time>
      </trkpt>
      <trkpt lat="42.368633011355996" lon="1.968808975070715">
        <ele>1811</ele>
        <time>2016-06-13T15:53:14Z</time>
      </trkpt>
      <trkpt lat="42.368643991649151" lon="1.968829007819295">
        <ele>1796</ele>
        <time>2016-06-13T15:53:15Z</time>
      </trkpt>
      <trkpt lat="42.368698976933956" lon="1.968921963125467">
        <ele>1806</ele>
        <time>2016-06-13T15:53:20Z</time>
      </trkpt>
      <trkpt lat="42.368708029389381" lon="1.968944007530808">
        <ele>1808</ele>
        <time>2016-06-13T15:53:21Z</time>
      </trkpt>
      <trkpt lat="42.368732001632452" lon="1.969047021120787">
        <ele>1802</ele>
        <time>2016-06-13T15:53:25Z</time>
      </trkpt>
      <trkpt lat="42.368730995804071" lon="1.969077028334141">
        <ele>1806</ele>
        <time>2016-06-13T15:53:26Z</time>
      </trkpt>
      <trkpt lat="42.368693025782704" lon="1.969179036095738">
        <ele>1814</ele>
        <time>2016-06-13T15:53:30Z</time>
      </trkpt>
      <trkpt lat="42.368679028004408" lon="1.969202002510428">
        <ele>1815</ele>
        <time>2016-06-13T15:53:31Z</time>
      </trkpt>
      <trkpt lat="42.368618007749319" lon="1.969276014715433">
        <ele>1804</ele>
        <time>2016-06-13T15:53:35Z</time>
      </trkpt>
      <trkpt lat="42.36859898082912" lon="1.969289006665349">
        <ele>1807</ele>
        <time>2016-06-13T15:53:36Z</time>
      </trkpt>
      <trkpt lat="42.368535026907921" lon="1.969372993335128">
        <ele>1811</ele>
        <time>2016-06-13T15:53:41Z</time>
      </trkpt>
      <trkpt lat="42.368522034958005" lon="1.969392020255327">
        <ele>1812</ele>
        <time>2016-06-13T15:53:42Z</time>
      </trkpt>
      <trkpt lat="42.368474006652832" lon="1.969470977783203">
        <ele>1798</ele>
        <time>2016-06-13T15:53:46Z</time>
      </trkpt>
      <trkpt lat="42.368461014702916" lon="1.969490004703403">
        <ele>1804</ele>
        <time>2016-06-13T15:53:47Z</time>
      </trkpt>
      <trkpt lat="42.368420027196407" lon="1.969578014686704">
        <ele>1814</ele>
        <time>2016-06-13T15:53:51Z</time>
      </trkpt>
      <trkpt lat="42.368416003882885" lon="1.969602992758155">
        <ele>1815</ele>
        <time>2016-06-13T15:53:52Z</time>
      </trkpt>
      <trkpt lat="42.368396976962686" lon="1.969711035490036">
        <ele>1803</ele>
        <time>2016-06-13T15:53:57Z</time>
      </trkpt>
      <trkpt lat="42.368385996669531" lon="1.969728972762823">
        <ele>1807</ele>
        <time>2016-06-13T15:53:58Z</time>
      </trkpt>
      <trkpt lat="42.368390019983053" lon="1.969844978302717">
        <ele>1818</ele>
        <time>2016-06-13T15:54:03Z</time>
      </trkpt>
      <trkpt lat="42.368390019983053" lon="1.969868028536439">
        <ele>1805</ele>
        <time>2016-06-13T15:54:04Z</time>
      </trkpt>
      <trkpt lat="42.368393037468195" lon="1.969981016591191">
        <ele>1815</ele>
        <time>2016-06-13T15:54:09Z</time>
      </trkpt>
      <trkpt lat="42.368391025811434" lon="1.970002977177501">
        <ele>1816</ele>
        <time>2016-06-13T15:54:10Z</time>
      </trkpt>
      <trkpt lat="42.368370993062854" lon="1.970120994374156">
        <ele>1812</ele>
        <time>2016-06-13T15:54:15Z</time>
      </trkpt>
      <trkpt lat="42.368367975577712" lon="1.970144966617227">
        <ele>1816</ele>
        <time>2016-06-13T15:54:16Z</time>
      </trkpt>
      <trkpt lat="42.368358001112938" lon="1.97025996632874">
        <ele>1820</ele>
        <time>2016-06-13T15:54:21Z</time>
      </trkpt>
      <trkpt lat="42.368353977799416" lon="1.970282010734081">
        <ele>1821</ele>
        <time>2016-06-13T15:54:22Z</time>
      </trkpt>
      <trkpt lat="42.368369987234473" lon="1.970393992960453">
        <ele>1812</ele>
        <time>2016-06-13T15:54:28Z</time>
      </trkpt>
      <trkpt lat="42.368373004719615" lon="1.970417965203524">
        <ele>1813</ele>
        <time>2016-06-13T15:54:29Z</time>
      </trkpt>
      <trkpt lat="42.368379039689898" lon="1.970531037077308">
        <ele>1794</ele>
        <time>2016-06-13T15:54:34Z</time>
      </trkpt>
      <trkpt lat="42.368379039689898" lon="1.970550986006856">
        <ele>1798</ele>
        <time>2016-06-13T15:54:35Z</time>
      </trkpt>
      <trkpt lat="42.368389014154673" lon="1.970649976283312">
        <ele>1814</ele>
        <time>2016-06-13T15:54:40Z</time>
      </trkpt>
      <trkpt lat="42.368391025811434" lon="1.970671014860272">
        <ele>1816</ele>
        <time>2016-06-13T15:54:41Z</time>
      </trkpt>
      <trkpt lat="42.368403011932969" lon="1.970786014571786">
        <ele>1811</ele>
        <time>2016-06-13T15:54:46Z</time>
      </trkpt>
      <trkpt lat="42.368402006104589" lon="1.970809986814857">
        <ele>1815</ele>
        <time>2016-06-13T15:54:47Z</time>
      </trkpt>
      <trkpt lat="42.368406029418111" lon="1.970908977091312">
        <ele>1811</ele>
        <time>2016-06-13T15:54:51Z</time>
      </trkpt>
      <trkpt lat="42.368407035246491" lon="1.970933033153415">
        <ele>1812</ele>
        <time>2016-06-13T15:54:52Z</time>
      </trkpt>
      <trkpt lat="42.368388008326292" lon="1.971029005944729">
        <ele>1801</ele>
        <time>2016-06-13T15:54:56Z</time>
      </trkpt>
      <trkpt lat="42.368382979184389" lon="1.971051972359419">
        <ele>1807</ele>
        <time>2016-06-13T15:54:57Z</time>
      </trkpt>
      <trkpt lat="42.368377028033137" lon="1.971166972070932">
        <ele>1820</ele>
        <time>2016-06-13T15:55:02Z</time>
      </trkpt>
      <trkpt lat="42.368377028033137" lon="1.971190022304654">
        <ele>1819</ele>
        <time>2016-06-13T15:55:03Z</time>
      </trkpt>
      <trkpt lat="42.368375016376376" lon="1.971299992874265">
        <ele>1807</ele>
        <time>2016-06-13T15:55:08Z</time>
      </trkpt>
      <trkpt lat="42.368374010547996" lon="1.971322037279606">
        <ele>1807</ele>
        <time>2016-06-13T15:55:09Z</time>
      </trkpt>
      <trkpt lat="42.368359006941319" lon="1.971431002020836">
        <ele>1822</ele>
        <time>2016-06-13T15:55:14Z</time>
      </trkpt>
      <trkpt lat="42.368356995284557" lon="1.971450028941035">
        <ele>1822</ele>
        <time>2016-06-13T15:55:15Z</time>
      </trkpt>
      <trkpt lat="42.36834199167788" lon="1.971552036702633">
        <ele>1815</ele>
        <time>2016-06-13T15:55:20Z</time>
      </trkpt>
      <trkpt lat="42.368337968364358" lon="1.971572991460562">
        <ele>1818</ele>
        <time>2016-06-13T15:55:21Z</time>
      </trkpt>
      <trkpt lat="42.368307961151004" lon="1.971678016707301">
        <ele>1802</ele>
        <time>2016-06-13T15:55:26Z</time>
      </trkpt>
      <trkpt lat="42.368302009999752" lon="1.971697965636849">
        <ele>1813</ele>
        <time>2016-06-13T15:55:27Z</time>
      </trkpt>
      <trkpt lat="42.368288012221456" lon="1.971812965348363">
        <ele>1827</ele>
        <time>2016-06-13T15:55:33Z</time>
      </trkpt>
      <trkpt lat="42.368290023878217" lon="1.971829980611801">
        <ele>1826</ele>
        <time>2016-06-13T15:55:34Z</time>
      </trkpt>
      <trkpt lat="42.368293041363358" lon="1.971929976716638">
        <ele>1813</ele>
        <time>2016-06-13T15:55:39Z</time>
      </trkpt>
      <trkpt lat="42.368296980857849" lon="1.97195403277874">
        <ele>1816</ele>
        <time>2016-06-13T15:55:40Z</time>
      </trkpt>
      <trkpt lat="42.368301004171371" lon="1.972068026661873">
        <ele>1815</ele>
        <time>2016-06-13T15:55:47Z</time>
      </trkpt>
      <trkpt lat="42.368301004171371" lon="1.972091998904944">
        <ele>1815</ele>
        <time>2016-06-13T15:55:48Z</time>
      </trkpt>
      <trkpt lat="42.368306033313274" lon="1.972197024151683">
        <ele>1817</ele>
        <time>2016-06-13T15:55:53Z</time>
      </trkpt>
      <trkpt lat="42.368307039141655" lon="1.972219990566373">
        <ele>1769</ele>
        <time>2016-06-13T15:55:54Z</time>
      </trkpt>
      <trkpt lat="42.368290023878217" lon="1.972328033298254">
        <ele>1789</ele>
        <time>2016-06-13T15:55:59Z</time>
      </trkpt>
      <trkpt lat="42.368291029706597" lon="1.972348988056183">
        <ele>1795</ele>
        <time>2016-06-13T15:56:00Z</time>
      </trkpt>
      <trkpt lat="42.368284994736314" lon="1.972456024959683">
        <ele>1820</ele>
        <time>2016-06-13T15:56:05Z</time>
      </trkpt>
      <trkpt lat="42.368279965594411" lon="1.972477985545993">
        <ele>1821</ele>
        <time>2016-06-13T15:56:06Z</time>
      </trkpt>
      <trkpt lat="42.368238978087902" lon="1.972576975822449">
        <ele>1802</ele>
        <time>2016-06-13T15:56:11Z</time>
      </trkpt>
      <trkpt lat="42.368227997794747" lon="1.972594996914268">
        <ele>1806</ele>
        <time>2016-06-13T15:56:12Z</time>
      </trkpt>
      <trkpt lat="42.368183992803097" lon="1.972682001069188">
        <ele>1821</ele>
        <time>2016-06-13T15:56:17Z</time>
      </trkpt>
      <trkpt lat="42.368176029995084" lon="1.972698010504246">
        <ele>1763</ele>
        <time>2016-06-13T15:56:18Z</time>
      </trkpt>
      <trkpt lat="42.368140993639827" lon="1.972804041579366">
        <ele>1812</ele>
        <time>2016-06-13T15:56:23Z</time>
      </trkpt>
      <trkpt lat="42.368135964497924" lon="1.972826002165675">
        <ele>1768</ele>
        <time>2016-06-13T15:56:24Z</time>
      </trkpt>
      <trkpt lat="42.368100006133318" lon="1.972929015755653">
        <ele>1798</ele>
        <time>2016-06-13T15:56:29Z</time>
      </trkpt>
      <trkpt lat="42.368092965334654" lon="1.972948964685202">
        <ele>1805</ele>
        <time>2016-06-13T15:56:30Z</time>
      </trkpt>
      <trkpt lat="42.368059018626809" lon="1.97305197827518">
        <ele>1818</ele>
        <time>2016-06-13T15:56:35Z</time>
      </trkpt>
      <trkpt lat="42.368052983656526" lon="1.973074022680521">
        <ele>1739</ele>
        <time>2016-06-13T15:56:36Z</time>
      </trkpt>
      <trkpt lat="42.36802096478641" lon="1.973179969936609">
        <ele>1819</ele>
        <time>2016-06-13T15:56:41Z</time>
      </trkpt>
      <trkpt lat="42.368015013635159" lon="1.97320201434195">
        <ele>1822</ele>
        <time>2016-06-13T15:56:42Z</time>
      </trkpt>
      <trkpt lat="42.367981988936663" lon="1.973313996568322">
        <ele>1801</ele>
        <time>2016-06-13T15:56:47Z</time>
      </trkpt>
      <trkpt lat="42.367976037785411" lon="1.973336962983012">
        <ele>1812</ele>
        <time>2016-06-13T15:56:48Z</time>
      </trkpt>
      <trkpt lat="42.367946030572057" lon="1.973446011543274">
        <ele>1832</ele>
        <time>2016-06-13T15:56:53Z</time>
      </trkpt>
      <trkpt lat="42.367942007258534" lon="1.973466966301203">
        <ele>1834</ele>
        <time>2016-06-13T15:56:54Z</time>
      </trkpt>
      <trkpt lat="42.36791200004518" lon="1.97356796823442">
        <ele>1812</ele>
        <time>2016-06-13T15:56:59Z</time>
      </trkpt>
      <trkpt lat="42.367904037237167" lon="1.973588000983">
        <ele>1812</ele>
        <time>2016-06-13T15:57:00Z</time>
      </trkpt>
      <trkpt lat="42.367879981175065" lon="1.973695959895849">
        <ele>1832</ele>
        <time>2016-06-13T15:57:05Z</time>
      </trkpt>
      <trkpt lat="42.367876963689923" lon="1.973719010129571">
        <ele>1767</ele>
        <time>2016-06-13T15:57:06Z</time>
      </trkpt>
      <trkpt lat="42.367876041680574" lon="1.973834009841085">
        <ele>1804</ele>
        <time>2016-06-13T15:57:11Z</time>
      </trkpt>
      <trkpt lat="42.367873024195433" lon="1.973854964599013">
        <ele>1805</ele>
        <time>2016-06-13T15:57:12Z</time>
      </trkpt>
      <trkpt lat="42.367862965911627" lon="1.973960995674133">
        <ele>1755</ele>
        <time>2016-06-13T15:57:17Z</time>
      </trkpt>
      <trkpt lat="42.367861960083246" lon="1.973982034251094">
        <ele>1770</ele>
        <time>2016-06-13T15:57:18Z</time>
      </trkpt>
      <trkpt lat="42.367859026417136" lon="1.974094016477466">
        <ele>1750</ele>
        <time>2016-06-13T15:57:23Z</time>
      </trkpt>
      <trkpt lat="42.367859026417136" lon="1.974116982892156">
        <ele>1750</ele>
        <time>2016-06-13T15:57:24Z</time>
      </trkpt>
      <trkpt lat="42.367857014760375" lon="1.974217984825373">
        <ele>1821</ele>
        <time>2016-06-13T15:57:29Z</time>
      </trkpt>
      <trkpt lat="42.367860032245517" lon="1.974238017573953">
        <ele>1825</ele>
        <time>2016-06-13T15:57:30Z</time>
      </trkpt>
      <trkpt lat="42.367863971740007" lon="1.974342036992312">
        <ele>1779</ele>
        <time>2016-06-13T15:57:35Z</time>
      </trkpt>
      <trkpt lat="42.367864977568388" lon="1.97436198592186">
        <ele>1789</ele>
        <time>2016-06-13T15:57:36Z</time>
      </trkpt>
      <trkpt lat="42.367878975346684" lon="1.974480003118515">
        <ele>1830</ele>
        <time>2016-06-13T15:57:41Z</time>
      </trkpt>
      <trkpt lat="42.367880987003446" lon="1.974505987018347">
        <ele>1835</ele>
        <time>2016-06-13T15:57:42Z</time>
      </trkpt>
      <trkpt lat="42.367902025580406" lon="1.974602965638042">
        <ele>1815</ele>
        <time>2016-06-13T15:57:46Z</time>
      </trkpt>
      <trkpt lat="42.367908982560039" lon="1.974627021700144">
        <ele>1826</ele>
        <time>2016-06-13T15:57:47Z</time>
      </trkpt>
      <trkpt lat="42.367946030572057" lon="1.974718971177936">
        <ele>1846</ele>
        <time>2016-06-13T16:02:16Z</time>
      </trkpt>
      <trkpt lat="42.367949970066547" lon="1.974737998098135">
        <ele>1847</ele>
        <time>2016-06-13T16:02:17Z</time>
      </trkpt>
      <trkpt lat="42.36797402612865" lon="1.974846962839365">
        <ele>1799</ele>
        <time>2016-06-13T16:02:25Z</time>
      </trkpt>
      <trkpt lat="42.36797796562314" lon="1.974857021123171">
        <ele>1814</ele>
        <time>2016-06-13T16:02:26Z</time>
      </trkpt>
      <trkpt lat="42.368002021685243" lon="1.974967997521162">
        <ele>1815</ele>
        <time>2016-06-13T16:02:36Z</time>
      </trkpt>
      <trkpt lat="42.368005039170384" lon="1.974976966157556">
        <ele>1825</ele>
        <time>2016-06-13T16:02:37Z</time>
      </trkpt>
      <trkpt lat="42.368036974221468" lon="1.975078973919153">
        <ele>1819</ele>
        <time>2016-06-13T16:02:48Z</time>
      </trkpt>
      <trkpt lat="42.36803999170661" lon="1.975090960040689">
        <ele>1830</ele>
        <time>2016-06-13T16:02:49Z</time>
      </trkpt>
      <trkpt lat="42.368077961727977" lon="1.975192967802286">
        <ele>1819</ele>
        <time>2016-06-13T16:02:59Z</time>
      </trkpt>
      <trkpt lat="42.368080979213119" lon="1.975202020257711">
        <ele>1812</ele>
        <time>2016-06-13T16:03:00Z</time>
      </trkpt>
      <trkpt lat="42.36812699586153" lon="1.975293969735503">
        <ele>1798</ele>
        <time>2016-06-13T16:03:13Z</time>
      </trkpt>
      <trkpt lat="42.368130013346672" lon="1.975306961685419">
        <ele>1808</ele>
        <time>2016-06-13T16:03:14Z</time>
      </trkpt>
      <trkpt lat="42.368149040266871" lon="1.975421039387584">
        <ele>1586</ele>
        <time>2016-06-13T16:03:24Z</time>
      </trkpt>
      <trkpt lat="42.36814996227622" lon="1.975432019680738">
        <ele>1660</ele>
        <time>2016-06-13T16:03:25Z</time>
      </trkpt>
      <trkpt lat="42.368165971711278" lon="1.975547019392252">
        <ele>1755</ele>
        <time>2016-06-13T16:03:38Z</time>
      </trkpt>
      <trkpt lat="42.368164965882897" lon="1.975559005513787">
        <ele>1769</ele>
        <time>2016-06-13T16:03:39Z</time>
      </trkpt>
      <trkpt lat="42.368172006681561" lon="1.975667970255017">
        <ele>1807</ele>
        <time>2016-06-13T16:03:52Z</time>
      </trkpt>
      <trkpt lat="42.368172006681561" lon="1.975680040195584">
        <ele>1822</ele>
        <time>2016-06-13T16:03:53Z</time>
      </trkpt>
      <trkpt lat="42.368178963661194" lon="1.975795961916447">
        <ele>1843</ele>
        <time>2016-06-13T16:04:04Z</time>
      </trkpt>
      <trkpt lat="42.368181981146336" lon="1.975808031857014">
        <ele>1749</ele>
        <time>2016-06-13T16:04:05Z</time>
      </trkpt>
      <trkpt lat="42.368198996409774" lon="1.975922025740147">
        <ele>1790</ele>
        <time>2016-06-13T16:04:16Z</time>
      </trkpt>
      <trkpt lat="42.368200002238154" lon="1.975936023518443">
        <ele>1802</ele>
        <time>2016-06-13T16:04:17Z</time>
      </trkpt>
      <trkpt lat="42.368218023329973" lon="1.976053034886718">
        <ele>1850</ele>
        <time>2016-06-13T16:04:25Z</time>
      </trkpt>
      <trkpt lat="42.368221040815115" lon="1.976068960502744">
        <ele>1850</ele>
        <time>2016-06-13T16:04:26Z</time>
      </trkpt>
      <trkpt lat="42.368260016664863" lon="1.97616501711309">
        <ele>1856</ele>
        <time>2016-06-13T16:04:34Z</time>
      </trkpt>
      <trkpt lat="42.368264039978385" lon="1.976175997406244">
        <ele>1856</ele>
        <time>2016-06-13T16:04:35Z</time>
      </trkpt>
      <trkpt lat="42.36831902526319" lon="1.976258978247643">
        <ele>1857</ele>
        <time>2016-06-13T16:04:44Z</time>
      </trkpt>
      <trkpt lat="42.368324976414442" lon="1.976269036531448">
        <ele>1858</ele>
        <time>2016-06-13T16:04:45Z</time>
      </trkpt>
      <trkpt lat="42.368370993062854" lon="1.976367020979524">
        <ele>1862</ele>
        <time>2016-06-13T16:04:53Z</time>
      </trkpt>
      <trkpt lat="42.368374010547996" lon="1.976384958252311">
        <ele>1862</ele>
        <time>2016-06-13T16:04:54Z</time>
      </trkpt>
      <trkpt lat="42.368378033861518" lon="1.976487971842289">
        <ele>1864</ele>
        <time>2016-06-13T16:05:00Z</time>
      </trkpt>
      <trkpt lat="42.368374010547996" lon="1.976505992934108">
        <ele>1865</ele>
        <time>2016-06-13T16:05:01Z</time>
      </trkpt>
      <trkpt lat="42.368334028869867" lon="1.976599032059312">
        <ele>1863</ele>
        <time>2016-06-13T16:05:07Z</time>
      </trkpt>
      <trkpt lat="42.368324976414442" lon="1.976611018180847">
        <ele>1864</ele>
        <time>2016-06-13T16:05:08Z</time>
      </trkpt>
      <trkpt lat="42.368264961987734" lon="1.976685030385852">
        <ele>1865</ele>
        <time>2016-06-13T16:05:14Z</time>
      </trkpt>
      <trkpt lat="42.368253981694579" lon="1.976693999022245">
        <ele>1866</ele>
        <time>2016-06-13T16:05:15Z</time>
      </trkpt>
      <trkpt lat="42.368188016116619" lon="1.976773962378502">
        <ele>1868</ele>
        <time>2016-06-13T16:05:22Z</time>
      </trkpt>
      <trkpt lat="42.368178963661194" lon="1.976786032319069">
        <ele>1868</ele>
        <time>2016-06-13T16:05:23Z</time>
      </trkpt>
      <trkpt lat="42.368117021396756" lon="1.976867001503706">
        <ele>1868</ele>
        <time>2016-06-13T16:05:31Z</time>
      </trkpt>
      <trkpt lat="42.368109980598092" lon="1.976874964311719">
        <ele>1868</ele>
        <time>2016-06-13T16:05:32Z</time>
      </trkpt>
      <trkpt lat="42.368051977828145" lon="1.976955011487007">
        <ele>1870</ele>
        <time>2016-06-13T16:05:41Z</time>
      </trkpt>
      <trkpt lat="42.368049966171384" lon="1.976968003436923">
        <ele>1870</ele>
        <time>2016-06-13T16:05:42Z</time>
      </trkpt>
      <trkpt lat="42.36804099753499" lon="1.977081997320056">
        <ele>1871</ele>
        <time>2016-06-13T16:06:01Z</time>
      </trkpt>
      <trkpt lat="42.368034962564707" lon="1.977099012583494">
        <ele>1871</ele>
        <time>2016-06-13T16:06:02Z</time>
      </trkpt>
      <trkpt lat="42.367992969229817" lon="1.977192973718047">
        <ele>1869</ele>
        <time>2016-06-13T16:06:08Z</time>
      </trkpt>
      <trkpt lat="42.367989029735327" lon="1.977206971496344">
        <ele>1870</ele>
        <time>2016-06-13T16:06:09Z</time>
      </trkpt>
      <trkpt lat="42.367972014471889" lon="1.977320965379477">
        <ele>1869</ele>
        <time>2016-06-13T16:06:16Z</time>
      </trkpt>
      <trkpt lat="42.367970002815127" lon="1.977336974814534">
        <ele>1868</ele>
        <time>2016-06-13T16:06:17Z</time>
      </trkpt>
      <trkpt lat="42.367958016693592" lon="1.977450968697667">
        <ele>1869</ele>
        <time>2016-06-13T16:06:24Z</time>
      </trkpt>
      <trkpt lat="42.367958016693592" lon="1.977468989789486">
        <ele>1870</ele>
        <time>2016-06-13T16:06:25Z</time>
      </trkpt>
      <trkpt lat="42.367966985329986" lon="1.97758499532938">
        <ele>1871</ele>
        <time>2016-06-13T16:06:32Z</time>
      </trkpt>
      <trkpt lat="42.367966985329986" lon="1.977598993107677">
        <ele>1872</ele>
        <time>2016-06-13T16:06:33Z</time>
      </trkpt>
      <trkpt lat="42.367962040007114" lon="1.977709969505668">
        <ele>1873</ele>
        <time>2016-06-13T16:06:41Z</time>
      </trkpt>
      <trkpt lat="42.367960028350353" lon="1.977724973112345">
        <ele>1873</ele>
        <time>2016-06-13T16:06:42Z</time>
      </trkpt>
      <trkpt lat="42.367960028350353" lon="1.977836033329368">
        <ele>1874</ele>
        <time>2016-06-13T16:06:50Z</time>
      </trkpt>
      <trkpt lat="42.367959022521973" lon="1.977850031107664">
        <ele>1874</ele>
        <time>2016-06-13T16:06:51Z</time>
      </trkpt>
      <trkpt lat="42.367952987551689" lon="1.977960001677275">
        <ele>1874</ele>
        <time>2016-06-13T16:06:58Z</time>
      </trkpt>
      <trkpt lat="42.36795399338007" lon="1.977973999455571">
        <ele>1874</ele>
        <time>2016-06-13T16:06:59Z</time>
      </trkpt>
      <trkpt lat="42.367941001430154" lon="1.978090004995465">
        <ele>1878</ele>
        <time>2016-06-13T16:07:06Z</time>
      </trkpt>
      <trkpt lat="42.367938989773393" lon="1.978106014430523">
        <ele>1878</ele>
        <time>2016-06-13T16:07:07Z</time>
      </trkpt>
      <trkpt lat="42.367936978116632" lon="1.978217996656895">
        <ele>1880</ele>
        <time>2016-06-13T16:07:14Z</time>
      </trkpt>
      <trkpt lat="42.367936978116632" lon="1.978234006091952">
        <ele>1881</ele>
        <time>2016-06-13T16:07:15Z</time>
      </trkpt>
      <trkpt lat="42.367933038622141" lon="1.978347999975085">
        <ele>1879</ele>
        <time>2016-06-13T16:07:24Z</time>
      </trkpt>
      <trkpt lat="42.367933038622141" lon="1.978360991925001">
        <ele>1879</ele>
        <time>2016-06-13T16:07:25Z</time>
      </trkpt>
      <trkpt lat="42.367903031408787" lon="1.978472974151373">
        <ele>1879</ele>
        <time>2016-06-13T16:07:34Z</time>
      </trkpt>
      <trkpt lat="42.367898002266884" lon="1.978485966101289">
        <ele>1878</ele>
        <time>2016-06-13T16:07:35Z</time>
      </trkpt>
      <trkpt lat="42.367834970355034" lon="1.978552015498281">
        <ele>1880</ele>
        <time>2016-06-13T16:07:42Z</time>
      </trkpt>
      <trkpt lat="42.367821978405118" lon="1.978557966649532">
        <ele>1880</ele>
        <time>2016-06-13T16:07:43Z</time>
      </trkpt>
      <trkpt lat="42.367756012827158" lon="1.978636002168059">
        <ele>1883</ele>
        <time>2016-06-13T16:07:51Z</time>
      </trkpt>
      <trkpt lat="42.367751989513636" lon="1.978646982461214">
        <ele>1883</ele>
        <time>2016-06-13T16:07:52Z</time>
      </trkpt>
      <trkpt lat="42.367702033370733" lon="1.978732980787754">
        <ele>1883</ele>
        <time>2016-06-13T16:08:13Z</time>
      </trkpt>
      <trkpt lat="42.367689963430166" lon="1.978744966909289">
        <ele>1884</ele>
        <time>2016-06-13T16:08:14Z</time>
      </trkpt>
      <trkpt lat="42.367631960660219" lon="1.978816967457533">
        <ele>1885</ele>
        <time>2016-06-13T16:08:20Z</time>
      </trkpt>
      <trkpt lat="42.367621986195445" lon="1.978829959407449">
        <ele>1886</ele>
        <time>2016-06-13T16:08:21Z</time>
      </trkpt>
      <trkpt lat="42.367573035880923" lon="1.978913024067879">
        <ele>1885</ele>
        <time>2016-06-13T16:08:27Z</time>
      </trkpt>
      <trkpt lat="42.367562977597117" lon="1.978929033502936">
        <ele>1886</ele>
        <time>2016-06-13T16:08:28Z</time>
      </trkpt>
      <trkpt lat="42.367512015625834" lon="1.979021988809109">
        <ele>1884</ele>
        <time>2016-06-13T16:08:34Z</time>
      </trkpt>
      <trkpt lat="42.36750497482717" lon="1.979039004072547">
        <ele>1885</ele>
        <time>2016-06-13T16:08:35Z</time>
      </trkpt>
      <trkpt lat="42.367445966228843" lon="1.979123996570706">
        <ele>1887</ele>
        <time>2016-06-13T16:08:44Z</time>
      </trkpt>
      <trkpt lat="42.36743800342083" lon="1.979136988520622">
        <ele>1887</ele>
        <time>2016-06-13T16:08:45Z</time>
      </trkpt>
      <trkpt lat="42.367378994822502" lon="1.97921896353364">
        <ele>1886</ele>
        <time>2016-06-13T16:08:53Z</time>
      </trkpt>
      <trkpt lat="42.36737203784287" lon="1.979229021817446">
        <ele>1886</ele>
        <time>2016-06-13T16:08:54Z</time>
      </trkpt>
      <trkpt lat="42.367321997880936" lon="1.979317031800747">
        <ele>1888</ele>
        <time>2016-06-13T16:09:02Z</time>
      </trkpt>
      <trkpt lat="42.367315962910652" lon="1.979331029579043">
        <ele>1887</ele>
        <time>2016-06-13T16:09:03Z</time>
      </trkpt>
      <trkpt lat="42.367257038131356" lon="1.979405963793397">
        <ele>1887</ele>
        <time>2016-06-13T16:09:11Z</time>
      </trkpt>
      <trkpt lat="42.367247985675931" lon="1.979411998763681">
        <ele>1888</ele>
        <time>2016-06-13T16:09:12Z</time>
      </trkpt>
      <trkpt lat="42.367170033976436" lon="1.979471007362008">
        <ele>1889</ele>
        <time>2016-06-13T16:09:21Z</time>
      </trkpt>
      <trkpt lat="42.367161987349391" lon="1.979479975998402">
        <ele>1890</ele>
        <time>2016-06-13T16:09:22Z</time>
      </trkpt>
      <trkpt lat="42.367100967094302" lon="1.979562034830451">
        <ele>1891</ele>
        <time>2016-06-13T16:09:36Z</time>
      </trkpt>
      <trkpt lat="42.367097027599812" lon="1.979566980153322">
        <ele>1892</ele>
        <time>2016-06-13T16:09:37Z</time>
      </trkpt>
      <trkpt lat="42.367029972374439" lon="1.979636969044805">
        <ele>1875</ele>
        <time>2016-06-13T16:09:46Z</time>
      </trkpt>
      <trkpt lat="42.367023015394807" lon="1.979644009843469">
        <ele>1805</ele>
        <time>2016-06-13T16:09:47Z</time>
      </trkpt>
      <trkpt lat="42.366955038160086" lon="1.979721039533615">
        <ele>1877</ele>
        <time>2016-06-13T16:09:57Z</time>
      </trkpt>
      <trkpt lat="42.36694598570466" lon="1.979727996513248">
        <ele>1879</ele>
        <time>2016-06-13T16:09:58Z</time>
      </trkpt>
      <trkpt lat="42.366875996813178" lon="1.979774013161659">
        <ele>1847</ele>
        <time>2016-06-13T16:10:05Z</time>
      </trkpt>
      <trkpt lat="42.366865016520023" lon="1.979780970141292">
        <ele>1858</ele>
        <time>2016-06-13T16:10:06Z</time>
      </trkpt>
      <trkpt lat="42.366800978779793" lon="1.979850037023425">
        <ele>1861</ele>
        <time>2016-06-13T16:10:13Z</time>
      </trkpt>
      <trkpt lat="42.366788992658257" lon="1.979855988174677">
        <ele>1862</ele>
        <time>2016-06-13T16:10:14Z</time>
      </trkpt>
      <trkpt lat="42.366725038737059" lon="1.979922959581018">
        <ele>1810</ele>
        <time>2016-06-13T16:10:21Z</time>
      </trkpt>
      <trkpt lat="42.366715986281633" lon="1.979933017864823">
        <ele>1829</ele>
        <time>2016-06-13T16:10:22Z</time>
      </trkpt>
      <trkpt lat="42.36664499156177" lon="1.97999102063477">
        <ele>1862</ele>
        <time>2016-06-13T16:10:30Z</time>
      </trkpt>
      <trkpt lat="42.366635017096996" lon="1.979997977614403">
        <ele>1863</ele>
        <time>2016-06-13T16:10:31Z</time>
      </trkpt>
      <trkpt lat="42.36655899323523" lon="1.98005598038435">
        <ele>1834</ele>
        <time>2016-06-13T16:10:38Z</time>
      </trkpt>
      <trkpt lat="42.366548012942076" lon="1.980065032839775">
        <ele>1735</ele>
        <time>2016-06-13T16:10:39Z</time>
      </trkpt>
      <trkpt lat="42.366478024050593" lon="1.980135021731257">
        <ele>1802</ele>
        <time>2016-06-13T16:10:57Z</time>
      </trkpt>
      <trkpt lat="42.366466959938407" lon="1.98014298453927">
        <ele>1825</ele>
        <time>2016-06-13T16:10:58Z</time>
      </trkpt>
      <trkpt lat="42.366388002410531" lon="1.980182966217399">
        <ele>1834</ele>
        <time>2016-06-13T16:11:07Z</time>
      </trkpt>
      <trkpt lat="42.366381967440248" lon="1.980186989530921">
        <ele>1844</ele>
        <time>2016-06-13T16:11:08Z</time>
      </trkpt>
      <trkpt lat="42.366303009912372" lon="1.980243986472487">
        <ele>1824</ele>
        <time>2016-06-13T16:11:17Z</time>
      </trkpt>
      <trkpt lat="42.366293035447598" lon="1.980255972594023">
        <ele>1841</ele>
        <time>2016-06-13T16:11:18Z</time>
      </trkpt>
      <trkpt lat="42.36621399410069" lon="1.98031397536397">
        <ele>1842</ele>
        <time>2016-06-13T16:11:27Z</time>
      </trkpt>
      <trkpt lat="42.366206031292677" lon="1.980323027819395">
        <ele>1858</ele>
        <time>2016-06-13T16:11:28Z</time>
      </trkpt>
      <trkpt lat="42.366126989945769" lon="1.980381030589342">
        <ele>1859</ele>
        <time>2016-06-13T16:11:37Z</time>
      </trkpt>
      <trkpt lat="42.366118021309376" lon="1.980383964255452">
        <ele>1869</ele>
        <time>2016-06-13T16:11:38Z</time>
      </trkpt>
      <trkpt lat="42.36604199744761" lon="1.980422018095851">
        <ele>1791</ele>
        <time>2016-06-13T16:11:46Z</time>
      </trkpt>
      <trkpt lat="42.366031017154455" lon="1.980428975075483">
        <ele>1811</ele>
        <time>2016-06-13T16:11:47Z</time>
      </trkpt>
      <trkpt lat="42.365954993292689" lon="1.980478009209037">
        <ele>1787</ele>
        <time>2016-06-13T16:11:55Z</time>
      </trkpt>
      <trkpt lat="42.365946024656296" lon="1.98048597201705">
        <ele>1815</ele>
        <time>2016-06-13T16:11:56Z</time>
      </trkpt>
      <trkpt lat="42.36589003354311" lon="1.980563001707196">
        <ele>1758</ele>
        <time>2016-06-13T16:12:05Z</time>
      </trkpt>
      <trkpt lat="42.365878969430923" lon="1.980570964515209">
        <ele>1792</ele>
        <time>2016-06-13T16:12:06Z</time>
      </trkpt>
      <trkpt lat="42.365799006074667" lon="1.98061304166913">
        <ele>1813</ele>
        <time>2016-06-13T16:12:16Z</time>
      </trkpt>
      <trkpt lat="42.365790037438273" lon="1.98061496950686">
        <ele>1834</ele>
        <time>2016-06-13T16:12:17Z</time>
      </trkpt>
      <trkpt lat="42.365715019404888" lon="1.980667021125555">
        <ele>1760</ele>
        <time>2016-06-13T16:12:25Z</time>
      </trkpt>
      <trkpt lat="42.365703033283353" lon="1.980670960620046">
        <ele>1791</ele>
        <time>2016-06-13T16:12:26Z</time>
      </trkpt>
      <trkpt lat="42.365623991936445" lon="1.980716977268457">
        <ele>1773</ele>
        <time>2016-06-13T16:12:35Z</time>
      </trkpt>
      <trkpt lat="42.365616029128432" lon="1.98072100058198">
        <ele>1817</ele>
        <time>2016-06-13T16:12:36Z</time>
      </trkpt>
      <trkpt lat="42.365535981953144" lon="1.980771962553263">
        <ele>1886</ele>
        <time>2016-06-13T16:12:54Z</time>
      </trkpt>
      <trkpt lat="42.365523995831609" lon="1.980780009180307">
        <ele>1757</ele>
        <time>2016-06-13T16:12:55Z</time>
      </trkpt>
      <trkpt lat="42.365456018596888" lon="1.980837006121874">
        <ele>1875</ele>
        <time>2016-06-13T16:13:01Z</time>
      </trkpt>
      <trkpt lat="42.365445038303733" lon="1.980844968929887">
        <ele>1882</ele>
        <time>2016-06-13T16:13:02Z</time>
      </trkpt>
      <trkpt lat="42.365369014441967" lon="1.980897020548582">
        <ele>1866</ele>
        <time>2016-06-13T16:13:10Z</time>
      </trkpt>
      <trkpt lat="42.365358034148812" lon="1.980900038033724">
        <ele>1875</ele>
        <time>2016-06-13T16:13:11Z</time>
      </trkpt>
      <trkpt lat="42.365274969488382" lon="1.980941025540233">
        <ele>1856</ele>
        <time>2016-06-13T16:13:19Z</time>
      </trkpt>
      <trkpt lat="42.365264995023608" lon="1.980943037196994">
        <ele>1871</ele>
        <time>2016-06-13T16:13:20Z</time>
      </trkpt>
      <trkpt lat="42.365178996697068" lon="1.9809789955616">
        <ele>1871</ele>
        <time>2016-06-13T16:13:28Z</time>
      </trkpt>
      <trkpt lat="42.365168016403913" lon="1.980974972248077">
        <ele>1880</ele>
        <time>2016-06-13T16:13:29Z</time>
      </trkpt>
      <trkpt lat="42.365086041390896" lon="1.980966003611684">
        <ele>1834</ele>
        <time>2016-06-13T16:13:36Z</time>
      </trkpt>
      <trkpt lat="42.365073971450329" lon="1.980964997783303">
        <ele>1863</ele>
        <time>2016-06-13T16:13:37Z</time>
      </trkpt>
      <trkpt lat="42.364987973123789" lon="1.980955023318529">
        <ele>1909</ele>
        <time>2016-06-13T16:13:44Z</time>
      </trkpt>
      <trkpt lat="42.364974981173873" lon="1.98095703497529">
        <ele>1809</ele>
        <time>2016-06-13T16:13:45Z</time>
      </trkpt>
      <trkpt lat="42.364889988675714" lon="1.980946976691485">
        <ele>1912</ele>
        <time>2016-06-13T16:14:02Z</time>
      </trkpt>
      <trkpt lat="42.364874985069036" lon="1.980943037196994">
        <ele>1916</ele>
        <time>2016-06-13T16:14:03Z</time>
      </trkpt>
      <trkpt lat="42.364792004227638" lon="1.980940019711852">
        <ele>1891</ele>
        <time>2016-06-13T16:15:38Z</time>
      </trkpt>
      <trkpt lat="42.364779012277722" lon="1.98093700222671">
        <ele>1895</ele>
        <time>2016-06-13T16:15:39Z</time>
      </trkpt>
      <trkpt lat="42.364714974537492" lon="1.980876987800002">
        <ele>1860</ele>
        <time>2016-06-13T16:15:45Z</time>
      </trkpt>
      <trkpt lat="42.364702988415956" lon="1.980866007506847">
        <ele>1876</ele>
        <time>2016-06-13T16:15:46Z</time>
      </trkpt>
      <trkpt lat="42.364680022001266" lon="1.980758970603347">
        <ele>1908</ele>
        <time>2016-06-13T16:15:53Z</time>
      </trkpt>
      <trkpt lat="42.364681027829647" lon="1.98074396699667">
        <ele>1814</ele>
        <time>2016-06-13T16:15:54Z</time>
      </trkpt>
      <trkpt lat="42.364692008122802" lon="1.980631984770298">
        <ele>1901</ele>
        <time>2016-06-13T16:16:00Z</time>
      </trkpt>
      <trkpt lat="42.364694019779563" lon="1.980610024183989">
        <ele>1902</ele>
        <time>2016-06-13T16:16:01Z</time>
      </trkpt>
      <trkpt lat="42.364698965102434" lon="1.980504998937249">
        <ele>1858</ele>
        <time>2016-06-13T16:16:06Z</time>
      </trkpt>
      <trkpt lat="42.364697959274054" lon="1.98048597201705">
        <ele>1871</ele>
        <time>2016-06-13T16:16:07Z</time>
      </trkpt>
      <trkpt lat="42.364699970930815" lon="1.980372983962297">
        <ele>1765</ele>
        <time>2016-06-13T16:16:14Z</time>
      </trkpt>
      <trkpt lat="42.364703994244337" lon="1.98035697452724">
        <ele>1809</ele>
        <time>2016-06-13T16:16:15Z</time>
      </trkpt>
      <trkpt lat="42.364722015336156" lon="1.980244992300868">
        <ele>1889</ele>
        <time>2016-06-13T16:16:21Z</time>
      </trkpt>
      <trkpt lat="42.364724026992917" lon="1.980226971209049">
        <ele>1890</ele>
        <time>2016-06-13T16:16:22Z</time>
      </trkpt>
      <trkpt lat="42.364746993407607" lon="1.980124041438103">
        <ele>1849</ele>
        <time>2016-06-13T16:16:27Z</time>
      </trkpt>
      <trkpt lat="42.364747999235988" lon="1.980100991204381">
        <ele>1861</ele>
        <time>2016-06-13T16:16:28Z</time>
      </trkpt>
      <trkpt lat="42.364740036427975" lon="1.979985991492868">
        <ele>1895</ele>
        <time>2016-06-13T16:16:33Z</time>
      </trkpt>
      <trkpt lat="42.364739030599594" lon="1.979960007593036">
        <ele>1905</ele>
        <time>2016-06-13T16:16:34Z</time>
      </trkpt>
      <trkpt lat="42.36473198980093" lon="1.979850959032774">
        <ele>1849</ele>
        <time>2016-06-13T16:16:39Z</time>
      </trkpt>
      <trkpt lat="42.36473198980093" lon="1.979827992618084">
        <ele>1857</ele>
        <time>2016-06-13T16:16:40Z</time>
      </trkpt>
      <trkpt lat="42.364730983972549" lon="1.97971198707819">
        <ele>1761</ele>
        <time>2016-06-13T16:16:45Z</time>
      </trkpt>
      <trkpt lat="42.364726960659027" lon="1.979688014835119">
        <ele>1804</ele>
        <time>2016-06-13T16:16:46Z</time>
      </trkpt>
      <trkpt lat="42.364711035043001" lon="1.979572009295225">
        <ele>1893</ele>
        <time>2016-06-13T16:16:51Z</time>
      </trkpt>
      <trkpt lat="42.364712040871382" lon="1.979549964889884">
        <ele>1900</ele>
        <time>2016-06-13T16:16:52Z</time>
      </trkpt>
      <trkpt lat="42.364714974537492" lon="1.979436976835132">
        <ele>1850</ele>
        <time>2016-06-13T16:16:57Z</time>
      </trkpt>
      <trkpt lat="42.364712962880731" lon="1.979413004592061">
        <ele>1872</ele>
        <time>2016-06-13T16:16:58Z</time>
      </trkpt>
      <trkpt lat="42.364695025607944" lon="1.979319965466857">
        <ele>1918</ele>
        <time>2016-06-13T16:17:02Z</time>
      </trkpt>
      <trkpt lat="42.364689996466041" lon="1.979294987395406">
        <ele>1920</ele>
        <time>2016-06-13T16:17:03Z</time>
      </trkpt>
      <trkpt lat="42.364697037264705" lon="1.979189040139318">
        <ele>1903</ele>
        <time>2016-06-13T16:17:08Z</time>
      </trkpt>
      <trkpt lat="42.364702988415956" lon="1.979172024875879">
        <ele>1904</ele>
        <time>2016-06-13T16:17:09Z</time>
      </trkpt>
      <trkpt lat="42.364695025607944" lon="1.979057025164366">
        <ele>1849</ele>
        <time>2016-06-13T16:17:15Z</time>
      </trkpt>
      <trkpt lat="42.364689996466041" lon="1.979026012122631">
        <ele>1869</ele>
        <time>2016-06-13T16:17:16Z</time>
      </trkpt>
      <trkpt lat="42.364679016172886" lon="1.978925010189414">
        <ele>1907</ele>
        <time>2016-06-13T16:17:21Z</time>
      </trkpt>
      <trkpt lat="42.364674992859364" lon="1.978905983269215">
        <ele>1906</ele>
        <time>2016-06-13T16:17:22Z</time>
      </trkpt>
      <trkpt lat="42.364659989252687" lon="1.978801041841507">
        <ele>1869</ele>
        <time>2016-06-13T16:17:28Z</time>
      </trkpt>
      <trkpt lat="42.364654960110784" lon="1.978771034628153">
        <ele>1880</ele>
        <time>2016-06-13T16:17:29Z</time>
      </trkpt>
      <trkpt lat="42.364643979817629" lon="1.978665003553033">
        <ele>1907</ele>
        <time>2016-06-13T16:17:33Z</time>
      </trkpt>
      <trkpt lat="42.364640962332487" lon="1.978642037138343">
        <ele>1909</ele>
        <time>2016-06-13T16:17:34Z</time>
      </trkpt>
      <trkpt lat="42.364620007574558" lon="1.978524019941688">
        <ele>1886</ele>
        <time>2016-06-13T16:17:39Z</time>
      </trkpt>
      <trkpt lat="42.364612966775894" lon="1.978500969707966">
        <ele>1897</ele>
        <time>2016-06-13T16:17:40Z</time>
      </trkpt>
      <trkpt lat="42.364582037553191" lon="1.978387981653214">
        <ele>1818</ele>
        <time>2016-06-13T16:17:45Z</time>
      </trkpt>
      <trkpt lat="42.364574996754527" lon="1.978366021066904">
        <ele>1849</ele>
        <time>2016-06-13T16:17:46Z</time>
      </trkpt>
      <trkpt lat="42.364539038389921" lon="1.978257978335023">
        <ele>1910</ele>
        <time>2016-06-13T16:17:51Z</time>
      </trkpt>
      <trkpt lat="42.364528980106115" lon="1.978238029405475">
        <ele>1913</ele>
        <time>2016-06-13T16:17:52Z</time>
      </trkpt>
      <trkpt lat="42.364487992599607" lon="1.978133004158735">
        <ele>1880</ele>
        <time>2016-06-13T16:17:57Z</time>
      </trkpt>
      <trkpt lat="42.364480029791594" lon="1.978111965581775">
        <ele>1888</ele>
        <time>2016-06-13T16:17:58Z</time>
      </trkpt>
      <trkpt lat="42.364452034235001" lon="1.978005012497306">
        <ele>1908</ele>
        <time>2016-06-13T16:18:02Z</time>
      </trkpt>
      <trkpt lat="42.364439964294434" lon="1.977975005283952">
        <ele>1911</ele>
        <time>2016-06-13T16:18:03Z</time>
      </trkpt>
      <trkpt lat="42.364405011758208" lon="1.977891018614173">
        <ele>1807</ele>
        <time>2016-06-13T16:18:06Z</time>
      </trkpt>
      <trkpt lat="42.364392019808292" lon="1.977862017229199">
        <ele>1830</ele>
        <time>2016-06-13T16:18:07Z</time>
      </trkpt>
      <trkpt lat="42.364342985674739" lon="1.977782975882292">
        <ele>1886</ele>
        <time>2016-06-13T16:18:10Z</time>
      </trkpt>
      <trkpt lat="42.364323958754539" lon="1.977765038609505">
        <ele>1903</ele>
        <time>2016-06-13T16:18:11Z</time>
      </trkpt>
      <trkpt lat="42.364262016490102" lon="1.977716004475951">
        <ele>1804</ele>
        <time>2016-06-13T16:18:14Z</time>
      </trkpt>
      <trkpt lat="42.364239972084761" lon="1.977708041667938">
        <ele>1860</ele>
        <time>2016-06-13T16:18:15Z</time>
      </trkpt>
      <trkpt lat="42.36415296792984" lon="1.977698989212513">
        <ele>1917</ele>
        <time>2016-06-13T16:18:19Z</time>
      </trkpt>
      <trkpt lat="42.364133019000292" lon="1.977705024182797">
        <ele>1923</ele>
        <time>2016-06-13T16:18:20Z</time>
      </trkpt>
      <trkpt lat="42.364053977653384" lon="1.977749029174447">
        <ele>1878</ele>
        <time>2016-06-13T16:18:26Z</time>
      </trkpt>
      <trkpt lat="42.364038974046707" lon="1.977751962840557">
        <ele>1886</ele>
        <time>2016-06-13T16:18:27Z</time>
      </trkpt>
      <trkpt lat="42.363967979326844" lon="1.977790016680956">
        <ele>1917</ele>
        <time>2016-06-13T16:18:32Z</time>
      </trkpt>
      <trkpt lat="42.363952975720167" lon="1.977792028337717">
        <ele>1920</ele>
        <time>2016-06-13T16:18:33Z</time>
      </trkpt>
      <trkpt lat="42.363865971565247" lon="1.977817006409168">
        <ele>1899</ele>
        <time>2016-06-13T16:18:39Z</time>
      </trkpt>
      <trkpt lat="42.363849962130189" lon="1.977821029722691">
        <ele>1908</ele>
        <time>2016-06-13T16:18:40Z</time>
      </trkpt>
      <trkpt lat="42.363774022087455" lon="1.977851958945394">
        <ele>1842</ele>
        <time>2016-06-13T16:18:45Z</time>
      </trkpt>
      <trkpt lat="42.363759018480778" lon="1.977856988087297">
        <ele>1863</ele>
        <time>2016-06-13T16:18:46Z</time>
      </trkpt>
      <trkpt lat="42.363677965477109" lon="1.977880038321018">
        <ele>1885</ele>
        <time>2016-06-13T16:18:51Z</time>
      </trkpt>
      <trkpt lat="42.363659022375941" lon="1.977882971987128">
        <ele>1897</ele>
        <time>2016-06-13T16:18:52Z</time>
      </trkpt>
      <trkpt lat="42.363573024049401" lon="1.977897975593805">
        <ele>1921</ele>
        <time>2016-06-13T16:18:57Z</time>
      </trkpt>
      <trkpt lat="42.363555002957582" lon="1.977900993078947">
        <ele>1819</ele>
        <time>2016-06-13T16:18:58Z</time>
      </trkpt>
      <trkpt lat="42.363470010459423" lon="1.977921025827527">
        <ele>1912</ele>
        <time>2016-06-13T16:19:03Z</time>
      </trkpt>
      <trkpt lat="42.363452995195985" lon="1.977924965322018">
        <ele>1915</ele>
        <time>2016-06-13T16:19:04Z</time>
      </trkpt>
      <trkpt lat="42.363380994647741" lon="1.977960001677275">
        <ele>1796</ele>
        <time>2016-06-13T16:19:08Z</time>
      </trkpt>
      <trkpt lat="42.363362973555923" lon="1.977968970313668">
        <ele>1820</ele>
        <time>2016-06-13T16:19:09Z</time>
      </trkpt>
      <trkpt lat="42.36329197883606" lon="1.978008029982448">
        <ele>1901</ele>
        <time>2016-06-13T16:19:13Z</time>
      </trkpt>
      <trkpt lat="42.363274041563272" lon="1.978023033589125">
        <ele>1909</ele>
        <time>2016-06-13T16:19:14Z</time>
      </trkpt>
      <trkpt lat="42.363195000216365" lon="1.978062009438872">
        <ele>1793</ele>
        <time>2016-06-13T16:19:18Z</time>
      </trkpt>
      <trkpt lat="42.363174967467785" lon="1.978071983903647">
        <ele>1830</ele>
        <time>2016-06-13T16:19:19Z</time>
      </trkpt>
      <trkpt lat="42.363103972747922" lon="1.978114983066917">
        <ele>1898</ele>
        <time>2016-06-13T16:19:23Z</time>
      </trkpt>
      <trkpt lat="42.363087041303515" lon="1.978123029693961">
        <ele>1907</ele>
        <time>2016-06-13T16:19:24Z</time>
      </trkpt>
      <trkpt lat="42.363001964986324" lon="1.978147001937032">
        <ele>1822</ele>
        <time>2016-06-13T16:19:29Z</time>
      </trkpt>
      <trkpt lat="42.362985033541918" lon="1.978150019422174">
        <ele>1844</ele>
        <time>2016-06-13T16:19:30Z</time>
      </trkpt>
      <trkpt lat="42.362898029386997" lon="1.978179020807147">
        <ele>1907</ele>
        <time>2016-06-13T16:19:36Z</time>
      </trkpt>
      <trkpt lat="42.362884031608701" lon="1.978188995271921">
        <ele>1912</ele>
        <time>2016-06-13T16:19:37Z</time>
      </trkpt>
      <trkpt lat="42.362801972776651" lon="1.978227971121669">
        <ele>1881</ele>
        <time>2016-06-13T16:19:43Z</time>
      </trkpt>
      <trkpt lat="42.362786969169974" lon="1.978238029405475">
        <ele>1892</ele>
        <time>2016-06-13T16:19:44Z</time>
      </trkpt>
      <trkpt lat="42.362700970843434" lon="1.9782729819417">
        <ele>1779</ele>
        <time>2016-06-13T16:19:49Z</time>
      </trkpt>
      <trkpt lat="42.362681021913886" lon="1.978278011083603">
        <ele>1803</ele>
        <time>2016-06-13T16:19:50Z</time>
      </trkpt>
      <trkpt lat="42.362596029415727" lon="1.978294020518661">
        <ele>1877</ele>
        <time>2016-06-13T16:19:54Z</time>
      </trkpt>
      <trkpt lat="42.362573985010386" lon="1.978300977498293">
        <ele>1890</ele>
        <time>2016-06-13T16:19:55Z</time>
      </trkpt>
      <trkpt lat="42.362507013604045" lon="1.978296032175422">
        <ele>1754</ele>
        <time>2016-06-13T16:19:58Z</time>
      </trkpt>
      <trkpt lat="42.362483041360974" lon="1.978289997205138">
        <ele>1803</ele>
        <time>2016-06-13T16:19:59Z</time>
      </trkpt>
      <trkpt lat="42.362399976700544" lon="1.978266024962068">
        <ele>1901</ele>
        <time>2016-06-13T16:20:03Z</time>
      </trkpt>
      <trkpt lat="42.362379021942616" lon="1.978265019133687">
        <ele>1912</ele>
        <time>2016-06-13T16:20:04Z</time>
      </trkpt>
      <trkpt lat="42.362297968938947" lon="1.978270970284939">
        <ele>1807</ele>
        <time>2016-06-13T16:20:08Z</time>
      </trkpt>
      <trkpt lat="42.362277014181018" lon="1.978268958628178">
        <ele>1833</ele>
        <time>2016-06-13T16:20:09Z</time>
      </trkpt>
      <trkpt lat="42.362195961177349" lon="1.978266024962068">
        <ele>1909</ele>
        <time>2016-06-13T16:20:13Z</time>
      </trkpt>
      <trkpt lat="42.362176012247801" lon="1.978263007476926">
        <ele>1919</ele>
        <time>2016-06-13T16:20:14Z</time>
      </trkpt>
      <trkpt lat="42.362096970900893" lon="1.978252027183771">
        <ele>1801</ele>
        <time>2016-06-13T16:20:18Z</time>
      </trkpt>
      <trkpt lat="42.362078027799726" lon="1.97825001552701">
        <ele>1842</ele>
        <time>2016-06-13T16:20:19Z</time>
      </trkpt>
      <trkpt lat="42.361991023644805" lon="1.978240041062236">
        <ele>1828</ele>
        <time>2016-06-13T16:20:24Z</time>
      </trkpt>
      <trkpt lat="42.361977025866508" lon="1.978245992213488">
        <ele>1855</ele>
        <time>2016-06-13T16:20:25Z</time>
      </trkpt>
      <trkpt lat="42.361892033368349" lon="1.978251021355391">
        <ele>1927</ele>
        <time>2016-06-13T16:20:31Z</time>
      </trkpt>
      <trkpt lat="42.361876023933291" lon="1.97825001552701">
        <ele>1930</ele>
        <time>2016-06-13T16:20:32Z</time>
      </trkpt>
      <trkpt lat="42.361793965101242" lon="1.978240041062236">
        <ele>1898</ele>
        <time>2016-06-13T16:20:37Z</time>
      </trkpt>
      <trkpt lat="42.361775022000074" lon="1.978240041062236">
        <ele>1910</ele>
        <time>2016-06-13T16:20:38Z</time>
      </trkpt>
      <trkpt lat="42.36170100979507" lon="1.978238029405475">
        <ele>1933</ele>
        <time>2016-06-13T16:20:42Z</time>
      </trkpt>
      <trkpt lat="42.36168198287487" lon="1.978238029405475">
        <ele>1937</ele>
        <time>2016-06-13T16:20:43Z</time>
      </trkpt>
      <trkpt lat="42.361597996205091" lon="1.978260995820165">
        <ele>1932</ele>
        <time>2016-06-13T16:20:48Z</time>
      </trkpt>
      <trkpt lat="42.361582992598414" lon="1.978268036618829">
        <ele>1935</ele>
        <time>2016-06-13T16:20:49Z</time>
      </trkpt>
      <trkpt lat="42.361514009535313" lon="1.978314975276589">
        <ele>1886</ele>
        <time>2016-06-13T16:20:54Z</time>
      </trkpt>
      <trkpt lat="42.361502023413777" lon="1.978325033560395">
        <ele>1916</ele>
        <time>2016-06-13T16:20:55Z</time>
      </trkpt>
      <trkpt lat="42.361472016200423" lon="1.978421006351709">
        <ele>1944</ele>
        <time>2016-06-13T16:21:01Z</time>
      </trkpt>
      <trkpt lat="42.361473022028804" lon="1.978440033271909">
        <ele>1946</ele>
        <time>2016-06-13T16:21:02Z</time>
      </trkpt>
      <trkpt lat="42.361503029242158" lon="1.9785510096699">
        <ele>1922</ele>
        <time>2016-06-13T16:21:08Z</time>
      </trkpt>
      <trkpt lat="42.361510992050171" lon="1.978568024933338">
        <ele>1928</ele>
        <time>2016-06-13T16:21:09Z</time>
      </trkpt>
      <trkpt lat="42.361567988991737" lon="1.978647988289595">
        <ele>1854</ele>
        <time>2016-06-13T16:21:15Z</time>
      </trkpt>
      <trkpt lat="42.361579975113273" lon="1.978657962754369">
        <ele>1882</ele>
        <time>2016-06-13T16:21:16Z</time>
      </trkpt>
      <trkpt lat="42.361666979268193" lon="1.97865997441113">
        <ele>1958</ele>
        <time>2016-06-13T16:23:51Z</time>
      </trkpt>
      <trkpt lat="42.361677037551999" lon="1.978657962754369">
        <ele>1957</ele>
        <time>2016-06-13T16:23:52Z</time>
      </trkpt>
      <trkpt lat="42.361761024221778" lon="1.978658968582749">
        <ele>1959</ele>
        <time>2016-06-13T16:24:02Z</time>
      </trkpt>
      <trkpt lat="42.361769992858171" lon="1.978655029088259">
        <ele>1960</ele>
        <time>2016-06-13T16:24:03Z</time>
      </trkpt>
      <trkpt lat="42.361850962042809" lon="1.978638013824821">
        <ele>1960</ele>
        <time>2016-06-13T16:24:11Z</time>
      </trkpt>
      <trkpt lat="42.361861020326614" lon="1.978638013824821">
        <ele>1960</ele>
        <time>2016-06-13T16:24:12Z</time>
      </trkpt>
      <trkpt lat="42.361949030309916" lon="1.97865704074502">
        <ele>1961</ele>
        <time>2016-06-13T16:24:18Z</time>
      </trkpt>
      <trkpt lat="42.361962022259831" lon="1.97865997441113">
        <ele>1960</ele>
        <time>2016-06-13T16:24:19Z</time>
      </trkpt>
      <trkpt lat="42.362042991444468" lon="1.978683024644852">
        <ele>1960</ele>
        <time>2016-06-13T16:24:27Z</time>
      </trkpt>
      <trkpt lat="42.362052965909243" lon="1.978686964139342">
        <ele>1960</ele>
        <time>2016-06-13T16:24:28Z</time>
      </trkpt>
      <trkpt lat="42.362134018912911" lon="1.978720994666219">
        <ele>1960</ele>
        <time>2016-06-13T16:24:36Z</time>
      </trkpt>
      <trkpt lat="42.362142987549305" lon="1.978720994666219">
        <ele>1960</ele>
        <time>2016-06-13T16:24:37Z</time>
      </trkpt>
      <trkpt lat="42.362230997532606" lon="1.978716971352696">
        <ele>1958</ele>
        <time>2016-06-13T16:24:46Z</time>
      </trkpt>
      <trkpt lat="42.362238960340619" lon="1.978720994666219">
        <ele>1959</ele>
        <time>2016-06-13T16:24:47Z</time>
      </trkpt>
      <trkpt lat="42.362309033051133" lon="1.978774974122644">
        <ele>1955</ele>
        <time>2016-06-13T16:24:55Z</time>
      </trkpt>
      <trkpt lat="42.362318001687527" lon="1.978778997436166">
        <ele>1955</ele>
        <time>2016-06-13T16:24:56Z</time>
      </trkpt>
      <trkpt lat="42.362394025549293" lon="1.978826019912958">
        <ele>1958</ele>
        <time>2016-06-13T16:25:09Z</time>
      </trkpt>
      <trkpt lat="42.362400982528925" lon="1.978828031569719">
        <ele>1958</ele>
        <time>2016-06-13T16:25:10Z</time>
      </trkpt>
      <trkpt lat="42.362483041360974" lon="1.978849992156029">
        <ele>1960</ele>
        <time>2016-06-13T16:25:17Z</time>
      </trkpt>
      <trkpt lat="42.36249603331089" lon="1.978855021297932">
        <ele>1960</ele>
        <time>2016-06-13T16:25:18Z</time>
      </trkpt>
      <trkpt lat="42.362580019980669" lon="1.978887962177396">
        <ele>1962</ele>
        <time>2016-06-13T16:25:48Z</time>
      </trkpt>
      <trkpt lat="42.362588988617063" lon="1.978891985490918">
        <ele>1963</ele>
        <time>2016-06-13T16:25:49Z</time>
      </trkpt>
      <trkpt lat="42.36266802996397" lon="1.978933978825808">
        <ele>1964</ele>
        <time>2016-06-13T16:25:57Z</time>
      </trkpt>
      <trkpt lat="42.362675992771983" lon="1.978936996310949">
        <ele>1962</ele>
        <time>2016-06-13T16:25:58Z</time>
      </trkpt>
      <trkpt lat="42.36275302246213" lon="1.978984018787742">
        <ele>1962</ele>
        <time>2016-06-13T16:26:08Z</time>
      </trkpt>
      <trkpt lat="42.362764002755284" lon="1.978985024616122">
        <ele>1964</ele>
        <time>2016-06-13T16:26:09Z</time>
      </trkpt>
      <trkpt lat="42.362847989425063" lon="1.978997010737658">
        <ele>1966</ele>
        <time>2016-06-13T16:26:16Z</time>
      </trkpt>
      <trkpt lat="42.362858969718218" lon="1.97900103405118">
        <ele>1967</ele>
        <time>2016-06-13T16:26:17Z</time>
      </trkpt>
      <trkpt lat="42.362943040207028" lon="1.979008996859193">
        <ele>1964</ele>
        <time>2016-06-13T16:26:25Z</time>
      </trkpt>
      <trkpt lat="42.362949997186661" lon="1.979007991030812">
        <ele>1965</ele>
        <time>2016-06-13T16:26:26Z</time>
      </trkpt>
      <trkpt lat="42.363023003563285" lon="1.979056019335985">
        <ele>1966</ele>
        <time>2016-06-13T16:26:38Z</time>
      </trkpt>
      <trkpt lat="42.36303498968482" lon="1.979062976315618">
        <ele>1967</ele>
        <time>2016-06-13T16:26:39Z</time>
      </trkpt>
      <trkpt lat="42.363107996061444" lon="1.979106981307268">
        <ele>1965</ele>
        <time>2016-06-13T16:26:45Z</time>
      </trkpt>
      <trkpt lat="42.36311998218298" lon="1.979114022105932">
        <ele>1967</ele>
        <time>2016-06-13T16:26:46Z</time>
      </trkpt>
      <trkpt lat="42.363187037408352" lon="1.979189962148666">
        <ele>1967</ele>
        <time>2016-06-13T16:26:55Z</time>
      </trkpt>
      <trkpt lat="42.363188965246081" lon="1.979192979633808">
        <ele>1968</ele>
        <time>2016-06-13T16:26:56Z</time>
      </trkpt>
      <trkpt lat="42.363214027136564" lon="1.979300016537309">
        <ele>1973</ele>
        <time>2016-06-13T16:27:05Z</time>
      </trkpt>
      <trkpt lat="42.363213021308184" lon="1.979309991002083">
        <ele>1974</ele>
        <time>2016-06-13T16:27:06Z</time>
      </trkpt>
      <trkpt lat="42.363179996609688" lon="1.979405963793397">
        <ele>1975</ele>
        <time>2016-06-13T16:27:13Z</time>
      </trkpt>
      <trkpt lat="42.363172033801675" lon="1.979422979056835">
        <ele>1975</ele>
        <time>2016-06-13T16:27:14Z</time>
      </trkpt>
      <trkpt lat="42.363101039081812" lon="1.979492967948318">
        <ele>1955</ele>
        <time>2016-06-13T16:27:21Z</time>
      </trkpt>
      <trkpt lat="42.363088969141245" lon="1.979494979605079">
        <ele>1960</ele>
        <time>2016-06-13T16:27:22Z</time>
      </trkpt>
      <trkpt lat="42.363002970814705" lon="1.979500008746982">
        <ele>1947</ele>
        <time>2016-06-13T16:27:29Z</time>
      </trkpt>
      <trkpt lat="42.362989978864789" lon="1.979499002918601">
        <ele>1954</ele>
        <time>2016-06-13T16:27:30Z</time>
      </trkpt>
      <trkpt lat="42.362902974709868" lon="1.979477964341641">
        <ele>1917</ele>
        <time>2016-06-13T16:27:37Z</time>
      </trkpt>
      <trkpt lat="42.362893000245094" lon="1.979467989876866">
        <ele>1928</ele>
        <time>2016-06-13T16:27:38Z</time>
      </trkpt>
      <trkpt lat="42.36281999386847" lon="1.979424990713596">
        <ele>1953</ele>
        <time>2016-06-13T16:27:44Z</time>
      </trkpt>
      <trkpt lat="42.362805996090174" lon="1.979421973228455">
        <ele>1800</ele>
        <time>2016-06-13T16:27:45Z</time>
      </trkpt>
      <trkpt lat="42.362717986106873" lon="1.979395989328623">
        <ele>1940</ele>
        <time>2016-06-13T16:27:52Z</time>
      </trkpt>
      <trkpt lat="42.362707005813718" lon="1.97939096018672">
        <ele>1942</ele>
        <time>2016-06-13T16:27:53Z</time>
      </trkpt>
      <trkpt lat="42.362617990002036" lon="1.979379979893565">
        <ele>1912</ele>
        <time>2016-06-13T16:28:00Z</time>
      </trkpt>
      <trkpt lat="42.362606003880501" lon="1.979384003207088">
        <ele>1918</ele>
        <time>2016-06-13T16:28:01Z</time>
      </trkpt>
      <trkpt lat="42.362526962533593" lon="1.979409987106919">
        <ele>1948</ele>
        <time>2016-06-13T16:28:10Z</time>
      </trkpt>
      <trkpt lat="42.362514976412058" lon="1.9794109929353">
        <ele>1955</ele>
        <time>2016-06-13T16:28:11Z</time>
      </trkpt>
      <trkpt lat="42.362425038591027" lon="1.979424990713596">
        <ele>1938</ele>
        <time>2016-06-13T16:28:19Z</time>
      </trkpt>
      <trkpt lat="42.36241196282208" lon="1.979427002370358">
        <ele>1944</ele>
        <time>2016-06-13T16:28:20Z</time>
      </trkpt>
      <trkpt lat="42.36232596449554" lon="1.979454997926951">
        <ele>1938</ele>
        <time>2016-06-13T16:28:27Z</time>
      </trkpt>
      <trkpt lat="42.362314984202385" lon="1.979457009583712">
        <ele>1946</ele>
        <time>2016-06-13T16:28:28Z</time>
      </trkpt>
      <trkpt lat="42.362225968390703" lon="1.979477964341641">
        <ele>1913</ele>
        <time>2016-06-13T16:28:36Z</time>
      </trkpt>
      <trkpt lat="42.362215993925929" lon="1.979480981826782">
        <ele>1930</ele>
        <time>2016-06-13T16:28:37Z</time>
      </trkpt>
      <trkpt lat="42.362142987549305" lon="1.979550970718265">
        <ele>1942</ele>
        <time>2016-06-13T16:28:47Z</time>
      </trkpt>
      <trkpt lat="42.362133013084531" lon="1.979557005688548">
        <ele>1951</ele>
        <time>2016-06-13T16:28:48Z</time>
      </trkpt>
      <trkpt lat="42.362062018364668" lon="1.979611990973353">
        <ele>1939</ele>
        <time>2016-06-13T16:28:56Z</time>
      </trkpt>
      <trkpt lat="42.362051960080862" lon="1.979619031772018">
        <ele>1949</ele>
        <time>2016-06-13T16:28:57Z</time>
      </trkpt>
      <trkpt lat="42.361977025866508" lon="1.979679968208075">
        <ele>1917</ele>
        <time>2016-06-13T16:29:06Z</time>
      </trkpt>
      <trkpt lat="42.361967973411083" lon="1.979681979864836">
        <ele>1937</ele>
        <time>2016-06-13T16:29:07Z</time>
      </trkpt>
      <trkpt lat="42.361889015883207" lon="1.979729002341628">
        <ele>1968</ele>
        <time>2016-06-13T16:29:15Z</time>
      </trkpt>
      <trkpt lat="42.361880969256163" lon="1.979735959321261">
        <ele>1970</ele>
        <time>2016-06-13T16:29:16Z</time>
      </trkpt>
      <trkpt lat="42.36180704087019" lon="1.979780970141292">
        <ele>1883</ele>
        <time>2016-06-13T16:29:24Z</time>
      </trkpt>
      <trkpt lat="42.361796982586384" lon="1.979789016768336">
        <ele>1909</ele>
        <time>2016-06-13T16:29:25Z</time>
      </trkpt>
      <trkpt lat="42.361722970381379" lon="1.979855988174677">
        <ele>1978</ele>
        <time>2016-06-13T16:29:34Z</time>
      </trkpt>
      <trkpt lat="42.361716013401747" lon="1.979863028973341">
        <ele>1915</ele>
        <time>2016-06-13T16:29:35Z</time>
      </trkpt>
      <trkpt lat="42.361663039773703" lon="1.979955984279513">
        <ele>1954</ele>
        <time>2016-06-13T16:29:45Z</time>
      </trkpt>
      <trkpt lat="42.361660022288561" lon="1.979966964572668">
        <ele>1962</ele>
        <time>2016-06-13T16:29:46Z</time>
      </trkpt>
      <trkpt lat="42.361625991761684" lon="1.980074001476169">
        <ele>1934</ele>
        <time>2016-06-13T16:29:55Z</time>
      </trkpt>
      <trkpt lat="42.361623980104923" lon="1.980084981769323">
        <ele>1952</ele>
        <time>2016-06-13T16:29:56Z</time>
      </trkpt>
      <trkpt lat="42.361599002033472" lon="1.980181960389018">
        <ele>1955</ele>
        <time>2016-06-13T16:30:19Z</time>
      </trkpt>
      <trkpt lat="42.361591961234808" lon="1.980200987309218">
        <ele>1963</ele>
        <time>2016-06-13T16:30:20Z</time>
      </trkpt>
      <trkpt lat="42.361563965678215" lon="1.980311963707209">
        <ele>1959</ele>
        <time>2016-06-13T16:30:26Z</time>
      </trkpt>
      <trkpt lat="42.361567988991737" lon="1.980327973142266">
        <ele>1966</ele>
        <time>2016-06-13T16:30:27Z</time>
      </trkpt>
      <trkpt lat="42.36153001897037" lon="1.98042000643909">
        <ele>1982</ele>
        <time>2016-06-13T16:30:44Z</time>
      </trkpt>
      <trkpt lat="42.361522978171706" lon="1.980434004217386">
        <ele>1918</ele>
        <time>2016-06-13T16:30:45Z</time>
      </trkpt>
      <trkpt lat="42.3614870198071" lon="1.98052897118032">
        <ele>1979</ele>
        <time>2016-06-13T16:30:51Z</time>
      </trkpt>
      <trkpt lat="42.361481990665197" lon="1.980543974786997">
        <ele>1981</ele>
        <time>2016-06-13T16:30:52Z</time>
      </trkpt>
      <trkpt lat="42.361435974016786" lon="1.980630978941917">
        <ele>1975</ele>
        <time>2016-06-13T16:30:58Z</time>
      </trkpt>
      <trkpt lat="42.361429017037153" lon="1.980645982548595">
        <ele>1978</ele>
        <time>2016-06-13T16:30:59Z</time>
      </trkpt>
      <trkpt lat="42.361375037580729" lon="1.98074203915894">
        <ele>1950</ele>
        <time>2016-06-13T16:31:06Z</time>
      </trkpt>
      <trkpt lat="42.361365985125303" lon="1.980754025280476">
        <ele>1962</ele>
        <time>2016-06-13T16:31:07Z</time>
      </trkpt>
      <trkpt lat="42.36131401732564" lon="1.980832982808352">
        <ele>1983</ele>
        <time>2016-06-13T16:31:13Z</time>
      </trkpt>
      <trkpt lat="42.361304964870214" lon="1.980846980586648">
        <ele>1984</ele>
        <time>2016-06-13T16:31:14Z</time>
      </trkpt>
      <trkpt lat="42.361275041475892" lon="1.980942031368613">
        <ele>1984</ele>
        <time>2016-06-13T16:31:32Z</time>
      </trkpt>
      <trkpt lat="42.361263977363706" lon="1.98095602914691">
        <ele>1985</ele>
        <time>2016-06-13T16:31:33Z</time>
      </trkpt>
      <trkpt lat="42.361209997907281" lon="1.981038004159927">
        <ele>1986</ele>
        <time>2016-06-13T16:31:39Z</time>
      </trkpt>
      <trkpt lat="42.361201029270887" lon="1.981048984453082">
        <ele>1987</ele>
        <time>2016-06-13T16:31:40Z</time>
      </trkpt>
      <trkpt lat="42.361139003187418" lon="1.981117967516184">
        <ele>1987</ele>
        <time>2016-06-13T16:31:46Z</time>
      </trkpt>
      <trkpt lat="42.361128022894263" lon="1.981130037456751">
        <ele>1988</ele>
        <time>2016-06-13T16:31:47Z</time>
      </trkpt>
      <trkpt lat="42.361071025952697" lon="1.981205977499485">
        <ele>1991</ele>
        <time>2016-06-13T16:31:53Z</time>
      </trkpt>
      <trkpt lat="42.361061973497272" lon="1.98121796362102">
        <ele>1992</ele>
        <time>2016-06-13T16:31:54Z</time>
      </trkpt>
      <trkpt lat="42.360996007919312" lon="1.981289964169264">
        <ele>1993</ele>
        <time>2016-06-13T16:32:01Z</time>
      </trkpt>
      <trkpt lat="42.360987961292267" lon="1.98130002245307">
        <ele>1993</ele>
        <time>2016-06-13T16:32:02Z</time>
      </trkpt>
      <trkpt lat="42.360936999320984" lon="1.981392977759242">
        <ele>1994</ele>
        <time>2016-06-13T16:32:10Z</time>
      </trkpt>
      <trkpt lat="42.360931970179081" lon="1.981404041871429">
        <ele>1994</ele>
        <time>2016-06-13T16:32:11Z</time>
      </trkpt>
      <trkpt lat="42.360866004601121" lon="1.98147595860064">
        <ele>1995</ele>
        <time>2016-06-13T16:32:19Z</time>
      </trkpt>
      <trkpt lat="42.360856030136347" lon="1.981481993570924">
        <ele>1995</ele>
        <time>2016-06-13T16:32:20Z</time>
      </trkpt>
      <trkpt lat="42.360784029588103" lon="1.981547959148884">
        <ele>1995</ele>
        <time>2016-06-13T16:32:27Z</time>
      </trkpt>
      <trkpt lat="42.360774977132678" lon="1.98155801743269">
        <ele>1995</ele>
        <time>2016-06-13T16:32:28Z</time>
      </trkpt>
      <trkpt lat="42.360710017383099" lon="1.981627000495791">
        <ele>1988</ele>
        <time>2016-06-13T16:32:36Z</time>
      </trkpt>
      <trkpt lat="42.360701970756054" lon="1.981635969132185">
        <ele>1989</ele>
        <time>2016-06-13T16:32:37Z</time>
      </trkpt>
      <trkpt lat="42.360642040148377" lon="1.981706041842699">
        <ele>1983</ele>
        <time>2016-06-13T16:32:44Z</time>
      </trkpt>
      <trkpt lat="42.360632987692952" lon="1.981718027964234">
        <ele>1986</ele>
        <time>2016-06-13T16:32:45Z</time>
      </trkpt>
      <trkpt lat="42.360581019893289" lon="1.981808971613646">
        <ele>1975</ele>
        <time>2016-06-13T16:32:52Z</time>
      </trkpt>
      <trkpt lat="42.360574984923005" lon="1.981821963563561">
        <ele>1980</ele>
        <time>2016-06-13T16:32:53Z</time>
      </trkpt>
      <trkpt lat="42.360598035156727" lon="1.981923971325159">
        <ele>1990</ele>
        <time>2016-06-13T16:33:00Z</time>
      </trkpt>
      <trkpt lat="42.360600968822837" lon="1.981940986588597">
        <ele>1992</ele>
        <time>2016-06-13T16:33:01Z</time>
      </trkpt>
      <trkpt lat="42.360617984086275" lon="1.982049029320478">
        <ele>1987</ele>
        <time>2016-06-13T16:33:08Z</time>
      </trkpt>
      <trkpt lat="42.360623013228178" lon="1.982062021270394">
        <ele>1990</ele>
        <time>2016-06-13T16:33:09Z</time>
      </trkpt>
      <trkpt lat="42.360687972977757" lon="1.98213703930378">
        <ele>1993</ele>
        <time>2016-06-13T16:33:20Z</time>
      </trkpt>
      <trkpt lat="42.360697025433183" lon="1.982143996283412">
        <ele>1995</ele>
        <time>2016-06-13T16:33:21Z</time>
      </trkpt>
      <trkpt lat="42.360768020153046" lon="1.982217002660036">
        <ele>2003</ele>
        <time>2016-06-13T16:33:29Z</time>
      </trkpt>
      <trkpt lat="42.360771959647536" lon="1.982227982953191">
        <ele>2003</ele>
        <time>2016-06-13T16:33:30Z</time>
      </trkpt>
      <trkpt lat="42.360816970467567" lon="1.982325967401266">
        <ele>1997</ele>
        <time>2016-06-13T16:34:51Z</time>
      </trkpt>
      <trkpt lat="42.360819987952709" lon="1.982338037341833">
        <ele>1998</ele>
        <time>2016-06-13T16:34:52Z</time>
      </trkpt>
      <trkpt lat="42.360791992396116" lon="1.982222031801939">
        <ele>2003</ele>
        <time>2016-06-13T16:38:48Z</time>
      </trkpt>
      <trkpt lat="42.360789980739355" lon="1.982222031801939">
        <ele>2003</ele>
        <time>2016-06-13T16:38:49Z</time>
      </trkpt>
      <trkpt lat="42.360804984346032" lon="1.982339965179563">
        <ele>2003</ele>
        <time>2016-06-13T16:42:37Z</time>
      </trkpt>
      <trkpt lat="42.360806996002793" lon="1.98235496878624">
        <ele>2003</ele>
        <time>2016-06-13T16:42:38Z</time>
      </trkpt>
      <trkpt lat="42.36080096103251" lon="1.982472985982895">
        <ele>2005</ele>
        <time>2016-06-13T16:42:45Z</time>
      </trkpt>
      <trkpt lat="42.36080196686089" lon="1.982488995417953">
        <ele>2005</ele>
        <time>2016-06-13T16:42:46Z</time>
      </trkpt>
      <trkpt lat="42.360814036801457" lon="1.982607012614608">
        <ele>2007</ele>
        <time>2016-06-13T16:42:53Z</time>
      </trkpt>
      <trkpt lat="42.360810013487935" lon="1.982625033706427">
        <ele>2007</ele>
        <time>2016-06-13T16:42:54Z</time>
      </trkpt>
      <trkpt lat="42.36079903319478" lon="1.982737015932798">
        <ele>2006</ele>
        <time>2016-06-13T16:43:00Z</time>
      </trkpt>
      <trkpt lat="42.36080096103251" lon="1.982755037024617">
        <ele>2006</ele>
        <time>2016-06-13T16:43:01Z</time>
      </trkpt>
      <trkpt lat="42.360811019316316" lon="1.982870036736131">
        <ele>1993</ele>
        <time>2016-06-13T16:43:08Z</time>
      </trkpt>
      <trkpt lat="42.360816970467567" lon="1.982885040342808">
        <ele>1996</ele>
        <time>2016-06-13T16:43:09Z</time>
      </trkpt>
      <trkpt lat="42.360862987115979" lon="1.9829769898206">
        <ele>1982</ele>
        <time>2016-06-13T16:43:16Z</time>
      </trkpt>
      <trkpt lat="42.360872039571404" lon="1.982986964285374">
        <ele>1989</ele>
        <time>2016-06-13T16:43:17Z</time>
      </trkpt>
      <trkpt lat="42.360943034291267" lon="1.983042033389211">
        <ele>2003</ele>
        <time>2016-06-13T16:43:24Z</time>
      </trkpt>
      <trkpt lat="42.360953008756042" lon="1.983048990368843">
        <ele>2003</ele>
        <time>2016-06-13T16:43:25Z</time>
      </trkpt>
      <trkpt lat="42.361001959070563" lon="1.983131971210241">
        <ele>2004</ele>
        <time>2016-06-13T16:43:32Z</time>
      </trkpt>
      <trkpt lat="42.361002964898944" lon="1.983150998130441">
        <ele>2004</ele>
        <time>2016-06-13T16:43:33Z</time>
      </trkpt>
      <trkpt lat="42.361022997647524" lon="1.983239008113742">
        <ele>2003</ele>
        <time>2016-06-13T16:43:37Z</time>
      </trkpt>
      <trkpt lat="42.361033977940679" lon="1.983267003670335">
        <ele>2004</ele>
        <time>2016-06-13T16:43:38Z</time>
      </trkpt>
      <trkpt lat="42.361086029559374" lon="1.983356019482017">
        <ele>1973</ele>
        <time>2016-06-13T16:43:42Z</time>
      </trkpt>
      <trkpt lat="42.36110002733767" lon="1.983374962583184">
        <ele>1982</ele>
        <time>2016-06-13T16:43:43Z</time>
      </trkpt>
      <trkpt lat="42.361146965995431" lon="1.983474958688021">
        <ele>1998</ele>
        <time>2016-06-13T16:43:48Z</time>
      </trkpt>
      <trkpt lat="42.361144032329321" lon="1.983498008921742">
        <ele>1999</ele>
        <time>2016-06-13T16:43:49Z</time>
      </trkpt>
      <trkpt lat="42.361141014844179" lon="1.983609991148114">
        <ele>2002</ele>
        <time>2016-06-13T16:43:54Z</time>
      </trkpt>
      <trkpt lat="42.361145038157701" lon="1.983626000583172">
        <ele>2002</ele>
        <time>2016-06-13T16:43:55Z</time>
      </trkpt>
      <trkpt lat="42.361175967380404" lon="1.983721973374486">
        <ele>1988</ele>
        <time>2016-06-13T16:44:00Z</time>
      </trkpt>
      <trkpt lat="42.36118602566421" lon="1.98374804109335">
        <ele>1993</ele>
        <time>2016-06-13T16:44:01Z</time>
      </trkpt>
      <trkpt lat="42.361223995685577" lon="1.983853988349438">
        <ele>2000</ele>
        <time>2016-06-13T16:44:05Z</time>
      </trkpt>
      <trkpt lat="42.361232964321971" lon="1.98387997224927">
        <ele>1932</ele>
        <time>2016-06-13T16:44:06Z</time>
      </trkpt>
      <trkpt lat="42.361277975142002" lon="1.983977034687996">
        <ele>1990</ele>
        <time>2016-06-13T16:44:10Z</time>
      </trkpt>
      <trkpt lat="42.361288033425808" lon="1.984000001102686">
        <ele>1994</ele>
        <time>2016-06-13T16:44:11Z</time>
      </trkpt>
      <trkpt lat="42.361341007053852" lon="1.984079964458942">
        <ele>1963</ele>
        <time>2016-06-13T16:44:17Z</time>
      </trkpt>
      <trkpt lat="42.361347964033484" lon="1.984096979722381">
        <ele>1977</ele>
        <time>2016-06-13T16:44:18Z</time>
      </trkpt>
      <trkpt lat="42.361373025923967" lon="1.984204016625881">
        <ele>1985</ele>
        <time>2016-06-13T16:44:23Z</time>
      </trkpt>
      <trkpt lat="42.361374031752348" lon="1.98422497138381">
        <ele>1944</ele>
        <time>2016-06-13T16:44:24Z</time>
      </trkpt>
      <trkpt lat="42.361371014267206" lon="1.98433100245893">
        <ele>1996</ele>
        <time>2016-06-13T16:44:29Z</time>
      </trkpt>
      <trkpt lat="42.361374031752348" lon="1.98435103520751">
        <ele>1998</ele>
        <time>2016-06-13T16:44:30Z</time>
      </trkpt>
      <trkpt lat="42.361390963196754" lon="1.984451031312347">
        <ele>1967</ele>
        <time>2016-06-13T16:44:35Z</time>
      </trkpt>
      <trkpt lat="42.361394986510277" lon="1.984470980241895">
        <ele>1980</ele>
        <time>2016-06-13T16:44:36Z</time>
      </trkpt>
      <trkpt lat="42.36144301481545" lon="1.984569970518351">
        <ele>1970</ele>
        <time>2016-06-13T16:45:15Z</time>
      </trkpt>
      <trkpt lat="42.361446032300591" lon="1.984581034630537">
        <ele>1982</ele>
        <time>2016-06-13T16:45:16Z</time>
      </trkpt>
      <trkpt lat="42.361477967351675" lon="1.984686981886625">
        <ele>1995</ele>
        <time>2016-06-13T16:45:27Z</time>
      </trkpt>
      <trkpt lat="42.361480984836817" lon="1.984696034342051">
        <ele>1998</ele>
        <time>2016-06-13T16:45:28Z</time>
      </trkpt>
      <trkpt lat="42.361519038677216" lon="1.984802987426519">
        <ele>2003</ele>
        <time>2016-06-13T16:45:41Z</time>
      </trkpt>
      <trkpt lat="42.361523984000087" lon="1.984810028225184">
        <ele>2005</ele>
        <time>2016-06-13T16:45:42Z</time>
      </trkpt>
      <trkpt lat="42.361566983163357" lon="1.984906001016498">
        <ele>1960</ele>
        <time>2016-06-13T16:45:55Z</time>
      </trkpt>
      <trkpt lat="42.361571006476879" lon="1.984915975481272">
        <ele>1977</ele>
        <time>2016-06-13T16:45:56Z</time>
      </trkpt>
      <trkpt lat="42.361603025346994" lon="1.985016977414489">
        <ele>1979</ele>
        <time>2016-06-13T16:46:06Z</time>
      </trkpt>
      <trkpt lat="42.361605959013104" lon="1.985029969364405">
        <ele>1990</ele>
        <time>2016-06-13T16:46:07Z</time>
      </trkpt>
      <trkpt lat="42.361672008410096" lon="1.985093001276255">
        <ele>1993</ele>
        <time>2016-06-13T16:46:17Z</time>
      </trkpt>
      <trkpt lat="42.361678965389729" lon="1.985099958255887">
        <ele>2000</ele>
        <time>2016-06-13T16:46:18Z</time>
      </trkpt>
      <trkpt lat="42.361719030886889" lon="1.985205989331007">
        <ele>1995</ele>
        <time>2016-06-13T16:47:07Z</time>
      </trkpt>
      <trkpt lat="42.361720958724618" lon="1.985218981280923">
        <ele>2001</ele>
        <time>2016-06-13T16:47:08Z</time>
      </trkpt>
      <trkpt lat="42.361748032271862" lon="1.985331969335675">
        <ele>2009</ele>
        <time>2016-06-13T16:47:20Z</time>
      </trkpt>
      <trkpt lat="42.361752977594733" lon="1.985341021791101">
        <ele>2011</ele>
        <time>2016-06-13T16:47:21Z</time>
      </trkpt>
      <trkpt lat="42.361786002293229" lon="1.985444035381079">
        <ele>1998</ele>
        <time>2016-06-13T16:47:26Z</time>
      </trkpt>
      <trkpt lat="42.361794970929623" lon="1.985477982088924">
        <ele>2004</ele>
        <time>2016-06-13T16:47:27Z</time>
      </trkpt>
      <trkpt lat="42.361802011728287" lon="1.985576972365379">
        <ele>2012</ele>
        <time>2016-06-13T16:47:30Z</time>
      </trkpt>
      <trkpt lat="42.361800000071526" lon="1.985608991235495">
        <ele>2013</ele>
        <time>2016-06-13T16:47:31Z</time>
      </trkpt>
      <trkpt lat="42.361860014498234" lon="1.985697001218796">
        <ele>1990</ele>
        <time>2016-06-13T16:47:35Z</time>
      </trkpt>
      <trkpt lat="42.361863031983376" lon="1.985724996775389">
        <ele>1999</ele>
        <time>2016-06-13T16:47:36Z</time>
      </trkpt>
      <trkpt lat="42.361807962879539" lon="1.985790962353349">
        <ele>2013</ele>
        <time>2016-06-13T16:47:40Z</time>
      </trkpt>
      <trkpt lat="42.361793965101242" lon="1.985806971788406">
        <ele>2015</ele>
        <time>2016-06-13T16:47:41Z</time>
      </trkpt>
      <trkpt lat="42.361848028376698" lon="1.985889030620456">
        <ele>2015</ele>
        <time>2016-06-13T16:47:50Z</time>
      </trkpt>
      <trkpt lat="42.361865965649486" lon="1.985891964286566">
        <ele>2017</ele>
        <time>2016-06-13T16:47:51Z</time>
      </trkpt>
      <trkpt lat="42.361952969804406" lon="1.985905040055513">
        <ele>1996</ele>
        <time>2016-06-13T16:47:56Z</time>
      </trkpt>
      <trkpt lat="42.361969985067844" lon="1.985907973721623">
        <ele>2002</ele>
        <time>2016-06-13T16:47:57Z</time>
      </trkpt>
      <trkpt lat="42.362048020586371" lon="1.985922977328301">
        <ele>2016</ele>
        <time>2016-06-13T16:48:02Z</time>
      </trkpt>
      <trkpt lat="42.362062018364668" lon="1.985925994813442">
        <ele>2018</ele>
        <time>2016-06-13T16:48:03Z</time>
      </trkpt>
      <trkpt lat="42.36213100142777" lon="1.985967988148332">
        <ele>2013</ele>
        <time>2016-06-13T16:48:08Z</time>
      </trkpt>
      <trkpt lat="42.362142987549305" lon="1.985986009240151">
        <ele>2016</ele>
        <time>2016-06-13T16:48:09Z</time>
      </trkpt>
      <trkpt lat="42.362172994762659" lon="1.986077958717942">
        <ele>2022</ele>
        <time>2016-06-13T16:48:13Z</time>
      </trkpt>
      <trkpt lat="42.362177018076181" lon="1.986102014780045">
        <ele>1982</ele>
        <time>2016-06-13T16:48:14Z</time>
      </trkpt>
      <trkpt lat="42.362208031117916" lon="1.986194970086217">
        <ele>2015</ele>
        <time>2016-06-13T16:48:18Z</time>
      </trkpt>
      <trkpt lat="42.36221699975431" lon="1.986217014491558">
        <ele>2017</ele>
        <time>2016-06-13T16:48:19Z</time>
      </trkpt>
      <trkpt lat="42.362222028896213" lon="1.986336037516594">
        <ele>1998</ele>
        <time>2016-06-13T16:48:25Z</time>
      </trkpt>
      <trkpt lat="42.362212976440787" lon="1.986356992274523">
        <ele>2007</ele>
        <time>2016-06-13T16:48:26Z</time>
      </trkpt>
      <trkpt lat="42.36215103417635" lon="1.986439973115921">
        <ele>2023</ele>
        <time>2016-06-13T16:48:31Z</time>
      </trkpt>
      <trkpt lat="42.362137036398053" lon="1.986454976722598">
        <ele>2025</ele>
        <time>2016-06-13T16:48:32Z</time>
      </trkpt>
      <trkpt lat="42.362051960080862" lon="1.986472997814417">
        <ele>2029</ele>
        <time>2016-06-13T16:48:37Z</time>
      </trkpt>
      <trkpt lat="42.362037040293217" lon="1.986461011692882">
        <ele>2029</ele>
        <time>2016-06-13T16:48:38Z</time>
      </trkpt>
      <trkpt lat="42.36196001060307" lon="1.986427986994386">
        <ele>2031</ele>
        <time>2016-06-13T16:48:43Z</time>
      </trkpt>
      <trkpt lat="42.361949030309916" lon="1.986423041671515">
        <ele>2031</ele>
        <time>2016-06-13T16:48:44Z</time>
      </trkpt>
      <trkpt lat="42.361941989511251" lon="1.986531000584364">
        <ele>2017</ele>
        <time>2016-06-13T16:50:20Z</time>
      </trkpt>
      <trkpt lat="42.36193897202611" lon="1.986546004191041">
        <ele>2020</ele>
        <time>2016-06-13T16:50:21Z</time>
      </trkpt>
      <trkpt lat="42.361908964812756" lon="1.986654968932271">
        <ele>2014</ele>
        <time>2016-06-13T16:50:28Z</time>
      </trkpt>
      <trkpt lat="42.361902007833123" lon="1.986669972538948">
        <ele>2018</ele>
        <time>2016-06-13T16:50:29Z</time>
      </trkpt>
      <trkpt lat="42.361848028376698" lon="1.986751025542617">
        <ele>1990</ele>
        <time>2016-06-13T16:50:35Z</time>
      </trkpt>
      <trkpt lat="42.361840987578034" lon="1.986768962815404">
        <ele>2003</ele>
        <time>2016-06-13T16:50:36Z</time>
      </trkpt>
      <trkpt lat="42.361805029213428" lon="1.986879017204046">
        <ele>2027</ele>
        <time>2016-06-13T16:50:43Z</time>
      </trkpt>
      <trkpt lat="42.36181098036468" lon="1.986894020810723">
        <ele>2029</ele>
        <time>2016-06-13T16:50:44Z</time>
      </trkpt>
      <trkpt lat="42.361829001456499" lon="1.987003991380334">
        <ele>2016</ele>
        <time>2016-06-13T16:50:50Z</time>
      </trkpt>
      <trkpt lat="42.361827995628119" lon="1.987022012472153">
        <ele>2020</ele>
        <time>2016-06-13T16:50:51Z</time>
      </trkpt>
      <trkpt lat="42.361815003678203" lon="1.987129971385002">
        <ele>2013</ele>
        <time>2016-06-13T16:50:57Z</time>
      </trkpt>
      <trkpt lat="42.361813997849822" lon="1.987147992476821">
        <ele>2018</ele>
        <time>2016-06-13T16:50:58Z</time>
      </trkpt>
      <trkpt lat="42.361817015334964" lon="1.98725301772356">
        <ele>2029</ele>
        <time>2016-06-13T16:51:04Z</time>
      </trkpt>
      <trkpt lat="42.361807962879539" lon="1.987269027158618">
        <ele>1963</ele>
        <time>2016-06-13T16:51:05Z</time>
      </trkpt>
      <trkpt lat="42.361740991473198" lon="1.987347984686494">
        <ele>1998</ele>
        <time>2016-06-13T16:51:10Z</time>
      </trkpt>
      <trkpt lat="42.361731017008424" lon="1.987364999949932">
        <ele>2008</ele>
        <time>2016-06-13T16:51:11Z</time>
      </trkpt>
      <trkpt lat="42.361688017845154" lon="1.987450998276472">
        <ele>2026</ele>
        <time>2016-06-13T16:51:16Z</time>
      </trkpt>
      <trkpt lat="42.361677037551999" lon="1.98746801353991">
        <ele>2027</ele>
        <time>2016-06-13T16:51:17Z</time>
      </trkpt>
      <trkpt lat="42.361605959013104" lon="1.98753297328949">
        <ele>2015</ele>
        <time>2016-06-13T16:51:22Z</time>
      </trkpt>
      <trkpt lat="42.361590033397079" lon="1.987548982724547">
        <ele>2020</ele>
        <time>2016-06-13T16:51:23Z</time>
      </trkpt>
      <trkpt lat="42.361536975950003" lon="1.98761897161603">
        <ele>2013</ele>
        <time>2016-06-13T16:51:27Z</time>
      </trkpt>
      <trkpt lat="42.361527001485229" lon="1.987635986879468">
        <ele>2018</ele>
        <time>2016-06-13T16:51:28Z</time>
      </trkpt>
      <trkpt lat="42.361467992886901" lon="1.987713016569614">
        <ele>2029</ele>
        <time>2016-06-13T16:51:33Z</time>
      </trkpt>
      <trkpt lat="42.361456006765366" lon="1.987728020176292">
        <ele>1968</ele>
        <time>2016-06-13T16:51:34Z</time>
      </trkpt>
      <trkpt lat="42.361449971795082" lon="1.987728020176292">
        <ele>1977.1669999999999</ele>
        <time>2012-06-22T09:33:40Z</time>
      </trkpt>
      <trkpt lat="42.361506968736649" lon="1.98789699934423">
        <ele>1977.664</ele>
        <time>2012-06-22T09:33:50Z</time>
      </trkpt>
      <trkpt lat="42.361561032012105" lon="1.988020967692137">
        <ele>1978.1210000000001</ele>
        <time>2012-06-22T09:33:58Z</time>
      </trkpt>
      <trkpt lat="42.361579975113273" lon="1.988177038729191">
        <ele>1979.0419999999999</ele>
        <time>2012-06-22T09:34:06Z</time>
      </trkpt>
      <trkpt lat="42.361609982326627" lon="1.98839102871716">
        <ele>1980.0899999999999</ele>
        <time>2012-06-22T09:34:17Z</time>
      </trkpt>
      <trkpt lat="42.361648958176374" lon="1.988575011491776">
        <ele>1980.9159999999999</ele>
        <time>2012-06-22T09:34:26Z</time>
      </trkpt>
      <trkpt lat="42.361655998975039" lon="1.988604012876749">
        <ele>1981.4179999999999</ele>
        <time>2012-06-22T09:34:31Z</time>
      </trkpt>
      <trkpt lat="42.361667985096574" lon="1.988664027303457">
        <ele>1981.998</ele>
        <time>2012-06-22T09:34:38Z</time>
      </trkpt>
      <trkpt lat="42.361629009246826" lon="1.98877802118659">
        <ele>1981.9169999999999</ele>
        <time>2012-06-22T09:34:45Z</time>
      </trkpt>
      <trkpt lat="42.361614005640149" lon="1.988901989534497">
        <ele>1983.307</ele>
        <time>2012-06-22T09:34:53Z</time>
      </trkpt>
      <trkpt lat="42.361567988991737" lon="1.9890589825809">
        <ele>1984.394</ele>
        <time>2012-06-22T09:35:04Z</time>
      </trkpt>
      <trkpt lat="42.361533958464861" lon="1.989211030304432">
        <ele>1985.3109999999999</ele>
        <time>2012-06-22T09:35:14Z</time>
      </trkpt>
      <trkpt lat="42.361525995656848" lon="1.989372968673706">
        <ele>1986.7280000000001</ele>
        <time>2012-06-22T09:35:24Z</time>
      </trkpt>
      <trkpt lat="42.361537981778383" lon="1.989492997527123">
        <ele>1989.115</ele>
        <time>2012-06-22T09:35:32Z</time>
      </trkpt>
      <trkpt lat="42.361542005091906" lon="1.98965803720057">
        <ele>1991.546</ele>
        <time>2012-06-22T09:35:43Z</time>
      </trkpt>
      <trkpt lat="42.361548962071538" lon="1.989812012761831">
        <ele>1994.4939999999999</ele>
        <time>2012-06-22T09:35:53Z</time>
      </trkpt>
      <trkpt lat="42.36155298538506" lon="1.989890970289707">
        <ele>1995.8800000000001</ele>
        <time>2012-06-22T09:35:59Z</time>
      </trkpt>
      <trkpt lat="42.361567988991737" lon="1.989912008866668">
        <ele>1995.434</ele>
        <time>2012-06-22T09:36:01Z</time>
      </trkpt>
      <trkpt lat="42.361606964841485" lon="1.989950984716415">
        <ele>1996.355</ele>
        <time>2012-06-22T09:36:05Z</time>
      </trkpt>
      <trkpt lat="42.361640995368361" lon="1.989998007193208">
        <ele>1997.3099999999999</ele>
        <time>2012-06-22T09:36:09Z</time>
      </trkpt>
      <trkpt lat="42.361759012565017" lon="1.990104038268328">
        <ele>1998.2070000000001</ele>
        <time>2012-06-22T09:36:20Z</time>
      </trkpt>
      <trkpt lat="42.361790025606751" lon="1.990124993026257">
        <ele>1998.2159999999999</ele>
        <time>2012-06-22T09:36:22Z</time>
      </trkpt>
      <trkpt lat="42.361832018941641" lon="1.990163968876004">
        <ele>1998.7329999999999</ele>
        <time>2012-06-22T09:36:26Z</time>
      </trkpt>
      <trkpt lat="42.36189697869122" lon="1.990296989679337">
        <ele>1999.29</ele>
        <time>2012-06-22T09:36:35Z</time>
      </trkpt>
      <trkpt lat="42.361965039744973" lon="1.99038902297616">
        <ele>1999.7570000000001</ele>
        <time>2012-06-22T09:36:42Z</time>
      </trkpt>
      <trkpt lat="42.362064030021429" lon="1.990507040172815">
        <ele>2000.268</ele>
        <time>2012-06-22T09:36:52Z</time>
      </trkpt>
      <trkpt lat="42.362160002812743" lon="1.990579962730408">
        <ele>2001.1759999999999</ele>
        <time>2012-06-22T09:37:00Z</time>
      </trkpt>
      <trkpt lat="42.362227980047464" lon="1.990685993805528">
        <ele>2002.172</ele>
        <time>2012-06-22T09:37:09Z</time>
      </trkpt>
      <trkpt lat="42.362335016950965" lon="1.990779032930732">
        <ele>2003.5239999999999</ele>
        <time>2012-06-22T09:37:19Z</time>
      </trkpt>
      <trkpt lat="42.362426966428757" lon="1.990851033478975">
        <ele>2005.0039999999999</ele>
        <time>2012-06-22T09:37:28Z</time>
      </trkpt>
      <trkpt lat="42.362480023875833" lon="1.990953041240573">
        <ele>2005.914</ele>
        <time>2012-06-22T09:37:36Z</time>
      </trkpt>
      <trkpt lat="42.362511036917567" lon="1.990998974069953">
        <ele>2006.9069999999999</ele>
        <time>2012-06-22T09:37:40Z</time>
      </trkpt>
      <trkpt lat="42.362529980018735" lon="1.9910569768399">
        <ele>2007.9749999999999</ele>
        <time>2012-06-22T09:37:44Z</time>
      </trkpt>
      <trkpt lat="42.362529980018735" lon="1.991156972944737">
        <ele>2007.412</ele>
        <time>2012-06-22T09:37:54Z</time>
      </trkpt>
      <trkpt lat="42.362529980018735" lon="1.991156972944737">
        <ele>2007.4390000000001</ele>
        <time>2012-06-22T09:38:02Z</time>
      </trkpt>
      <trkpt lat="42.362549006938934" lon="1.991258980706334">
        <ele>2006.9259999999999</ele>
        <time>2012-06-22T09:38:09Z</time>
      </trkpt>
      <trkpt lat="42.36254096031189" lon="1.991439023986459">
        <ele>2007.9570000000001</ele>
        <time>2012-06-22T09:38:19Z</time>
      </trkpt>
      <trkpt lat="42.362555963918567" lon="1.991596017032862">
        <ele>2007.915</ele>
        <time>2012-06-22T09:38:26Z</time>
      </trkpt>
      <trkpt lat="42.362559987232089" lon="1.99183096177876">
        <ele>2006.9110000000001</ele>
        <time>2012-06-22T09:38:34Z</time>
      </trkpt>
      <trkpt lat="42.362568033859134" lon="1.992115024477243">
        <ele>2006.491</ele>
        <time>2012-06-22T09:38:42Z</time>
      </trkpt>
      <trkpt lat="42.362571973353624" lon="1.992367990314961">
        <ele>2005.981</ele>
        <time>2012-06-22T09:38:50Z</time>
      </trkpt>
      <trkpt lat="42.362583037465811" lon="1.992596983909607">
        <ele>2005.9190000000001</ele>
        <time>2012-06-22T09:38:57Z</time>
      </trkpt>
      <trkpt lat="42.362598041072488" lon="1.992821032181382">
        <ele>2006.4069999999999</ele>
        <time>2012-06-22T09:39:04Z</time>
      </trkpt>
      <trkpt lat="42.362613966688514" lon="1.993037033826113">
        <ele>2006.492</ele>
        <time>2012-06-22T09:39:11Z</time>
      </trkpt>
      <trkpt lat="42.362610027194023" lon="1.993123032152653">
        <ele>2006.4390000000001</ele>
        <time>2012-06-22T09:39:14Z</time>
      </trkpt>
      <trkpt lat="42.362628970295191" lon="1.993350014090538">
        <ele>2007.4259999999999</ele>
        <time>2012-06-22T09:39:22Z</time>
      </trkpt>
      <trkpt lat="42.362616984173656" lon="1.993624018505216">
        <ele>2006.423</ele>
        <time>2012-06-22T09:39:31Z</time>
      </trkpt>
      <trkpt lat="42.362610027194023" lon="1.993801966309547">
        <ele>2005.924</ele>
        <time>2012-06-22T09:39:37Z</time>
      </trkpt>
      <trkpt lat="42.362606003880501" lon="1.994011010974646">
        <ele>2005.932</ele>
        <time>2012-06-22T09:39:43Z</time>
      </trkpt>
      <trkpt lat="42.362610027194023" lon="1.994300018996">
        <ele>2005.518</ele>
        <time>2012-06-22T09:39:51Z</time>
      </trkpt>
      <trkpt lat="42.362601980566978" lon="1.994585003703833">
        <ele>2006.9860000000001</ele>
        <time>2012-06-22T09:40:00Z</time>
      </trkpt>
      <trkpt lat="42.362595023587346" lon="1.994832018390298">
        <ele>2006.46</ele>
        <time>2012-06-22T09:40:08Z</time>
      </trkpt>
      <trkpt lat="42.362586976960301" lon="1.99507299810648">
        <ele>2007.4259999999999</ele>
        <time>2012-06-22T09:40:16Z</time>
      </trkpt>
      <trkpt lat="42.362595023587346" lon="1.995298974215984">
        <ele>2006.9069999999999</ele>
        <time>2012-06-22T09:40:24Z</time>
      </trkpt>
      <trkpt lat="42.362575996667147" lon="1.995465019717813">
        <ele>2007.491</ele>
        <time>2012-06-22T09:40:30Z</time>
      </trkpt>
      <trkpt lat="42.362586976960301" lon="1.995646990835667">
        <ele>2007.4280000000001</ele>
        <time>2012-06-22T09:40:37Z</time>
      </trkpt>
      <trkpt lat="42.362595023587346" lon="1.99582401663065">
        <ele>2008.3150000000001</ele>
        <time>2012-06-22T09:40:44Z</time>
      </trkpt>
      <trkpt lat="42.362652020528913" lon="1.996068013831973">
        <ele>2009.8820000000001</ele>
        <time>2012-06-22T09:40:54Z</time>
      </trkpt>
      <trkpt lat="42.36266702413559" lon="1.996271023526788">
        <ele>2011.213</ele>
        <time>2012-06-22T09:41:03Z</time>
      </trkpt>
      <trkpt lat="42.362674986943603" lon="1.99648903682828">
        <ele>2012.761</ele>
        <time>2012-06-22T09:41:13Z</time>
      </trkpt>
      <trkpt lat="42.362679010257125" lon="1.996657010167837">
        <ele>2013.1769999999999</ele>
        <time>2012-06-22T09:41:21Z</time>
      </trkpt>
      <trkpt lat="42.362685967236757" lon="1.996757006272674">
        <ele>2013.191</ele>
        <time>2012-06-22T09:41:26Z</time>
      </trkpt>
      <trkpt lat="42.362709017470479" lon="1.996960015967488">
        <ele>2014.681</ele>
        <time>2012-06-22T09:41:36Z</time>
      </trkpt>
      <trkpt lat="42.362719997763634" lon="1.997146010398865">
        <ele>2015.519</ele>
        <time>2012-06-22T09:41:45Z</time>
      </trkpt>
      <trkpt lat="42.362719997763634" lon="1.997382966801524">
        <ele>2017.9069999999999</ele>
        <time>2012-06-22T09:41:56Z</time>
      </trkpt>
      <trkpt lat="42.362731983885169" lon="1.997555969282985">
        <ele>2019.412</ele>
        <time>2012-06-22T09:42:04Z</time>
      </trkpt>
      <trkpt lat="42.362742964178324" lon="1.997766019776464">
        <ele>2020.8589999999999</ele>
        <time>2012-06-22T09:42:14Z</time>
      </trkpt>
      <trkpt lat="42.362746987491846" lon="1.997985038906336">
        <ele>2021.896</ele>
        <time>2012-06-22T09:42:24Z</time>
      </trkpt>
      <trkpt lat="42.362713040784001" lon="1.998204980045557">
        <ele>2022.8630000000001</ele>
        <time>2012-06-22T09:42:34Z</time>
      </trkpt>
      <trkpt lat="42.362685967236757" lon="1.998430034145713">
        <ele>2022.854</ele>
        <time>2012-06-22T09:42:45Z</time>
      </trkpt>
      <trkpt lat="42.362655960023403" lon="1.998658021911979">
        <ele>2023.222</ele>
        <time>2012-06-22T09:42:56Z</time>
      </trkpt>
      <trkpt lat="42.36264799721539" lon="1.99874896556139">
        <ele>2024.278</ele>
        <time>2012-06-22T09:43:00Z</time>
      </trkpt>
      <trkpt lat="42.362549006938934" lon="1.998888021335006">
        <ele>2023.7760000000001</ele>
        <time>2012-06-22T09:43:09Z</time>
      </trkpt>
      <trkpt lat="42.362460996955633" lon="1.998978964984417">
        <ele>2023.79</ele>
        <time>2012-06-22T09:43:17Z</time>
      </trkpt>
      <trkpt lat="42.362342979758978" lon="1.999077033251524">
        <ele>2024.7190000000001</ele>
        <time>2012-06-22T09:43:27Z</time>
      </trkpt>
      <trkpt lat="42.362247006967664" lon="1.999174011871219">
        <ele>2026.107</ele>
        <time>2012-06-22T09:43:36Z</time>
      </trkpt>
      <trkpt lat="42.362160002812743" lon="1.999230002984405">
        <ele>2026.6700000000001</ele>
        <time>2012-06-22T09:43:43Z</time>
      </trkpt>
      <trkpt lat="42.362029999494553" lon="1.999317007139325">
        <ele>2027.627</ele>
        <time>2012-06-22T09:43:53Z</time>
      </trkpt>
      <trkpt lat="42.361922962591052" lon="1.999360006302595">
        <ele>2029.0440000000001</ele>
        <time>2012-06-22T09:44:01Z</time>
      </trkpt>
      <trkpt lat="42.361790025606751" lon="1.9994340185076">
        <ele>2030.441</ele>
        <time>2012-06-22T09:44:11Z</time>
      </trkpt>
      <trkpt lat="42.361763035878539" lon="1.999448016285896">
        <ele>2030.952</ele>
        <time>2012-06-22T09:44:13Z</time>
      </trkpt>
      <trkpt lat="42.361645018681884" lon="1.999468971043825">
        <ele>2032.4400000000001</ele>
        <time>2012-06-22T09:44:22Z</time>
      </trkpt>
      <trkpt lat="42.361567988991737" lon="1.999534014612436">
        <ele>2033.386</ele>
        <time>2012-06-22T09:44:29Z</time>
      </trkpt>
      <trkpt lat="42.36144301481545" lon="1.999620012938976">
        <ele>2034.895</ele>
        <time>2012-06-22T09:44:39Z</time>
      </trkpt>
      <trkpt lat="42.361370008438826" lon="1.99965002015233">
        <ele>2035.749</ele>
        <time>2012-06-22T09:44:44Z</time>
      </trkpt>
      <trkpt lat="42.361361961811781" lon="1.999742975458503">
        <ele>2036.223</ele>
        <time>2012-06-22T09:44:49Z</time>
      </trkpt>
      <trkpt lat="42.361389035359025" lon="1.999964006245136">
        <ele>2037.7070000000001</ele>
        <time>2012-06-22T09:45:00Z</time>
      </trkpt>
      <trkpt lat="42.36142298206687" lon="2.000185959041119">
        <ele>2037.2919999999999</ele>
        <time>2012-06-22T09:45:11Z</time>
      </trkpt>
      <trkpt lat="42.361453995108604" lon="2.000334989279509">
        <ele>2038.6489999999999</ele>
        <time>2012-06-22T09:45:19Z</time>
      </trkpt>
      <trkpt lat="42.361462041735649" lon="2.000377988442779">
        <ele>2038.616</ele>
        <time>2012-06-22T09:45:21Z</time>
      </trkpt>
      <trkpt lat="42.361416025087237" lon="2.000421993434429">
        <ele>2039.1130000000001</ele>
        <time>2012-06-22T09:45:25Z</time>
      </trkpt>
      <trkpt lat="42.361313011497259" lon="2.000420987606049">
        <ele>2040.154</ele>
        <time>2012-06-22T09:45:34Z</time>
      </trkpt>
      <trkpt lat="42.361225001513958" lon="2.000430040061474">
        <ele>2042.0719999999999</ele>
        <time>2012-06-22T09:45:41Z</time>
      </trkpt>
      <trkpt lat="42.361111007630825" lon="2.000454012304544">
        <ele>2043.4380000000001</ele>
        <time>2012-06-22T09:45:50Z</time>
      </trkpt>
      <trkpt lat="42.361064990982413" lon="2.000468010082841">
        <ele>2044.451</ele>
        <time>2012-06-22T09:45:54Z</time>
      </trkpt>
      <trkpt lat="42.361053004860878" lon="2.000574041157961">
        <ele>2045.8009999999999</ele>
        <time>2012-06-22T09:46:01Z</time>
      </trkpt>
      <trkpt lat="42.3610570281744" lon="2.000591978430748">
        <ele>2045.8109999999999</ele>
        <time>2012-06-22T09:46:02Z</time>
      </trkpt>
      <trkpt lat="42.361053004860878" lon="2.000750983133912">
        <ele>2047.807</ele>
        <time>2012-06-22T09:46:13Z</time>
      </trkpt>
      <trkpt lat="42.361049987375736" lon="2.000776967033744">
        <ele>2047.818</ele>
        <time>2012-06-22T09:46:15Z</time>
      </trkpt>
      <trkpt lat="42.361049987375736" lon="2.000829018652439">
        <ele>2048.2849999999999</ele>
        <time>2012-06-22T09:46:19Z</time>
      </trkpt>
      <trkpt lat="42.361033977940679" lon="2.000976959243417">
        <ele>2050.6419999999998</ele>
        <time>2012-06-22T09:46:29Z</time>
      </trkpt>
      <trkpt lat="42.361038001254201" lon="2.001035967841744">
        <ele>2051.1390000000001</ele>
        <time>2012-06-22T09:46:33Z</time>
      </trkpt>
      <trkpt lat="42.360996007919312" lon="2.001178041100502">
        <ele>2053.5599999999999</ele>
        <time>2012-06-22T09:46:43Z</time>
      </trkpt>
      <trkpt lat="42.360988967120647" lon="2.001207964494824">
        <ele>2053.0680000000002</ele>
        <time>2012-06-22T09:46:45Z</time>
      </trkpt>
      <trkpt lat="42.360961977392435" lon="2.001419020816684">
        <ele>2055.924</ele>
        <time>2012-06-22T09:46:58Z</time>
      </trkpt>
      <trkpt lat="42.3609309643507" lon="2.001600991934538">
        <ele>2057.8890000000001</ele>
        <time>2012-06-22T09:47:10Z</time>
      </trkpt>
      <trkpt lat="42.3609309643507" lon="2.001714985817671">
        <ele>2058.306</ele>
        <time>2012-06-22T09:47:17Z</time>
      </trkpt>
      <trkpt lat="42.360915960744023" lon="2.00186301022768">
        <ele>2058.326</ele>
        <time>2012-06-22T09:47:25Z</time>
      </trkpt>
      <trkpt lat="42.360882014036179" lon="2.001980021595955">
        <ele>2057.8069999999998</ele>
        <time>2012-06-22T09:47:34Z</time>
      </trkpt>
      <trkpt lat="42.360831974074244" lon="2.002131985500455">
        <ele>2057.471</ele>
        <time>2012-06-22T09:47:44Z</time>
      </trkpt>
      <trkpt lat="42.360767014324665" lon="2.002280009910464">
        <ele>2057.8980000000001</ele>
        <time>2012-06-22T09:47:52Z</time>
      </trkpt>
      <trkpt lat="42.360699037089944" lon="2.002387968823314">
        <ele>2057.4949999999999</ele>
        <time>2012-06-22T09:47:59Z</time>
      </trkpt>
      <trkpt lat="42.360602980479598" lon="2.002475978806615">
        <ele>2058.3119999999999</ele>
        <time>2012-06-22T09:48:07Z</time>
      </trkpt>
      <trkpt lat="42.360554030165076" lon="2.002620985731483">
        <ele>2058.8629999999998</ele>
        <time>2012-06-22T09:48:15Z</time>
      </trkpt>
      <trkpt lat="42.360554030165076" lon="2.002731962129474">
        <ele>2060.221</ele>
        <time>2012-06-22T09:48:22Z</time>
      </trkpt>
      <trkpt lat="42.360527040436864" lon="2.002788037061691">
        <ele>2060.7269999999999</ele>
        <time>2012-06-22T09:48:27Z</time>
      </trkpt>
      <trkpt lat="42.36049703322351" lon="2.002875041216612">
        <ele>2062.2849999999999</ele>
        <time>2012-06-22T09:48:33Z</time>
      </trkpt>
      <trkpt lat="42.360451016575098" lon="2.002961961552501">
        <ele>2063.6889999999999</ele>
        <time>2012-06-22T09:48:40Z</time>
      </trkpt>
      <trkpt lat="42.360431989654899" lon="2.003005966544151">
        <ele>2065.1170000000002</ele>
        <time>2012-06-22T09:48:43Z</time>
      </trkpt>
      <trkpt lat="42.360424026846886" lon="2.003031028434634">
        <ele>2065.5070000000001</ele>
        <time>2012-06-22T09:48:45Z</time>
      </trkpt>
      <trkpt lat="42.360367029905319" lon="2.003128007054329">
        <ele>2066.5509999999999</ele>
        <time>2012-06-22T09:48:54Z</time>
      </trkpt>
      <trkpt lat="42.360358983278275" lon="2.003138987347484">
        <ele>2066.5680000000002</ele>
        <time>2012-06-22T09:48:55Z</time>
      </trkpt>
      <trkpt lat="42.360331993550062" lon="2.003245018422604">
        <ele>2067.9749999999999</ele>
        <time>2012-06-22T09:49:03Z</time>
      </trkpt>
      <trkpt lat="42.360264016315341" lon="2.003327999264002">
        <ele>2068.4319999999998</ele>
        <time>2012-06-22T09:49:11Z</time>
      </trkpt>
      <trkpt lat="42.360225962474942" lon="2.003429001197219">
        <ele>2070.3229999999999</ele>
        <time>2012-06-22T09:49:19Z</time>
      </trkpt>
      <trkpt lat="42.36019897274673" lon="2.003487003967166">
        <ele>2071.3609999999999</ele>
        <time>2012-06-22T09:49:24Z</time>
      </trkpt>
      <trkpt lat="42.360180029645562" lon="2.003502007573843">
        <ele>2072.7370000000001</ele>
        <time>2012-06-22T09:49:26Z</time>
      </trkpt>
      <trkpt lat="42.360141975805163" lon="2.003561016172171">
        <ele>2073.2939999999999</ele>
        <time>2012-06-22T09:49:32Z</time>
      </trkpt>
      <trkpt lat="42.360123032703996" lon="2.003611978143454">
        <ele>2074.7570000000001</ele>
        <time>2012-06-22T09:49:36Z</time>
      </trkpt>
      <trkpt lat="42.360119009390473" lon="2.003618013113737">
        <ele>2075.1219999999998</ele>
        <time>2012-06-22T09:49:41Z</time>
      </trkpt>
      <trkpt lat="42.360110962763429" lon="2.003637962043285">
        <ele>2075.607</ele>
        <time>2012-06-22T09:49:52Z</time>
      </trkpt>
      <trkpt lat="42.360119009390473" lon="2.003737958148122">
        <ele>2078.0819999999999</ele>
        <time>2012-06-22T09:50:03Z</time>
      </trkpt>
      <trkpt lat="42.360149016603827" lon="2.003785986453295">
        <ele>2078.5990000000002</ele>
        <time>2012-06-22T09:50:10Z</time>
      </trkpt>
      <trkpt lat="42.360187992453575" lon="2.003829991444945">
        <ele>2078.576</ele>
        <time>2012-06-22T09:50:17Z</time>
      </trkpt>
      <trkpt lat="42.360228979960084" lon="2.003873996436596">
        <ele>2080.0230000000001</ele>
        <time>2012-06-22T09:50:24Z</time>
      </trkpt>
      <trkpt lat="42.360240966081619" lon="2.00388296507299">
        <ele>2080.0340000000001</ele>
        <time>2012-06-22T09:50:30Z</time>
      </trkpt>
      <trkpt lat="42.360237026587129" lon="2.003919007256627">
        <ele>2079.5819999999999</ele>
        <time>2012-06-22T09:50:42Z</time>
      </trkpt>
      <trkpt lat="42.360240966081619" lon="2.003984972834587">
        <ele>2080.9780000000001</ele>
        <time>2012-06-22T09:50:50Z</time>
      </trkpt>
      <trkpt lat="42.360240966081619" lon="2.00405303388834">
        <ele>2082.857</ele>
        <time>2012-06-22T09:50:57Z</time>
      </trkpt>
      <trkpt lat="42.360240966081619" lon="2.004108019173145">
        <ele>2084.3000000000002</ele>
        <time>2012-06-22T09:51:05Z</time>
      </trkpt>
      <trkpt lat="42.360240966081619" lon="2.004168033599854">
        <ele>2086.2199999999998</ele>
        <time>2012-06-22T09:51:13Z</time>
      </trkpt>
      <trkpt lat="42.360195033252239" lon="2.004217989742756">
        <ele>2087.2069999999999</ele>
        <time>2012-06-22T09:51:21Z</time>
      </trkpt>
      <trkpt lat="42.360187992453575" lon="2.004274986684322">
        <ele>2088.6880000000001</ele>
        <time>2012-06-22T09:51:27Z</time>
      </trkpt>
      <trkpt lat="42.360183969140053" lon="2.004367019981146">
        <ele>2089.1350000000002</ele>
        <time>2012-06-22T09:51:36Z</time>
      </trkpt>
      <trkpt lat="42.36017600633204" lon="2.004398033022881">
        <ele>2090.5120000000002</ele>
        <time>2012-06-22T09:51:39Z</time>
      </trkpt>
      <trkpt lat="42.360165026038885" lon="2.004454024136066">
        <ele>2092.0990000000002</ele>
        <time>2012-06-22T09:51:46Z</time>
      </trkpt>
      <trkpt lat="42.360138036310673" lon="2.004511021077633">
        <ele>2092.5100000000002</ele>
        <time>2012-06-22T09:51:54Z</time>
      </trkpt>
      <trkpt lat="42.360099982470274" lon="2.004589978605509">
        <ele>2093.998</ele>
        <time>2012-06-22T09:52:04Z</time>
      </trkpt>
      <trkpt lat="42.360053965821862" lon="2.004668014124036">
        <ele>2095.8339999999998</ele>
        <time>2012-06-22T09:52:14Z</time>
      </trkpt>
      <trkpt lat="42.359996968880296" lon="2.004740014672279">
        <ele>2096.8339999999998</ele>
        <time>2012-06-22T09:52:23Z</time>
      </trkpt>
      <trkpt lat="42.359932009130716" lon="2.004851996898651">
        <ele>2098.2550000000001</ele>
        <time>2012-06-22T09:52:33Z</time>
      </trkpt>
      <trkpt lat="42.359885992482305" lon="2.004923997446895">
        <ele>2099.21</ele>
        <time>2012-06-22T09:52:40Z</time>
      </trkpt>
      <trkpt lat="42.359839975833893" lon="2.005030028522015">
        <ele>2100.607</ele>
        <time>2012-06-22T09:52:50Z</time>
      </trkpt>
      <trkpt lat="42.35983301885426" lon="2.005117032676935">
        <ele>2102.1959999999999</ele>
        <time>2012-06-22T09:52:57Z</time>
      </trkpt>
      <trkpt lat="42.359859002754092" lon="2.005216022953391">
        <ele>2102.5430000000001</ele>
        <time>2012-06-22T09:53:06Z</time>
      </trkpt>
      <trkpt lat="42.359870988875628" lon="2.005238989368081">
        <ele>2103.0500000000002</ele>
        <time>2012-06-22T09:53:14Z</time>
      </trkpt>
      <trkpt lat="42.359870988875628" lon="2.005238989368081">
        <ele>2103.0970000000002</ele>
        <time>2012-06-22T09:53:24Z</time>
      </trkpt>
      <trkpt lat="42.359863026067615" lon="2.00527997687459">
        <ele>2103.078</ele>
        <time>2012-06-22T09:53:33Z</time>
      </trkpt>
      <trkpt lat="42.359851961955428" lon="2.005348959937692">
        <ele>2103.0459999999998</ele>
        <time>2012-06-22T09:53:43Z</time>
      </trkpt>
      <trkpt lat="42.359851961955428" lon="2.005348959937692">
        <ele>2103.5920000000001</ele>
        <time>2012-06-22T09:54:00Z</time>
      </trkpt>
      <trkpt lat="42.359851961955428" lon="2.005348959937692">
        <ele>2103.5839999999998</ele>
        <time>2012-06-22T09:54:11Z</time>
      </trkpt>
      <trkpt lat="42.359851961955428" lon="2.005351977422833">
        <ele>2103.5070000000001</ele>
        <time>2012-06-22T09:54:24Z</time>
      </trkpt>
      <trkpt lat="42.359851961955428" lon="2.005351977422833">
        <ele>2104.0169999999998</ele>
        <time>2012-06-22T09:54:35Z</time>
      </trkpt>
      <trkpt lat="42.359851961955428" lon="2.005351977422833">
        <ele>2104.0070000000001</ele>
        <time>2012-06-22T09:54:55Z</time>
      </trkpt>
      <trkpt lat="42.359851961955428" lon="2.005351977422833">
        <ele>2104.5210000000002</ele>
        <time>2012-06-22T09:55:06Z</time>
      </trkpt>
      <trkpt lat="42.359851961955428" lon="2.005351977422833">
        <ele>2104.5880000000002</ele>
        <time>2012-06-22T09:55:19Z</time>
      </trkpt>
      <trkpt lat="42.359851961955428" lon="2.005351977422833">
        <ele>2104.0450000000001</ele>
        <time>2012-06-22T09:55:31Z</time>
      </trkpt>
      <trkpt lat="42.35985598526895" lon="2.005351977422833">
        <ele>2104.5520000000001</ele>
        <time>2012-06-22T09:55:43Z</time>
      </trkpt>
      <trkpt lat="42.35985598526895" lon="2.005351977422833">
        <ele>2104.5529999999999</ele>
        <time>2012-06-22T09:55:56Z</time>
      </trkpt>
      <trkpt lat="42.35985598526895" lon="2.005351977422833">
        <ele>2104.5309999999999</ele>
        <time>2012-06-22T09:56:07Z</time>
      </trkpt>
      <trkpt lat="42.35985598526895" lon="2.005351977422833">
        <ele>2104.9769999999999</ele>
        <time>2012-06-22T09:56:20Z</time>
      </trkpt>
      <trkpt lat="42.35985598526895" lon="2.005344014614821">
        <ele>2104.587</ele>
        <time>2012-06-22T09:56:34Z</time>
      </trkpt>
      <trkpt lat="42.35985598526895" lon="2.005344014614821">
        <ele>2105.442</ele>
        <time>2012-06-22T09:56:49Z</time>
      </trkpt>
      <trkpt lat="42.35985598526895" lon="2.005348959937692">
        <ele>2105.4259999999999</ele>
        <time>2012-06-22T09:57:02Z</time>
      </trkpt>
      <trkpt lat="42.35985598526895" lon="2.005348959937692">
        <ele>2104.9070000000002</ele>
        <time>2012-06-22T09:57:15Z</time>
      </trkpt>
      <trkpt lat="42.35985598526895" lon="2.005348959937692">
        <ele>2105.991</ele>
        <time>2012-06-22T09:57:29Z</time>
      </trkpt>
      <trkpt lat="42.35985598526895" lon="2.005349965766072">
        <ele>2105.4380000000001</ele>
        <time>2012-06-22T09:57:44Z</time>
      </trkpt>
      <trkpt lat="42.35985598526895" lon="2.005349965766072">
        <ele>2105.4349999999999</ele>
        <time>2012-06-22T09:58:00Z</time>
      </trkpt>
      <trkpt lat="42.35985598526895" lon="2.005349965766072">
        <ele>2105.4920000000002</ele>
        <time>2012-06-22T09:58:14Z</time>
      </trkpt>
      <trkpt lat="42.35985598526895" lon="2.005352983251214">
        <ele>2105.9830000000002</ele>
        <time>2012-06-22T09:58:34Z</time>
      </trkpt>
      <trkpt lat="42.35985598526895" lon="2.005366981029511">
        <ele>2106.451</ele>
        <time>2012-06-22T09:58:38Z</time>
      </trkpt>
      <trkpt lat="42.359836958348751" lon="2.005463037639856">
        <ele>2106.4870000000001</ele>
        <time>2012-06-22T09:58:44Z</time>
      </trkpt>
      <trkpt lat="42.359809968620539" lon="2.00562103651464">
        <ele>2106.4169999999999</ele>
        <time>2012-06-22T09:58:53Z</time>
      </trkpt>
      <trkpt lat="42.359787002205849" lon="2.005798984318972">
        <ele>2107.4870000000001</ele>
        <time>2012-06-22T09:59:03Z</time>
      </trkpt>
      <trkpt lat="42.359767975285649" lon="2.005983972921968">
        <ele>2108.3150000000001</ele>
        <time>2012-06-22T09:59:14Z</time>
      </trkpt>
      <trkpt lat="42.359740985557437" lon="2.006119005382061">
        <ele>2107.8069999999998</ele>
        <time>2012-06-22T09:59:22Z</time>
      </trkpt>
      <trkpt lat="42.359734028577805" lon="2.00613702647388">
        <ele>2107.8240000000001</ele>
        <time>2012-06-22T09:59:23Z</time>
      </trkpt>
      <trkpt lat="42.359698992222548" lon="2.006277004256845">
        <ele>2109.3609999999999</ele>
        <time>2012-06-22T09:59:31Z</time>
      </trkpt>
      <trkpt lat="42.359668985009193" lon="2.006455035880208">
        <ele>2110.268</ele>
        <time>2012-06-22T09:59:42Z</time>
      </trkpt>
      <trkpt lat="42.359641995280981" lon="2.006672965362668">
        <ele>2110.7750000000001</ele>
        <time>2012-06-22T09:59:53Z</time>
      </trkpt>
      <trkpt lat="42.359637971967459" lon="2.006802968680859">
        <ele>2110.2559999999999</ele>
        <time>2012-06-22T09:59:59Z</time>
      </trkpt>
      <trkpt lat="42.359589021652937" lon="2.006984017789364">
        <ele>2110.7339999999999</ele>
        <time>2012-06-22T10:00:07Z</time>
      </trkpt>
      <trkpt lat="42.35951199196279" lon="2.007137993350625">
        <ele>2111.29</ele>
        <time>2012-06-22T10:00:16Z</time>
      </trkpt>
      <trkpt lat="42.359432028606534" lon="2.00727897696197">
        <ele>2112.6280000000002</ele>
        <time>2012-06-22T10:00:24Z</time>
      </trkpt>
      <trkpt lat="42.359344018623233" lon="2.00747000053525">
        <ele>2114.1889999999999</ele>
        <time>2012-06-22T10:00:35Z</time>
      </trkpt>
      <trkpt lat="42.359321974217892" lon="2.007582988590002">
        <ele>2115.0169999999998</ele>
        <time>2012-06-22T10:00:41Z</time>
      </trkpt>
      <trkpt lat="42.359303031116724" lon="2.007741993293166">
        <ele>2115.5070000000001</ele>
        <time>2012-06-22T10:00:49Z</time>
      </trkpt>
      <trkpt lat="42.359257014468312" lon="2.007924970239401">
        <ele>2116.5349999999999</ele>
        <time>2012-06-22T10:00:58Z</time>
      </trkpt>
      <trkpt lat="42.35925299115479" lon="2.007993031293154">
        <ele>2117.0720000000001</ele>
        <time>2012-06-22T10:01:01Z</time>
      </trkpt>
      <trkpt lat="42.359203035011888" lon="2.008234011009336">
        <ele>2117.9189999999999</ele>
        <time>2012-06-22T10:01:12Z</time>
      </trkpt>
      <trkpt lat="42.359164981171489" lon="2.008413970470429">
        <ele>2118.9960000000001</ele>
        <time>2012-06-22T10:01:21Z</time>
      </trkpt>
      <trkpt lat="42.359149977564812" lon="2.008643969893456">
        <ele>2117.9470000000001</ele>
        <time>2012-06-22T10:01:30Z</time>
      </trkpt>
      <trkpt lat="42.359142014756799" lon="2.008885033428669">
        <ele>2117.4650000000001</ele>
        <time>2012-06-22T10:01:39Z</time>
      </trkpt>
      <trkpt lat="42.359137991443276" lon="2.009063987061381">
        <ele>2117.4609999999998</ele>
        <time>2012-06-22T10:01:50Z</time>
      </trkpt>
      <trkpt lat="42.359142014756799" lon="2.00927403755486">
        <ele>2117.085</ele>
        <time>2012-06-22T10:01:59Z</time>
      </trkpt>
      <trkpt lat="42.359137991443276" lon="2.0095310267061">
        <ele>2117.0889999999999</ele>
        <time>2012-06-22T10:02:08Z</time>
      </trkpt>
      <trkpt lat="42.359131034463644" lon="2.00972598977387">
        <ele>2117.0169999999998</ele>
        <time>2012-06-22T10:02:15Z</time>
      </trkpt>
      <trkpt lat="42.359134973958135" lon="2.00989798642695">
        <ele>2117.0070000000001</ele>
        <time>2012-06-22T10:02:21Z</time>
      </trkpt>
      <trkpt lat="42.359134973958135" lon="2.010106025263667">
        <ele>2117.0410000000002</ele>
        <time>2012-06-22T10:02:29Z</time>
      </trkpt>
      <trkpt lat="42.359154000878334" lon="2.010336024686694">
        <ele>2117.018</ele>
        <time>2012-06-22T10:02:38Z</time>
      </trkpt>
      <trkpt lat="42.359195994213223" lon="2.010582033544779">
        <ele>2113.665</ele>
        <time>2012-06-22T10:02:45Z</time>
      </trkpt>
      <trkpt lat="42.359257014468312" lon="2.010826030746102">
        <ele>2110.752</ele>
        <time>2012-06-22T10:02:48Z</time>
      </trkpt>
      <trkpt lat="42.359341001138091" lon="2.011301033198834">
        <ele>2106.9229999999998</ele>
        <time>2012-06-22T10:02:53Z</time>
      </trkpt>
      <trkpt lat="42.35936002805829" lon="2.011396000161767">
        <ele>2106.9609999999998</ele>
        <time>2012-06-22T10:02:54Z</time>
      </trkpt>
      <trkpt lat="42.359454995021224" lon="2.011782992631197">
        <ele>2105.4169999999999</ele>
        <time>2012-06-22T10:02:59Z</time>
      </trkpt>
      <trkpt lat="42.359496988356113" lon="2.011919030919671">
        <ele>2104.5749999999998</ele>
        <time>2012-06-22T10:03:01Z</time>
      </trkpt>
      <trkpt lat="42.359573012217879" lon="2.012184988707304">
        <ele>2104.5279999999998</ele>
        <time>2012-06-22T10:03:06Z</time>
      </trkpt>
      <trkpt lat="42.359634032472968" lon="2.012354973703623">
        <ele>2104.02</ele>
        <time>2012-06-22T10:03:12Z</time>
      </trkpt>
      <trkpt lat="42.359679965302348" lon="2.012551026418805">
        <ele>2105.9070000000002</ele>
        <time>2012-06-22T10:03:21Z</time>
      </trkpt>
      <trkpt lat="42.359707038849592" lon="2.012593019753695">
        <ele>2105.9400000000001</ele>
        <time>2012-06-22T10:03:24Z</time>
      </trkpt>
      <trkpt lat="42.359730005264282" lon="2.012730985879898">
        <ele>2106.9270000000001</ele>
        <time>2012-06-22T10:03:32Z</time>
      </trkpt>
      <trkpt lat="42.359730005264282" lon="2.012898037210107">
        <ele>2108.3739999999998</ele>
        <time>2012-06-22T10:03:43Z</time>
      </trkpt>
      <trkpt lat="42.359736962243915" lon="2.012931983917952">
        <ele>2108.3609999999999</ele>
        <time>2012-06-22T10:03:45Z</time>
      </trkpt>
      <trkpt lat="42.359745008870959" lon="2.012994010001421">
        <ele>2109.3919999999998</ele>
        <time>2012-06-22T10:03:49Z</time>
      </trkpt>
      <trkpt lat="42.359771998599172" lon="2.013128958642483">
        <ele>2112.23</ele>
        <time>2012-06-22T10:03:58Z</time>
      </trkpt>
      <trkpt lat="42.359776021912694" lon="2.013245970010757">
        <ele>2112.6860000000001</ele>
        <time>2012-06-22T10:04:05Z</time>
      </trkpt>
      <trkpt lat="42.359779039397836" lon="2.013387959450483">
        <ele>2115.5520000000001</ele>
        <time>2012-06-22T10:04:13Z</time>
      </trkpt>
      <trkpt lat="42.359809968620539" lon="2.013535983860493">
        <ele>2117.0529999999999</ele>
        <time>2012-06-22T10:04:21Z</time>
      </trkpt>
      <trkpt lat="42.359885992482305" lon="2.013616031035781">
        <ele>2117.9079999999999</ele>
        <time>2012-06-22T10:04:29Z</time>
      </trkpt>
      <trkpt lat="42.359890015795827" lon="2.013631034642458">
        <ele>2118.4070000000002</ele>
        <time>2012-06-22T10:04:30Z</time>
      </trkpt>
      <trkpt lat="42.359881969168782" lon="2.013695994392037">
        <ele>2118.9479999999999</ele>
        <time>2012-06-22T10:04:34Z</time>
      </trkpt>
      <trkpt lat="42.359870988875628" lon="2.013724995777011">
        <ele>2118.9650000000001</ele>
        <time>2012-06-22T10:04:36Z</time>
      </trkpt>
      <trkpt lat="42.359863026067615" lon="2.013776041567326">
        <ele>2120.3420000000001</ele>
        <time>2012-06-22T10:04:39Z</time>
      </trkpt>
      <trkpt lat="42.359863026067615" lon="2.013842007145286">
        <ele>2121.3589999999999</ele>
        <time>2012-06-22T10:04:44Z</time>
      </trkpt>
      <trkpt lat="42.359828995540738" lon="2.013975027948618">
        <ele>2123.2600000000002</ele>
        <time>2012-06-22T10:04:54Z</time>
      </trkpt>
      <trkpt lat="42.359818015247583" lon="2.013996988534927">
        <ele>2123.248</ele>
        <time>2012-06-22T10:04:56Z</time>
      </trkpt>
      <trkpt lat="42.359764035791159" lon="2.014125986024737">
        <ele>2126.6439999999998</ele>
        <time>2012-06-22T10:05:06Z</time>
      </trkpt>
      <trkpt lat="42.359740985557437" lon="2.014265963807702">
        <ele>2128.027</ele>
        <time>2012-06-22T10:05:15Z</time>
      </trkpt>
      <trkpt lat="42.359730005264282" lon="2.014374006539583">
        <ele>2129.5680000000002</ele>
        <time>2012-06-22T10:05:22Z</time>
      </trkpt>
      <trkpt lat="42.359730005264282" lon="2.01443100348115">
        <ele>2129.9140000000002</ele>
        <time>2012-06-22T10:05:26Z</time>
      </trkpt>
      <trkpt lat="42.359764035791159" lon="2.014557989314199">
        <ele>2130.9070000000002</ele>
        <time>2012-06-22T10:05:35Z</time>
      </trkpt>
      <trkpt lat="42.359776021912694" lon="2.01460300013423">
        <ele>2130.9549999999999</ele>
        <time>2012-06-22T10:05:38Z</time>
      </trkpt>
      <trkpt lat="42.359776021912694" lon="2.014777008444071">
        <ele>2132.3919999999998</ele>
        <time>2012-06-22T10:05:49Z</time>
      </trkpt>
      <trkpt lat="42.359771998599172" lon="2.014922015368938">
        <ele>2133.8890000000001</ele>
        <time>2012-06-22T10:05:58Z</time>
      </trkpt>
      <trkpt lat="42.359764035791159" lon="2.014966020360589">
        <ele>2133.826</ele>
        <time>2012-06-22T10:06:01Z</time>
      </trkpt>
      <trkpt lat="42.359745008870959" lon="2.015117984265089">
        <ele>2134.7469999999998</ele>
        <time>2012-06-22T10:06:09Z</time>
      </trkpt>
      <trkpt lat="42.359749032184482" lon="2.015240024775267">
        <ele>2134.335</ele>
        <time>2012-06-22T10:06:16Z</time>
      </trkpt>
      <trkpt lat="42.359734028577805" lon="2.015449991449714">
        <ele>2135.7109999999998</ele>
        <time>2012-06-22T10:06:26Z</time>
      </trkpt>
      <trkpt lat="42.359740985557437" lon="2.015644032508135">
        <ele>2135.7579999999998</ele>
        <time>2012-06-22T10:06:35Z</time>
      </trkpt>
      <trkpt lat="42.359740985557437" lon="2.015831032767892">
        <ele>2136.252</ele>
        <time>2012-06-22T10:06:44Z</time>
      </trkpt>
      <trkpt lat="42.359721958637238" lon="2.016060026362538">
        <ele>2135.7170000000001</ele>
        <time>2012-06-22T10:06:54Z</time>
      </trkpt>
      <trkpt lat="42.359698992222548" lon="2.016305029392242">
        <ele>2135.7069999999999</ele>
        <time>2012-06-22T10:07:04Z</time>
      </trkpt>
      <trkpt lat="42.35970301553607" lon="2.016541985794902">
        <ele>2136.248</ele>
        <time>2012-06-22T10:07:14Z</time>
      </trkpt>
      <trkpt lat="42.35970301553607" lon="2.016764022409916">
        <ele>2137.2449999999999</ele>
        <time>2012-06-22T10:07:24Z</time>
      </trkpt>
      <trkpt lat="42.359710978344083" lon="2.016914980486035">
        <ele>2137.2620000000002</ele>
        <time>2012-06-22T10:07:32Z</time>
      </trkpt>
      <trkpt lat="42.359718019142747" lon="2.017115978524089">
        <ele>2136.7689999999998</ele>
        <time>2012-06-22T10:07:42Z</time>
      </trkpt>
      <trkpt lat="42.35972598195076" lon="2.017293004319072">
        <ele>2137.2800000000002</ele>
        <time>2012-06-22T10:07:51Z</time>
      </trkpt>
      <trkpt lat="42.359730005264282" lon="2.017445974051952">
        <ele>2137.2179999999998</ele>
        <time>2012-06-22T10:07:59Z</time>
      </trkpt>
      <trkpt lat="42.359734028577805" lon="2.017601961269975">
        <ele>2138.6640000000002</ele>
        <time>2012-06-22T10:08:08Z</time>
      </trkpt>
      <trkpt lat="42.359736962243915" lon="2.017799019813538">
        <ele>2139.1819999999998</ele>
        <time>2012-06-22T10:08:19Z</time>
      </trkpt>
      <trkpt lat="42.359730005264282" lon="2.017990965396166">
        <ele>2139.643</ele>
        <time>2012-06-22T10:08:30Z</time>
      </trkpt>
      <trkpt lat="42.359730005264282" lon="2.018007980659604">
        <ele>2139.6170000000002</ele>
        <time>2012-06-22T10:08:31Z</time>
      </trkpt>
      <trkpt lat="42.359740985557437" lon="2.018075035884976">
        <ele>2140.0070000000001</ele>
        <time>2012-06-22T10:08:36Z</time>
      </trkpt>
      <trkpt lat="42.359718019142747" lon="2.018246026709676">
        <ele>2141.511</ele>
        <time>2012-06-22T10:08:46Z</time>
      </trkpt>
      <trkpt lat="42.359710978344083" lon="2.018418023362756">
        <ele>2142.0680000000002</ele>
        <time>2012-06-22T10:08:56Z</time>
      </trkpt>
      <trkpt lat="42.359710978344083" lon="2.018587002530694">
        <ele>2143.9349999999999</ele>
        <time>2012-06-22T10:09:06Z</time>
      </trkpt>
      <trkpt lat="42.359715001657605" lon="2.018754975870252">
        <ele>2145.3319999999999</ele>
        <time>2012-06-22T10:09:17Z</time>
      </trkpt>
      <trkpt lat="42.35972598195076" lon="2.018904006108642">
        <ele>2145.893</ele>
        <time>2012-06-22T10:09:26Z</time>
      </trkpt>
      <trkpt lat="42.35972598195076" lon="2.018920015543699">
        <ele>2145.8609999999999</ele>
        <time>2012-06-22T10:09:27Z</time>
      </trkpt>
      <trkpt lat="42.359734028577805" lon="2.019068961963058">
        <ele>2147.2669999999998</ele>
        <time>2012-06-22T10:09:36Z</time>
      </trkpt>
      <trkpt lat="42.359734028577805" lon="2.019082959741354">
        <ele>2147.2570000000001</ele>
        <time>2012-06-22T10:09:37Z</time>
      </trkpt>
      <trkpt lat="42.359730005264282" lon="2.019128976389766">
        <ele>2148.1999999999998</ele>
        <time>2012-06-22T10:09:40Z</time>
      </trkpt>
      <trkpt lat="42.359740985557437" lon="2.019274989143014">
        <ele>2149.7199999999998</ele>
        <time>2012-06-22T10:09:50Z</time>
      </trkpt>
      <trkpt lat="42.359752971678972" lon="2.019382026046515">
        <ele>2150.607</ele>
        <time>2012-06-22T10:09:57Z</time>
      </trkpt>
      <trkpt lat="42.359779039397836" lon="2.019548993557692">
        <ele>2152.1280000000002</ele>
        <time>2012-06-22T10:10:08Z</time>
      </trkpt>
      <trkpt lat="42.359806029126048" lon="2.01969500631094">
        <ele>2153.5549999999998</ele>
        <time>2012-06-22T10:10:17Z</time>
      </trkpt>
      <trkpt lat="42.359839975833893" lon="2.019884018227458">
        <ele>2154.5419999999999</ele>
        <time>2012-06-22T10:10:28Z</time>
      </trkpt>
      <trkpt lat="42.35987501218915" lon="2.020051991567016">
        <ele>2155.9290000000001</ele>
        <time>2012-06-22T10:10:38Z</time>
      </trkpt>
      <trkpt lat="42.359942989423871" lon="2.020218959078193">
        <ele>2156.4099999999999</ele>
        <time>2012-06-22T10:10:49Z</time>
      </trkpt>
      <trkpt lat="42.359958998858929" lon="2.020286014303565">
        <ele>2157.8879999999999</ele>
        <time>2012-06-22T10:10:53Z</time>
      </trkpt>
      <trkpt lat="42.360000992193818" lon="2.020357009023428">
        <ele>2157.8139999999999</ele>
        <time>2012-06-22T10:10:58Z</time>
      </trkpt>
      <trkpt lat="42.360104005783796" lon="2.020523976534605">
        <ele>2159.3829999999998</ele>
        <time>2012-06-22T10:11:10Z</time>
      </trkpt>
      <trkpt lat="42.360149016603827" lon="2.020634030923247">
        <ele>2160.2249999999999</ele>
        <time>2012-06-22T10:11:17Z</time>
      </trkpt>
      <trkpt lat="42.360252030193806" lon="2.020817007869482">
        <ele>2161.2170000000001</ele>
        <time>2012-06-22T10:11:29Z</time>
      </trkpt>
      <trkpt lat="42.360343979671597" lon="2.020971989259124">
        <ele>2161.7069999999999</ele>
        <time>2012-06-22T10:11:38Z</time>
      </trkpt>
      <trkpt lat="42.360442969948053" lon="2.021152032539249">
        <ele>2163.1109999999999</ele>
        <time>2012-06-22T10:11:48Z</time>
      </trkpt>
      <trkpt lat="42.360515976324677" lon="2.021297039464116">
        <ele>2163.6680000000001</ele>
        <time>2012-06-22T10:11:57Z</time>
      </trkpt>
      <trkpt lat="42.360518993809819" lon="2.02141497284174">
        <ele>2164.645</ele>
        <time>2012-06-22T10:12:03Z</time>
      </trkpt>
      <trkpt lat="42.360307015478611" lon="2.021179022267461">
        <ele>-418.03899999999999</ele>
        <time>2007-07-12T17:16:16Z</time>
      </trkpt>
      <trkpt lat="42.359978025779128" lon="2.020979030057788">
        <ele>-418.053</ele>
        <time>2007-07-12T17:16:16Z</time>
      </trkpt>
      <trkpt lat="42.359713995829225" lon="2.020689016208053">
        <ele>-418.08499999999998</ele>
        <time>2007-07-12T17:16:16Z</time>
      </trkpt>
      <trkpt lat="42.359367990866303" lon="2.02055498957634">
        <ele>-418.09100000000001</ele>
        <time>2007-07-12T17:16:16Z</time>
      </trkpt>
      <trkpt lat="42.35918702557683" lon="2.020220970734954">
        <ele>-418.08100000000002</ele>
        <time>2007-07-12T17:16:16Z</time>
      </trkpt>
      <trkpt lat="42.358873961493373" lon="2.020153999328613">
        <ele>-418.01900000000001</ele>
        <time>2007-07-12T17:16:16Z</time>
      </trkpt>
      <trkpt lat="42.358428966253996" lon="2.020243015140295">
        <ele>-418.005</ele>
        <time>2007-07-12T17:16:16Z</time>
      </trkpt>
      <trkpt lat="42.357984976842999" lon="2.02055498957634">
        <ele>-418.07400000000001</ele>
        <time>2007-07-12T17:16:16Z</time>
      </trkpt>
      <trkpt lat="42.357606031000614" lon="2.020911974832416">
        <ele>-418.07999999999998</ele>
        <time>2007-07-12T17:16:16Z</time>
      </trkpt>
      <trkpt lat="42.357342001050711" lon="2.021000990644097">
        <ele>-418.089</ele>
        <time>2007-07-12T17:16:16Z</time>
      </trkpt>
      <trkpt lat="42.35706196166575" lon="2.021179022267461">
        <ele>-418.06299999999999</ele>
        <time>2007-07-12T17:16:16Z</time>
      </trkpt>
      <trkpt lat="42.356633981689811" lon="2.021490996703506">
        <ele>-418.05500000000001</ele>
        <time>2007-07-12T17:16:16Z</time>
      </trkpt>
      <trkpt lat="42.356338016688824" lon="2.021870026364923">
        <ele>-418.029</ele>
        <time>2007-07-12T17:16:16Z</time>
      </trkpt>
      <trkpt lat="42.356239026412368" lon="2.022449970245361">
        <ele>-418</ele>
        <time>2007-07-12T17:16:16Z</time>
      </trkpt>
      <trkpt lat="42.356107011437416" lon="2.02291801571846">
        <ele>-418.01999999999998</ele>
        <time>2007-07-12T17:16:16Z</time>
      </trkpt>
      <trkpt lat="42.355992011725903" lon="2.023028992116451">
        <ele>-418.005</ele>
        <time>2007-07-12T17:16:16Z</time>
      </trkpt>
      <trkpt lat="42.355744997039437" lon="2.023140974342823">
        <ele>-418.04700000000003</ele>
        <time>2007-07-12T17:16:16Z</time>
      </trkpt>
      <trkpt lat="42.355628991499543" lon="2.023208029568195">
        <ele>-418.03300000000002</ele>
        <time>2007-07-12T17:16:16Z</time>
      </trkpt>
      <trkpt lat="42.355612982064486" lon="2.02412199229002">
        <ele>-418.08199999999999</ele>
        <time>2007-07-12T17:16:16Z</time>
      </trkpt>
      <trkpt lat="42.355531007051468" lon="2.024767985567451">
        <ele>-418.07600000000002</ele>
        <time>2007-07-12T17:16:16Z</time>
      </trkpt>
      <trkpt lat="42.355480967089534" lon="2.025502994656563">
        <ele>-418.03800000000001</ele>
        <time>2007-07-12T17:16:16Z</time>
      </trkpt>
      <trkpt lat="42.355480967089534" lon="2.02597196213901">
        <ele>-418.096</ele>
        <time>2007-07-12T17:16:16Z</time>
      </trkpt>
      <trkpt lat="42.355679031461477" lon="2.026149993762374">
        <ele>-418.03100000000001</ele>
        <time>2007-07-12T17:16:16Z</time>
      </trkpt>
      <trkpt lat="42.355826972052455" lon="2.026239009574056">
        <ele>-418.024</ele>
        <time>2007-07-12T17:16:16Z</time>
      </trkpt>
      <trkpt lat="42.355941971763968" lon="2.026639999821782">
        <ele>-418.005</ele>
        <time>2007-07-12T17:16:16Z</time>
      </trkpt>
      <trkpt lat="42.356172977015376" lon="2.027107961475849">
        <ele>-418.024</ele>
        <time>2007-07-12T17:16:16Z</time>
      </trkpt>
      <trkpt lat="42.356281019747257" lon="2.027513980865479">
        <ele>2197.2109999999998</ele>
        <time>2012-06-22T10:20:46Z</time>
      </trkpt>
      <trkpt lat="42.356273978948593" lon="2.027674997225404">
        <ele>2198.2069999999999</ele>
        <time>2012-06-22T10:20:54Z</time>
      </trkpt>
      <trkpt lat="42.356204995885491" lon="2.027843976393342">
        <ele>2198.2849999999999</ele>
        <time>2012-06-22T10:21:03Z</time>
      </trkpt>
      <trkpt lat="42.356121009215713" lon="2.027997029945254">
        <ele>2199.252</ele>
        <time>2012-06-22T10:21:11Z</time>
      </trkpt>
      <trkpt lat="42.356055965647101" lon="2.028184030205011">
        <ele>2198.7689999999998</ele>
        <time>2012-06-22T10:21:19Z</time>
      </trkpt>
      <trkpt lat="42.355991005897522" lon="2.028413023799658">
        <ele>2199.6959999999999</ele>
        <time>2012-06-22T10:21:28Z</time>
      </trkpt>
      <trkpt lat="42.355945995077491" lon="2.028630031272769">
        <ele>2200.6770000000001</ele>
        <time>2012-06-22T10:21:36Z</time>
      </trkpt>
      <trkpt lat="42.35596502199769" lon="2.028857013210654">
        <ele>2201.6550000000002</ele>
        <time>2012-06-22T10:21:44Z</time>
      </trkpt>
      <trkpt lat="42.356010032817721" lon="2.029034961014986">
        <ele>2202.5410000000002</ele>
        <time>2012-06-22T10:21:52Z</time>
      </trkpt>
      <trkpt lat="42.356079015880823" lon="2.029210980981588">
        <ele>2204.018</ele>
        <time>2012-06-22T10:22:00Z</time>
      </trkpt>
      <trkpt lat="42.356178006157279" lon="2.029455984011293">
        <ele>2204.498</ele>
        <time>2012-06-22T10:22:10Z</time>
      </trkpt>
      <trkpt lat="42.356299962848425" lon="2.029680032283068">
        <ele>2205.4169999999999</ele>
        <time>2012-06-22T10:22:20Z</time>
      </trkpt>
      <trkpt lat="42.356418985873461" lon="2.029824033379555">
        <ele>2206.8069999999998</ele>
        <time>2012-06-22T10:22:28Z</time>
      </trkpt>
      <trkpt lat="42.356521999463439" lon="2.029938027262688">
        <ele>2207.884</ele>
        <time>2012-06-22T10:22:35Z</time>
      </trkpt>
      <trkpt lat="42.356601962819695" lon="2.030053026974201">
        <ele>2208.8910000000001</ele>
        <time>2012-06-22T10:22:42Z</time>
      </trkpt>
      <trkpt lat="42.356692990288138" lon="2.030224017798901">
        <ele>2209.7379999999998</ele>
        <time>2012-06-22T10:22:51Z</time>
      </trkpt>
      <trkpt lat="42.356788963079453" lon="2.030450999736786">
        <ele>2211.2649999999999</ele>
        <time>2012-06-22T10:23:02Z</time>
      </trkpt>
      <trkpt lat="42.356884013861418" lon="2.030719975009561">
        <ele>2210.7959999999998</ele>
        <time>2012-06-22T10:23:13Z</time>
      </trkpt>
      <trkpt lat="42.35697596333921" lon="2.030912004411221">
        <ele>2211.2840000000001</ele>
        <time>2012-06-22T10:23:20Z</time>
      </trkpt>
      <trkpt lat="42.357174027711153" lon="2.03112599439919">
        <ele>2212.1300000000001</ele>
        <time>2012-06-22T10:23:29Z</time>
      </trkpt>
      <trkpt lat="42.357357004657388" lon="2.031260021030903">
        <ele>2212.6680000000001</ele>
        <time>2012-06-22T10:23:36Z</time>
      </trkpt>
      <trkpt lat="42.357601001858711" lon="2.031432017683983">
        <ele>2211.7420000000002</ele>
        <time>2012-06-22T10:23:45Z</time>
      </trkpt>
      <trkpt lat="42.357799988240004" lon="2.031580964103341">
        <ele>2212.1260000000002</ele>
        <time>2012-06-22T10:23:52Z</time>
      </trkpt>
      <trkpt lat="42.358054965734482" lon="2.031826972961426">
        <ele>2211.7069999999999</ele>
        <time>2012-06-22T10:24:01Z</time>
      </trkpt>
      <trkpt lat="42.358211958780885" lon="2.032078010961413">
        <ele>2210.299</ele>
        <time>2012-06-22T10:24:08Z</time>
      </trkpt>
      <trkpt lat="42.358353026211262" lon="2.032367018982768">
        <ele>2208.866</ele>
        <time>2012-06-22T10:24:16Z</time>
      </trkpt>
      <trkpt lat="42.358498033136129" lon="2.0326520036906">
        <ele>2206.8629999999998</ele>
        <time>2012-06-22T10:24:24Z</time>
      </trkpt>
      <trkpt lat="42.358615966513753" lon="2.03295199200511">
        <ele>2204.9099999999999</ele>
        <time>2012-06-22T10:24:31Z</time>
      </trkpt>
      <trkpt lat="42.358627030625939" lon="2.033004965633154">
        <ele>2204.951</ele>
        <time>2012-06-22T10:24:32Z</time>
      </trkpt>
      <trkpt lat="42.358627030625939" lon="2.033331021666527">
        <ele>2204.9189999999999</ele>
        <time>2012-06-22T10:24:38Z</time>
      </trkpt>
      <trkpt lat="42.358500966802239" lon="2.033760007470846">
        <ele>2204.0450000000001</ele>
        <time>2012-06-22T10:24:46Z</time>
      </trkpt>
      <trkpt lat="42.358452016487718" lon="2.033872995525599">
        <ele>2203.5740000000001</ele>
        <time>2012-06-22T10:24:48Z</time>
      </trkpt>
      <trkpt lat="42.358142975717783" lon="2.034389991313219">
        <ele>2202.056</ele>
        <time>2012-06-22T10:24:58Z</time>
      </trkpt>
      <trkpt lat="42.357979025691748" lon="2.034746976569295">
        <ele>2201.1210000000001</ele>
        <time>2012-06-22T10:25:06Z</time>
      </trkpt>
      <trkpt lat="42.357861008495092" lon="2.035041013732553">
        <ele>2202.0070000000001</ele>
        <time>2012-06-22T10:25:13Z</time>
      </trkpt>
      <trkpt lat="42.357696974650025" lon="2.035447033122182">
        <ele>2201.6599999999999</ele>
        <time>2012-06-22T10:25:23Z</time>
      </trkpt>
      <trkpt lat="42.357608964666724" lon="2.035822961479425">
        <ele>2202.0369999999998</ele>
        <time>2012-06-22T10:25:31Z</time>
      </trkpt>
      <trkpt lat="42.357570994645357" lon="2.036221018061042">
        <ele>2203.5239999999999</ele>
        <time>2012-06-22T10:25:40Z</time>
      </trkpt>
      <trkpt lat="42.357627991586924" lon="2.036402989178896">
        <ele>2204.0810000000001</ele>
        <time>2012-06-22T10:25:45Z</time>
      </trkpt>
      <trkpt lat="42.357765035703778" lon="2.036500973626971">
        <ele>2205.422</ele>
        <time>2012-06-22T10:25:52Z</time>
      </trkpt>
      <trkpt lat="42.357788002118468" lon="2.03651798889041">
        <ele>2205.9099999999999</ele>
        <time>2012-06-22T10:25:59Z</time>
      </trkpt>
      <trkpt lat="42.357792025431991" lon="2.036516983062029">
        <ele>2205.9960000000001</ele>
        <time>2012-06-22T10:26:09Z</time>
      </trkpt>
      <trkpt lat="42.357792025431991" lon="2.036516983062029">
        <ele>2206.4670000000001</ele>
        <time>2012-06-22T10:26:24Z</time>
      </trkpt>
      <trkpt lat="42.357792025431991" lon="2.036516983062029">
        <ele>2206.4810000000002</ele>
        <time>2012-06-22T10:26:39Z</time>
      </trkpt>
      <trkpt lat="42.357792025431991" lon="2.036520000547171">
        <ele>2206.819</ele>
        <time>2012-06-22T10:26:50Z</time>
      </trkpt>
      <trkpt lat="42.357792025431991" lon="2.036520000547171">
        <ele>2205.9070000000002</ele>
        <time>2012-06-22T10:27:00Z</time>
      </trkpt>
      <trkpt lat="42.357792025431991" lon="2.036520000547171">
        <ele>2206.4989999999998</ele>
        <time>2012-06-22T10:27:20Z</time>
      </trkpt>
      <trkpt lat="42.357792025431991" lon="2.036515977233648">
        <ele>2206.846</ele>
        <time>2012-06-22T10:27:40Z</time>
      </trkpt>
      <trkpt lat="42.357792025431991" lon="2.036515977233648">
        <ele>2206.8429999999998</ele>
        <time>2012-06-22T10:27:58Z</time>
      </trkpt>
      <trkpt lat="42.357792025431991" lon="2.03651798889041">
        <ele>2206.4899999999998</ele>
        <time>2012-06-22T10:28:09Z</time>
      </trkpt>
      <trkpt lat="42.357792025431991" lon="2.03651798889041">
        <ele>2206.471</ele>
        <time>2012-06-22T10:28:28Z</time>
      </trkpt>
      <trkpt lat="42.357829995453358" lon="2.036533998325467">
        <ele>2206.4490000000001</ele>
        <time>2012-06-22T10:28:35Z</time>
      </trkpt>
      <trkpt lat="42.357864025980234" lon="2.036556964740157">
        <ele>2206.4450000000002</ele>
        <time>2012-06-22T10:28:38Z</time>
      </trkpt>
      <trkpt lat="42.357979025691748" lon="2.036583032459021">
        <ele>2205.9209999999998</ele>
        <time>2012-06-22T10:28:47Z</time>
      </trkpt>
      <trkpt lat="42.358069969341159" lon="2.036659978330135">
        <ele>2206.4409999999998</ele>
        <time>2012-06-22T10:28:54Z</time>
      </trkpt>
      <trkpt lat="42.358208019286394" lon="2.036814037710428">
        <ele>2207.3049999999998</ele>
        <time>2012-06-22T10:29:04Z</time>
      </trkpt>
      <trkpt lat="42.358322013169527" lon="2.036931971088052">
        <ele>2207.8069999999998</ele>
        <time>2012-06-22T10:29:11Z</time>
      </trkpt>
      <trkpt lat="42.358489986509085" lon="2.03716398216784">
        <ele>2209.375</ele>
        <time>2012-06-22T10:29:22Z</time>
      </trkpt>
      <trkpt lat="42.358624013140798" lon="2.037371015176177">
        <ele>2210.2919999999999</ele>
        <time>2012-06-22T10:29:30Z</time>
      </trkpt>
      <trkpt lat="42.358745969831944" lon="2.037588022649288">
        <ele>2211.799</ele>
        <time>2012-06-22T10:29:38Z</time>
      </trkpt>
      <trkpt lat="42.358893994241953" lon="2.037870995700359">
        <ele>2210.7159999999999</ele>
        <time>2012-06-22T10:29:47Z</time>
      </trkpt>
      <trkpt lat="42.359050987288356" lon="2.038208032026887">
        <ele>2211.2269999999999</ele>
        <time>2012-06-22T10:29:56Z</time>
      </trkpt>
      <trkpt lat="42.359154000878334" lon="2.038465021178126">
        <ele>2211.7249999999999</ele>
        <time>2012-06-22T10:30:02Z</time>
      </trkpt>
      <trkpt lat="42.359272018074989" lon="2.038888977840543">
        <ele>2210.7109999999998</ele>
        <time>2012-06-22T10:30:12Z</time>
      </trkpt>
      <trkpt lat="42.359318034723401" lon="2.039297008886933">
        <ele>2211.7849999999999</ele>
        <time>2012-06-22T10:30:21Z</time>
      </trkpt>
      <trkpt lat="42.359329015016556" lon="2.039693975821137">
        <ele>2212.1889999999999</ele>
        <time>2012-06-22T10:30:30Z</time>
      </trkpt>
      <trkpt lat="42.359329015016556" lon="2.040122039616108">
        <ele>2212.1170000000002</ele>
        <time>2012-06-22T10:30:39Z</time>
      </trkpt>
      <trkpt lat="42.359303031116724" lon="2.04062202014029">
        <ele>2212.107</ele>
        <time>2012-06-22T10:30:49Z</time>
      </trkpt>
      <trkpt lat="42.359303031116724" lon="2.040974982082844">
        <ele>2213.681</ele>
        <time>2012-06-22T10:30:57Z</time>
      </trkpt>
      <trkpt lat="42.359303031116724" lon="2.041300032287836">
        <ele>2214.5479999999998</ele>
        <time>2012-06-22T10:31:05Z</time>
      </trkpt>
      <trkpt lat="42.359314011409879" lon="2.041687024757266">
        <ele>2214.5450000000001</ele>
        <time>2012-06-22T10:31:14Z</time>
      </trkpt>
      <trkpt lat="42.359314011409879" lon="2.042094971984625">
        <ele>2215.0219999999999</ele>
        <time>2012-06-22T10:31:23Z</time>
      </trkpt>
      <trkpt lat="42.359299007803202" lon="2.042523035779595">
        <ele>2215.0129999999999</ele>
        <time>2012-06-22T10:31:32Z</time>
      </trkpt>
      <trkpt lat="42.359226001426578" lon="2.04298697412014">
        <ele>2213.6309999999999</ele>
        <time>2012-06-22T10:31:41Z</time>
      </trkpt>
      <trkpt lat="42.359161041676998" lon="2.04319903627038">
        <ele>2213.1469999999999</ele>
        <time>2012-06-22T10:31:45Z</time>
      </trkpt>
      <trkpt lat="42.358989967033267" lon="2.043449990451336">
        <ele>2210.7809999999999</ele>
        <time>2012-06-22T10:31:51Z</time>
      </trkpt>
      <trkpt lat="42.358959037810564" lon="2.043489972129464">
        <ele>2209.761</ele>
        <time>2012-06-22T10:31:52Z</time>
      </trkpt>
      <trkpt lat="42.358814030885696" lon="2.043689964339137">
        <ele>2208.317</ele>
        <time>2012-06-22T10:31:56Z</time>
      </trkpt>
      <trkpt lat="42.358727026730776" lon="2.043789038434625">
        <ele>2206.8069999999998</ele>
        <time>2012-06-22T10:31:58Z</time>
      </trkpt>
      <trkpt lat="42.358566010370851" lon="2.043906971812248">
        <ele>2204.9609999999998</ele>
        <time>2012-06-22T10:32:01Z</time>
      </trkpt>
      <trkpt lat="42.358421003445983" lon="2.044132025912404">
        <ele>2202.538</ele>
        <time>2012-06-22T10:32:06Z</time>
      </trkpt>
      <trkpt lat="42.35847900621593" lon="2.04429698176682">
        <ele>2202.0949999999998</ele>
        <time>2012-06-22T10:32:09Z</time>
      </trkpt>
      <trkpt lat="42.358593000099063" lon="2.044512983411551">
        <ele>2201.152</ele>
        <time>2012-06-22T10:32:13Z</time>
      </trkpt>
      <trkpt lat="42.358627030625939" lon="2.044643992558122">
        <ele>2199.6329999999998</ele>
        <time>2012-06-22T10:32:15Z</time>
      </trkpt>
      <trkpt lat="42.358806990087032" lon="2.045160988345742">
        <ele>2196.8809999999999</ele>
        <time>2012-06-22T10:32:23Z</time>
      </trkpt>
      <trkpt lat="42.358859963715076" lon="2.045312030240893">
        <ele>2195.8670000000002</ele>
        <time>2012-06-22T10:32:25Z</time>
      </trkpt>
      <trkpt lat="42.358868010342121" lon="2.045748978853226">
        <ele>2193.4140000000002</ele>
        <time>2012-06-22T10:32:30Z</time>
      </trkpt>
      <trkpt lat="42.358848983421922" lon="2.045823996886611">
        <ele>2192.9540000000002</ele>
        <time>2012-06-22T10:32:31Z</time>
      </trkpt>
      <trkpt lat="42.358715040609241" lon="2.046162039041519">
        <ele>2193.4090000000001</ele>
        <time>2012-06-22T10:32:37Z</time>
      </trkpt>
      <trkpt lat="42.358649997040629" lon="2.046461021527648">
        <ele>2194.8069999999998</ele>
        <time>2012-06-22T10:32:45Z</time>
      </trkpt>
      <trkpt lat="42.358588976785541" lon="2.04661700874567">
        <ele>2193.9540000000002</ele>
        <time>2012-06-22T10:32:51Z</time>
      </trkpt>
      <trkpt lat="42.35858503729105" lon="2.046628994867206">
        <ele>2194.8409999999999</ele>
        <time>2012-06-22T10:32:56Z</time>
      </trkpt>
      <trkpt lat="42.35858503729105" lon="2.046633018180728">
        <ele>2195.3679999999999</ele>
        <time>2012-06-22T10:32:57Z</time>
      </trkpt>
      <trkpt lat="42.35858503729105" lon="2.046656990423799">
        <ele>2194.4949999999999</ele>
        <time>2012-06-22T10:33:04Z</time>
      </trkpt>
      <trkpt lat="42.358600962907076" lon="2.04668297432363">
        <ele>2193.4560000000001</ele>
        <time>2012-06-22T10:33:10Z</time>
      </trkpt>
      <trkpt lat="42.358600962907076" lon="2.046671994030476">
        <ele>2193.9940000000001</ele>
        <time>2012-06-22T10:33:22Z</time>
      </trkpt>
      <trkpt lat="42.358600962907076" lon="2.046671994030476">
        <ele>2193.96</ele>
        <time>2012-06-22T10:33:43Z</time>
      </trkpt>
      <trkpt lat="42.358600962907076" lon="2.046672999858856">
        <ele>2194.4639999999999</ele>
        <time>2012-06-22T10:34:05Z</time>
      </trkpt>
      <trkpt lat="42.358600962907076" lon="2.046672999858856">
        <ele>2193.9059999999999</ele>
        <time>2012-06-22T10:34:28Z</time>
      </trkpt>
      <trkpt lat="42.358600962907076" lon="2.046672999858856">
        <ele>2194.4160000000002</ele>
        <time>2012-06-22T10:34:29Z</time>
      </trkpt>
      <trkpt lat="42.358582019805908" lon="2.046674005687237">
        <ele>2194.8069999999998</ele>
        <time>2012-06-22T10:34:34Z</time>
      </trkpt>
      <trkpt lat="42.358509013429284" lon="2.046796968206763">
        <ele>2194.8690000000001</ele>
        <time>2012-06-22T10:34:41Z</time>
      </trkpt>
      <trkpt lat="42.358432989567518" lon="2.046949015930295">
        <ele>2195.826</ele>
        <time>2012-06-22T10:34:47Z</time>
      </trkpt>
      <trkpt lat="42.358417985960841" lon="2.046969970688224">
        <ele>2195.393</ele>
        <time>2012-06-22T10:34:48Z</time>
      </trkpt>
      <trkpt lat="42.358283959329128" lon="2.047172980383039">
        <ele>2197.7600000000002</ele>
        <time>2012-06-22T10:34:58Z</time>
      </trkpt>
      <trkpt lat="42.358192009851336" lon="2.047292003408074">
        <ele>2198.2809999999999</ele>
        <time>2012-06-22T10:35:05Z</time>
      </trkpt>
      <trkpt lat="42.358078015968204" lon="2.047446984797716">
        <ele>2199.6190000000001</ele>
        <time>2012-06-22T10:35:15Z</time>
      </trkpt>
      <trkpt lat="42.35798598267138" lon="2.047570031136274">
        <ele>2200.665</ele>
        <time>2012-06-22T10:35:23Z</time>
      </trkpt>
      <trkpt lat="42.357876012101769" lon="2.047726018354297">
        <ele>2202.058</ele>
        <time>2012-06-22T10:35:33Z</time>
      </trkpt>
      <trkpt lat="42.357783978804946" lon="2.047828026115894">
        <ele>2204.0520000000001</ele>
        <time>2012-06-22T10:35:40Z</time>
      </trkpt>
      <trkpt lat="42.357651041820645" lon="2.047983007505536">
        <ele>2205.9169999999999</ele>
        <time>2012-06-22T10:35:51Z</time>
      </trkpt>
      <trkpt lat="42.357570994645357" lon="2.048148969188333">
        <ele>2207.3069999999998</ele>
        <time>2012-06-22T10:36:00Z</time>
      </trkpt>
      <trkpt lat="42.357608964666724" lon="2.048262041062117">
        <ele>2207.8380000000002</ele>
        <time>2012-06-22T10:36:06Z</time>
      </trkpt>
      <trkpt lat="42.357746008783579" lon="2.048401013016701">
        <ele>2210.2550000000001</ele>
        <time>2012-06-22T10:36:17Z</time>
      </trkpt>
      <trkpt lat="42.357871988788247" lon="2.048506960272789">
        <ele>2211.212</ele>
        <time>2012-06-22T10:36:26Z</time>
      </trkpt>
      <trkpt lat="42.357882969081402" lon="2.048520036041737">
        <ele>2211.239</ele>
        <time>2012-06-22T10:36:27Z</time>
      </trkpt>
      <trkpt lat="42.357994029298425" lon="2.048618020489812">
        <ele>2213.6900000000001</ele>
        <time>2012-06-22T10:36:35Z</time>
      </trkpt>
      <trkpt lat="42.358100982382894" lon="2.048704018816352">
        <ele>2214.1480000000001</ele>
        <time>2012-06-22T10:36:43Z</time>
      </trkpt>
      <trkpt lat="42.358214976266026" lon="2.048753974959254">
        <ele>2215.0540000000001</ele>
        <time>2012-06-22T10:36:50Z</time>
      </trkpt>
      <trkpt lat="42.358349002897739" lon="2.048792028799653">
        <ele>2216.9870000000001</ele>
        <time>2012-06-22T10:36:59Z</time>
      </trkpt>
      <trkpt lat="42.358462996780872" lon="2.048827987164259">
        <ele>2218.442</ele>
        <time>2012-06-22T10:37:07Z</time>
      </trkpt>
      <trkpt lat="42.358520999550819" lon="2.048848019912839">
        <ele>2219.326</ele>
        <time>2012-06-22T10:37:11Z</time>
      </trkpt>
      <trkpt lat="42.358681010082364" lon="2.048920020461083">
        <ele>2221.7069999999999</ele>
        <time>2012-06-22T10:37:23Z</time>
      </trkpt>
      <trkpt lat="42.358700037002563" lon="2.04893502406776">
        <ele>2221.741</ele>
        <time>2012-06-22T10:37:25Z</time>
      </trkpt>
      <trkpt lat="42.358810007572174" lon="2.048966959118843">
        <ele>2223.7179999999998</ele>
        <time>2012-06-22T10:37:34Z</time>
      </trkpt>
      <trkpt lat="42.358910003677011" lon="2.049014987424016">
        <ele>2225.125</ele>
        <time>2012-06-22T10:37:44Z</time>
      </trkpt>
      <trkpt lat="42.358997007831931" lon="2.04906796105206">
        <ele>2226.172</ele>
        <time>2012-06-22T10:37:52Z</time>
      </trkpt>
      <trkpt lat="42.359043024480343" lon="2.04911096021533">
        <ele>2227.0630000000001</ele>
        <time>2012-06-22T10:37:57Z</time>
      </trkpt>
      <trkpt lat="42.359112007543445" lon="2.049171980470419">
        <ele>2228.511</ele>
        <time>2012-06-22T10:38:05Z</time>
      </trkpt>
      <trkpt lat="42.359176967293024" lon="2.049226965755224">
        <ele>2229.9169999999999</ele>
        <time>2012-06-22T10:38:12Z</time>
      </trkpt>
      <trkpt lat="42.35918803140521" lon="2.04923601821065">
        <ele>2229.4920000000002</ele>
        <time>2012-06-22T10:38:13Z</time>
      </trkpt>
      <trkpt lat="42.359287021681666" lon="2.049299972131848">
        <ele>2231.873</ele>
        <time>2012-06-22T10:38:21Z</time>
      </trkpt>
      <trkpt lat="42.359347958117723" lon="2.049379013478756">
        <ele>2232.8200000000002</ele>
        <time>2012-06-22T10:38:27Z</time>
      </trkpt>
      <trkpt lat="42.359447032213211" lon="2.049467023462057">
        <ele>2234.7069999999999</ele>
        <time>2012-06-22T10:38:36Z</time>
      </trkpt>
      <trkpt lat="42.359508974477649" lon="2.049513962119818">
        <ele>2235.732</ele>
        <time>2012-06-22T10:38:41Z</time>
      </trkpt>
      <trkpt lat="42.359595978632569" lon="2.049595015123487">
        <ele>2237.6590000000001</ele>
        <time>2012-06-22T10:38:48Z</time>
      </trkpt>
      <trkpt lat="42.359619028866291" lon="2.049615969881415">
        <ele>2238.636</ele>
        <time>2012-06-22T10:38:50Z</time>
      </trkpt>
      <trkpt lat="42.359707038849592" lon="2.049692999571562">
        <ele>2239.1329999999998</ele>
        <time>2012-06-22T10:38:57Z</time>
      </trkpt>
      <trkpt lat="42.359791025519371" lon="2.049757959321141">
        <ele>2240.5639999999999</ele>
        <time>2012-06-22T10:39:05Z</time>
      </trkpt>
      <trkpt lat="42.359848022460938" lon="2.049815040081739">
        <ele>2241.9720000000002</ele>
        <time>2012-06-22T10:39:11Z</time>
      </trkpt>
      <trkpt lat="42.359936032444239" lon="2.049895003437996">
        <ele>2242.9380000000001</ele>
        <time>2012-06-22T10:39:20Z</time>
      </trkpt>
      <trkpt lat="42.359989006072283" lon="2.049975972622633">
        <ele>2244.3220000000001</ele>
        <time>2012-06-22T10:39:27Z</time>
      </trkpt>
      <trkpt lat="42.359993029385805" lon="2.04998997040093">
        <ele>2244.3620000000001</ele>
        <time>2012-06-22T10:39:28Z</time>
      </trkpt>
      <trkpt lat="42.360038962215185" lon="2.050075968727469">
        <ele>2245.308</ele>
        <time>2012-06-22T10:39:35Z</time>
      </trkpt>
      <trkpt lat="42.360068969428539" lon="2.050146963447332">
        <ele>2246.7069999999999</ele>
        <time>2012-06-22T10:39:39Z</time>
      </trkpt>
      <trkpt lat="42.360081039369106" lon="2.050174959003925">
        <ele>2246.7950000000001</ele>
        <time>2012-06-22T10:39:41Z</time>
      </trkpt>
      <trkpt lat="42.360141975805163" lon="2.050322983413935">
        <ele>2248.712</ele>
        <time>2012-06-22T10:39:51Z</time>
      </trkpt>
      <trkpt lat="42.360202996060252" lon="2.050425997003913">
        <ele>2249.6190000000001</ele>
        <time>2012-06-22T10:39:59Z</time>
      </trkpt>
      <trkpt lat="42.360270973294973" lon="2.050548959523439">
        <ele>2252.5859999999998</ele>
        <time>2012-06-22T10:40:09Z</time>
      </trkpt>
      <trkpt lat="42.360286982730031" lon="2.050629006698728">
        <ele>2253.0369999999998</ele>
        <time>2012-06-22T10:40:13Z</time>
      </trkpt>
      <trkpt lat="42.360279019922018" lon="2.050663037225604">
        <ele>2253.5749999999998</ele>
        <time>2012-06-22T10:40:15Z</time>
      </trkpt>
      <trkpt lat="42.360279019922018" lon="2.050718022510409">
        <ele>2254.0210000000002</ele>
        <time>2012-06-22T10:40:19Z</time>
      </trkpt>
      <trkpt lat="42.360297963023186" lon="2.050889013335109">
        <ele>2255.9340000000002</ele>
        <time>2012-06-22T10:40:30Z</time>
      </trkpt>
      <trkpt lat="42.360312966629863" lon="2.051093028858304">
        <ele>2257.855</ele>
        <time>2012-06-22T10:40:42Z</time>
      </trkpt>
      <trkpt lat="42.36032897606492" lon="2.051276005804539">
        <ele>2259.21</ele>
        <time>2012-06-22T10:40:52Z</time>
      </trkpt>
      <trkpt lat="42.360343979671597" lon="2.051403997465968">
        <ele>2260.7069999999999</ele>
        <time>2012-06-22T10:41:00Z</time>
      </trkpt>
      <trkpt lat="42.360352026298642" lon="2.05145001411438">
        <ele>2261.6959999999999</ele>
        <time>2012-06-22T10:41:03Z</time>
      </trkpt>
      <trkpt lat="42.360382033511996" lon="2.051614969968796">
        <ele>2263.163</ele>
        <time>2012-06-22T10:41:13Z</time>
      </trkpt>
      <trkpt lat="42.360389996320009" lon="2.051708009094">
        <ele>2264.5300000000002</ele>
        <time>2012-06-22T10:41:18Z</time>
      </trkpt>
      <trkpt lat="42.360400976613164" lon="2.051797024905682">
        <ele>2265.5569999999998</ele>
        <time>2012-06-22T10:41:23Z</time>
      </trkpt>
      <trkpt lat="42.360397037118673" lon="2.051949994638562">
        <ele>2266.5680000000002</ele>
        <time>2012-06-22T10:41:32Z</time>
      </trkpt>
      <trkpt lat="42.360412962734699" lon="2.052089972421527">
        <ele>2267.4659999999999</ele>
        <time>2012-06-22T10:41:40Z</time>
      </trkpt>
      <trkpt lat="42.360415980219841" lon="2.052253000438213">
        <ele>2268.9319999999998</ele>
        <time>2012-06-22T10:41:50Z</time>
      </trkpt>
      <trkpt lat="42.360412962734699" lon="2.052284013479948">
        <ele>2269.875</ele>
        <time>2012-06-22T10:41:52Z</time>
      </trkpt>
      <trkpt lat="42.360378010198474" lon="2.05233103595674">
        <ele>2270.328</ele>
        <time>2012-06-22T10:41:56Z</time>
      </trkpt>
      <trkpt lat="42.360340040177107" lon="2.052336987107992">
        <ele>2270.8200000000002</ele>
        <time>2012-06-22T10:41:59Z</time>
      </trkpt>
      <trkpt lat="42.360274996608496" lon="2.052221987396479">
        <ele>2272.2069999999999</ele>
        <time>2012-06-22T10:42:07Z</time>
      </trkpt>
      <trkpt lat="42.360210036858916" lon="2.052131965756416">
        <ele>2272.75</ele>
        <time>2012-06-22T10:42:13Z</time>
      </trkpt>
      <trkpt lat="42.360065029934049" lon="2.052041022107005">
        <ele>2273.7570000000001</ele>
        <time>2012-06-22T10:42:23Z</time>
      </trkpt>
      <trkpt lat="42.360015995800495" lon="2.052012020722032">
        <ele>2274.1439999999998</ele>
        <time>2012-06-22T10:42:27Z</time>
      </trkpt>
      <trkpt lat="42.359839975833893" lon="2.051956029608846">
        <ele>2275.6709999999998</ele>
        <time>2012-06-22T10:42:40Z</time>
      </trkpt>
      <trkpt lat="42.359730005264282" lon="2.05194597132504">
        <ele>2277.0520000000001</ele>
        <time>2012-06-22T10:42:48Z</time>
      </trkpt>
      <trkpt lat="42.359650041908026" lon="2.051951000466943">
        <ele>2278.54</ele>
        <time>2012-06-22T10:42:54Z</time>
      </trkpt>
      <trkpt lat="42.359622968360782" lon="2.051956029608846">
        <ele>2278.5160000000001</ele>
        <time>2012-06-22T10:42:56Z</time>
      </trkpt>
      <trkpt lat="42.359549961984158" lon="2.051949994638562">
        <ele>2280.4279999999999</ele>
        <time>2012-06-22T10:43:02Z</time>
      </trkpt>
      <trkpt lat="42.35951199196279" lon="2.05196600407362">
        <ele>2280.989</ele>
        <time>2012-06-22T10:43:05Z</time>
      </trkpt>
      <trkpt lat="42.359378971159458" lon="2.051992993801832">
        <ele>2282.317</ele>
        <time>2012-06-22T10:43:15Z</time>
      </trkpt>
      <trkpt lat="42.359294984489679" lon="2.052038004621863">
        <ele>2283.8069999999998</ele>
        <time>2012-06-22T10:43:22Z</time>
      </trkpt>
      <trkpt lat="42.359184008091688" lon="2.052107993513346">
        <ele>2285.7150000000001</ele>
        <time>2012-06-22T10:43:31Z</time>
      </trkpt>
      <trkpt lat="42.359107984229922" lon="2.052155015990138">
        <ele>2287.152</ele>
        <time>2012-06-22T10:43:38Z</time>
      </trkpt>
      <trkpt lat="42.359013017266989" lon="2.052241014316678">
        <ele>2288.6990000000001</ele>
        <time>2012-06-22T10:43:48Z</time>
      </trkpt>
      <trkpt lat="42.358940010890365" lon="2.052316032350063">
        <ele>2289.0459999999998</ele>
        <time>2012-06-22T10:43:56Z</time>
      </trkpt>
      <trkpt lat="42.358852000907063" lon="2.052405970171094">
        <ele>2290.5970000000002</ele>
        <time>2012-06-22T10:44:05Z</time>
      </trkpt>
      <trkpt lat="42.358742030337453" lon="2.052516024559736">
        <ele>2292.9250000000002</ele>
        <time>2012-06-22T10:44:16Z</time>
      </trkpt>
      <trkpt lat="42.358661983162165" lon="2.052601017057896">
        <ele>2293.8310000000001</ele>
        <time>2012-06-22T10:44:25Z</time>
      </trkpt>
      <trkpt lat="42.358577996492386" lon="2.052662959322333">
        <ele>2294.8209999999999</ele>
        <time>2012-06-22T10:44:33Z</time>
      </trkpt>
      <trkpt lat="42.358542960137129" lon="2.052751975134015">
        <ele>2297.241</ele>
        <time>2012-06-22T10:44:40Z</time>
      </trkpt>
      <trkpt lat="42.358597023412585" lon="2.052817018702626">
        <ele>2298.7049999999999</ele>
        <time>2012-06-22T10:44:46Z</time>
      </trkpt>
      <trkpt lat="42.358687967061996" lon="2.052834033966065">
        <ele>2300.107</ele>
        <time>2012-06-22T10:44:53Z</time>
      </trkpt>
      <trkpt lat="42.358745969831944" lon="2.05286898650229">
        <ele>2301.125</ele>
        <time>2012-06-22T10:44:58Z</time>
      </trkpt>
      <trkpt lat="42.358795003965497" lon="2.052913997322321">
        <ele>2301.5320000000002</ele>
        <time>2012-06-22T10:45:03Z</time>
      </trkpt>
      <trkpt lat="42.358913021162152" lon="2.053004018962383">
        <ele>2302.549</ele>
        <time>2012-06-22T10:45:13Z</time>
      </trkpt>
      <trkpt lat="42.35893196426332" lon="2.053023967891932">
        <ele>2303.0659999999998</ele>
        <time>2012-06-22T10:45:15Z</time>
      </trkpt>
      <trkpt lat="42.359028020873666" lon="2.053079036995769">
        <ele>2304.4169999999999</ele>
        <time>2012-06-22T10:45:23Z</time>
      </trkpt>
      <trkpt lat="42.359107984229922" lon="2.053162017837167">
        <ele>2306.8850000000002</ele>
        <time>2012-06-22T10:45:31Z</time>
      </trkpt>
      <trkpt lat="42.359142014756799" lon="2.053180960938335">
        <ele>2307.3510000000001</ele>
        <time>2012-06-22T10:45:34Z</time>
      </trkpt>
      <trkpt lat="42.359200017526746" lon="2.05323301255703">
        <ele>2307.8119999999999</ele>
        <time>2012-06-22T10:45:39Z</time>
      </trkpt>
      <trkpt lat="42.359226001426578" lon="2.053289003670216">
        <ele>2308.732</ele>
        <time>2012-06-22T10:45:43Z</time>
      </trkpt>
      <trkpt lat="42.359303031116724" lon="2.053387993946672">
        <ele>2309.2049999999999</ele>
        <time>2012-06-22T10:45:51Z</time>
      </trkpt>
      <trkpt lat="42.359321974217892" lon="2.053409032523632">
        <ele>2310.2069999999999</ele>
        <time>2012-06-22T10:45:53Z</time>
      </trkpt>
      <trkpt lat="42.359347958117723" lon="2.053473992273212">
        <ele>2311.2339999999999</ele>
        <time>2012-06-22T10:45:58Z</time>
      </trkpt>
      <trkpt lat="42.359363967552781" lon="2.053555967286229">
        <ele>2311.6610000000001</ele>
        <time>2012-06-22T10:46:03Z</time>
      </trkpt>
      <trkpt lat="42.35938299447298" lon="2.053626962006092">
        <ele>2312.1680000000001</ele>
        <time>2012-06-22T10:46:08Z</time>
      </trkpt>
      <trkpt lat="42.359390035271645" lon="2.053706003353">
        <ele>2313.6350000000002</ele>
        <time>2012-06-22T10:46:16Z</time>
      </trkpt>
      <trkpt lat="42.359408978372812" lon="2.053739028051496">
        <ele>2314.556</ele>
        <time>2012-06-22T10:46:23Z</time>
      </trkpt>
      <trkpt lat="42.359405960887671" lon="2.053745985031128">
        <ele>2314.5940000000001</ele>
        <time>2012-06-22T10:46:30Z</time>
      </trkpt>
      <trkpt lat="42.359405960887671" lon="2.053745985031128">
        <ele>2314.02</ele>
        <time>2012-06-22T10:46:45Z</time>
      </trkpt>
      <trkpt lat="42.359405960887671" lon="2.053745985031128">
        <ele>2314.0509999999999</ele>
        <time>2012-06-22T10:46:56Z</time>
      </trkpt>
      <trkpt lat="42.35940202139318" lon="2.053742967545986">
        <ele>2314.0010000000002</ele>
        <time>2012-06-22T10:47:07Z</time>
      </trkpt>
      <trkpt lat="42.35940202139318" lon="2.053742967545986">
        <ele>2314.011</ele>
        <time>2012-06-22T10:47:20Z</time>
      </trkpt>
      <trkpt lat="42.35940202139318" lon="2.053742967545986">
        <ele>2313.607</ele>
        <time>2012-06-22T10:47:34Z</time>
      </trkpt>
      <trkpt lat="42.35940202139318" lon="2.053744979202747">
        <ele>2314.018</ele>
        <time>2012-06-22T10:47:47Z</time>
      </trkpt>
      <trkpt lat="42.359397998079658" lon="2.053745985031128">
        <ele>2314.585</ele>
        <time>2012-06-22T10:48:03Z</time>
      </trkpt>
      <trkpt lat="42.359397998079658" lon="2.053745985031128">
        <ele>2314.0320000000002</ele>
        <time>2012-06-22T10:48:12Z</time>
      </trkpt>
      <trkpt lat="42.359397998079658" lon="2.053745985031128">
        <ele>2315.0990000000002</ele>
        <time>2012-06-22T10:48:27Z</time>
      </trkpt>
      <trkpt lat="42.359397998079658" lon="2.053745985031128">
        <ele>2315.0900000000001</ele>
        <time>2012-06-22T10:48:37Z</time>
      </trkpt>
      <trkpt lat="42.359397998079658" lon="2.05374900251627">
        <ele>2314.0680000000002</ele>
        <time>2012-06-22T10:48:59Z</time>
      </trkpt>
      <trkpt lat="42.359397998079658" lon="2.05374900251627">
        <ele>2314.5239999999999</ele>
        <time>2012-06-22T10:49:11Z</time>
      </trkpt>
      <trkpt lat="42.359386011958122" lon="2.053766017779708">
        <ele>2314.558</ele>
        <time>2012-06-22T10:49:22Z</time>
      </trkpt>
      <trkpt lat="42.359386011958122" lon="2.053766017779708">
        <ele>2314.5520000000001</ele>
        <time>2012-06-22T10:49:32Z</time>
      </trkpt>
      <trkpt lat="42.359386011958122" lon="2.053766017779708">
        <ele>2314.5169999999998</ele>
        <time>2012-06-22T10:49:45Z</time>
      </trkpt>
      <trkpt lat="42.359386011958122" lon="2.053760988637805">
        <ele>2314.0070000000001</ele>
        <time>2012-06-22T10:50:01Z</time>
      </trkpt>
      <trkpt lat="42.359386011958122" lon="2.053766017779708">
        <ele>2314.538</ele>
        <time>2012-06-22T10:50:16Z</time>
      </trkpt>
      <trkpt lat="42.359386011958122" lon="2.053766017779708">
        <ele>2314.585</ele>
        <time>2012-06-22T10:50:35Z</time>
      </trkpt>
      <trkpt lat="42.359386011958122" lon="2.053766017779708">
        <ele>2315.0720000000001</ele>
        <time>2012-06-22T10:50:53Z</time>
      </trkpt>
      <trkpt lat="42.359390035271645" lon="2.053767023608089">
        <ele>2315.0990000000002</ele>
        <time>2012-06-22T10:51:09Z</time>
      </trkpt>
      <trkpt lat="42.359386011958122" lon="2.053752020001411">
        <ele>2315.0700000000002</ele>
        <time>2012-06-22T10:51:16Z</time>
      </trkpt>
      <trkpt lat="42.359386011958122" lon="2.053752020001411">
        <ele>2315.018</ele>
        <time>2012-06-22T10:51:32Z</time>
      </trkpt>
      <trkpt lat="42.359390035271645" lon="2.053752020001411">
        <ele>2315.5439999999999</ele>
        <time>2012-06-22T10:51:44Z</time>
      </trkpt>
      <trkpt lat="42.359393974766135" lon="2.053743973374367">
        <ele>2315.5419999999999</ele>
        <time>2012-06-22T10:51:56Z</time>
      </trkpt>
      <trkpt lat="42.359390035271645" lon="2.053741961717606">
        <ele>2315.5219999999999</ele>
        <time>2012-06-22T10:52:03Z</time>
      </trkpt>
      <trkpt lat="42.359397998079658" lon="2.053755037486553">
        <ele>2316.0140000000001</ele>
        <time>2012-06-22T10:52:12Z</time>
      </trkpt>
      <trkpt lat="42.35940202139318" lon="2.053783033043146">
        <ele>2316.4070000000002</ele>
        <time>2012-06-22T10:52:14Z</time>
      </trkpt>
      <trkpt lat="42.359428005293012" lon="2.053932985290885">
        <ele>2316.4569999999999</ele>
        <time>2012-06-22T10:52:23Z</time>
      </trkpt>
      <trkpt lat="42.359454995021224" lon="2.05409299582243">
        <ele>2318.444</ele>
        <time>2012-06-22T10:52:32Z</time>
      </trkpt>
      <trkpt lat="42.359486008062959" lon="2.054226016625762">
        <ele>2319.3409999999999</ele>
        <time>2012-06-22T10:52:40Z</time>
      </trkpt>
      <trkpt lat="42.359508974477649" lon="2.054374041035771">
        <ele>2320.8879999999999</ele>
        <time>2012-06-22T10:52:48Z</time>
      </trkpt>
      <trkpt lat="42.359523978084326" lon="2.054514018818736">
        <ele>2321.799</ele>
        <time>2012-06-22T10:52:56Z</time>
      </trkpt>
      <trkpt lat="42.35953101888299" lon="2.054647039622068">
        <ele>2322.7370000000001</ele>
        <time>2012-06-22T10:53:04Z</time>
      </trkpt>
      <trkpt lat="42.359538981691003" lon="2.054763967171311">
        <ele>2324.1329999999998</ele>
        <time>2012-06-22T10:53:11Z</time>
      </trkpt>
      <trkpt lat="42.359447032213211" lon="2.054858012124896">
        <ele>2325.6179999999999</ele>
        <time>2012-06-22T10:53:21Z</time>
      </trkpt>
      <trkpt lat="42.359371008351445" lon="2.054847031831741">
        <ele>2327.098</ele>
        <time>2012-06-22T10:53:27Z</time>
      </trkpt>
      <trkpt lat="42.359245028346777" lon="2.054775031283498">
        <ele>2328.5169999999998</ele>
        <time>2012-06-22T10:53:38Z</time>
      </trkpt>
      <trkpt lat="42.359210997819901" lon="2.054776037111878">
        <ele>2328.9070000000002</ele>
        <time>2012-06-22T10:53:41Z</time>
      </trkpt>
      <trkpt lat="42.359085017815232" lon="2.054770002141595">
        <ele>2330.4639999999999</ele>
        <time>2012-06-22T10:53:51Z</time>
      </trkpt>
      <trkpt lat="42.358989967033267" lon="2.054776959121227">
        <ele>2332.3910000000001</ele>
        <time>2012-06-22T10:53:59Z</time>
      </trkpt>
      <trkpt lat="42.358874967321754" lon="2.054814007133246">
        <ele>2333.7379999999998</ele>
        <time>2012-06-22T10:54:09Z</time>
      </trkpt>
      <trkpt lat="42.35878000035882" lon="2.054859017953277">
        <ele>2335.2649999999999</ele>
        <time>2012-06-22T10:54:18Z</time>
      </trkpt>
      <trkpt lat="42.358742030337453" lon="2.054896987974644">
        <ele>2336.1559999999999</ele>
        <time>2012-06-22T10:54:22Z</time>
      </trkpt>
      <trkpt lat="42.358672963455319" lon="2.054959014058113">
        <ele>2337.1239999999998</ele>
        <time>2012-06-22T10:54:29Z</time>
      </trkpt>
      <trkpt lat="42.35858503729105" lon="2.055046018213034">
        <ele>2338.5300000000002</ele>
        <time>2012-06-22T10:54:39Z</time>
      </trkpt>
      <trkpt lat="42.358561987057328" lon="2.055067978799343">
        <ele>2338.5659999999998</ele>
        <time>2012-06-22T10:54:42Z</time>
      </trkpt>
      <trkpt lat="42.358540026471019" lon="2.055193036794663">
        <ele>2341.029</ele>
        <time>2012-06-22T10:54:51Z</time>
      </trkpt>
      <trkpt lat="42.35860800370574" lon="2.055298984050751">
        <ele>2341.9209999999998</ele>
        <time>2012-06-22T10:55:00Z</time>
      </trkpt>
      <trkpt lat="42.358706993982196" lon="2.055384982377291">
        <ele>2343.4070000000002</ele>
        <time>2012-06-22T10:55:09Z</time>
      </trkpt>
      <trkpt lat="42.358715040609241" lon="2.055395962670445">
        <ele>2343.4989999999998</ele>
        <time>2012-06-22T10:55:10Z</time>
      </trkpt>
      <trkpt lat="42.358738007023931" lon="2.055418007075787">
        <ele>2343.4360000000001</ele>
        <time>2012-06-22T10:55:12Z</time>
      </trkpt>
      <trkpt lat="42.358826017007232" lon="2.055524960160255">
        <ele>2345.393</ele>
        <time>2012-06-22T10:55:22Z</time>
      </trkpt>
      <trkpt lat="42.358868010342121" lon="2.055582040920854">
        <ele>2345.8400000000001</ele>
        <time>2012-06-22T10:55:27Z</time>
      </trkpt>
      <trkpt lat="42.358905980363488" lon="2.05561900511384">
        <ele>2346.2109999999998</ele>
        <time>2012-06-22T10:55:31Z</time>
      </trkpt>
      <trkpt lat="42.358940010890365" lon="2.055680025368929">
        <ele>2347.2489999999998</ele>
        <time>2012-06-22T10:55:35Z</time>
      </trkpt>
      <trkpt lat="42.358962977305055" lon="2.055697040632367">
        <ele>2348.2350000000001</ele>
        <time>2012-06-22T10:55:37Z</time>
      </trkpt>
      <trkpt lat="42.358989967033267" lon="2.05574699677527">
        <ele>2348.6660000000002</ele>
        <time>2012-06-22T10:55:41Z</time>
      </trkpt>
      <trkpt lat="42.359013017266989" lon="2.055784966796637">
        <ele>2348.6289999999999</ele>
        <time>2012-06-22T10:55:44Z</time>
      </trkpt>
      <trkpt lat="42.359076971188188" lon="2.055928967893124">
        <ele>2350.6210000000001</ele>
        <time>2012-06-22T10:55:54Z</time>
      </trkpt>
      <trkpt lat="42.359158024191856" lon="2.056073974817991">
        <ele>2351.5070000000001</ele>
        <time>2012-06-22T10:56:04Z</time>
      </trkpt>
      <trkpt lat="42.359221978113055" lon="2.056168019771576">
        <ele>2352.569</ele>
        <time>2012-06-22T10:56:11Z</time>
      </trkpt>
      <trkpt lat="42.359344018623233" lon="2.056340016424656">
        <ele>2352.5360000000001</ele>
        <time>2012-06-22T10:56:22Z</time>
      </trkpt>
      <trkpt lat="42.359477961435914" lon="2.056493991985917">
        <ele>2353.413</ele>
        <time>2012-06-22T10:56:32Z</time>
      </trkpt>
      <trkpt lat="42.359607964754105" lon="2.056617960333824">
        <ele>2354.9299999999998</ele>
        <time>2012-06-22T10:56:41Z</time>
      </trkpt>
      <trkpt lat="42.359736962243915" lon="2.056720973923802">
        <ele>2355.4609999999998</ele>
        <time>2012-06-22T10:56:50Z</time>
      </trkpt>
      <trkpt lat="42.359921028837562" lon="2.056871009990573">
        <ele>2357.3389999999999</ele>
        <time>2012-06-22T10:57:01Z</time>
      </trkpt>
      <trkpt lat="42.360065029934049" lon="2.057005036622286">
        <ele>2357.395</ele>
        <time>2012-06-22T10:57:09Z</time>
      </trkpt>
      <trkpt lat="42.360240966081619" lon="2.057161023840308">
        <ele>2357.8420000000001</ele>
        <time>2012-06-22T10:57:18Z</time>
      </trkpt>
      <trkpt lat="42.360382033511996" lon="2.057292032986879">
        <ele>2358.3220000000001</ele>
        <time>2012-06-22T10:57:24Z</time>
      </trkpt>
      <trkpt lat="42.360576996579766" lon="2.057493031024933">
        <ele>2358.3139999999999</ele>
        <time>2012-06-22T10:57:32Z</time>
      </trkpt>
      <trkpt lat="42.360732983797789" lon="2.057632002979517">
        <ele>2357.8069999999998</ele>
        <time>2012-06-22T10:57:38Z</time>
      </trkpt>
      <trkpt lat="42.360924007371068" lon="2.057805005460978">
        <ele>2359.7469999999998</ele>
        <time>2012-06-22T10:57:46Z</time>
      </trkpt>
      <trkpt lat="42.361178984865546" lon="2.058041039854288">
        <ele>2360.7739999999999</ele>
        <time>2012-06-22T10:57:57Z</time>
      </trkpt>
      <trkpt lat="42.361328015103936" lon="2.058151010423899">
        <ele>2362.1709999999998</ele>
        <time>2012-06-22T10:58:03Z</time>
      </trkpt>
      <trkpt lat="42.361522978171706" lon="2.05832602456212">
        <ele>2364.018</ele>
        <time>2012-06-22T10:58:12Z</time>
      </trkpt>
      <trkpt lat="42.361706038936973" lon="2.058524005115032">
        <ele>2364.5889999999999</ele>
        <time>2012-06-22T10:58:20Z</time>
      </trkpt>
      <trkpt lat="42.36187401227653" lon="2.058601034805179">
        <ele>2365.527</ele>
        <time>2012-06-22T10:58:26Z</time>
      </trkpt>
      <trkpt lat="42.362109962850809" lon="2.058747969567776">
        <ele>2366.913</ele>
        <time>2012-06-22T10:58:35Z</time>
      </trkpt>
      <trkpt lat="42.362227980047464" lon="2.058822987601161">
        <ele>2368.835</ele>
        <time>2012-06-22T10:58:40Z</time>
      </trkpt>
      <trkpt lat="42.362399976700544" lon="2.058976963162422">
        <ele>2369.386</ele>
        <time>2012-06-22T10:58:48Z</time>
      </trkpt>
      <trkpt lat="42.362579014152288" lon="2.05914200283587">
        <ele>2369.8139999999999</ele>
        <time>2012-06-22T10:58:56Z</time>
      </trkpt>
      <trkpt lat="42.362766014412045" lon="2.059268988668919">
        <ele>2371.7069999999999</ele>
        <time>2012-06-22T10:59:05Z</time>
      </trkpt>
      <trkpt lat="42.362900041043758" lon="2.059374013915658">
        <ele>2373.2959999999998</ele>
        <time>2012-06-22T10:59:12Z</time>
      </trkpt>
      <trkpt lat="42.363026021048427" lon="2.059480967000127">
        <ele>2374.6930000000002</ele>
        <time>2012-06-22T10:59:19Z</time>
      </trkpt>
      <trkpt lat="42.363101961091161" lon="2.059602001681924">
        <ele>2375.6700000000001</ele>
        <time>2012-06-22T10:59:27Z</time>
      </trkpt>
      <trkpt lat="42.363135991618037" lon="2.059688000008464">
        <ele>2376.527</ele>
        <time>2012-06-22T10:59:32Z</time>
      </trkpt>
      <trkpt lat="42.363186031579971" lon="2.059823032468557">
        <ele>2378.9279999999999</ele>
        <time>2012-06-22T10:59:40Z</time>
      </trkpt>
      <trkpt lat="42.363189971074462" lon="2.059911964461207">
        <ele>2378.9459999999999</ele>
        <time>2012-06-22T10:59:45Z</time>
      </trkpt>
      <trkpt lat="42.363189971074462" lon="2.059945994988084">
        <ele>2379.422</ele>
        <time>2012-06-22T10:59:47Z</time>
      </trkpt>
      <trkpt lat="42.363208997994661" lon="2.060081027448177">
        <ele>2380.8879999999999</ele>
        <time>2012-06-22T10:59:55Z</time>
      </trkpt>
      <trkpt lat="42.363204974681139" lon="2.060099970549345">
        <ele>2380.8240000000001</ele>
        <time>2012-06-22T10:59:56Z</time>
      </trkpt>
      <trkpt lat="42.363213021308184" lon="2.060181023553014">
        <ele>2381.826</ele>
        <time>2012-06-22T11:00:01Z</time>
      </trkpt>
      <trkpt lat="42.363219978287816" lon="2.060339022427797">
        <ele>2382.8069999999998</ele>
        <time>2012-06-22T11:00:11Z</time>
      </trkpt>
      <trkpt lat="42.363228024914861" lon="2.060461984947324">
        <ele>2383.7510000000002</ele>
        <time>2012-06-22T11:00:18Z</time>
      </trkpt>
      <trkpt lat="42.363219978287816" lon="2.060537002980709">
        <ele>2384.748</ele>
        <time>2012-06-22T11:00:22Z</time>
      </trkpt>
      <trkpt lat="42.363228024914861" lon="2.060573967173696">
        <ele>2384.7550000000001</ele>
        <time>2012-06-22T11:00:24Z</time>
      </trkpt>
      <trkpt lat="42.363224001601338" lon="2.060630964115262">
        <ele>2385.712</ele>
        <time>2012-06-22T11:00:27Z</time>
      </trkpt>
      <trkpt lat="42.363167004659772" lon="2.060745041817427">
        <ele>2386.123</ele>
        <time>2012-06-22T11:00:37Z</time>
      </trkpt>
      <trkpt lat="42.363152001053095" lon="2.060889964923263">
        <ele>2387.6709999999998</ele>
        <time>2012-06-22T11:00:46Z</time>
      </trkpt>
      <trkpt lat="42.363105984404683" lon="2.061018040403724">
        <ele>2388.5369999999998</ele>
        <time>2012-06-22T11:00:54Z</time>
      </trkpt>
      <trkpt lat="42.363071031868458" lon="2.06120696850121">
        <ele>2390.5259999999998</ele>
        <time>2012-06-22T11:01:03Z</time>
      </trkpt>
      <trkpt lat="42.363044964149594" lon="2.061336971819401">
        <ele>2390.9470000000001</ele>
        <time>2012-06-22T11:01:10Z</time>
      </trkpt>
      <trkpt lat="42.363041024655104" lon="2.0615079626441">
        <ele>2391.9110000000001</ele>
        <time>2012-06-22T11:01:19Z</time>
      </trkpt>
      <trkpt lat="42.363026021048427" lon="2.061712983995676">
        <ele>2392.9070000000002</ele>
        <time>2012-06-22T11:01:29Z</time>
      </trkpt>
      <trkpt lat="42.363026021048427" lon="2.061893027275801">
        <ele>2394.3150000000001</ele>
        <time>2012-06-22T11:01:38Z</time>
      </trkpt>
      <trkpt lat="42.363026021048427" lon="2.06206301227212">
        <ele>2395.7420000000002</ele>
        <time>2012-06-22T11:01:47Z</time>
      </trkpt>
      <trkpt lat="42.363026021048427" lon="2.06227901391685">
        <ele>2397.7890000000002</ele>
        <time>2012-06-22T11:01:58Z</time>
      </trkpt>
      <trkpt lat="42.363037001341581" lon="2.062442963942885">
        <ele>2399.1860000000001</ele>
        <time>2012-06-22T11:02:07Z</time>
      </trkpt>
      <trkpt lat="42.363041024655104" lon="2.062547989189625">
        <ele>2400.1170000000002</ele>
        <time>2012-06-22T11:02:13Z</time>
      </trkpt>
      <trkpt lat="42.363048987463117" lon="2.062718980014324">
        <ele>2401.5349999999999</ele>
        <time>2012-06-22T11:02:23Z</time>
      </trkpt>
      <trkpt lat="42.363052004948258" lon="2.062791986390948">
        <ele>2401.5410000000002</ele>
        <time>2012-06-22T11:02:27Z</time>
      </trkpt>
      <trkpt lat="42.36309802159667" lon="2.062950991094112">
        <ele>2403.4720000000002</ele>
        <time>2012-06-22T11:02:36Z</time>
      </trkpt>
      <trkpt lat="42.36314001493156" lon="2.063124999403954">
        <ele>2404.413</ele>
        <time>2012-06-22T11:02:46Z</time>
      </trkpt>
      <trkpt lat="42.363173961639404" lon="2.063220972195268">
        <ele>2405.4140000000002</ele>
        <time>2012-06-22T11:02:52Z</time>
      </trkpt>
      <trkpt lat="42.363213021308184" lon="2.063332032412291">
        <ele>2406.3069999999998</ele>
        <time>2012-06-22T11:02:59Z</time>
      </trkpt>
      <trkpt lat="42.363250991329551" lon="2.063437979668379">
        <ele>2407.3400000000001</ele>
        <time>2012-06-22T11:03:06Z</time>
      </trkpt>
      <trkpt lat="42.363316034898162" lon="2.063563037663698">
        <ele>2408.7170000000001</ele>
        <time>2012-06-22T11:03:15Z</time>
      </trkpt>
      <trkpt lat="42.363364985212684" lon="2.063673008233309">
        <ele>2410.2240000000002</ele>
        <time>2012-06-22T11:03:23Z</time>
      </trkpt>
      <trkpt lat="42.363418964669108" lon="2.063793959096074">
        <ele>2411.6109999999999</ele>
        <time>2012-06-22T11:03:31Z</time>
      </trkpt>
      <trkpt lat="42.363479984924197" lon="2.063908958807588">
        <ele>2413.1320000000001</ele>
        <time>2012-06-22T11:03:39Z</time>
      </trkpt>
      <trkpt lat="42.363487025722861" lon="2.063923962414265">
        <ele>2413.5900000000001</ele>
        <time>2012-06-22T11:03:40Z</time>
      </trkpt>
      <trkpt lat="42.363536981865764" lon="2.064017001539469">
        <ele>2415.0259999999998</ele>
        <time>2012-06-22T11:03:46Z</time>
      </trkpt>
      <trkpt lat="42.36359003931284" lon="2.064123032614589">
        <ele>2415.991</ele>
        <time>2012-06-22T11:03:53Z</time>
      </trkpt>
      <trkpt lat="42.363670002669096" lon="2.064270973205566">
        <ele>2417.9810000000002</ele>
        <time>2012-06-22T11:04:03Z</time>
      </trkpt>
      <trkpt lat="42.363716019317508" lon="2.064336016774178">
        <ele>2418.319</ele>
        <time>2012-06-22T11:04:08Z</time>
      </trkpt>
      <trkpt lat="42.363734962418675" lon="2.064372980967164">
        <ele>2417.9070000000002</ele>
        <time>2012-06-22T11:04:11Z</time>
      </trkpt>
      <trkpt lat="42.363769998773932" lon="2.064423020929098">
        <ele>2417.942</ele>
        <time>2012-06-22T11:04:15Z</time>
      </trkpt>
      <trkpt lat="42.363837976008654" lon="2.064526034519076">
        <ele>2418.3789999999999</ele>
        <time>2012-06-22T11:04:23Z</time>
      </trkpt>
      <trkpt lat="42.363857002928853" lon="2.064552018418908">
        <ele>2418.8159999999998</ele>
        <time>2012-06-22T11:04:25Z</time>
      </trkpt>
      <trkpt lat="42.363918023183942" lon="2.064674980938435">
        <ele>2420.3829999999998</ele>
        <time>2012-06-22T11:04:34Z</time>
      </trkpt>
      <trkpt lat="42.363982982933521" lon="2.064787968993187">
        <ele>2422.2240000000002</ele>
        <time>2012-06-22T11:04:43Z</time>
      </trkpt>
      <trkpt lat="42.363991029560566" lon="2.064804984256625">
        <ele>2423.1320000000001</ele>
        <time>2012-06-22T11:04:44Z</time>
      </trkpt>
      <trkpt lat="42.364013995975256" lon="2.064840020611882">
        <ele>2423.1379999999999</ele>
        <time>2012-06-22T11:04:47Z</time>
      </trkpt>
      <trkpt lat="42.364085996523499" lon="2.064959965646267">
        <ele>2425.5279999999998</ele>
        <time>2012-06-22T11:04:57Z</time>
      </trkpt>
      <trkpt lat="42.36410896293819" lon="2.065015034750104">
        <ele>2426.0889999999999</ele>
        <time>2012-06-22T11:05:01Z</time>
      </trkpt>
      <trkpt lat="42.364139975979924" lon="2.065069014206529">
        <ele>2427.0169999999998</ele>
        <time>2012-06-22T11:05:05Z</time>
      </trkpt>
      <trkpt lat="42.364159002900124" lon="2.065116036683321">
        <ele>2427.5070000000001</ele>
        <time>2012-06-22T11:05:08Z</time>
      </trkpt>
      <trkpt lat="42.364196972921491" lon="2.065187031403184">
        <ele>2428.0749999999998</ele>
        <time>2012-06-22T11:05:13Z</time>
      </trkpt>
      <trkpt lat="42.364262016490102" lon="2.065318040549755">
        <ele>2429.9720000000002</ele>
        <time>2012-06-22T11:05:22Z</time>
      </trkpt>
      <trkpt lat="42.364280959591269" lon="2.065343018621206">
        <ele>2429.4189999999999</ele>
        <time>2012-06-22T11:05:24Z</time>
      </trkpt>
      <trkpt lat="42.364310966804624" lon="2.065396998077631">
        <ele>2430.4960000000001</ele>
        <time>2012-06-22T11:05:28Z</time>
      </trkpt>
      <trkpt lat="42.364407023414969" lon="2.065466986969113">
        <ele>2431.8470000000002</ele>
        <time>2012-06-22T11:05:37Z</time>
      </trkpt>
      <trkpt lat="42.364479023963213" lon="2.065509986132383">
        <ele>2432.895</ele>
        <time>2012-06-22T11:05:43Z</time>
      </trkpt>
      <trkpt lat="42.364563010632992" lon="2.065580980852246">
        <ele>2434.7310000000002</ele>
        <time>2012-06-22T11:05:50Z</time>
      </trkpt>
      <trkpt lat="42.364597041159868" lon="2.065604031085968">
        <ele>2434.799</ele>
        <time>2012-06-22T11:05:57Z</time>
      </trkpt>
      <trkpt lat="42.364600980654359" lon="2.065601013600826">
        <ele>2433.7069999999999</ele>
        <time>2012-06-22T11:06:06Z</time>
      </trkpt>
      <trkpt lat="42.364600980654359" lon="2.065601013600826">
        <ele>2434.7269999999999</ele>
        <time>2012-06-22T11:06:21Z</time>
      </trkpt>
      <trkpt lat="42.364605003967881" lon="2.065599001944065">
        <ele>2435.607</ele>
        <time>2012-06-22T11:06:38Z</time>
      </trkpt>
      <trkpt lat="42.364605003967881" lon="2.065599001944065">
        <ele>2434.7620000000002</ele>
        <time>2012-06-22T11:06:51Z</time>
      </trkpt>
      <trkpt lat="42.364605003967881" lon="2.065599001944065">
        <ele>2434.799</ele>
        <time>2012-06-22T11:07:05Z</time>
      </trkpt>
      <trkpt lat="42.364609027281404" lon="2.065597996115685">
        <ele>2434.2559999999999</ele>
        <time>2012-06-22T11:07:20Z</time>
      </trkpt>
      <trkpt lat="42.364609027281404" lon="2.065597996115685">
        <ele>2434.723</ele>
        <time>2012-06-22T11:07:40Z</time>
      </trkpt>
      <trkpt lat="42.364612966775894" lon="2.065594978630543">
        <ele>2434.2440000000001</ele>
        <time>2012-06-22T11:08:01Z</time>
      </trkpt>
      <trkpt lat="42.364612966775894" lon="2.065594978630543">
        <ele>2434.2220000000002</ele>
        <time>2012-06-22T11:08:23Z</time>
      </trkpt>
      <trkpt lat="42.364609027281404" lon="2.065596990287304">
        <ele>2434.2779999999998</ele>
        <time>2012-06-22T11:08:41Z</time>
      </trkpt>
      <trkpt lat="42.364609027281404" lon="2.065596990287304">
        <ele>2434.2159999999999</ele>
        <time>2012-06-22T11:09:03Z</time>
      </trkpt>
      <trkpt lat="42.364609027281404" lon="2.065596990287304">
        <ele>2434.7759999999998</ele>
        <time>2012-06-22T11:09:27Z</time>
      </trkpt>
      <trkpt lat="42.364609027281404" lon="2.065596990287304">
        <ele>2435.2130000000002</ele>
        <time>2012-06-22T11:09:45Z</time>
      </trkpt>
      <trkpt lat="42.364612966775894" lon="2.065597996115685">
        <ele>2435.607</ele>
        <time>2012-06-22T11:10:06Z</time>
      </trkpt>
      <trkpt lat="42.364612966775894" lon="2.065597996115685">
        <ele>2435.6239999999998</ele>
        <time>2012-06-22T11:10:21Z</time>
      </trkpt>
      <trkpt lat="42.364609027281404" lon="2.065597996115685">
        <ele>2435.2109999999998</ele>
        <time>2012-06-22T11:10:39Z</time>
      </trkpt>
      <trkpt lat="42.364609027281404" lon="2.065597996115685">
        <ele>2434.748</ele>
        <time>2012-06-22T11:10:54Z</time>
      </trkpt>
      <trkpt lat="42.364609027281404" lon="2.065597996115685">
        <ele>2436.125</ele>
        <time>2012-06-22T11:11:08Z</time>
      </trkpt>
      <trkpt lat="42.364612966775894" lon="2.065595984458923">
        <ele>2435.6759999999999</ele>
        <time>2012-06-22T11:11:24Z</time>
      </trkpt>
      <trkpt lat="42.364612966775894" lon="2.065595984458923">
        <ele>2434.7739999999999</ele>
        <time>2012-06-22T11:11:42Z</time>
      </trkpt>
      <trkpt lat="42.364612966775894" lon="2.065597996115685">
        <ele>2434.27</ele>
        <time>2012-06-22T11:12:01Z</time>
      </trkpt>
      <trkpt lat="42.364612966775894" lon="2.065593972802162">
        <ele>2435.6819999999998</ele>
        <time>2012-06-22T11:12:15Z</time>
      </trkpt>
      <trkpt lat="42.364615984261036" lon="2.065634960308671">
        <ele>2435.2429999999999</ele>
        <time>2012-06-22T11:12:23Z</time>
      </trkpt>
      <trkpt lat="42.364609027281404" lon="2.065639989450574">
        <ele>2434.7170000000001</ele>
        <time>2012-06-22T11:12:29Z</time>
      </trkpt>
      <trkpt lat="42.364605003967881" lon="2.065663039684296">
        <ele>2435.607</ele>
        <time>2012-06-22T11:12:35Z</time>
      </trkpt>
      <trkpt lat="42.364639034494758" lon="2.06571701914072">
        <ele>2436.1909999999998</ele>
        <time>2012-06-22T11:12:44Z</time>
      </trkpt>
      <trkpt lat="42.364651020616293" lon="2.065731016919017">
        <ele>2435.6880000000001</ele>
        <time>2012-06-22T11:12:53Z</time>
      </trkpt>
      <trkpt lat="42.364651020616293" lon="2.065731016919017">
        <ele>2435.665</ele>
        <time>2012-06-22T11:13:04Z</time>
      </trkpt>
      <trkpt lat="42.364646997302771" lon="2.065733028575778">
        <ele>2436.6419999999998</ele>
        <time>2012-06-22T11:13:17Z</time>
      </trkpt>
      <trkpt lat="42.364646997302771" lon="2.065733028575778">
        <ele>2436.1729999999998</ele>
        <time>2012-06-22T11:13:29Z</time>
      </trkpt>
      <trkpt lat="42.364669963717461" lon="2.065794970840216">
        <ele>2436.6309999999999</ele>
        <time>2012-06-22T11:13:33Z</time>
      </trkpt>
      <trkpt lat="42.364715980365872" lon="2.065935032442212">
        <ele>2436.6469999999999</ele>
        <time>2012-06-22T11:13:43Z</time>
      </trkpt>
      <trkpt lat="42.364784041419625" lon="2.066076016053557">
        <ele>2438.5149999999999</ele>
        <time>2012-06-22T11:13:52Z</time>
      </trkpt>
      <trkpt lat="42.36486098729074" lon="2.066203001886606">
        <ele>2439.5650000000001</ele>
        <time>2012-06-22T11:14:00Z</time>
      </trkpt>
      <trkpt lat="42.364895017817616" lon="2.06625203602016">
        <ele>2440.011</ele>
        <time>2012-06-22T11:14:03Z</time>
      </trkpt>
      <trkpt lat="42.364932987838984" lon="2.066324958577752">
        <ele>2440.0070000000001</ele>
        <time>2012-06-22T11:14:07Z</time>
      </trkpt>
      <trkpt lat="42.364952014759183" lon="2.06636200658977">
        <ele>2440.4540000000002</ele>
        <time>2012-06-22T11:14:09Z</time>
      </trkpt>
      <trkpt lat="42.365020997822285" lon="2.066478012129664">
        <ele>2441.991</ele>
        <time>2012-06-22T11:14:16Z</time>
      </trkpt>
      <trkpt lat="42.365100961178541" lon="2.066609021276236">
        <ele>2442.998</ele>
        <time>2012-06-22T11:14:24Z</time>
      </trkpt>
      <trkpt lat="42.365176985040307" lon="2.066755034029484">
        <ele>2442.915</ele>
        <time>2012-06-22T11:14:33Z</time>
      </trkpt>
      <trkpt lat="42.365238005295396" lon="2.066887971013784">
        <ele>2443.8560000000002</ele>
        <time>2012-06-22T11:14:42Z</time>
      </trkpt>
      <trkpt lat="42.365291984751821" lon="2.067007999867201">
        <ele>2444.8339999999998</ele>
        <time>2012-06-22T11:14:50Z</time>
      </trkpt>
      <trkpt lat="42.36533397808671" lon="2.067136997357011">
        <ele>2445.79</ele>
        <time>2012-06-22T11:14:58Z</time>
      </trkpt>
      <trkpt lat="42.365375971421599" lon="2.067311005666852">
        <ele>2446.2530000000002</ele>
        <time>2012-06-22T11:15:08Z</time>
      </trkpt>
      <trkpt lat="42.365410001948476" lon="2.067503035068512">
        <ele>2447.2040000000002</ele>
        <time>2012-06-22T11:15:17Z</time>
      </trkpt>
      <trkpt lat="42.365416958928108" lon="2.067689029499888">
        <ele>2447.7139999999999</ele>
        <time>2012-06-22T11:15:27Z</time>
      </trkpt>
      <trkpt lat="42.365375971421599" lon="2.067871000617743">
        <ele>2449.107</ele>
        <time>2012-06-22T11:15:37Z</time>
      </trkpt>
      <trkpt lat="42.365269018337131" lon="2.068004021421075">
        <ele>2451.058</ele>
        <time>2012-06-22T11:15:45Z</time>
      </trkpt>
      <trkpt lat="42.365233981981874" lon="2.068039979785681">
        <ele>2452.0949999999998</ele>
        <time>2012-06-22T11:15:48Z</time>
      </trkpt>
      <trkpt lat="42.365115964785218" lon="2.068136958405376">
        <ele>2452.942</ele>
        <time>2012-06-22T11:15:57Z</time>
      </trkpt>
      <trkpt lat="42.365092998370528" lon="2.068160008639097">
        <ele>2453.9989999999998</ele>
        <time>2012-06-22T11:15:59Z</time>
      </trkpt>
      <trkpt lat="42.364952014759183" lon="2.068275008350611">
        <ele>2454.9899999999998</ele>
        <time>2012-06-22T11:16:09Z</time>
      </trkpt>
      <trkpt lat="42.364829974249005" lon="2.06835899502039">
        <ele>2455.8679999999999</ele>
        <time>2012-06-22T11:16:18Z</time>
      </trkpt>
      <trkpt lat="42.364712040871382" lon="2.068447005003691">
        <ele>2457.3939999999998</ele>
        <time>2012-06-22T11:16:27Z</time>
      </trkpt>
      <trkpt lat="42.364615984261036" lon="2.068536020815373">
        <ele>2458.2350000000001</ele>
        <time>2012-06-22T11:16:35Z</time>
      </trkpt>
      <trkpt lat="42.364521017298102" lon="2.068630987778306">
        <ele>2459.7860000000001</ele>
        <time>2012-06-22T11:16:43Z</time>
      </trkpt>
      <trkpt lat="42.364418003708124" lon="2.06872402690351">
        <ele>2460.614</ele>
        <time>2012-06-22T11:16:51Z</time>
      </trkpt>
      <trkpt lat="42.364280959591269" lon="2.068813964724541">
        <ele>2462.107</ele>
        <time>2012-06-22T11:17:01Z</time>
      </trkpt>
      <trkpt lat="42.364165959879756" lon="2.06887498497963">
        <ele>2463.0659999999998</ele>
        <time>2012-06-22T11:17:09Z</time>
      </trkpt>
      <trkpt lat="42.36404400318861" lon="2.068968024104834">
        <ele>2465.0529999999999</ele>
        <time>2012-06-22T11:17:18Z</time>
      </trkpt>
      <trkpt lat="42.36393696628511" lon="2.069038012996316">
        <ele>2465.04</ele>
        <time>2012-06-22T11:17:25Z</time>
      </trkpt>
      <trkpt lat="42.363868989050388" lon="2.069082017987967">
        <ele>2466.4369999999999</ele>
        <time>2012-06-22T11:17:30Z</time>
      </trkpt>
      <trkpt lat="42.363789025694132" lon="2.069185031577945">
        <ele>2467.8780000000002</ele>
        <time>2012-06-22T11:17:37Z</time>
      </trkpt>
      <trkpt lat="42.363749966025352" lon="2.069314029067755">
        <ele>2469.3760000000002</ele>
        <time>2012-06-22T11:17:44Z</time>
      </trkpt>
      <trkpt lat="42.363789025694132" lon="2.06952097825706">
        <ele>2470.2820000000002</ele>
        <time>2012-06-22T11:17:54Z</time>
      </trkpt>
      <trkpt lat="42.363849962130189" lon="2.069683000445366">
        <ele>2471.7840000000001</ele>
        <time>2012-06-22T11:18:03Z</time>
      </trkpt>
      <trkpt lat="42.363906959071755" lon="2.069844016805291">
        <ele>2472.7069999999999</ele>
        <time>2012-06-22T11:18:11Z</time>
      </trkpt>
      <trkpt lat="42.363978959619999" lon="2.070033028721809">
        <ele>2473.6170000000002</ele>
        <time>2012-06-22T11:18:21Z</time>
      </trkpt>
      <trkpt lat="42.364048026502132" lon="2.070182980969548">
        <ele>2475.107</ele>
        <time>2012-06-22T11:18:29Z</time>
      </trkpt>
      <trkpt lat="42.364120027050376" lon="2.070352965965867">
        <ele>2476.0410000000002</ele>
        <time>2012-06-22T11:18:38Z</time>
      </trkpt>
      <trkpt lat="42.364181969314814" lon="2.070505013689399">
        <ele>2477.038</ele>
        <time>2012-06-22T11:18:46Z</time>
      </trkpt>
      <trkpt lat="42.364253969863057" lon="2.070685978978872">
        <ele>2477.5549999999998</ele>
        <time>2012-06-22T11:18:55Z</time>
      </trkpt>
      <trkpt lat="42.364304009824991" lon="2.070835009217262">
        <ele>2477.962</ele>
        <time>2012-06-22T11:19:02Z</time>
      </trkpt>
      <trkpt lat="42.364383973181248" lon="2.071085041388869">
        <ele>2479.9430000000002</ele>
        <time>2012-06-22T11:19:12Z</time>
      </trkpt>
      <trkpt lat="42.364459997043014" lon="2.071317974478006">
        <ele>2481.8209999999999</ele>
        <time>2012-06-22T11:19:21Z</time>
      </trkpt>
      <trkpt lat="42.364531997591257" lon="2.071534981951118">
        <ele>2481.877</ele>
        <time>2012-06-22T11:19:29Z</time>
      </trkpt>
      <trkpt lat="42.364567033946514" lon="2.071758024394512">
        <ele>2481.8159999999998</ele>
        <time>2012-06-22T11:19:37Z</time>
      </trkpt>
      <trkpt lat="42.364582037553191" lon="2.071984000504017">
        <ele>2482.7759999999998</ele>
        <time>2012-06-22T11:19:45Z</time>
      </trkpt>
      <trkpt lat="42.364585977047682" lon="2.072215005755425">
        <ele>2483.2130000000002</ele>
        <time>2012-06-22T11:19:53Z</time>
      </trkpt>
      <trkpt lat="42.364585977047682" lon="2.072439976036549">
        <ele>2483.7069999999999</ele>
        <time>2012-06-22T11:20:01Z</time>
      </trkpt>
      <trkpt lat="42.364585977047682" lon="2.072716997936368">
        <ele>2485.2240000000002</ele>
        <time>2012-06-22T11:20:10Z</time>
      </trkpt>
      <trkpt lat="42.364612966775894" lon="2.072971975430846">
        <ele>2486.1909999999998</ele>
        <time>2012-06-22T11:20:18Z</time>
      </trkpt>
      <trkpt lat="42.364651020616293" lon="2.073269030079246">
        <ele>2486.1979999999999</ele>
        <time>2012-06-22T11:20:27Z</time>
      </trkpt>
      <trkpt lat="42.364703994244337" lon="2.073531970381737">
        <ele>2487.1350000000002</ele>
        <time>2012-06-22T11:20:35Z</time>
      </trkpt>
      <trkpt lat="42.364750010892749" lon="2.07373196259141">
        <ele>2486.1559999999999</ele>
        <time>2012-06-22T11:20:42Z</time>
      </trkpt>
      <trkpt lat="42.364757973700762" lon="2.073761969804764">
        <ele>2486.1640000000002</ele>
        <time>2012-06-22T11:20:48Z</time>
      </trkpt>
      <trkpt lat="42.364757973700762" lon="2.073761969804764">
        <ele>2486.6399999999999</ele>
        <time>2012-06-22T11:20:59Z</time>
      </trkpt>
      <trkpt lat="42.364757973700762" lon="2.073761969804764">
        <ele>2487.1869999999999</ele>
        <time>2012-06-22T11:21:08Z</time>
      </trkpt>
      <trkpt lat="42.364760991185904" lon="2.073765993118286">
        <ele>2486.6419999999998</ele>
        <time>2012-06-22T11:21:27Z</time>
      </trkpt>
      <trkpt lat="42.364760991185904" lon="2.073765993118286">
        <ele>2485.6260000000002</ele>
        <time>2012-06-22T11:21:43Z</time>
      </trkpt>
      <trkpt lat="42.364765014499426" lon="2.073761969804764">
        <ele>2485.607</ele>
        <time>2012-06-22T11:21:50Z</time>
      </trkpt>
      <trkpt lat="42.364787980914116" lon="2.073855008929968">
        <ele>2484.7910000000002</ele>
        <time>2012-06-22T11:21:58Z</time>
      </trkpt>
      <trkpt lat="42.364807007834315" lon="2.073889961466193">
        <ele>2485.2280000000001</ele>
        <time>2012-06-22T11:22:05Z</time>
      </trkpt>
      <trkpt lat="42.364807007834315" lon="2.073889961466193">
        <ele>2485.2449999999999</ele>
        <time>2012-06-22T11:22:20Z</time>
      </trkpt>
      <trkpt lat="42.364807007834315" lon="2.073889961466193">
        <ele>2485.212</ele>
        <time>2012-06-22T11:22:35Z</time>
      </trkpt>
      <trkpt lat="42.364811031147838" lon="2.073890967294574">
        <ele>2485.2429999999999</ele>
        <time>2012-06-22T11:22:50Z</time>
      </trkpt>
      <trkpt lat="42.364807007834315" lon="2.073908988386393">
        <ele>2485.221</ele>
        <time>2012-06-22T11:23:06Z</time>
      </trkpt>
      <trkpt lat="42.364871967583895" lon="2.07411702722311">
        <ele>2484.7669999999998</ele>
        <time>2012-06-22T11:23:14Z</time>
      </trkpt>
      <trkpt lat="42.364899041131139" lon="2.07444098778069">
        <ele>2482.7629999999999</ele>
        <time>2012-06-22T11:23:21Z</time>
      </trkpt>
      <trkpt lat="42.364905998110771" lon="2.074813982471824">
        <ele>2479.944</ele>
        <time>2012-06-22T11:23:27Z</time>
      </trkpt>
      <trkpt lat="42.364910021424294" lon="2.07538302987814">
        <ele>2479.9180000000001</ele>
        <time>2012-06-22T11:23:35Z</time>
      </trkpt>
      <trkpt lat="42.364928964525461" lon="2.07564203068614">
        <ele>2480.8069999999998</ele>
        <time>2012-06-22T11:23:41Z</time>
      </trkpt>
      <trkpt lat="42.364971041679382" lon="2.075925003737211">
        <ele>2482.7890000000002</ele>
        <time>2012-06-22T11:23:50Z</time>
      </trkpt>
      <trkpt lat="42.365036001428962" lon="2.076205965131521">
        <ele>2483.2559999999999</ele>
        <time>2012-06-22T11:24:00Z</time>
      </trkpt>
      <trkpt lat="42.365077994763851" lon="2.076434958726168">
        <ele>2483.7530000000002</ele>
        <time>2012-06-22T11:24:08Z</time>
      </trkpt>
      <trkpt lat="42.365092998370528" lon="2.076561022549868">
        <ele>2483.21</ele>
        <time>2012-06-22T11:24:12Z</time>
      </trkpt>
      <trkpt lat="42.365067014470696" lon="2.076791021972895">
        <ele>2483.2310000000002</ele>
        <time>2012-06-22T11:24:19Z</time>
      </trkpt>
      <trkpt lat="42.365020997822285" lon="2.077006017789245">
        <ele>2481.8389999999999</ele>
        <time>2012-06-22T11:24:25Z</time>
      </trkpt>
      <trkpt lat="42.364941034466028" lon="2.077288990840316">
        <ele>2483.2849999999999</ele>
        <time>2012-06-22T11:24:33Z</time>
      </trkpt>
      <trkpt lat="42.364895017817616" lon="2.077454030513763">
        <ele>2484.7510000000002</ele>
        <time>2012-06-22T11:24:39Z</time>
      </trkpt>
      <trkpt lat="42.364871967583895" lon="2.077671959996223">
        <ele>2486.1010000000001</ele>
        <time>2012-06-22T11:24:47Z</time>
      </trkpt>
      <trkpt lat="42.364895017817616" lon="2.077904976904392">
        <ele>2486.6109999999999</ele>
        <time>2012-06-22T11:24:56Z</time>
      </trkpt>
      <trkpt lat="42.364925025030971" lon="2.078197002410889">
        <ele>2487.107</ele>
        <time>2012-06-22T11:25:06Z</time>
      </trkpt>
      <trkpt lat="42.364971041679382" lon="2.078448962420225">
        <ele>2487.6979999999999</ele>
        <time>2012-06-22T11:25:15Z</time>
      </trkpt>
      <trkpt lat="42.365009011700749" lon="2.078595981001854">
        <ele>2488.5749999999998</ele>
        <time>2012-06-22T11:25:21Z</time>
      </trkpt>
      <trkpt lat="42.365055028349161" lon="2.078765965998173">
        <ele>2489.0520000000001</ele>
        <time>2012-06-22T11:25:28Z</time>
      </trkpt>
      <trkpt lat="42.365112025290728" lon="2.07895397208631">
        <ele>2490.0590000000002</ele>
        <time>2012-06-22T11:25:36Z</time>
      </trkpt>
      <trkpt lat="42.365181008353829" lon="2.079152958467603">
        <ele>2490.4499999999998</ele>
        <time>2012-06-22T11:25:45Z</time>
      </trkpt>
      <trkpt lat="42.365284021943808" lon="2.079325038939714">
        <ele>2491.9679999999998</ele>
        <time>2012-06-22T11:25:54Z</time>
      </trkpt>
      <trkpt lat="42.365375971421599" lon="2.079491000622511">
        <ele>2492.864</ele>
        <time>2012-06-22T11:26:03Z</time>
      </trkpt>
      <trkpt lat="42.365390975028276" lon="2.079547997564077">
        <ele>2493.886</ele>
        <time>2012-06-22T11:26:06Z</time>
      </trkpt>
      <trkpt lat="42.365416958928108" lon="2.079699039459229">
        <ele>2494.8600000000001</ele>
        <time>2012-06-22T11:26:13Z</time>
      </trkpt>
      <trkpt lat="42.365416958928108" lon="2.079913029447198">
        <ele>2494.326</ele>
        <time>2012-06-22T11:26:22Z</time>
      </trkpt>
      <trkpt lat="42.365398015826941" lon="2.080009002238512">
        <ele>2494.3069999999998</ele>
        <time>2012-06-22T11:26:26Z</time>
      </trkpt>
      <trkpt lat="42.365306988358498" lon="2.080201031640172">
        <ele>2495.2310000000002</ele>
        <time>2012-06-22T11:26:36Z</time>
      </trkpt>
      <trkpt lat="42.365200035274029" lon="2.080383002758026">
        <ele>2496.2179999999998</ele>
        <time>2012-06-22T11:26:45Z</time>
      </trkpt>
      <trkpt lat="42.365067014470696" lon="2.080547958612442">
        <ele>2496.7150000000001</ele>
        <time>2012-06-22T11:26:55Z</time>
      </trkpt>
      <trkpt lat="42.364928964525461" lon="2.080691959708929">
        <ele>2497.2420000000002</ele>
        <time>2012-06-22T11:27:04Z</time>
      </trkpt>
      <trkpt lat="42.364772977307439" lon="2.080867979675531">
        <ele>2497.6729999999998</ele>
        <time>2012-06-22T11:27:14Z</time>
      </trkpt>
      <trkpt lat="42.364654960110784" lon="2.08099102601409">
        <ele>2498.6309999999999</ele>
        <time>2012-06-22T11:27:22Z</time>
      </trkpt>
      <trkpt lat="42.364543983712792" lon="2.081124968826771">
        <ele>2500.1869999999999</ele>
        <time>2012-06-22T11:27:30Z</time>
      </trkpt>
      <trkpt lat="42.364444993436337" lon="2.081294031813741">
        <ele>2501.0549999999998</ele>
        <time>2012-06-22T11:27:39Z</time>
      </trkpt>
      <trkpt lat="42.364395037293434" lon="2.081385981291533">
        <ele>2502.0070000000001</ele>
        <time>2012-06-22T11:27:44Z</time>
      </trkpt>
      <trkpt lat="42.364338040351868" lon="2.0815500151366">
        <ele>2503.4169999999999</ele>
        <time>2012-06-22T11:27:54Z</time>
      </trkpt>
      <trkpt lat="42.364288000389934" lon="2.081673983484507">
        <ele>2503.9070000000002</ele>
        <time>2012-06-22T11:28:02Z</time>
      </trkpt>
      <trkpt lat="42.364277020096779" lon="2.081706002354622">
        <ele>2504.998</ele>
        <time>2012-06-22T11:28:04Z</time>
      </trkpt>
      <trkpt lat="42.364265033975244" lon="2.081738021224737">
        <ele>2504.4349999999999</ele>
        <time>2012-06-22T11:28:06Z</time>
      </trkpt>
      <trkpt lat="42.364196972921491" lon="2.081912029534578">
        <ele>2506.8420000000001</ele>
        <time>2012-06-22T11:28:17Z</time>
      </trkpt>
      <trkpt lat="42.364189010113478" lon="2.08193801343441">
        <ele>2507.7190000000001</ele>
        <time>2012-06-22T11:28:19Z</time>
      </trkpt>
      <trkpt lat="42.364139975979924" lon="2.082064999267459">
        <ele>2509.2800000000002</ele>
        <time>2012-06-22T11:28:27Z</time>
      </trkpt>
      <trkpt lat="42.36410896293819" lon="2.082144040614367">
        <ele>2508.7179999999998</ele>
        <time>2012-06-22T11:28:32Z</time>
      </trkpt>
      <trkpt lat="42.364085996523499" lon="2.082219980657101">
        <ele>2509.7440000000001</ele>
        <time>2012-06-22T11:28:36Z</time>
      </trkpt>
      <trkpt lat="42.364036962389946" lon="2.082350989803672">
        <ele>2512.1930000000002</ele>
        <time>2012-06-22T11:28:44Z</time>
      </trkpt>
      <trkpt lat="42.363982982933521" lon="2.082524998113513">
        <ele>2511.165</ele>
        <time>2012-06-22T11:28:54Z</time>
      </trkpt>
      <trkpt lat="42.363960016518831" lon="2.082577971741557">
        <ele>2511.6210000000001</ele>
        <time>2012-06-22T11:28:57Z</time>
      </trkpt>
      <trkpt lat="42.363949036225677" lon="2.08273203112185">
        <ele>2512.107</ele>
        <time>2012-06-22T11:29:05Z</time>
      </trkpt>
      <trkpt lat="42.363952975720167" lon="2.082816017791629">
        <ele>2513.0520000000001</ele>
        <time>2012-06-22T11:29:09Z</time>
      </trkpt>
      <trkpt lat="42.363991029560566" lon="2.083024978637695">
        <ele>2513.0990000000002</ele>
        <time>2012-06-22T11:29:18Z</time>
      </trkpt>
      <trkpt lat="42.364081973209977" lon="2.083277022466064">
        <ele>2515.0659999999998</ele>
        <time>2012-06-22T11:29:30Z</time>
      </trkpt>
      <trkpt lat="42.364151040092111" lon="2.083464022725821">
        <ele>2515.913</ele>
        <time>2012-06-22T11:29:39Z</time>
      </trkpt>
      <trkpt lat="42.364242989569902" lon="2.083666026592255">
        <ele>2516.9639999999999</ele>
        <time>2012-06-22T11:29:49Z</time>
      </trkpt>
      <trkpt lat="42.364299986511469" lon="2.083826959133148">
        <ele>2518.3719999999998</ele>
        <time>2012-06-22T11:29:57Z</time>
      </trkpt>
      <trkpt lat="42.364323036745191" lon="2.083909017965198">
        <ele>2517.8180000000002</ele>
        <time>2012-06-22T11:30:01Z</time>
      </trkpt>
      <trkpt lat="42.364356983453035" lon="2.084100041538477">
        <ele>2519.3939999999998</ele>
        <time>2012-06-22T11:30:10Z</time>
      </trkpt>
      <trkpt lat="42.364361006766558" lon="2.084146980196238">
        <ele>2519.357</ele>
        <time>2012-06-22T11:30:12Z</time>
      </trkpt>
      <trkpt lat="42.364349020645022" lon="2.084272038191557">
        <ele>2519.8220000000001</ele>
        <time>2012-06-22T11:30:18Z</time>
      </trkpt>
      <trkpt lat="42.364310966804624" lon="2.084500025957823">
        <ele>2521.2069999999999</ele>
        <time>2012-06-22T11:30:29Z</time>
      </trkpt>
      <trkpt lat="42.364307027310133" lon="2.084700018167496">
        <ele>2522.2919999999999</ele>
        <time>2012-06-22T11:30:38Z</time>
      </trkpt>
      <trkpt lat="42.364349020645022" lon="2.08488299511373">
        <ele>2522.6990000000001</ele>
        <time>2012-06-22T11:30:46Z</time>
      </trkpt>
      <trkpt lat="42.364455973729491" lon="2.085076030343771">
        <ele>2522.636</ele>
        <time>2012-06-22T11:30:54Z</time>
      </trkpt>
      <trkpt lat="42.364609027281404" lon="2.085271999239922">
        <ele>2522.6129999999998</ele>
        <time>2012-06-22T11:31:01Z</time>
      </trkpt>
      <trkpt lat="42.364784041419625" lon="2.085480960085988">
        <ele>2523.114</ele>
        <time>2012-06-22T11:31:09Z</time>
      </trkpt>
      <trkpt lat="42.364985961467028" lon="2.085708025842905">
        <ele>2524.172</ele>
        <time>2012-06-22T11:31:18Z</time>
      </trkpt>
      <trkpt lat="42.365230964496732" lon="2.085917992517352">
        <ele>2524.6480000000001</ele>
        <time>2012-06-22T11:31:28Z</time>
      </trkpt>
      <trkpt lat="42.36546297557652" lon="2.086060987785459">
        <ele>2524.183</ele>
        <time>2012-06-22T11:31:36Z</time>
      </trkpt>
      <trkpt lat="42.365661961957812" lon="2.086185039952397">
        <ele>2524.125</ele>
        <time>2012-06-22T11:31:42Z</time>
      </trkpt>
      <trkpt lat="42.365966979414225" lon="2.08636399358511">
        <ele>2523.6170000000002</ele>
        <time>2012-06-22T11:31:50Z</time>
      </trkpt>
      <trkpt lat="42.366089019924402" lon="2.086415039375424">
        <ele>2524.107</ele>
        <time>2012-06-22T11:31:53Z</time>
      </trkpt>
      <trkpt lat="42.366469977423549" lon="2.08651402965188">
        <ele>2525.011</ele>
        <time>2012-06-22T11:32:02Z</time>
      </trkpt>
      <trkpt lat="42.366843977943063" lon="2.086606984958053">
        <ele>2525.518</ele>
        <time>2012-06-22T11:32:11Z</time>
      </trkpt>
      <trkpt lat="42.367133991792798" lon="2.086653001606464">
        <ele>2525.5450000000001</ele>
        <time>2012-06-22T11:32:17Z</time>
      </trkpt>
      <trkpt lat="42.367401039227843" lon="2.086663981899619">
        <ele>2527.9520000000002</ele>
        <time>2012-06-22T11:32:24Z</time>
      </trkpt>
      <trkpt lat="42.367683006450534" lon="2.086663981899619">
        <ele>2529.413</ele>
        <time>2012-06-22T11:32:33Z</time>
      </trkpt>
      <trkpt lat="42.367828013375401" lon="2.086666999384761">
        <ele>2530.3809999999999</ele>
        <time>2012-06-22T11:32:39Z</time>
      </trkpt>
      <trkpt lat="42.368019036948681" lon="2.086659036576748">
        <ele>2532.3470000000002</ele>
        <time>2012-06-22T11:32:48Z</time>
      </trkpt>
      <trkpt lat="42.368176029995084" lon="2.08668602630496">
        <ele>2533.288</ele>
        <time>2012-06-22T11:32:56Z</time>
      </trkpt>
      <trkpt lat="42.368354983627796" lon="2.086719973012805">
        <ele>2534.2240000000002</ele>
        <time>2012-06-22T11:33:05Z</time>
      </trkpt>
      <trkpt lat="42.368514994159341" lon="2.086761966347694">
        <ele>2535.6260000000002</ele>
        <time>2012-06-22T11:33:13Z</time>
      </trkpt>
      <trkpt lat="42.368732001632452" lon="2.086817035451531">
        <ele>2535.607</ele>
        <time>2012-06-22T11:33:23Z</time>
      </trkpt>
      <trkpt lat="42.368915984407067" lon="2.086856011301279">
        <ele>2537.1709999999998</ele>
        <time>2012-06-22T11:33:31Z</time>
      </trkpt>
      <trkpt lat="42.369132991880178" lon="2.086904961615801">
        <ele>2538.5680000000002</ele>
        <time>2012-06-22T11:33:41Z</time>
      </trkpt>
      <trkpt lat="42.369396016001701" lon="2.086958019062877">
        <ele>2538.5949999999998</ele>
        <time>2012-06-22T11:33:51Z</time>
      </trkpt>
      <trkpt lat="42.369578992947936" lon="2.086961036548019">
        <ele>2541.4520000000002</ele>
        <time>2012-06-22T11:33:58Z</time>
      </trkpt>
      <trkpt lat="42.369746966287494" lon="2.087027002125979">
        <ele>2542.3629999999998</ele>
        <time>2012-06-22T11:34:06Z</time>
      </trkpt>
      <trkpt lat="42.369922986254096" lon="2.087114006280899">
        <ele>2543.3110000000001</ele>
        <time>2012-06-22T11:34:14Z</time>
      </trkpt>
      <trkpt lat="42.370113003998995" lon="2.087249960750341">
        <ele>2544.877</ele>
        <time>2012-06-22T11:34:23Z</time>
      </trkpt>
      <trkpt lat="42.370205037295818" lon="2.087375018745661">
        <ele>2545.7350000000001</ele>
        <time>2012-06-22T11:34:29Z</time>
      </trkpt>
      <trkpt lat="42.370243007317185" lon="2.087426986545324">
        <ele>2545.7860000000001</ele>
        <time>2012-06-22T11:34:36Z</time>
      </trkpt>
      <trkpt lat="42.370258010923862" lon="2.087435033172369">
        <ele>2546.2139999999999</ele>
        <time>2012-06-22T11:34:44Z</time>
      </trkpt>
      <trkpt lat="42.370258010923862" lon="2.087435033172369">
        <ele>2546.2069999999999</ele>
        <time>2012-06-22T11:34:59Z</time>
      </trkpt>
      <trkpt lat="42.370258010923862" lon="2.087435033172369">
        <ele>2546.7559999999999</ele>
        <time>2012-06-22T11:35:17Z</time>
      </trkpt>
      <trkpt lat="42.370254993438721" lon="2.087434027343988">
        <ele>2546.7829999999999</ele>
        <time>2012-06-22T11:35:37Z</time>
      </trkpt>
      <trkpt lat="42.370254993438721" lon="2.087434027343988">
        <ele>2546.2399999999998</ele>
        <time>2012-06-22T11:35:52Z</time>
      </trkpt>
      <trkpt lat="42.370258010923862" lon="2.087434027343988">
        <ele>2545.7269999999999</ele>
        <time>2012-06-22T11:36:12Z</time>
      </trkpt>
      <trkpt lat="42.370258010923862" lon="2.087434027343988">
        <ele>2545.748</ele>
        <time>2012-06-22T11:36:29Z</time>
      </trkpt>
      <trkpt lat="42.370254993438721" lon="2.08743603900075">
        <ele>2545.7159999999999</ele>
        <time>2012-06-22T11:36:45Z</time>
      </trkpt>
      <trkpt lat="42.370254993438721" lon="2.08743603900075">
        <ele>2545.7220000000002</ele>
        <time>2012-06-22T11:37:07Z</time>
      </trkpt>
      <trkpt lat="42.370250970125198" lon="2.08743603900075">
        <ele>2545.232</ele>
        <time>2012-06-22T11:37:26Z</time>
      </trkpt>
      <trkpt lat="42.370250970125198" lon="2.08743603900075">
        <ele>2545.2919999999999</ele>
        <time>2012-06-22T11:37:42Z</time>
      </trkpt>
      <trkpt lat="42.370250970125198" lon="2.08743603900075">
        <ele>2545.2109999999998</ele>
        <time>2012-06-22T11:38:00Z</time>
      </trkpt>
      <trkpt lat="42.370250970125198" lon="2.08743603900075">
        <ele>2544.3069999999998</ele>
        <time>2012-06-22T11:38:17Z</time>
      </trkpt>
      <trkpt lat="42.370250970125198" lon="2.08743603900075">
        <ele>2543.8359999999998</ele>
        <time>2012-06-22T11:38:32Z</time>
      </trkpt>
      <trkpt lat="42.370254993438721" lon="2.087435033172369">
        <ele>2543.873</ele>
        <time>2012-06-22T11:38:50Z</time>
      </trkpt>
      <trkpt lat="42.370254993438721" lon="2.087435033172369">
        <ele>2543.3299999999999</ele>
        <time>2012-06-22T11:39:09Z</time>
      </trkpt>
      <trkpt lat="42.370250970125198" lon="2.087436961010099">
        <ele>2543.8270000000002</ele>
        <time>2012-06-22T11:39:27Z</time>
      </trkpt>
      <trkpt lat="42.370250970125198" lon="2.087436961010099">
        <ele>2544.3679999999999</ele>
        <time>2012-06-22T11:39:46Z</time>
      </trkpt>
      <trkpt lat="42.370250970125198" lon="2.08743603900075">
        <ele>2544.8359999999998</ele>
        <time>2012-06-22T11:40:05Z</time>
      </trkpt>
      <trkpt lat="42.370250970125198" lon="2.08743603900075">
        <ele>2544.3620000000001</ele>
        <time>2012-06-22T11:40:24Z</time>
      </trkpt>
      <trkpt lat="42.370247030630708" lon="2.08743897266686">
        <ele>2543.8919999999998</ele>
        <time>2012-06-22T11:40:41Z</time>
      </trkpt>
      <trkpt lat="42.370247030630708" lon="2.08743897266686">
        <ele>2543.873</ele>
        <time>2012-06-22T11:41:01Z</time>
      </trkpt>
      <trkpt lat="42.370250970125198" lon="2.087442995980382">
        <ele>2543.8200000000002</ele>
        <time>2012-06-22T11:41:19Z</time>
      </trkpt>
      <trkpt lat="42.370250970125198" lon="2.087442995980382">
        <ele>2544.3069999999998</ele>
        <time>2012-06-22T11:41:37Z</time>
      </trkpt>
      <trkpt lat="42.370250970125198" lon="2.087442995980382">
        <ele>2543.8119999999999</ele>
        <time>2012-06-22T11:41:54Z</time>
      </trkpt>
      <trkpt lat="42.370247030630708" lon="2.087441990152001">
        <ele>2544.3490000000002</ele>
        <time>2012-06-22T11:42:16Z</time>
      </trkpt>
      <trkpt lat="42.370247030630708" lon="2.087441990152001">
        <ele>2544.8960000000002</ele>
        <time>2012-06-22T11:42:37Z</time>
      </trkpt>
      <trkpt lat="42.370250970125198" lon="2.087444001808763">
        <ele>2544.8629999999998</ele>
        <time>2012-06-22T11:42:54Z</time>
      </trkpt>
      <trkpt lat="42.370250970125198" lon="2.087444001808763">
        <ele>2545.2840000000001</ele>
        <time>2012-06-22T11:43:14Z</time>
      </trkpt>
      <trkpt lat="42.370250970125198" lon="2.087440984323621">
        <ele>2544.3119999999999</ele>
        <time>2012-06-22T11:43:32Z</time>
      </trkpt>
      <trkpt lat="42.370280977338552" lon="2.087406031787396">
        <ele>2544.8679999999999</ele>
        <time>2012-06-22T11:43:40Z</time>
      </trkpt>
      <trkpt lat="42.37027402035892" lon="2.08739303983748">
        <ele>2545.7779999999998</ele>
        <time>2012-06-22T11:43:47Z</time>
      </trkpt>
      <trkpt lat="42.370247030630708" lon="2.087380969896913">
        <ele>2545.7330000000002</ele>
        <time>2012-06-22T11:43:54Z</time>
      </trkpt>
      <trkpt lat="42.370247030630708" lon="2.087380969896913">
        <ele>2546.2260000000001</ele>
        <time>2012-06-22T11:44:07Z</time>
      </trkpt>
      <trkpt lat="42.370247030630708" lon="2.087380969896913">
        <ele>2544.8069999999998</ele>
        <time>2012-06-22T11:44:20Z</time>
      </trkpt>
      <trkpt lat="42.370247030630708" lon="2.087380969896913">
        <ele>2545.75</ele>
        <time>2012-06-22T11:44:32Z</time>
      </trkpt>
      <trkpt lat="42.370262034237385" lon="2.08739697933197">
        <ele>2545.2269999999999</ele>
        <time>2012-06-22T11:44:39Z</time>
      </trkpt>
      <trkpt lat="42.370349960401654" lon="2.087468979880214">
        <ele>2545.7939999999999</ele>
        <time>2012-06-22T11:44:48Z</time>
      </trkpt>
      <trkpt lat="42.370437970384955" lon="2.087504016235471">
        <ele>2547.6610000000001</ele>
        <time>2012-06-22T11:44:56Z</time>
      </trkpt>
      <trkpt lat="42.370524974539876" lon="2.087514996528626">
        <ele>2549.652</ele>
        <time>2012-06-22T11:45:04Z</time>
      </trkpt>
      <trkpt lat="42.370621031150222" lon="2.087491024285555">
        <ele>2550.5900000000001</ele>
        <time>2012-06-22T11:45:12Z</time>
      </trkpt>
      <trkpt lat="42.370720021426678" lon="2.087476020678878">
        <ele>2553.4760000000001</ele>
        <time>2012-06-22T11:45:21Z</time>
      </trkpt>
      <trkpt lat="42.370792021974921" lon="2.087447019293904">
        <ele>2554.4789999999998</ele>
        <time>2012-06-22T11:45:28Z</time>
      </trkpt>
      <trkpt lat="42.370838038623333" lon="2.087435033172369">
        <ele>2554.4050000000002</ele>
        <time>2012-06-22T11:45:32Z</time>
      </trkpt>
      <trkpt lat="42.370925964787602" lon="2.087419023737311">
        <ele>2555.8249999999998</ele>
        <time>2012-06-22T11:45:40Z</time>
      </trkpt>
      <trkpt lat="42.370937028899789" lon="2.087418017908931">
        <ele>2556.3069999999998</ele>
        <time>2012-06-22T11:45:41Z</time>
      </trkpt>
      <trkpt lat="42.371052028611302" lon="2.087367977946997">
        <ele>2558.21</ele>
        <time>2012-06-22T11:45:51Z</time>
      </trkpt>
      <trkpt lat="42.371146995574236" lon="2.087342999875546">
        <ele>2560.1770000000001</ele>
        <time>2012-06-22T11:45:59Z</time>
      </trkpt>
      <trkpt lat="42.371235005557537" lon="2.087316010147333">
        <ele>2561.674</ele>
        <time>2012-06-22T11:46:07Z</time>
      </trkpt>
      <trkpt lat="42.371353022754192" lon="2.087289020419121">
        <ele>2563.5709999999999</ele>
        <time>2012-06-22T11:46:18Z</time>
      </trkpt>
      <trkpt lat="42.371417982503772" lon="2.087269993498921">
        <ele>2564.0520000000001</ele>
        <time>2012-06-22T11:46:24Z</time>
      </trkpt>
      <trkpt lat="42.371528958901763" lon="2.087239986285567">
        <ele>2565.4099999999999</ele>
        <time>2012-06-22T11:46:34Z</time>
      </trkpt>
      <trkpt lat="42.371643036603928" lon="2.08720101043582">
        <ele>2567.326</ele>
        <time>2012-06-22T11:46:45Z</time>
      </trkpt>
      <trkpt lat="42.371776979416609" lon="2.087148958817124">
        <ele>2568.828</ele>
        <time>2012-06-22T11:46:57Z</time>
      </trkpt>
      <trkpt lat="42.371887033805251" lon="2.087117023766041">
        <ele>2570.2890000000002</ele>
        <time>2012-06-22T11:47:07Z</time>
      </trkpt>
      <trkpt lat="42.371963979676366" lon="2.087087016552687">
        <ele>2572.1170000000002</ele>
        <time>2012-06-22T11:47:15Z</time>
      </trkpt>
      <trkpt lat="42.372046960517764" lon="2.087044017389417">
        <ele>2573.607</ele>
        <time>2012-06-22T11:47:23Z</time>
      </trkpt>
      <trkpt lat="42.372059030458331" lon="2.087035970762372">
        <ele>2574.1149999999998</ele>
        <time>2012-06-22T11:47:24Z</time>
      </trkpt>
      <trkpt lat="42.372161960229278" lon="2.086975034326315">
        <ele>2575.0720000000001</ele>
        <time>2012-06-22T11:47:33Z</time>
      </trkpt>
      <trkpt lat="42.372246030718088" lon="2.086918037384749">
        <ele>2576.529</ele>
        <time>2012-06-22T11:47:41Z</time>
      </trkpt>
      <trkpt lat="42.372345020994544" lon="2.086827009916306">
        <ele>2577.9259999999999</ele>
        <time>2012-06-22T11:47:51Z</time>
      </trkpt>
      <trkpt lat="42.372352983802557" lon="2.086818041279912">
        <ele>2578.4569999999999</ele>
        <time>2012-06-22T11:47:52Z</time>
      </trkpt>
      <trkpt lat="42.372414004057646" lon="2.086766995489597">
        <ele>2579.895</ele>
        <time>2012-06-22T11:47:58Z</time>
      </trkpt>
      <trkpt lat="42.372493967413902" lon="2.086683008819819">
        <ele>2580.8609999999999</ele>
        <time>2012-06-22T11:48:07Z</time>
      </trkpt>
      <trkpt lat="42.372578037902713" lon="2.086582006886601">
        <ele>2582.2739999999999</ele>
        <time>2012-06-22T11:48:17Z</time>
      </trkpt>
      <trkpt lat="42.372668981552124" lon="2.086452003568411">
        <ele>2584.6559999999999</ele>
        <time>2012-06-22T11:48:28Z</time>
      </trkpt>
      <trkpt lat="42.372771995142102" lon="2.086303979158402">
        <ele>2587.0210000000002</ele>
        <time>2012-06-22T11:48:39Z</time>
      </trkpt>
      <trkpt lat="42.372837038710713" lon="2.086204988881946">
        <ele>2587.5070000000001</ele>
        <time>2012-06-22T11:48:46Z</time>
      </trkpt>
      <trkpt lat="42.37293996848166" lon="2.086056964471936">
        <ele>2589.5700000000002</ele>
        <time>2012-06-22T11:48:57Z</time>
      </trkpt>
      <trkpt lat="42.372963018715382" lon="2.086012037470937">
        <ele>2589.9870000000001</ele>
        <time>2012-06-22T11:49:00Z</time>
      </trkpt>
      <trkpt lat="42.372993025928736" lon="2.08595403470099">
        <ele>2590.444</ele>
        <time>2012-06-22T11:49:04Z</time>
      </trkpt>
      <trkpt lat="42.373035019263625" lon="2.085886979475617">
        <ele>2590.9409999999998</ele>
        <time>2012-06-22T11:49:09Z</time>
      </trkpt>
      <trkpt lat="42.373115988448262" lon="2.085772985592485">
        <ele>2592.3420000000001</ele>
        <time>2012-06-22T11:49:18Z</time>
      </trkpt>
      <trkpt lat="42.373214978724718" lon="2.085644993931055">
        <ele>2593.8899999999999</ele>
        <time>2012-06-22T11:49:28Z</time>
      </trkpt>
      <trkpt lat="42.373298965394497" lon="2.085538962855935">
        <ele>2595.2460000000001</ele>
        <time>2012-06-22T11:49:37Z</time>
      </trkpt>
      <trkpt lat="42.373383035883307" lon="2.085451036691666">
        <ele>2596.2979999999998</ele>
        <time>2012-06-22T11:49:45Z</time>
      </trkpt>
      <trkpt lat="42.373462999239564" lon="2.085374007001519">
        <ele>2597.1149999999998</ele>
        <time>2012-06-22T11:49:53Z</time>
      </trkpt>
      <trkpt lat="42.373546985909343" lon="2.085303012281656">
        <ele>2599.1260000000002</ele>
        <time>2012-06-22T11:50:01Z</time>
      </trkpt>
      <trkpt lat="42.373630972579122" lon="2.085241992026568">
        <ele>2599.5070000000001</ele>
        <time>2012-06-22T11:50:08Z</time>
      </trkpt>
      <trkpt lat="42.373680006712675" lon="2.085217013955116">
        <ele>2600.0320000000002</ele>
        <time>2012-06-22T11:50:12Z</time>
      </trkpt>
      <trkpt lat="42.373706996440887" lon="2.085216008126736">
        <ele>2600.0889999999999</ele>
        <time>2012-06-22T11:50:14Z</time>
      </trkpt>
      <trkpt lat="42.373801963403821" lon="2.085154987871647">
        <ele>2601.556</ele>
        <time>2012-06-22T11:50:22Z</time>
      </trkpt>
      <trkpt lat="42.373904976993799" lon="2.085102014243603">
        <ele>2603.453</ele>
        <time>2012-06-22T11:50:31Z</time>
      </trkpt>
      <trkpt lat="42.374054007232189" lon="2.085069995373488">
        <ele>2604.4839999999999</ele>
        <time>2012-06-22T11:50:42Z</time>
      </trkpt>
      <trkpt lat="42.374111004173756" lon="2.085065972059965">
        <ele>2605.3620000000001</ele>
        <time>2012-06-22T11:50:46Z</time>
      </trkpt>
      <trkpt lat="42.374241007491946" lon="2.085049962624908">
        <ele>2607.2779999999998</ele>
        <time>2012-06-22T11:50:56Z</time>
      </trkpt>
      <trkpt lat="42.374371010810137" lon="2.085041999816895">
        <ele>2608.748</ele>
        <time>2012-06-22T11:51:06Z</time>
      </trkpt>
      <trkpt lat="42.374492967501283" lon="2.0850779581815">
        <ele>2609.261</ele>
        <time>2012-06-22T11:51:15Z</time>
      </trkpt>
      <trkpt lat="42.374526998028159" lon="2.085084998980165">
        <ele>2610.6170000000002</ele>
        <time>2012-06-22T11:51:17Z</time>
      </trkpt>
      <trkpt lat="42.374577037990093" lon="2.085123974829912">
        <ele>2611.107</ele>
        <time>2012-06-22T11:51:21Z</time>
      </trkpt>
      <trkpt lat="42.374619031324983" lon="2.085199998691678">
        <ele>2612.0369999999998</ele>
        <time>2012-06-22T11:51:27Z</time>
      </trkpt>
      <trkpt lat="42.374663958325982" lon="2.085407031700015">
        <ele>2613.0940000000001</ele>
        <time>2012-06-22T11:51:39Z</time>
      </trkpt>
      <trkpt lat="42.374698994681239" lon="2.085550026968122">
        <ele>2612.5410000000002</ele>
        <time>2012-06-22T11:51:46Z</time>
      </trkpt>
      <trkpt lat="42.374740988016129" lon="2.085685981437564">
        <ele>2614.0479999999998</ele>
        <time>2012-06-22T11:51:53Z</time>
      </trkpt>
      <trkpt lat="42.374797984957695" lon="2.085852026939392">
        <ele>2614.4290000000001</ele>
        <time>2012-06-22T11:52:01Z</time>
      </trkpt>
      <trkpt lat="42.374836038798094" lon="2.08599996753037">
        <ele>2615.4969999999998</ele>
        <time>2012-06-22T11:52:08Z</time>
      </trkpt>
      <trkpt lat="42.374885994940996" lon="2.086181016638875">
        <ele>2616.953</ele>
        <time>2012-06-22T11:52:16Z</time>
      </trkpt>
      <trkpt lat="42.37491600215435" lon="2.086441023275256">
        <ele>2616.971</ele>
        <time>2012-06-22T11:52:25Z</time>
      </trkpt>
      <trkpt lat="42.374920025467873" lon="2.086546970531344">
        <ele>2614.9409999999998</ele>
        <time>2012-06-22T11:52:28Z</time>
      </trkpt>
      <trkpt lat="42.374881971627474" lon="2.086784010753036">
        <ele>2615.915</ele>
        <time>2012-06-22T11:52:35Z</time>
      </trkpt>
      <trkpt lat="42.37480896525085" lon="2.087105959653854">
        <ele>2615.4070000000002</ele>
        <time>2012-06-22T11:52:43Z</time>
      </trkpt>
      <trkpt lat="42.374736964702606" lon="2.087367977946997">
        <ele>2615.9200000000001</ele>
        <time>2012-06-22T11:52:50Z</time>
      </trkpt>
      <trkpt lat="42.374709974974394" lon="2.087556989863515">
        <ele>2617.8870000000002</ele>
        <time>2012-06-22T11:52:56Z</time>
      </trkpt>
      <trkpt lat="42.374709974974394" lon="2.087771985679865">
        <ele>2618.864</ele>
        <time>2012-06-22T11:53:03Z</time>
      </trkpt>
      <trkpt lat="42.374698994681239" lon="2.088100975379348">
        <ele>2620.721</ele>
        <time>2012-06-22T11:53:13Z</time>
      </trkpt>
      <trkpt lat="42.374733025208116" lon="2.088333992287517">
        <ele>2621.7919999999999</ele>
        <time>2012-06-22T11:53:20Z</time>
      </trkpt>
      <trkpt lat="42.374821035191417" lon="2.088664993643761">
        <ele>2622.6300000000001</ele>
        <time>2012-06-22T11:53:30Z</time>
      </trkpt>
      <trkpt lat="42.374832015484571" lon="2.088842019438744">
        <ele>2622.6959999999999</ele>
        <time>2012-06-22T11:53:38Z</time>
      </trkpt>
      <trkpt lat="42.374839978292584" lon="2.088869009166956">
        <ele>2622.6590000000001</ele>
        <time>2012-06-22T11:53:45Z</time>
      </trkpt>
      <trkpt lat="42.374839978292584" lon="2.088869009166956">
        <ele>2623.1030000000001</ele>
        <time>2012-06-22T11:54:00Z</time>
      </trkpt>
      <trkpt lat="42.374839978292584" lon="2.088869009166956">
        <ele>2623.123</ele>
        <time>2012-06-22T11:54:19Z</time>
      </trkpt>
      <trkpt lat="42.374836038798094" lon="2.08887797780335">
        <ele>2622.107</ele>
        <time>2012-06-22T11:54:38Z</time>
      </trkpt>
      <trkpt lat="42.374793961644173" lon="2.089020973071456">
        <ele>2622.1379999999999</ele>
        <time>2012-06-22T11:54:45Z</time>
      </trkpt>
      <trkpt lat="42.374790022149682" lon="2.089230017736554">
        <ele>2621.2350000000001</ele>
        <time>2012-06-22T11:54:51Z</time>
      </trkpt>
      <trkpt lat="42.374824974685907" lon="2.08950100466609">
        <ele>2619.732</ele>
        <time>2012-06-22T11:54:58Z</time>
      </trkpt>
      <trkpt lat="42.374805025756359" lon="2.089576022699475">
        <ele>2618.8690000000001</ele>
        <time>2012-06-22T11:55:00Z</time>
      </trkpt>
      <trkpt lat="42.374709974974394" lon="2.089826976880431">
        <ele>2616.4099999999999</ele>
        <time>2012-06-22T11:55:06Z</time>
      </trkpt>
      <trkpt lat="42.374621964991093" lon="2.090095030143857">
        <ele>2614.9879999999998</ele>
        <time>2012-06-22T11:55:12Z</time>
      </trkpt>
      <trkpt lat="42.374606961384416" lon="2.090335004031658">
        <ele>2614.0439999999999</ele>
        <time>2012-06-22T11:55:18Z</time>
      </trkpt>
      <trkpt lat="42.374619031324983" lon="2.090466013178229">
        <ele>2612.5749999999998</ele>
        <time>2012-06-22T11:55:23Z</time>
      </trkpt>
      <trkpt lat="42.374619031324983" lon="2.090466013178229">
        <ele>2612.5279999999998</ele>
        <time>2012-06-22T11:55:40Z</time>
      </trkpt>
      <trkpt lat="42.374619031324983" lon="2.090466013178229">
        <ele>2613.02</ele>
        <time>2012-06-22T11:55:58Z</time>
      </trkpt>
      <trkpt lat="42.374619031324983" lon="2.090466013178229">
        <ele>2612.5070000000001</ele>
        <time>2012-06-22T11:56:00Z</time>
      </trkpt>
      <trkpt lat="42.374640991911292" lon="2.090588975697756">
        <ele>2612.04</ele>
        <time>2012-06-22T11:56:06Z</time>
      </trkpt>
      <trkpt lat="42.374652978032827" lon="2.090628035366535">
        <ele>2611.6370000000002</ele>
        <time>2012-06-22T11:56:07Z</time>
      </trkpt>
      <trkpt lat="42.374775018543005" lon="2.091000024229288">
        <ele>2608.7240000000002</ele>
        <time>2012-06-22T11:56:15Z</time>
      </trkpt>
      <trkpt lat="42.374878032132983" lon="2.09130696952343">
        <ele>2606.8809999999999</ele>
        <time>2012-06-22T11:56:21Z</time>
      </trkpt>
      <trkpt lat="42.374869985505939" lon="2.091603018343449">
        <ele>2604.8820000000001</ele>
        <time>2012-06-22T11:56:26Z</time>
      </trkpt>
      <trkpt lat="42.374832015484571" lon="2.091723969206214">
        <ele>2603.9200000000001</ele>
        <time>2012-06-22T11:56:28Z</time>
      </trkpt>
      <trkpt lat="42.37480896525085" lon="2.09186302497983">
        <ele>2602.4259999999999</ele>
        <time>2012-06-22T11:56:30Z</time>
      </trkpt>
      <trkpt lat="42.374878032132983" lon="2.092216992750764">
        <ele>2603.9470000000001</ele>
        <time>2012-06-22T11:56:35Z</time>
      </trkpt>
      <trkpt lat="42.37495799548924" lon="2.092464007437229">
        <ele>2605.8290000000002</ele>
        <time>2012-06-22T11:56:42Z</time>
      </trkpt>
      <trkpt lat="42.375004012137651" lon="2.092674979940057">
        <ele>2606.8209999999999</ele>
        <time>2012-06-22T11:56:49Z</time>
      </trkpt>
      <trkpt lat="42.375061009079218" lon="2.092919982969761">
        <ele>2609.2069999999999</ele>
        <time>2012-06-22T11:56:57Z</time>
      </trkpt>
      <trkpt lat="42.375125968828797" lon="2.09319700486958">
        <ele>2609.6469999999999</ele>
        <time>2012-06-22T11:57:07Z</time>
      </trkpt>
      <trkpt lat="42.375210039317608" lon="2.093329019844532">
        <ele>2610.6439999999998</ele>
        <time>2012-06-22T11:57:13Z</time>
      </trkpt>
      <trkpt lat="42.37536602653563" lon="2.093460028991103">
        <ele>2611.1909999999998</ele>
        <time>2012-06-22T11:57:22Z</time>
      </trkpt>
      <trkpt lat="42.375435009598732" lon="2.093662032857537">
        <ele>2611.1280000000002</ele>
        <time>2012-06-22T11:57:30Z</time>
      </trkpt>
      <trkpt lat="42.375442972406745" lon="2.093902006745338">
        <ele>2612.0590000000002</ele>
        <time>2012-06-22T11:57:39Z</time>
      </trkpt>
      <trkpt lat="42.375465016812086" lon="2.094100993126631">
        <ele>2613.0569999999998</ele>
        <time>2012-06-22T11:57:47Z</time>
      </trkpt>
      <trkpt lat="42.375472979620099" lon="2.094301991164684">
        <ele>2614.0230000000001</ele>
        <time>2012-06-22T11:57:55Z</time>
      </trkpt>
      <trkpt lat="42.375499969348311" lon="2.094522016122937">
        <ele>2613.5540000000001</ele>
        <time>2012-06-22T11:58:03Z</time>
      </trkpt>
      <trkpt lat="42.375533999875188" lon="2.094716979190707">
        <ele>2615.4560000000001</ele>
        <time>2012-06-22T11:58:10Z</time>
      </trkpt>
      <trkpt lat="42.375626033172011" lon="2.094865003600717">
        <ele>2616.4110000000001</ele>
        <time>2012-06-22T11:58:19Z</time>
      </trkpt>
      <trkpt lat="42.375716976821423" lon="2.094948990270495">
        <ele>2618.8069999999998</ele>
        <time>2012-06-22T11:58:27Z</time>
      </trkpt>
      <trkpt lat="42.375824013724923" lon="2.095097014680505">
        <ele>2619.7579999999998</ele>
        <time>2012-06-22T11:58:38Z</time>
      </trkpt>
      <trkpt lat="42.37590397708118" lon="2.095224000513554">
        <ele>2621.2350000000001</ele>
        <time>2012-06-22T11:58:47Z</time>
      </trkpt>
      <trkpt lat="42.375915963202715" lon="2.09525803104043">
        <ele>2621.7220000000002</ele>
        <time>2012-06-22T11:58:49Z</time>
      </trkpt>
      <trkpt lat="42.375930966809392" lon="2.095397002995014">
        <ele>2624.1390000000001</ele>
        <time>2012-06-22T11:58:58Z</time>
      </trkpt>
      <trkpt lat="42.375930966809392" lon="2.095573022961617">
        <ele>2624.5900000000001</ele>
        <time>2012-06-22T11:59:08Z</time>
      </trkpt>
      <trkpt lat="42.375873969867826" lon="2.095767986029387">
        <ele>2625.0479999999998</ele>
        <time>2012-06-22T11:59:18Z</time>
      </trkpt>
      <trkpt lat="42.375824013724923" lon="2.095935037359595">
        <ele>2626.0239999999999</ele>
        <time>2012-06-22T11:59:26Z</time>
      </trkpt>
      <trkpt lat="42.375809010118246" lon="2.096082977950573">
        <ele>2627.9989999999998</ele>
        <time>2012-06-22T11:59:33Z</time>
      </trkpt>
      <trkpt lat="42.375831976532936" lon="2.096223039552569">
        <ele>2628.4070000000002</ele>
        <time>2012-06-22T11:59:40Z</time>
      </trkpt>
      <trkpt lat="42.375930966809392" lon="2.096357988193631">
        <ele>2630.3270000000002</ele>
        <time>2012-06-22T11:59:49Z</time>
      </trkpt>
      <trkpt lat="42.37603004090488" lon="2.096429988741875">
        <ele>2631.8069999999998</ele>
        <time>2012-06-22T11:59:56Z</time>
      </trkpt>
      <trkpt lat="42.37616297788918" lon="2.096508024260402">
        <ele>2632.7220000000002</ele>
        <time>2012-06-22T12:00:05Z</time>
      </trkpt>
      <trkpt lat="42.376292981207371" lon="2.096624029800296">
        <ele>2635.1489999999999</ele>
        <time>2012-06-22T12:00:15Z</time>
      </trkpt>
      <trkpt lat="42.376380991190672" lon="2.096749003976584">
        <ele>2638.5360000000001</ele>
        <time>2012-06-22T12:00:23Z</time>
      </trkpt>
      <trkpt lat="42.376418961212039" lon="2.096804995089769">
        <ele>2638.5830000000001</ele>
        <time>2012-06-22T12:00:27Z</time>
      </trkpt>
      <trkpt lat="42.376431031152606" lon="2.096824022009969">
        <ele>2639.4540000000002</ele>
        <time>2012-06-22T12:00:35Z</time>
      </trkpt>
      <trkpt lat="42.376431031152606" lon="2.096824022009969">
        <ele>2637.5219999999999</ele>
        <time>2012-06-22T12:00:52Z</time>
      </trkpt>
      <trkpt lat="42.376431031152606" lon="2.096824022009969">
        <ele>2637.0680000000002</ele>
        <time>2012-06-22T12:01:01Z</time>
      </trkpt>
      <trkpt lat="42.376431031152606" lon="2.096824022009969">
        <ele>2637.5439999999999</ele>
        <time>2012-06-22T12:01:03Z</time>
      </trkpt>
      <trkpt lat="42.376469001173973" lon="2.096987972036004">
        <ele>2638.5050000000001</ele>
        <time>2012-06-22T12:01:11Z</time>
      </trkpt>
      <trkpt lat="42.37650697119534" lon="2.097224006429315">
        <ele>2639.0149999999999</ele>
        <time>2012-06-22T12:01:20Z</time>
      </trkpt>
      <trkpt lat="42.376530021429062" lon="2.097507985308766">
        <ele>2639.9070000000002</ele>
        <time>2012-06-22T12:01:31Z</time>
      </trkpt>
      <trkpt lat="42.376560028642416" lon="2.097720969468355">
        <ele>2641.8470000000002</ele>
        <time>2012-06-22T12:01:39Z</time>
      </trkpt>
      <trkpt lat="42.376587018370628" lon="2.097899001091719">
        <ele>2641.4740000000002</ele>
        <time>2012-06-22T12:01:45Z</time>
      </trkpt>
      <trkpt lat="42.376636974513531" lon="2.098038978874683">
        <ele>2642.3510000000001</ele>
        <time>2012-06-22T12:01:50Z</time>
      </trkpt>
      <trkpt lat="42.37667502835393" lon="2.098150961101055">
        <ele>2639.9879999999998</ele>
        <time>2012-06-22T12:01:53Z</time>
      </trkpt>
      <trkpt lat="42.376789022237062" lon="2.098468970507383">
        <ele>2636.1590000000001</ele>
        <time>2012-06-22T12:01:58Z</time>
      </trkpt>
      <trkpt lat="42.376949032768607" lon="2.098840959370136">
        <ele>2635.6970000000001</ele>
        <time>2012-06-22T12:02:03Z</time>
      </trkpt>
      <trkpt lat="42.377018015831709" lon="2.099001975730062">
        <ele>2636.1729999999998</ele>
        <time>2012-06-22T12:02:07Z</time>
      </trkpt>
      <trkpt lat="42.377055985853076" lon="2.099056039005518">
        <ele>2635.143</ele>
        <time>2012-06-22T12:02:10Z</time>
      </trkpt>
      <trkpt lat="42.377139972522855" lon="2.099209008738399">
        <ele>2636.1640000000002</ele>
        <time>2012-06-22T12:02:18Z</time>
      </trkpt>
      <trkpt lat="42.377242986112833" lon="2.099364995956421">
        <ele>2635.6100000000001</ele>
        <time>2012-06-22T12:02:25Z</time>
      </trkpt>
      <trkpt lat="42.377253966405988" lon="2.099412018433213">
        <ele>2635.107</ele>
        <time>2012-06-22T12:02:27Z</time>
      </trkpt>
      <trkpt lat="42.377273999154568" lon="2.099454011768103">
        <ele>2634.2869999999998</ele>
        <time>2012-06-22T12:02:32Z</time>
      </trkpt>
      <trkpt lat="42.377262013033032" lon="2.099460968747735">
        <ele>2633.7939999999999</ele>
        <time>2012-06-22T12:02:41Z</time>
      </trkpt>
      <trkpt lat="42.377262013033032" lon="2.099460968747735">
        <ele>2633.7310000000002</ele>
        <time>2012-06-22T12:02:49Z</time>
      </trkpt>
      <trkpt lat="42.377262013033032" lon="2.099460968747735">
        <ele>2633.748</ele>
        <time>2012-06-22T12:03:00Z</time>
      </trkpt>
      <trkpt lat="42.377262013033032" lon="2.099460968747735">
        <ele>2635.6489999999999</ele>
        <time>2012-06-22T12:03:10Z</time>
      </trkpt>
      <trkpt lat="42.37725798971951" lon="2.099471027031541">
        <ele>2634.6770000000001</ele>
        <time>2012-06-22T12:03:14Z</time>
      </trkpt>
      <trkpt lat="42.377253966405988" lon="2.099487958475947">
        <ele>2635.143</ele>
        <time>2012-06-22T12:03:20Z</time>
      </trkpt>
      <trkpt lat="42.377253966405988" lon="2.099488964304328">
        <ele>2636.674</ele>
        <time>2012-06-22T12:03:31Z</time>
      </trkpt>
      <trkpt lat="42.377251032739878" lon="2.099476978182793">
        <ele>2637.556</ele>
        <time>2012-06-22T12:03:41Z</time>
      </trkpt>
      <trkpt lat="42.377251032739878" lon="2.099476978182793">
        <ele>2636.1210000000001</ele>
        <time>2012-06-22T12:03:48Z</time>
      </trkpt>
      <trkpt lat="42.377289002761245" lon="2.099412018433213">
        <ele>2627.4070000000002</ele>
        <time>2012-06-22T13:45:21Z</time>
      </trkpt>
      <trkpt lat="42.377289002761245" lon="2.099411012604833">
        <ele>2627.48</ele>
        <time>2012-06-22T13:45:22Z</time>
      </trkpt>
      <trkpt lat="42.377299983054399" lon="2.099473038688302">
        <ele>2627.4169999999999</ele>
        <time>2012-06-22T13:45:29Z</time>
      </trkpt>
      <trkpt lat="42.377267964184284" lon="2.099257037043572">
        <ele>-418.005</ele>
        <time>2007-07-12T17:16:16Z</time>
      </trkpt>
      <trkpt lat="42.377466028556228" lon="2.099389974027872">
        <ele>-418.08800000000002</ele>
        <time>2007-07-12T17:16:16Z</time>
      </trkpt>
      <trkpt lat="42.377680018544197" lon="2.099569011479616">
        <ele>-418.04399999999998</ele>
        <time>2007-07-12T17:16:16Z</time>
      </trkpt>
      <trkpt lat="42.377827959135175" lon="2.09983597509563">
        <ele>-418.02300000000002</ele>
        <time>2007-07-12T17:16:16Z</time>
      </trkpt>
      <trkpt lat="42.378058964386582" lon="2.100148033350706">
        <ele>-418.017</ele>
        <time>2007-07-12T17:16:16Z</time>
      </trkpt>
      <trkpt lat="42.378222998231649" lon="2.10039303638041">
        <ele>-418.03899999999999</ele>
        <time>2007-07-12T17:16:16Z</time>
      </trkpt>
      <trkpt lat="42.378403963521123" lon="2.100750021636486">
        <ele>-418.05799999999999</ele>
        <time>2007-07-12T17:16:16Z</time>
      </trkpt>
      <trkpt lat="42.378503037616611" lon="2.101151011884213">
        <ele>-418.05200000000002</ele>
        <time>2007-07-12T17:16:16Z</time>
      </trkpt>
      <trkpt lat="42.378552993759513" lon="2.101486036553979">
        <ele>-418.017</ele>
        <time>2007-07-12T17:16:16Z</time>
      </trkpt>
      <trkpt lat="42.378684002906084" lon="2.101842015981674">
        <ele>-418.005</ele>
        <time>2007-07-12T17:16:16Z</time>
      </trkpt>
      <trkpt lat="42.378766983747482" lon="2.102087019011378">
        <ele>-418.04000000000002</ele>
        <time>2007-07-12T17:16:16Z</time>
      </trkpt>
      <trkpt lat="42.379261013120413" lon="2.10280098952353">
        <ele>-418.02600000000001</ele>
        <time>2007-07-12T17:16:16Z</time>
      </trkpt>
      <trkpt lat="42.379441978409886" lon="2.103313039988279">
        <ele>-418.07499999999999</ele>
        <time>2007-07-12T17:16:16Z</time>
      </trkpt>
      <trkpt lat="42.379508027806878" lon="2.103759041056037">
        <ele>-418.01900000000001</ele>
        <time>2007-07-12T17:16:16Z</time>
      </trkpt>
      <trkpt lat="42.379639036953449" lon="2.104160031303763">
        <ele>-418.041</ele>
        <time>2007-07-12T17:16:16Z</time>
      </trkpt>
      <trkpt lat="42.379786977544427" lon="2.104382989928126">
        <ele>-418.03100000000001</ele>
        <time>2007-07-12T17:16:16Z</time>
      </trkpt>
      <trkpt lat="42.379885967820883" lon="2.104606032371521">
        <ele>-418.06099999999998</ele>
        <time>2007-07-12T17:16:16Z</time>
      </trkpt>
      <trkpt lat="42.380067016929388" lon="2.104984978213906">
        <ele>-418.00700000000001</ele>
        <time>2007-07-12T17:16:16Z</time>
      </trkpt>
      <trkpt lat="42.380183022469282" lon="2.105297036468983">
        <ele>-418.005</ele>
        <time>2007-07-12T17:16:16Z</time>
      </trkpt>
      <trkpt lat="42.380346972495317" lon="2.105408012866974">
        <ele>-418.05799999999999</ele>
        <time>2007-07-12T17:16:16Z</time>
      </trkpt>
      <trkpt lat="42.380545036867261" lon="2.105586966499686">
        <ele>-418.024</ele>
        <time>2007-07-12T17:16:16Z</time>
      </trkpt>
      <trkpt lat="42.38075902685523" lon="2.10576499812305">
        <ele>-418.03300000000002</ele>
        <time>2007-07-12T17:16:16Z</time>
      </trkpt>
      <trkpt lat="42.3809730168432" lon="2.105988040566444">
        <ele>-418.08699999999999</ele>
        <time>2007-07-12T17:16:16Z</time>
      </trkpt>
      <trkpt lat="42.381153982132673" lon="2.106121983379126">
        <ele>-418.04899999999998</ele>
        <time>2007-07-12T17:16:16Z</time>
      </trkpt>
      <trkpt lat="42.381450030952692" lon="2.106477962806821">
        <ele>-418.05399999999997</ele>
        <time>2007-07-12T17:16:16Z</time>
      </trkpt>
      <trkpt lat="42.3816810362041" lon="2.106812987476587">
        <ele>-418.05599999999998</ele>
        <time>2007-07-12T17:16:16Z</time>
      </trkpt>
      <trkpt lat="42.38174700178206" lon="2.107213977724314">
        <ele>-418.01100000000002</ele>
        <time>2007-07-12T17:16:16Z</time>
      </trkpt>
      <trkpt lat="42.38181296736002" lon="2.107748994603753">
        <ele>-418.005</ele>
        <time>2007-07-12T17:16:16Z</time>
      </trkpt>
      <trkpt lat="42.381862001493573" lon="2.107927026227117">
        <ele>-418.07999999999998</ele>
        <time>2007-07-12T17:16:16Z</time>
      </trkpt>
      <trkpt lat="42.381911035627127" lon="2.10814998485148">
        <ele>-418.01600000000002</ele>
        <time>2007-07-12T17:16:16Z</time>
      </trkpt>
      <trkpt lat="42.382075991481543" lon="2.108439998701215">
        <ele>-418.05500000000001</ele>
        <time>2007-07-12T17:16:16Z</time>
      </trkpt>
      <trkpt lat="42.381943976506591" lon="2.108639990910888">
        <ele>-418.06900000000002</ele>
        <time>2007-07-12T17:16:16Z</time>
      </trkpt>
      <trkpt lat="42.381927967071533" lon="2.108996976166964">
        <ele>-418.07100000000003</ele>
        <time>2007-07-12T17:16:16Z</time>
      </trkpt>
      <trkpt lat="42.381844986230135" lon="2.109085991978645">
        <ele>-418.04199999999997</ele>
        <time>2007-07-12T17:16:16Z</time>
      </trkpt>
      <trkpt lat="42.381796035915613" lon="2.109175007790327">
        <ele>-418.02199999999999</ele>
        <time>2007-07-12T17:16:16Z</time>
      </trkpt>
      <trkpt lat="42.381796035915613" lon="2.109376005828381">
        <ele>-418.01400000000001</ele>
        <time>2007-07-12T17:16:16Z</time>
      </trkpt>
      <trkpt lat="42.381844986230135" lon="2.109486982226372">
        <ele>-418.005</ele>
        <time>2007-07-12T17:16:16Z</time>
      </trkpt>
      <trkpt lat="42.381878010928631" lon="2.109621008858085">
        <ele>-418.01900000000001</ele>
        <time>2007-07-12T17:16:16Z</time>
      </trkpt>
      <trkpt lat="42.381878010928631" lon="2.109731985256076">
        <ele>-418.01499999999999</ele>
        <time>2007-07-12T17:16:16Z</time>
      </trkpt>
      <trkpt lat="42.381911035627127" lon="2.109843967482448">
        <ele>-418.05399999999997</ele>
        <time>2007-07-12T17:16:16Z</time>
      </trkpt>
      <trkpt lat="42.381911035627127" lon="2.10991102270782">
        <ele>-418.06799999999998</ele>
        <time>2007-07-12T17:16:16Z</time>
      </trkpt>
      <trkpt lat="42.381960991770029" lon="2.110067009925842">
        <ele>-418.01999999999998</ele>
        <time>2007-07-12T17:16:16Z</time>
      </trkpt>
      <trkpt lat="42.382042966783047" lon="2.110222997143865">
        <ele>-418.01299999999998</ele>
        <time>2007-07-12T17:16:16Z</time>
      </trkpt>
      <trkpt lat="42.3820920009166" lon="2.110378984361887">
        <ele>-418.04300000000001</ele>
        <time>2007-07-12T17:16:16Z</time>
      </trkpt>
      <trkpt lat="42.38215796649456" lon="2.110602026805282">
        <ele>-418.00700000000001</ele>
        <time>2007-07-12T17:16:16Z</time>
      </trkpt>
      <trkpt lat="42.38215796649456" lon="2.110667992383242">
        <ele>-418.005</ele>
        <time>2007-07-12T17:16:16Z</time>
      </trkpt>
      <trkpt lat="42.38215796649456" lon="2.110935961827636">
        <ele>-418.02600000000001</ele>
        <time>2007-07-12T17:16:16Z</time>
      </trkpt>
      <trkpt lat="42.38215796649456" lon="2.111069988459349">
        <ele>-418.09199999999998</ele>
        <time>2007-07-12T17:16:16Z</time>
      </trkpt>
      <trkpt lat="42.382224015891552" lon="2.111293030902743">
        <ele>-418.01100000000002</ele>
        <time>2007-07-12T17:16:16Z</time>
      </trkpt>
      <trkpt lat="42.382356030866504" lon="2.111381962895393">
        <ele>-418.01499999999999</ele>
        <time>2007-07-12T17:16:16Z</time>
      </trkpt>
      <trkpt lat="42.382356030866504" lon="2.111425967887044">
        <ele>-418.03699999999998</ele>
        <time>2007-07-12T17:16:16Z</time>
      </trkpt>
      <trkpt lat="42.382356030866504" lon="2.111605005338788">
        <ele>-418.06200000000001</ele>
        <time>2007-07-12T17:16:16Z</time>
      </trkpt>
      <trkpt lat="42.382356030866504" lon="2.11173802614212">
        <ele>-418.08300000000003</ele>
        <time>2007-07-12T17:16:16Z</time>
      </trkpt>
      <trkpt lat="42.382356030866504" lon="2.111850008368492">
        <ele>-418.01100000000002</ele>
        <time>2007-07-12T17:16:16Z</time>
      </trkpt>
      <trkpt lat="42.382356030866504" lon="2.111939024180174">
        <ele>-418.005</ele>
        <time>2007-07-12T17:16:16Z</time>
      </trkpt>
      <trkpt lat="42.382257040590048" lon="2.112028039991856">
        <ele>-418.041</ele>
        <time>2007-07-12T17:16:16Z</time>
      </trkpt>
      <trkpt lat="42.382257040590048" lon="2.112229038029909">
        <ele>-418.04700000000003</ele>
        <time>2007-07-12T17:16:16Z</time>
      </trkpt>
    </trkseg>
  </trk>
</gpx>
